<?xml version="1.0" encoding="UTF-8"?>
<gpx creator="Garmin Connect" version="1.1"
  xsi:schemaLocation="http://www.topografix.com/GPX/1/1 http://www.topografix.com/GPX/11.xsd"
  xmlns:ns3="http://www.garmin.com/xmlschemas/TrackPointExtension/v1"
  xmlns="http://www.topografix.com/GPX/1/1"
  xmlns:xsi="http://www.w3.org/2001/XMLSchema-instance" xmlns:ns2="http://www.garmin.com/xmlschemas/GpxExtensions/v3">
  <metadata>
    <name>Arden Challenge Amateurs-Masters Hotton 2025</name>
    <link href="connect.garmin.com">
      <text>Garmin Connect</text>
    </link>
    <time>2025-02-13T14:48:51.000Z</time>
  </metadata>
  <trk>
    <name>Arden Challenge Amateurs-Masters Hotton 2025</name>
    <trkseg>
      <trkpt lat="50.28352042660117" lon="5.439369594678283">
        <ele>173.54</ele>
        <time>2025-02-13T14:48:51.000Z</time>
      </trkpt>
      <trkpt lat="50.283329570665956" lon="5.439198017120361">
        <ele>173.62</ele>
        <time>2025-02-13T14:48:51.004Z</time>
      </trkpt>
      <trkpt lat="50.28302916325629" lon="5.4390692710876465">
        <ele>173.7</ele>
        <time>2025-02-13T14:48:51.013Z</time>
      </trkpt>
      <trkpt lat="50.282857501879334" lon="5.439047813415527">
        <ele>173.78</ele>
        <time>2025-02-13T14:48:51.024Z</time>
      </trkpt>
      <trkpt lat="50.28268575668335" lon="5.4390692710876465">
        <ele>173.86</ele>
        <time>2025-02-13T14:48:51.038Z</time>
      </trkpt>
      <trkpt lat="50.282557010650635" lon="5.4392409324646">
        <ele>174.03</ele>
        <time>2025-02-13T14:48:51.055Z</time>
      </trkpt>
      <trkpt lat="50.28244980610907" lon="5.439541339874268">
        <ele>174.2</ele>
        <time>2025-02-13T14:48:51.075Z</time>
      </trkpt>
      <trkpt lat="50.28238534927368" lon="5.439755916595459">
        <ele>174.4</ele>
        <time>2025-02-13T14:48:51.098Z</time>
      </trkpt>
      <trkpt lat="50.28238534927368" lon="5.4399919509887695">
        <ele>174.57</ele>
        <time>2025-02-13T14:48:51.123Z</time>
      </trkpt>
      <trkpt lat="50.282320976257324" lon="5.440013408660889">
        <ele>174.72</ele>
        <time>2025-02-13T14:48:51.149Z</time>
      </trkpt>
      <trkpt lat="50.282278060913086" lon="5.4401421546936035">
        <ele>174.84</ele>
        <time>2025-02-13T14:48:51.177Z</time>
      </trkpt>
      <trkpt lat="50.28214931488037" lon="5.440185070037842">
        <ele>174.97</ele>
        <time>2025-02-13T14:48:51.207Z</time>
      </trkpt>
      <trkpt lat="50.28199911117554" lon="5.440185070037842">
        <ele>175.05</ele>
        <time>2025-02-13T14:48:51.239Z</time>
      </trkpt>
      <trkpt lat="50.281724352389574" lon="5.439997483044863">
        <ele>175.09</ele>
        <time>2025-02-13T14:48:51.276Z</time>
      </trkpt>
      <trkpt lat="50.28144959360361" lon="5.439809979870915">
        <ele>175.0</ele>
        <time>2025-02-13T14:48:51.318Z</time>
      </trkpt>
      <trkpt lat="50.28117483481765" lon="5.439622476696968">
        <ele>174.88</ele>
        <time>2025-02-13T14:48:51.365Z</time>
      </trkpt>
      <trkpt lat="50.28090074658394" lon="5.439435392618179">
        <ele>174.78</ele>
        <time>2025-02-13T14:48:51.416Z</time>
      </trkpt>
      <trkpt lat="50.28064736165106" lon="5.439262390136719">
        <ele>174.68</ele>
        <time>2025-02-13T14:48:51.472Z</time>
      </trkpt>
      <trkpt lat="50.28038961812854" lon="5.439090561121702">
        <ele>174.58</ele>
        <time>2025-02-13T14:48:51.532Z</time>
      </trkpt>
      <trkpt lat="50.28013229370117" lon="5.4389190673828125">
        <ele>174.49</ele>
        <time>2025-02-13T14:48:51.597Z</time>
      </trkpt>
      <trkpt lat="50.280068004503846" lon="5.438897609710693">
        <ele>174.41</ele>
        <time>2025-02-13T14:48:51.663Z</time>
      </trkpt>
      <trkpt lat="50.27991771697998" lon="5.438940525054932">
        <ele>174.3</ele>
        <time>2025-02-13T14:48:51.731Z</time>
      </trkpt>
      <trkpt lat="50.279831886291504" lon="5.43898344039917">
        <ele>174.19</ele>
        <time>2025-02-13T14:48:51.801Z</time>
      </trkpt>
      <trkpt lat="50.279692159965634" lon="5.439230538904667">
        <ele>174.1</ele>
        <time>2025-02-13T14:48:51.874Z</time>
      </trkpt>
      <trkpt lat="50.279552936553955" lon="5.43947696685791">
        <ele>174.02</ele>
        <time>2025-02-13T14:48:51.950Z</time>
      </trkpt>
      <trkpt lat="50.27935981750488" lon="5.439713001251221">
        <ele>173.97</ele>
        <time>2025-02-13T14:48:52.030Z</time>
      </trkpt>
      <trkpt lat="50.27914524078369" lon="5.439884662628174">
        <ele>173.98</ele>
        <time>2025-02-13T14:48:52.114Z</time>
      </trkpt>
      <trkpt lat="50.279005682095885" lon="5.440002679824829">
        <ele>174.01</ele>
        <time>2025-02-13T14:48:52.201Z</time>
      </trkpt>
      <trkpt lat="50.278866374865174" lon="5.440120697021484">
        <ele>174.09</ele>
        <time>2025-02-13T14:48:52.290Z</time>
      </trkpt>
      <trkpt lat="50.27871608734131" lon="5.44022798538208">
        <ele>174.19</ele>
        <time>2025-02-13T14:48:52.382Z</time>
      </trkpt>
      <trkpt lat="50.278565967455506" lon="5.440335273742676">
        <ele>174.25</ele>
        <time>2025-02-13T14:48:52.477Z</time>
      </trkpt>
      <trkpt lat="50.27840495109558" lon="5.4403244610875845">
        <ele>174.26</ele>
        <time>2025-02-13T14:48:52.574Z</time>
      </trkpt>
      <trkpt lat="50.27824401855469" lon="5.440313816070557">
        <ele>174.24</ele>
        <time>2025-02-13T14:48:52.674Z</time>
      </trkpt>
      <trkpt lat="50.27798912487924" lon="5.4402081202715635">
        <ele>174.27</ele>
        <time>2025-02-13T14:48:52.778Z</time>
      </trkpt>
      <trkpt lat="50.277734315022826" lon="5.44010242447257">
        <ele>174.27</ele>
        <time>2025-02-13T14:48:52.886Z</time>
      </trkpt>
      <trkpt lat="50.27747950516641" lon="5.439996812492609">
        <ele>174.27</ele>
        <time>2025-02-13T14:48:52.998Z</time>
      </trkpt>
      <trkpt lat="50.27722494676709" lon="5.439891284331679">
        <ele>174.27</ele>
        <time>2025-02-13T14:48:53.115Z</time>
      </trkpt>
      <trkpt lat="50.27697801589966" lon="5.439788857474923">
        <ele>174.26</ele>
        <time>2025-02-13T14:48:53.236Z</time>
      </trkpt>
      <trkpt lat="50.276731168851256" lon="5.439686514437199">
        <ele>174.21</ele>
        <time>2025-02-13T14:48:53.361Z</time>
      </trkpt>
      <trkpt lat="50.27648448944092" lon="5.439584255218506">
        <ele>174.12</ele>
        <time>2025-02-13T14:48:53.490Z</time>
      </trkpt>
      <trkpt lat="50.276269828900695" lon="5.439491216093302">
        <ele>174.06</ele>
        <time>2025-02-13T14:48:53.623Z</time>
      </trkpt>
      <trkpt lat="50.2760552521795" lon="5.439398176968098">
        <ele>174.06</ele>
        <time>2025-02-13T14:48:53.759Z</time>
      </trkpt>
      <trkpt lat="50.275840843096375" lon="5.439305305480957">
        <ele>174.04</ele>
        <time>2025-02-13T14:48:53.899Z</time>
      </trkpt>
      <trkpt lat="50.275840759277344" lon="5.439305305480957">
        <ele>174.02</ele>
        <time>2025-02-13T14:48:54.039Z</time>
      </trkpt>
      <trkpt lat="50.27558318339288" lon="5.43919793330133">
        <ele>173.96</ele>
        <time>2025-02-13T14:48:54.183Z</time>
      </trkpt>
      <trkpt lat="50.275325775146484" lon="5.439090728759766">
        <ele>173.91</ele>
        <time>2025-02-13T14:48:54.331Z</time>
      </trkpt>
      <trkpt lat="50.275025367736816" lon="5.439026355743408">
        <ele>173.92</ele>
        <time>2025-02-13T14:48:54.484Z</time>
      </trkpt>
      <trkpt lat="50.27485362254083" lon="5.439015543088317">
        <ele>173.93</ele>
        <time>2025-02-13T14:48:54.640Z</time>
      </trkpt>
      <trkpt lat="50.27468204498291" lon="5.439004898071289">
        <ele>173.94</ele>
        <time>2025-02-13T14:48:54.799Z</time>
      </trkpt>
      <trkpt lat="50.2744460105896" lon="5.439090728759766">
        <ele>174.03</ele>
        <time>2025-02-13T14:48:54.961Z</time>
      </trkpt>
      <trkpt lat="50.27416999451816" lon="5.439234813675284">
        <ele>174.18</ele>
        <time>2025-02-13T14:48:55.128Z</time>
      </trkpt>
      <trkpt lat="50.273894062265754" lon="5.439378982409835">
        <ele>174.35</ele>
        <time>2025-02-13T14:48:55.300Z</time>
      </trkpt>
      <trkpt lat="50.273618046194315" lon="5.439523067325354">
        <ele>174.39</ele>
        <time>2025-02-13T14:48:55.476Z</time>
      </trkpt>
      <trkpt lat="50.27334211394191" lon="5.439667236059904">
        <ele>174.35</ele>
        <time>2025-02-13T14:48:55.657Z</time>
      </trkpt>
      <trkpt lat="50.27306609787047" lon="5.439811320975423">
        <ele>174.37</ele>
        <time>2025-02-13T14:48:55.843Z</time>
      </trkpt>
      <trkpt lat="50.27279016561806" lon="5.439955405890942">
        <ele>174.42</ele>
        <time>2025-02-13T14:48:56.033Z</time>
      </trkpt>
      <trkpt lat="50.27251490391791" lon="5.440099239349365">
        <ele>174.53</ele>
        <time>2025-02-13T14:48:56.228Z</time>
      </trkpt>
      <trkpt lat="50.27226470410824" lon="5.440222034230828">
        <ele>174.64</ele>
        <time>2025-02-13T14:48:56.427Z</time>
      </trkpt>
      <trkpt lat="50.27201450429857" lon="5.440344912931323">
        <ele>174.78</ele>
        <time>2025-02-13T14:48:56.630Z</time>
      </trkpt>
      <trkpt lat="50.2717643044889" lon="5.440467791631818">
        <ele>174.9</ele>
        <time>2025-02-13T14:48:56.838Z</time>
      </trkpt>
      <trkpt lat="50.271514523774385" lon="5.440590586513281">
        <ele>174.92</ele>
        <time>2025-02-13T14:48:57.050Z</time>
      </trkpt>
      <trkpt lat="50.271291732788086" lon="5.440700054168701">
        <ele>174.94</ele>
        <time>2025-02-13T14:48:57.266Z</time>
      </trkpt>
      <trkpt lat="50.271098613739014" lon="5.440871715545654">
        <ele>175.0</ele>
        <time>2025-02-13T14:48:57.485Z</time>
      </trkpt>
      <trkpt lat="50.27100180275738" lon="5.441086627542973">
        <ele>175.08</ele>
        <time>2025-02-13T14:48:57.707Z</time>
      </trkpt>
      <trkpt lat="50.27090549468994" lon="5.441300868988037">
        <ele>175.2</ele>
        <time>2025-02-13T14:48:57.932Z</time>
      </trkpt>
      <trkpt lat="50.270819664001465" lon="5.4416656494140625">
        <ele>175.32</ele>
        <time>2025-02-13T14:48:58.161Z</time>
      </trkpt>
      <trkpt lat="50.27075529098511" lon="5.441944599151611">
        <ele>175.44</ele>
        <time>2025-02-13T14:48:58.393Z</time>
      </trkpt>
      <trkpt lat="50.27064775116742" lon="5.4422240518033504">
        <ele>175.55</ele>
        <time>2025-02-13T14:48:58.628Z</time>
      </trkpt>
      <trkpt lat="50.270540714263916" lon="5.442502498626709">
        <ele>175.71</ele>
        <time>2025-02-13T14:48:58.866Z</time>
      </trkpt>
      <trkpt lat="50.2704188413918" lon="5.442781951278448">
        <ele>175.83</ele>
        <time>2025-02-13T14:48:59.108Z</time>
      </trkpt>
      <trkpt lat="50.27029705233872" lon="5.443061487749219">
        <ele>175.95</ele>
        <time>2025-02-13T14:48:59.353Z</time>
      </trkpt>
      <trkpt lat="50.27017593383789" lon="5.4433393478393555">
        <ele>176.13</ele>
        <time>2025-02-13T14:48:59.602Z</time>
      </trkpt>
      <trkpt lat="50.269995387643576" lon="5.443648807704449">
        <ele>176.29</ele>
        <time>2025-02-13T14:48:59.855Z</time>
      </trkpt>
      <trkpt lat="50.26981484144926" lon="5.443958267569542">
        <ele>176.48</ele>
        <time>2025-02-13T14:49:00.112Z</time>
      </trkpt>
      <trkpt lat="50.26963437907398" lon="5.444267727434635">
        <ele>176.66</ele>
        <time>2025-02-13T14:49:00.374Z</time>
      </trkpt>
      <trkpt lat="50.26945383287966" lon="5.44457727111876">
        <ele>176.9</ele>
        <time>2025-02-13T14:49:00.640Z</time>
      </trkpt>
      <trkpt lat="50.26927479542792" lon="5.444884300231934">
        <ele>177.13</ele>
        <time>2025-02-13T14:49:00.910Z</time>
      </trkpt>
      <trkpt lat="50.26927471160889" lon="5.444884300231934">
        <ele>177.33</ele>
        <time>2025-02-13T14:49:01.180Z</time>
      </trkpt>
      <trkpt lat="50.269093830138445" lon="5.445276154205203">
        <ele>177.5</ele>
        <time>2025-02-13T14:49:01.455Z</time>
      </trkpt>
      <trkpt lat="50.26901730336249" lon="5.445442199707031">
        <ele>177.68</ele>
        <time>2025-02-13T14:49:01.732Z</time>
      </trkpt>
      <trkpt lat="50.268920408561826" lon="5.445775547996163">
        <ele>177.88</ele>
        <time>2025-02-13T14:49:02.013Z</time>
      </trkpt>
      <trkpt lat="50.268824100494385" lon="5.446107387542725">
        <ele>178.08</ele>
        <time>2025-02-13T14:49:02.298Z</time>
      </trkpt>
      <trkpt lat="50.268748831003904" lon="5.446354653686285">
        <ele>178.29</ele>
        <time>2025-02-13T14:49:02.585Z</time>
      </trkpt>
      <trkpt lat="50.26867398060858" lon="5.446600914001465">
        <ele>178.45</ele>
        <time>2025-02-13T14:49:02.875Z</time>
      </trkpt>
      <trkpt lat="50.26867389678955" lon="5.446600914001465">
        <ele>178.59</ele>
        <time>2025-02-13T14:49:03.165Z</time>
      </trkpt>
      <trkpt lat="50.26858781464398" lon="5.446858908981085">
        <ele>178.73</ele>
        <time>2025-02-13T14:49:03.458Z</time>
      </trkpt>
      <trkpt lat="50.2685022354126" lon="5.447115898132324">
        <ele>178.83</ele>
        <time>2025-02-13T14:49:03.754Z</time>
      </trkpt>
      <trkpt lat="50.268394947052" lon="5.447287559509277">
        <ele>178.95</ele>
        <time>2025-02-13T14:49:04.053Z</time>
      </trkpt>
      <trkpt lat="50.26856669224799" lon="5.4474592208862305">
        <ele>179.06</ele>
        <time>2025-02-13T14:49:04.355Z</time>
      </trkpt>
      <trkpt lat="50.26871689595282" lon="5.4476094245910645">
        <ele>179.1</ele>
        <time>2025-02-13T14:49:04.660Z</time>
      </trkpt>
      <trkpt lat="50.268919402733445" lon="5.447843195870519">
        <ele>179.12</ele>
        <time>2025-02-13T14:49:04.969Z</time>
      </trkpt>
      <trkpt lat="50.2691219933331" lon="5.448076967149973">
        <ele>179.14</ele>
        <time>2025-02-13T14:49:05.282Z</time>
      </trkpt>
      <trkpt lat="50.269323997199535" lon="5.448310067877173">
        <ele>179.14</ele>
        <time>2025-02-13T14:49:05.599Z</time>
      </trkpt>
      <trkpt lat="50.269553661346436" lon="5.448575019836426">
        <ele>179.1</ele>
        <time>2025-02-13T14:49:05.920Z</time>
      </trkpt>
      <trkpt lat="50.269832694903016" lon="5.448789596557617">
        <ele>179.05</ele>
        <time>2025-02-13T14:49:06.246Z</time>
      </trkpt>
      <trkpt lat="50.26989698410034" lon="5.4488325119018555">
        <ele>178.99</ele>
        <time>2025-02-13T14:49:06.574Z</time>
      </trkpt>
      <trkpt lat="50.270165372639894" lon="5.4490149859339">
        <ele>178.93</ele>
        <time>2025-02-13T14:49:06.906Z</time>
      </trkpt>
      <trkpt lat="50.27043350972235" lon="5.449197292327881">
        <ele>178.89</ele>
        <time>2025-02-13T14:49:07.243Z</time>
      </trkpt>
      <trkpt lat="50.27043342590332" lon="5.449197292327881">
        <ele>178.81</ele>
        <time>2025-02-13T14:49:07.580Z</time>
      </trkpt>
      <trkpt lat="50.27064808644354" lon="5.449347496032715">
        <ele>178.75</ele>
        <time>2025-02-13T14:49:07.921Z</time>
      </trkpt>
      <trkpt lat="50.2708625793457" lon="5.449497699737549">
        <ele>178.67</ele>
        <time>2025-02-13T14:49:08.266Z</time>
      </trkpt>
      <trkpt lat="50.27102359570563" lon="5.4496049880981445">
        <ele>178.56</ele>
        <time>2025-02-13T14:49:08.613Z</time>
      </trkpt>
      <trkpt lat="50.27118452824652" lon="5.44971227645874">
        <ele>178.41</ele>
        <time>2025-02-13T14:49:08.963Z</time>
      </trkpt>
      <trkpt lat="50.2714635618031" lon="5.449905479326844">
        <ele>178.23</ele>
        <time>2025-02-13T14:49:09.318Z</time>
      </trkpt>
      <trkpt lat="50.271742679178715" lon="5.450098682194948">
        <ele>178.05</ele>
        <time>2025-02-13T14:49:09.678Z</time>
      </trkpt>
      <trkpt lat="50.27202179655433" lon="5.450291885063052">
        <ele>177.88</ele>
        <time>2025-02-13T14:49:10.043Z</time>
      </trkpt>
      <trkpt lat="50.27230032719672" lon="5.450484752655029">
        <ele>177.67</ele>
        <time>2025-02-13T14:49:10.413Z</time>
      </trkpt>
      <trkpt lat="50.272343242540956" lon="5.450506210327148">
        <ele>177.5</ele>
        <time>2025-02-13T14:49:10.783Z</time>
      </trkpt>
      <trkpt lat="50.27260081842542" lon="5.450685080140829">
        <ele>177.29</ele>
        <time>2025-02-13T14:49:11.158Z</time>
      </trkpt>
      <trkpt lat="50.27285839430988" lon="5.45086394995451">
        <ele>177.1</ele>
        <time>2025-02-13T14:49:11.537Z</time>
      </trkpt>
      <trkpt lat="50.27311563491821" lon="5.451042652130127">
        <ele>176.94</ele>
        <time>2025-02-13T14:49:11.921Z</time>
      </trkpt>
      <trkpt lat="50.27335896156728" lon="5.451207188889384">
        <ele>176.81</ele>
        <time>2025-02-13T14:49:12.309Z</time>
      </trkpt>
      <trkpt lat="50.27360228821635" lon="5.451371809467673">
        <ele>176.71</ele>
        <time>2025-02-13T14:49:12.701Z</time>
      </trkpt>
      <trkpt lat="50.273845279589295" lon="5.451536178588867">
        <ele>176.62</ele>
        <time>2025-02-13T14:49:13.098Z</time>
      </trkpt>
      <trkpt lat="50.273845195770264" lon="5.451536178588867">
        <ele>176.5</ele>
        <time>2025-02-13T14:49:13.495Z</time>
      </trkpt>
      <trkpt lat="50.274108136072755" lon="5.451715970411897">
        <ele>176.37</ele>
        <time>2025-02-13T14:49:13.896Z</time>
      </trkpt>
      <trkpt lat="50.27437116019428" lon="5.451895762234926">
        <ele>176.23</ele>
        <time>2025-02-13T14:49:14.302Z</time>
      </trkpt>
      <trkpt lat="50.27463410049677" lon="5.452075554057956">
        <ele>176.12</ele>
        <time>2025-02-13T14:49:14.712Z</time>
      </trkpt>
      <trkpt lat="50.27489712461829" lon="5.452255345880985">
        <ele>176.02</ele>
        <time>2025-02-13T14:49:15.127Z</time>
      </trkpt>
      <trkpt lat="50.275160148739815" lon="5.452435137704015">
        <ele>175.97</ele>
        <time>2025-02-13T14:49:15.547Z</time>
      </trkpt>
      <trkpt lat="50.275423089042306" lon="5.452614929527044">
        <ele>175.97</ele>
        <time>2025-02-13T14:49:15.971Z</time>
      </trkpt>
      <trkpt lat="50.27568611316383" lon="5.452794721350074">
        <ele>175.9</ele>
        <time>2025-02-13T14:49:16.400Z</time>
      </trkpt>
      <trkpt lat="50.27594804763794" lon="5.45297384262085">
        <ele>175.83</ele>
        <time>2025-02-13T14:49:16.833Z</time>
      </trkpt>
      <trkpt lat="50.27605541981757" lon="5.453038215637207">
        <ele>175.77</ele>
        <time>2025-02-13T14:49:17.268Z</time>
      </trkpt>
      <trkpt lat="50.27624862268567" lon="5.453166961669922">
        <ele>175.69</ele>
        <time>2025-02-13T14:49:17.707Z</time>
      </trkpt>
      <trkpt lat="50.27644165791571" lon="5.453295707702637">
        <ele>175.63</ele>
        <time>2025-02-13T14:49:18.149Z</time>
      </trkpt>
      <trkpt lat="50.276548862457275" lon="5.453381538391113">
        <ele>175.6</ele>
        <time>2025-02-13T14:49:18.593Z</time>
      </trkpt>
      <trkpt lat="50.2768240403384" lon="5.453568873926997">
        <ele>175.56</ele>
        <time>2025-02-13T14:49:19.042Z</time>
      </trkpt>
      <trkpt lat="50.27709921821952" lon="5.453756209462881">
        <ele>175.51</ele>
        <time>2025-02-13T14:49:19.496Z</time>
      </trkpt>
      <trkpt lat="50.27737439610064" lon="5.453943544998765">
        <ele>175.44</ele>
        <time>2025-02-13T14:49:19.954Z</time>
      </trkpt>
      <trkpt lat="50.27764957398176" lon="5.454130880534649">
        <ele>175.42</ele>
        <time>2025-02-13T14:49:20.417Z</time>
      </trkpt>
      <trkpt lat="50.277924751862884" lon="5.4543182998895645">
        <ele>175.53</ele>
        <time>2025-02-13T14:49:20.885Z</time>
      </trkpt>
      <trkpt lat="50.278199929744005" lon="5.454505635425448">
        <ele>175.57</ele>
        <time>2025-02-13T14:49:21.358Z</time>
      </trkpt>
      <trkpt lat="50.27847510762513" lon="5.454692970961332">
        <ele>175.56</ele>
        <time>2025-02-13T14:49:21.836Z</time>
      </trkpt>
      <trkpt lat="50.27875036932528" lon="5.454880306497216">
        <ele>175.58</ele>
        <time>2025-02-13T14:49:22.318Z</time>
      </trkpt>
      <trkpt lat="50.2790255472064" lon="5.455067725852132">
        <ele>175.67</ele>
        <time>2025-02-13T14:49:22.805Z</time>
      </trkpt>
      <trkpt lat="50.27930072508752" lon="5.455255061388016">
        <ele>175.77</ele>
        <time>2025-02-13T14:49:23.297Z</time>
      </trkpt>
      <trkpt lat="50.279574394226074" lon="5.455441474914551">
        <ele>175.85</ele>
        <time>2025-02-13T14:49:23.794Z</time>
      </trkpt>
      <trkpt lat="50.2796817664057" lon="5.455527305603027">
        <ele>175.95</ele>
        <time>2025-02-13T14:49:24.293Z</time>
      </trkpt>
      <trkpt lat="50.279850075021386" lon="5.455641718581319">
        <ele>176.07</ele>
        <time>2025-02-13T14:49:24.795Z</time>
      </trkpt>
      <trkpt lat="50.28001821599901" lon="5.45575613155961">
        <ele>176.21</ele>
        <time>2025-02-13T14:49:25.300Z</time>
      </trkpt>
      <trkpt lat="50.28026380576193" lon="5.455923099070787">
        <ele>176.35</ele>
        <time>2025-02-13T14:49:25.809Z</time>
      </trkpt>
      <trkpt lat="50.28050939552486" lon="5.4560900665819645">
        <ele>176.56</ele>
        <time>2025-02-13T14:49:26.322Z</time>
      </trkpt>
      <trkpt lat="50.28075465001166" lon="5.456256866455078">
        <ele>176.76</ele>
        <time>2025-02-13T14:49:26.840Z</time>
      </trkpt>
      <trkpt lat="50.28100501745939" lon="5.456428611651063">
        <ele>176.98</ele>
        <time>2025-02-13T14:49:27.362Z</time>
      </trkpt>
      <trkpt lat="50.28125546872616" lon="5.456600356847048">
        <ele>177.28</ele>
        <time>2025-02-13T14:49:27.888Z</time>
      </trkpt>
      <trkpt lat="50.2815055847168" lon="5.4567718505859375">
        <ele>177.59</ele>
        <time>2025-02-13T14:49:28.419Z</time>
      </trkpt>
      <trkpt lat="50.28146971017122" lon="5.4571806360036135">
        <ele>177.84</ele>
        <time>2025-02-13T14:49:28.954Z</time>
      </trkpt>
      <trkpt lat="50.28143391944468" lon="5.457589505240321">
        <ele>178.15</ele>
        <time>2025-02-13T14:49:29.493Z</time>
      </trkpt>
      <trkpt lat="50.28139838017523" lon="5.4579949378967285">
        <ele>178.48</ele>
        <time>2025-02-13T14:49:30.036Z</time>
      </trkpt>
      <trkpt lat="50.28137683868408" lon="5.458273887634277">
        <ele>178.79</ele>
        <time>2025-02-13T14:49:30.582Z</time>
      </trkpt>
      <trkpt lat="50.28138756752014" lon="5.4586611315608025">
        <ele>179.1</ele>
        <time>2025-02-13T14:49:31.132Z</time>
      </trkpt>
      <trkpt lat="50.2813982963562" lon="5.459046363830566">
        <ele>179.41</ele>
        <time>2025-02-13T14:49:31.686Z</time>
      </trkpt>
      <trkpt lat="50.28141438961029" lon="5.459487419575453">
        <ele>179.74</ele>
        <time>2025-02-13T14:49:32.245Z</time>
      </trkpt>
      <trkpt lat="50.28143056668341" lon="5.459928559139371">
        <ele>180.11</ele>
        <time>2025-02-13T14:49:32.808Z</time>
      </trkpt>
      <trkpt lat="50.2814466599375" lon="5.460369698703289">
        <ele>180.5</ele>
        <time>2025-02-13T14:49:33.376Z</time>
      </trkpt>
      <trkpt lat="50.28146266937256" lon="5.460805892944336">
        <ele>180.83</ele>
        <time>2025-02-13T14:49:33.948Z</time>
      </trkpt>
      <trkpt lat="50.28149493969977" lon="5.4612254071980715">
        <ele>181.22</ele>
        <time>2025-02-13T14:49:34.525Z</time>
      </trkpt>
      <trkpt lat="50.281527042388916" lon="5.461642742156982">
        <ele>181.61</ele>
        <time>2025-02-13T14:49:35.106Z</time>
      </trkpt>
      <trkpt lat="50.281580770388246" lon="5.46205504797399">
        <ele>181.97</ele>
        <time>2025-02-13T14:49:35.691Z</time>
      </trkpt>
      <trkpt lat="50.28163458220661" lon="5.46246743761003">
        <ele>182.34</ele>
        <time>2025-02-13T14:49:36.281Z</time>
      </trkpt>
      <trkpt lat="50.28168839402497" lon="5.46287982724607">
        <ele>182.71</ele>
        <time>2025-02-13T14:49:36.875Z</time>
      </trkpt>
      <trkpt lat="50.28174220584333" lon="5.46329221688211">
        <ele>183.0</ele>
        <time>2025-02-13T14:49:37.473Z</time>
      </trkpt>
      <trkpt lat="50.28179593384266" lon="5.463704606518149">
        <ele>183.28</ele>
        <time>2025-02-13T14:49:38.075Z</time>
      </trkpt>
      <trkpt lat="50.2818489074707" lon="5.464110374450684">
        <ele>183.58</ele>
        <time>2025-02-13T14:49:38.682Z</time>
      </trkpt>
      <trkpt lat="50.28196717612445" lon="5.464558973908424">
        <ele>183.92</ele>
        <time>2025-02-13T14:49:39.294Z</time>
      </trkpt>
      <trkpt lat="50.282085528597236" lon="5.465007573366165">
        <ele>184.26</ele>
        <time>2025-02-13T14:49:39.911Z</time>
      </trkpt>
      <trkpt lat="50.282203797250986" lon="5.465456172823906">
        <ele>184.58</ele>
        <time>2025-02-13T14:49:40.533Z</time>
      </trkpt>
      <trkpt lat="50.28232214972377" lon="5.465904772281647">
        <ele>184.94</ele>
        <time>2025-02-13T14:49:41.160Z</time>
      </trkpt>
      <trkpt lat="50.28244041837752" lon="5.4663533717393875">
        <ele>185.29</ele>
        <time>2025-02-13T14:49:41.792Z</time>
      </trkpt>
      <trkpt lat="50.2825587708503" lon="5.466801971197128">
        <ele>185.63</ele>
        <time>2025-02-13T14:49:42.429Z</time>
      </trkpt>
      <trkpt lat="50.28267703950405" lon="5.467250654473901">
        <ele>185.98</ele>
        <time>2025-02-13T14:49:43.071Z</time>
      </trkpt>
      <trkpt lat="50.28279539197683" lon="5.467699253931642">
        <ele>186.41</ele>
        <time>2025-02-13T14:49:43.718Z</time>
      </trkpt>
      <trkpt lat="50.282913660630584" lon="5.468147853389382">
        <ele>186.78</ele>
        <time>2025-02-13T14:49:44.370Z</time>
      </trkpt>
      <trkpt lat="50.283032013103366" lon="5.468596452847123">
        <ele>187.18</ele>
        <time>2025-02-13T14:49:45.027Z</time>
      </trkpt>
      <trkpt lat="50.283150281757116" lon="5.469045136123896">
        <ele>187.61</ele>
        <time>2025-02-13T14:49:45.688Z</time>
      </trkpt>
      <trkpt lat="50.2832686342299" lon="5.469493735581636">
        <ele>187.95</ele>
        <time>2025-02-13T14:49:46.354Z</time>
      </trkpt>
      <trkpt lat="50.28338690288365" lon="5.469942335039377">
        <ele>188.26</ele>
        <time>2025-02-13T14:49:47.025Z</time>
      </trkpt>
      <trkpt lat="50.28350114822388" lon="5.470376014709473">
        <ele>188.62</ele>
        <time>2025-02-13T14:49:47.701Z</time>
      </trkpt>
      <trkpt lat="50.2836140524596" lon="5.470789996907115">
        <ele>189.01</ele>
        <time>2025-02-13T14:49:48.382Z</time>
      </trkpt>
      <trkpt lat="50.28372695669532" lon="5.471204062923789">
        <ele>189.34</ele>
        <time>2025-02-13T14:49:49.067Z</time>
      </trkpt>
      <trkpt lat="50.28383986093104" lon="5.471618128940463">
        <ele>189.64</ele>
        <time>2025-02-13T14:49:49.757Z</time>
      </trkpt>
      <trkpt lat="50.28395284898579" lon="5.472032111138105">
        <ele>189.94</ele>
        <time>2025-02-13T14:49:50.452Z</time>
      </trkpt>
      <trkpt lat="50.28406575322151" lon="5.472446177154779">
        <ele>190.29</ele>
        <time>2025-02-13T14:49:51.151Z</time>
      </trkpt>
      <trkpt lat="50.28417865745723" lon="5.4728602431714535">
        <ele>190.62</ele>
        <time>2025-02-13T14:49:51.855Z</time>
      </trkpt>
      <trkpt lat="50.28429156169295" lon="5.4732743091881275">
        <ele>190.97</ele>
        <time>2025-02-13T14:49:52.564Z</time>
      </trkpt>
      <trkpt lat="50.28440237045288" lon="5.47368049621582">
        <ele>191.37</ele>
        <time>2025-02-13T14:49:53.277Z</time>
      </trkpt>
      <trkpt lat="50.28441519476473" lon="5.473730284720659">
        <ele>191.69</ele>
        <time>2025-02-13T14:49:53.991Z</time>
      </trkpt>
      <trkpt lat="50.2845255844295" lon="5.474158180877566">
        <ele>192.02</ele>
        <time>2025-02-13T14:49:54.709Z</time>
      </trkpt>
      <trkpt lat="50.2846360579133" lon="5.474586077034473">
        <ele>192.27</ele>
        <time>2025-02-13T14:49:55.432Z</time>
      </trkpt>
      <trkpt lat="50.28474569320679" lon="5.475010871887207">
        <ele>192.6</ele>
        <time>2025-02-13T14:49:56.160Z</time>
      </trkpt>
      <trkpt lat="50.28484778478742" lon="5.475344220176339">
        <ele>192.92</ele>
        <time>2025-02-13T14:49:56.892Z</time>
      </trkpt>
      <trkpt lat="50.28494996018708" lon="5.475677568465471">
        <ele>193.24</ele>
        <time>2025-02-13T14:49:57.627Z</time>
      </trkpt>
      <trkpt lat="50.28505213558674" lon="5.476010916754603">
        <ele>193.56</ele>
        <time>2025-02-13T14:49:58.366Z</time>
      </trkpt>
      <trkpt lat="50.28515338897705" lon="5.476341247558594">
        <ele>193.86</ele>
        <time>2025-02-13T14:49:59.109Z</time>
      </trkpt>
      <trkpt lat="50.28526076115668" lon="5.476641654968262">
        <ele>194.14</ele>
        <time>2025-02-13T14:49:59.856Z</time>
      </trkpt>
      <trkpt lat="50.28532521799207" lon="5.476985815912485">
        <ele>194.34</ele>
        <time>2025-02-13T14:50:00.606Z</time>
      </trkpt>
      <trkpt lat="50.28538942337036" lon="5.477328300476074">
        <ele>194.51</ele>
        <time>2025-02-13T14:50:01.360Z</time>
      </trkpt>
      <trkpt lat="50.28541096486151" lon="5.4775214195251465">
        <ele>194.63</ele>
        <time>2025-02-13T14:50:02.116Z</time>
      </trkpt>
      <trkpt lat="50.28536796569824" lon="5.477714538574219">
        <ele>194.72</ele>
        <time>2025-02-13T14:50:02.874Z</time>
      </trkpt>
      <trkpt lat="50.28525506146252" lon="5.478085521608591">
        <ele>194.8</ele>
        <time>2025-02-13T14:50:03.636Z</time>
      </trkpt>
      <trkpt lat="50.2851421572268" lon="5.478456504642963">
        <ele>194.84</ele>
        <time>2025-02-13T14:50:04.402Z</time>
      </trkpt>
      <trkpt lat="50.28502925299108" lon="5.478827487677336">
        <ele>194.92</ele>
        <time>2025-02-13T14:50:05.173Z</time>
      </trkpt>
      <trkpt lat="50.28491743840277" lon="5.4791951179504395">
        <ele>195.01</ele>
        <time>2025-02-13T14:50:05.948Z</time>
      </trkpt>
      <trkpt lat="50.28484208509326" lon="5.479485467076302">
        <ele>195.06</ele>
        <time>2025-02-13T14:50:06.726Z</time>
      </trkpt>
      <trkpt lat="50.284767150878906" lon="5.479774475097656">
        <ele>195.15</ele>
        <time>2025-02-13T14:50:07.507Z</time>
      </trkpt>
      <trkpt lat="50.28489589691162" lon="5.479989051818848">
        <ele>195.24</ele>
        <time>2025-02-13T14:50:08.291Z</time>
      </trkpt>
      <trkpt lat="50.28506772592664" lon="5.480246879160404">
        <ele>195.28</ele>
        <time>2025-02-13T14:50:09.079Z</time>
      </trkpt>
      <trkpt lat="50.28523921966553" lon="5.480504035949707">
        <ele>195.31</ele>
        <time>2025-02-13T14:50:09.871Z</time>
      </trkpt>
      <trkpt lat="50.28541096486151" lon="5.480740070343018">
        <ele>195.37</ele>
        <time>2025-02-13T14:50:10.666Z</time>
      </trkpt>
      <trkpt lat="50.28547525405884" lon="5.480890274047852">
        <ele>195.45</ele>
        <time>2025-02-13T14:50:11.463Z</time>
      </trkpt>
      <trkpt lat="50.28571137227118" lon="5.481062019243836">
        <ele>195.55</ele>
        <time>2025-02-13T14:50:12.265Z</time>
      </trkpt>
      <trkpt lat="50.285947574302554" lon="5.481233764439821">
        <ele>195.66</ele>
        <time>2025-02-13T14:50:13.071Z</time>
      </trkpt>
      <trkpt lat="50.2861834410578" lon="5.481405258178711">
        <ele>195.78</ele>
        <time>2025-02-13T14:50:13.881Z</time>
      </trkpt>
      <trkpt lat="50.2862907294184" lon="5.4814910888671875">
        <ele>195.89</ele>
        <time>2025-02-13T14:50:14.693Z</time>
      </trkpt>
      <trkpt lat="50.286290645599365" lon="5.4814910888671875">
        <ele>196.02</ele>
        <time>2025-02-13T14:50:15.505Z</time>
      </trkpt>
      <trkpt lat="50.28651603497565" lon="5.481619834899902">
        <ele>196.16</ele>
        <time>2025-02-13T14:50:16.321Z</time>
      </trkpt>
      <trkpt lat="50.28674125671387" lon="5.481748580932617">
        <ele>196.36</ele>
        <time>2025-02-13T14:50:17.140Z</time>
      </trkpt>
      <trkpt lat="50.286827087402344" lon="5.481748580932617">
        <ele>196.55</ele>
        <time>2025-02-13T14:50:17.961Z</time>
      </trkpt>
      <trkpt lat="50.28691291809082" lon="5.481855869293213">
        <ele>196.79</ele>
        <time>2025-02-13T14:50:18.784Z</time>
      </trkpt>
      <trkpt lat="50.28709530830383" lon="5.481963157653809">
        <ele>197.04</ele>
        <time>2025-02-13T14:50:19.610Z</time>
      </trkpt>
      <trkpt lat="50.287277698516846" lon="5.482070446014404">
        <ele>197.31</ele>
        <time>2025-02-13T14:50:20.439Z</time>
      </trkpt>
      <trkpt lat="50.28754943981767" lon="5.482106152921915">
        <ele>197.55</ele>
        <time>2025-02-13T14:50:21.272Z</time>
      </trkpt>
      <trkpt lat="50.28782126493752" lon="5.4821419436484575">
        <ele>197.86</ele>
        <time>2025-02-13T14:50:22.110Z</time>
      </trkpt>
      <trkpt lat="50.28809309005737" lon="5.482177734375">
        <ele>198.2</ele>
        <time>2025-02-13T14:50:22.952Z</time>
      </trkpt>
      <trkpt lat="50.288372123613954" lon="5.482306480407715">
        <ele>198.61</ele>
        <time>2025-02-13T14:50:23.799Z</time>
      </trkpt>
      <trkpt lat="50.28837203979492" lon="5.482306480407715">
        <ele>199.01</ele>
        <time>2025-02-13T14:50:24.646Z</time>
      </trkpt>
      <trkpt lat="50.288631627336144" lon="5.4825289361178875">
        <ele>199.51</ele>
        <time>2025-02-13T14:50:25.497Z</time>
      </trkpt>
      <trkpt lat="50.28889121487737" lon="5.482751475647092">
        <ele>199.98</ele>
        <time>2025-02-13T14:50:26.353Z</time>
      </trkpt>
      <trkpt lat="50.28915080241859" lon="5.4829739313572645">
        <ele>200.51</ele>
        <time>2025-02-13T14:50:27.214Z</time>
      </trkpt>
      <trkpt lat="50.28941038995981" lon="5.483196470886469">
        <ele>201.05</ele>
        <time>2025-02-13T14:50:28.080Z</time>
      </trkpt>
      <trkpt lat="50.289669977501035" lon="5.483419010415673">
        <ele>201.66</ele>
        <time>2025-02-13T14:50:28.950Z</time>
      </trkpt>
      <trkpt lat="50.28992855921388" lon="5.483640627935529">
        <ele>202.3</ele>
        <time>2025-02-13T14:50:29.825Z</time>
      </trkpt>
      <trkpt lat="50.29014036990702" lon="5.483822179958224">
        <ele>202.98</ele>
        <time>2025-02-13T14:50:30.704Z</time>
      </trkpt>
      <trkpt lat="50.290352180600166" lon="5.48400373198092">
        <ele>203.69</ele>
        <time>2025-02-13T14:50:31.587Z</time>
      </trkpt>
      <trkpt lat="50.29056399129331" lon="5.484185284003615">
        <ele>204.44</ele>
        <time>2025-02-13T14:50:32.474Z</time>
      </trkpt>
      <trkpt lat="50.290775299072266" lon="5.484366416931152">
        <ele>205.25</ele>
        <time>2025-02-13T14:50:33.365Z</time>
      </trkpt>
      <trkpt lat="50.290940003469586" lon="5.484588369727135">
        <ele>206.08</ele>
        <time>2025-02-13T14:50:34.259Z</time>
      </trkpt>
      <trkpt lat="50.29110470786691" lon="5.484810406342149">
        <ele>206.95</ele>
        <time>2025-02-13T14:50:35.157Z</time>
      </trkpt>
      <trkpt lat="50.291268825531006" lon="5.485031604766846">
        <ele>207.83</ele>
        <time>2025-02-13T14:50:36.058Z</time>
      </trkpt>
      <trkpt lat="50.29145507141948" lon="5.485368305817246">
        <ele>208.69</ele>
        <time>2025-02-13T14:50:36.964Z</time>
      </trkpt>
      <trkpt lat="50.29164140112698" lon="5.485705006867647">
        <ele>209.58</ele>
        <time>2025-02-13T14:50:37.874Z</time>
      </trkpt>
      <trkpt lat="50.29182764701545" lon="5.486041707918048">
        <ele>210.51</ele>
        <time>2025-02-13T14:50:38.789Z</time>
      </trkpt>
      <trkpt lat="50.292013976722956" lon="5.486378408968449">
        <ele>211.53</ele>
        <time>2025-02-13T14:50:39.708Z</time>
      </trkpt>
      <trkpt lat="50.29220022261143" lon="5.486715193837881">
        <ele>212.58</ele>
        <time>2025-02-13T14:50:40.632Z</time>
      </trkpt>
      <trkpt lat="50.29238470830023" lon="5.487048625946045">
        <ele>213.58</ele>
        <time>2025-02-13T14:50:41.560Z</time>
      </trkpt>
      <trkpt lat="50.2923846244812" lon="5.487048625946045">
        <ele>214.56</ele>
        <time>2025-02-13T14:50:42.488Z</time>
      </trkpt>
      <trkpt lat="50.29255645349622" lon="5.487277787178755">
        <ele>215.56</ele>
        <time>2025-02-13T14:50:43.420Z</time>
      </trkpt>
      <trkpt lat="50.292728366330266" lon="5.487506948411465">
        <ele>216.59</ele>
        <time>2025-02-13T14:50:44.356Z</time>
      </trkpt>
      <trkpt lat="50.29289960861206" lon="5.487735271453857">
        <ele>217.61</ele>
        <time>2025-02-13T14:50:45.295Z</time>
      </trkpt>
      <trkpt lat="50.29317872598767" lon="5.487937023863196">
        <ele>218.69</ele>
        <time>2025-02-13T14:50:46.239Z</time>
      </trkpt>
      <trkpt lat="50.293457843363285" lon="5.488138860091567">
        <ele>219.78</ele>
        <time>2025-02-13T14:50:47.188Z</time>
      </trkpt>
      <trkpt lat="50.2937369607389" lon="5.488340696319938">
        <ele>220.9</ele>
        <time>2025-02-13T14:50:48.142Z</time>
      </trkpt>
      <trkpt lat="50.29401607811451" lon="5.488542448729277">
        <ele>222.01</ele>
        <time>2025-02-13T14:50:49.101Z</time>
      </trkpt>
      <trkpt lat="50.294294441118836" lon="5.488743782043457">
        <ele>223.23</ele>
        <time>2025-02-13T14:50:50.065Z</time>
      </trkpt>
      <trkpt lat="50.29440172947943" lon="5.488829612731934">
        <ele>224.38</ele>
        <time>2025-02-13T14:50:51.031Z</time>
      </trkpt>
      <trkpt lat="50.294605661183596" lon="5.488979900255799">
        <ele>225.57</ele>
        <time>2025-02-13T14:50:52.000Z</time>
      </trkpt>
      <trkpt lat="50.294809425249696" lon="5.489130020141602">
        <ele>226.75</ele>
        <time>2025-02-13T14:50:52.973Z</time>
      </trkpt>
      <trkpt lat="50.2950026281178" lon="5.489269495010376">
        <ele>227.89</ele>
        <time>2025-02-13T14:50:53.949Z</time>
      </trkpt>
      <trkpt lat="50.29519566334784" lon="5.48940896987915">
        <ele>229.0</ele>
        <time>2025-02-13T14:50:54.929Z</time>
      </trkpt>
      <trkpt lat="50.29542641714215" lon="5.489569902420044">
        <ele>230.06</ele>
        <time>2025-02-13T14:50:55.913Z</time>
      </trkpt>
      <trkpt lat="50.295657170936465" lon="5.489730918779969">
        <ele>231.14</ele>
        <time>2025-02-13T14:50:56.901Z</time>
      </trkpt>
      <trkpt lat="50.29588800854981" lon="5.4898919351398945">
        <ele>232.26</ele>
        <time>2025-02-13T14:50:57.893Z</time>
      </trkpt>
      <trkpt lat="50.29611834324896" lon="5.490052700042725">
        <ele>233.4</ele>
        <time>2025-02-13T14:50:58.889Z</time>
      </trkpt>
      <trkpt lat="50.296365190297365" lon="5.490245902910829">
        <ele>234.57</ele>
        <time>2025-02-13T14:50:59.889Z</time>
      </trkpt>
      <trkpt lat="50.296611869707704" lon="5.490438938140869">
        <ele>235.72</ele>
        <time>2025-02-13T14:51:00.894Z</time>
      </trkpt>
      <trkpt lat="50.29680507257581" lon="5.490567684173584">
        <ele>236.88</ele>
        <time>2025-02-13T14:51:01.902Z</time>
      </trkpt>
      <trkpt lat="50.29699827544391" lon="5.4906965140253305">
        <ele>238.09</ele>
        <time>2025-02-13T14:51:02.914Z</time>
      </trkpt>
      <trkpt lat="50.29719122685492" lon="5.490825176239014">
        <ele>239.32</ele>
        <time>2025-02-13T14:51:03.929Z</time>
      </trkpt>
      <trkpt lat="50.29719114303589" lon="5.490825176239014">
        <ele>240.5</ele>
        <time>2025-02-13T14:51:04.944Z</time>
      </trkpt>
      <trkpt lat="50.29741301201284" lon="5.490989712998271">
        <ele>241.74</ele>
        <time>2025-02-13T14:51:05.963Z</time>
      </trkpt>
      <trkpt lat="50.29763488098979" lon="5.49115433357656">
        <ele>242.97</ele>
        <time>2025-02-13T14:51:06.986Z</time>
      </trkpt>
      <trkpt lat="50.297856414690614" lon="5.491318702697754">
        <ele>244.28</ele>
        <time>2025-02-13T14:51:08.013Z</time>
      </trkpt>
      <trkpt lat="50.29800661839545" lon="5.49142599105835">
        <ele>245.57</ele>
        <time>2025-02-13T14:51:09.042Z</time>
      </trkpt>
      <trkpt lat="50.29815682210028" lon="5.491533279418945">
        <ele>246.87</ele>
        <time>2025-02-13T14:51:10.074Z</time>
      </trkpt>
      <trkpt lat="50.29843577183783" lon="5.491726398468018">
        <ele>248.23</ele>
        <time>2025-02-13T14:51:11.111Z</time>
      </trkpt>
      <trkpt lat="50.298585975542665" lon="5.491898059844971">
        <ele>249.51</ele>
        <time>2025-02-13T14:51:12.151Z</time>
      </trkpt>
      <trkpt lat="50.29867180623114" lon="5.492091178894043">
        <ele>250.71</ele>
        <time>2025-02-13T14:51:13.193Z</time>
      </trkpt>
      <trkpt lat="50.29875780455768" lon="5.492349173873663">
        <ele>251.89</ele>
        <time>2025-02-13T14:51:14.238Z</time>
      </trkpt>
      <trkpt lat="50.298843467608094" lon="5.492606163024902">
        <ele>253.05</ele>
        <time>2025-02-13T14:51:15.286Z</time>
      </trkpt>
      <trkpt lat="50.298951007425785" lon="5.492986114695668">
        <ele>254.14</ele>
        <time>2025-02-13T14:51:16.338Z</time>
      </trkpt>
      <trkpt lat="50.299058547243476" lon="5.493366066366434">
        <ele>255.27</ele>
        <time>2025-02-13T14:51:17.395Z</time>
      </trkpt>
      <trkpt lat="50.29916533268988" lon="5.493743419647217">
        <ele>256.47</ele>
        <time>2025-02-13T14:51:18.456Z</time>
      </trkpt>
      <trkpt lat="50.29916524887085" lon="5.493743419647217">
        <ele>257.53</ele>
        <time>2025-02-13T14:51:19.517Z</time>
      </trkpt>
      <trkpt lat="50.299315536394715" lon="5.494043827056885">
        <ele>258.65</ele>
        <time>2025-02-13T14:51:20.582Z</time>
      </trkpt>
      <trkpt lat="50.29949801042676" lon="5.49420484341681">
        <ele>259.65</ele>
        <time>2025-02-13T14:51:21.650Z</time>
      </trkpt>
      <trkpt lat="50.29968031682074" lon="5.494365692138672">
        <ele>260.59</ele>
        <time>2025-02-13T14:51:22.722Z</time>
      </trkpt>
      <trkpt lat="50.299809062853456" lon="5.494472980499268">
        <ele>261.55</ele>
        <time>2025-02-13T14:51:23.796Z</time>
      </trkpt>
      <trkpt lat="50.30006663873792" lon="5.494676912203431">
        <ele>262.57</ele>
        <time>2025-02-13T14:51:24.875Z</time>
      </trkpt>
      <trkpt lat="50.300324046984315" lon="5.494880676269531">
        <ele>263.53</ele>
        <time>2025-02-13T14:51:25.958Z</time>
      </trkpt>
      <trkpt lat="50.300545915961266" lon="5.495059546083212">
        <ele>264.34</ele>
        <time>2025-02-13T14:51:27.045Z</time>
      </trkpt>
      <trkpt lat="50.300767784938216" lon="5.495238499715924">
        <ele>265.02</ele>
        <time>2025-02-13T14:51:28.136Z</time>
      </trkpt>
      <trkpt lat="50.30098923482001" lon="5.49541711807251">
        <ele>265.68</ele>
        <time>2025-02-13T14:51:29.231Z</time>
      </trkpt>
      <trkpt lat="50.30111789703369" lon="5.495631694793701">
        <ele>266.25</ele>
        <time>2025-02-13T14:51:30.329Z</time>
      </trkpt>
      <trkpt lat="50.30122518539429" lon="5.495932102203369">
        <ele>266.77</ele>
        <time>2025-02-13T14:51:31.431Z</time>
      </trkpt>
      <trkpt lat="50.301246643066406" lon="5.496189594268799">
        <ele>267.21</ele>
        <time>2025-02-13T14:51:32.535Z</time>
      </trkpt>
      <trkpt lat="50.301225101575255" lon="5.496609192341566">
        <ele>267.56</ele>
        <time>2025-02-13T14:51:33.644Z</time>
      </trkpt>
      <trkpt lat="50.301203560084105" lon="5.497028790414333">
        <ele>267.76</ele>
        <time>2025-02-13T14:51:34.757Z</time>
      </trkpt>
      <trkpt lat="50.301182018592954" lon="5.497448388487101">
        <ele>267.83</ele>
        <time>2025-02-13T14:51:35.874Z</time>
      </trkpt>
      <trkpt lat="50.30116081237793" lon="5.497863292694092">
        <ele>267.82</ele>
        <time>2025-02-13T14:51:36.996Z</time>
      </trkpt>
      <trkpt lat="50.30113927088678" lon="5.49822187051177">
        <ele>267.84</ele>
        <time>2025-02-13T14:51:38.121Z</time>
      </trkpt>
      <trkpt lat="50.30111781321466" lon="5.49858053214848">
        <ele>267.85</ele>
        <time>2025-02-13T14:51:39.250Z</time>
      </trkpt>
      <trkpt lat="50.301096523180604" lon="5.498936176300049">
        <ele>267.78</ele>
        <time>2025-02-13T14:51:40.383Z</time>
      </trkpt>
      <trkpt lat="50.301096523180604" lon="5.499386787414551">
        <ele>267.65</ele>
        <time>2025-02-13T14:51:41.520Z</time>
      </trkpt>
      <trkpt lat="50.30116089619696" lon="5.499622821807861">
        <ele>267.4</ele>
        <time>2025-02-13T14:51:42.660Z</time>
      </trkpt>
      <trkpt lat="50.30124672688544" lon="5.499880313873291">
        <ele>267.1</ele>
        <time>2025-02-13T14:51:43.803Z</time>
      </trkpt>
      <trkpt lat="50.30139684677124" lon="5.500094890594482">
        <ele>266.77</ele>
        <time>2025-02-13T14:51:44.949Z</time>
      </trkpt>
      <trkpt lat="50.301622319966555" lon="5.500314999371767">
        <ele>266.41</ele>
        <time>2025-02-13T14:51:46.099Z</time>
      </trkpt>
      <trkpt lat="50.30184779316187" lon="5.500535108149052">
        <ele>266.08</ele>
        <time>2025-02-13T14:51:47.254Z</time>
      </trkpt>
      <trkpt lat="50.30207326635718" lon="5.500755216926336">
        <ele>265.72</ele>
        <time>2025-02-13T14:51:48.413Z</time>
      </trkpt>
      <trkpt lat="50.302298069000244" lon="5.500974655151367">
        <ele>265.39</ele>
        <time>2025-02-13T14:51:49.576Z</time>
      </trkpt>
      <trkpt lat="50.30255572870374" lon="5.501221586018801">
        <ele>265.12</ele>
        <time>2025-02-13T14:51:50.744Z</time>
      </trkpt>
      <trkpt lat="50.3028130531311" lon="5.501468181610107">
        <ele>264.91</ele>
        <time>2025-02-13T14:51:51.917Z</time>
      </trkpt>
      <trkpt lat="50.30302251689136" lon="5.501795830205083">
        <ele>264.67</ele>
        <time>2025-02-13T14:51:53.095Z</time>
      </trkpt>
      <trkpt lat="50.30323206447065" lon="5.50212356261909">
        <ele>264.43</ele>
        <time>2025-02-13T14:51:54.277Z</time>
      </trkpt>
      <trkpt lat="50.30344161204994" lon="5.5024512112140656">
        <ele>264.3</ele>
        <time>2025-02-13T14:51:55.464Z</time>
      </trkpt>
      <trkpt lat="50.30364998616278" lon="5.502777099609375">
        <ele>264.3</ele>
        <time>2025-02-13T14:51:56.656Z</time>
      </trkpt>
      <trkpt lat="50.30371435917914" lon="5.502862930297852">
        <ele>264.33</ele>
        <time>2025-02-13T14:51:57.849Z</time>
      </trkpt>
      <trkpt lat="50.30388593673706" lon="5.503056049346924">
        <ele>264.44</ele>
        <time>2025-02-13T14:51:59.046Z</time>
      </trkpt>
      <trkpt lat="50.30410051345825" lon="5.5031418800354">
        <ele>264.67</ele>
        <time>2025-02-13T14:52:00.246Z</time>
      </trkpt>
      <trkpt lat="50.30431509017944" lon="5.503195524215698">
        <ele>264.94</ele>
        <time>2025-02-13T14:52:01.450Z</time>
      </trkpt>
      <trkpt lat="50.304529666900635" lon="5.503249168395996">
        <ele>265.29</ele>
        <time>2025-02-13T14:52:02.657Z</time>
      </trkpt>
      <trkpt lat="50.30480149202049" lon="5.503356456756592">
        <ele>265.77</ele>
        <time>2025-02-13T14:52:03.869Z</time>
      </trkpt>
      <trkpt lat="50.30507331714034" lon="5.5034637451171875">
        <ele>266.31</ele>
        <time>2025-02-13T14:52:05.085Z</time>
      </trkpt>
      <trkpt lat="50.305345226079226" lon="5.503571033477783">
        <ele>266.91</ele>
        <time>2025-02-13T14:52:06.306Z</time>
      </trkpt>
      <trkpt lat="50.30561705119908" lon="5.503678405657411">
        <ele>267.6</ele>
        <time>2025-02-13T14:52:07.531Z</time>
      </trkpt>
      <trkpt lat="50.30588896013796" lon="5.503785694018006">
        <ele>268.36</ele>
        <time>2025-02-13T14:52:08.761Z</time>
      </trkpt>
      <trkpt lat="50.30616044998169" lon="5.50389289855957">
        <ele>269.22</ele>
        <time>2025-02-13T14:52:09.995Z</time>
      </trkpt>
      <trkpt lat="50.30643939971924" lon="5.504021644592285">
        <ele>270.16</ele>
        <time>2025-02-13T14:52:11.234Z</time>
      </trkpt>
      <trkpt lat="50.30671843327582" lon="5.504150390625">
        <ele>271.16</ele>
        <time>2025-02-13T14:52:12.477Z</time>
      </trkpt>
      <trkpt lat="50.3069974668324" lon="5.504279220476747">
        <ele>272.23</ele>
        <time>2025-02-13T14:52:13.725Z</time>
      </trkpt>
      <trkpt lat="50.307276248931885" lon="5.50440788269043">
        <ele>273.34</ele>
        <time>2025-02-13T14:52:14.978Z</time>
      </trkpt>
      <trkpt lat="50.30743726529181" lon="5.504504442214966">
        <ele>274.53</ele>
        <time>2025-02-13T14:52:16.233Z</time>
      </trkpt>
      <trkpt lat="50.307598197832704" lon="5.504601001739502">
        <ele>275.82</ele>
        <time>2025-02-13T14:52:17.491Z</time>
      </trkpt>
      <trkpt lat="50.30781269073486" lon="5.504922866821289">
        <ele>277.25</ele>
        <time>2025-02-13T14:52:18.754Z</time>
      </trkpt>
      <trkpt lat="50.3079470526427" lon="5.505261495709419">
        <ele>278.69</ele>
        <time>2025-02-13T14:52:20.021Z</time>
      </trkpt>
      <trkpt lat="50.30808141455054" lon="5.505600124597549">
        <ele>280.19</ele>
        <time>2025-02-13T14:52:21.292Z</time>
      </trkpt>
      <trkpt lat="50.30821577645838" lon="5.50593875348568">
        <ele>281.79</ele>
        <time>2025-02-13T14:52:22.567Z</time>
      </trkpt>
      <trkpt lat="50.30834913253784" lon="5.506274700164795">
        <ele>283.42</ele>
        <time>2025-02-13T14:52:23.846Z</time>
      </trkpt>
      <trkpt lat="50.30847276560962" lon="5.5066455993801355">
        <ele>285.15</ele>
        <time>2025-02-13T14:52:25.130Z</time>
      </trkpt>
      <trkpt lat="50.3085963986814" lon="5.507016582414508">
        <ele>286.83</ele>
        <time>2025-02-13T14:52:26.418Z</time>
      </trkpt>
      <trkpt lat="50.30872003175318" lon="5.50738756544888">
        <ele>288.46</ele>
        <time>2025-02-13T14:52:27.710Z</time>
      </trkpt>
      <trkpt lat="50.30884265899658" lon="5.507755279541016">
        <ele>290.08</ele>
        <time>2025-02-13T14:52:29.006Z</time>
      </trkpt>
      <trkpt lat="50.30888565815985" lon="5.508099524304271">
        <ele>291.81</ele>
        <time>2025-02-13T14:52:30.306Z</time>
      </trkpt>
      <trkpt lat="50.30892848968506" lon="5.508441925048828">
        <ele>293.56</ele>
        <time>2025-02-13T14:52:31.610Z</time>
      </trkpt>
      <trkpt lat="50.30892128124833" lon="5.508872251957655">
        <ele>295.37</ele>
        <time>2025-02-13T14:52:32.918Z</time>
      </trkpt>
      <trkpt lat="50.3089140728116" lon="5.509302578866482">
        <ele>297.2</ele>
        <time>2025-02-13T14:52:34.230Z</time>
      </trkpt>
      <trkpt lat="50.30890703201294" lon="5.509729385375977">
        <ele>299.04</ele>
        <time>2025-02-13T14:52:35.547Z</time>
      </trkpt>
      <trkpt lat="50.3089489415288" lon="5.510069606825709">
        <ele>300.85</ele>
        <time>2025-02-13T14:52:36.867Z</time>
      </trkpt>
      <trkpt lat="50.3089489415288" lon="5.510069523006678">
        <ele>302.52</ele>
        <time>2025-02-13T14:52:38.187Z</time>
      </trkpt>
      <trkpt lat="50.30899948440492" lon="5.510479314252734">
        <ele>304.31</ele>
        <time>2025-02-13T14:52:39.512Z</time>
      </trkpt>
      <trkpt lat="50.309050027281046" lon="5.5108891893178225">
        <ele>305.97</ele>
        <time>2025-02-13T14:52:40.841Z</time>
      </trkpt>
      <trkpt lat="50.30910023488104" lon="5.511295795440674">
        <ele>307.59</ele>
        <time>2025-02-13T14:52:42.174Z</time>
      </trkpt>
      <trkpt lat="50.30913242138922" lon="5.511575499549508">
        <ele>309.16</ele>
        <time>2025-02-13T14:52:43.510Z</time>
      </trkpt>
      <trkpt lat="50.30916452407837" lon="5.5118536949157715">
        <ele>310.74</ele>
        <time>2025-02-13T14:52:44.849Z</time>
      </trkpt>
      <trkpt lat="50.30914306640625" lon="5.5121541023254395">
        <ele>312.32</ele>
        <time>2025-02-13T14:52:46.191Z</time>
      </trkpt>
      <trkpt lat="50.30908925458789" lon="5.512412181124091">
        <ele>313.84</ele>
        <time>2025-02-13T14:52:47.536Z</time>
      </trkpt>
      <trkpt lat="50.309035778045654" lon="5.512669086456299">
        <ele>315.27</ele>
        <time>2025-02-13T14:52:48.884Z</time>
      </trkpt>
      <trkpt lat="50.30905723571777" lon="5.512959519401193">
        <ele>316.63</ele>
        <time>2025-02-13T14:52:50.235Z</time>
      </trkpt>
      <trkpt lat="50.30907869338989" lon="5.513248443603516">
        <ele>317.98</ele>
        <time>2025-02-13T14:52:51.589Z</time>
      </trkpt>
      <trkpt lat="50.309035778045654" lon="5.513591766357422">
        <ele>319.25</ele>
        <time>2025-02-13T14:52:52.946Z</time>
      </trkpt>
      <trkpt lat="50.30888557434082" lon="5.513677597045898">
        <ele>320.37</ele>
        <time>2025-02-13T14:52:54.306Z</time>
      </trkpt>
      <trkpt lat="50.308778285980225" lon="5.51389217376709">
        <ele>321.51</ele>
        <time>2025-02-13T14:52:55.669Z</time>
      </trkpt>
      <trkpt lat="50.30868147499859" lon="5.514171710237861">
        <ele>322.61</ele>
        <time>2025-02-13T14:52:57.035Z</time>
      </trkpt>
      <trkpt lat="50.30858516693115" lon="5.5144500732421875">
        <ele>323.68</ele>
        <time>2025-02-13T14:52:58.404Z</time>
      </trkpt>
      <trkpt lat="50.3084135055542" lon="5.514664649963379">
        <ele>324.65</ele>
        <time>2025-02-13T14:52:59.777Z</time>
      </trkpt>
      <trkpt lat="50.30832767486572" lon="5.514836311340332">
        <ele>325.55</ele>
        <time>2025-02-13T14:53:01.152Z</time>
      </trkpt>
      <trkpt lat="50.308342007920146" lon="5.5152523051947355">
        <ele>326.44</ele>
        <time>2025-02-13T14:53:02.531Z</time>
      </trkpt>
      <trkpt lat="50.30835634097457" lon="5.515668299049139">
        <ele>327.23</ele>
        <time>2025-02-13T14:53:03.914Z</time>
      </trkpt>
      <trkpt lat="50.30837059020996" lon="5.516080856323242">
        <ele>327.89</ele>
        <time>2025-02-13T14:53:05.302Z</time>
      </trkpt>
      <trkpt lat="50.30835977755487" lon="5.516543453559279">
        <ele>328.47</ele>
        <time>2025-02-13T14:53:06.694Z</time>
      </trkpt>
      <trkpt lat="50.30834913253784" lon="5.517003536224365">
        <ele>329.02</ele>
        <time>2025-02-13T14:53:08.091Z</time>
      </trkpt>
      <trkpt lat="50.30837067402899" lon="5.517153739929199">
        <ele>329.5</ele>
        <time>2025-02-13T14:53:09.490Z</time>
      </trkpt>
      <trkpt lat="50.30852104537189" lon="5.517411567270756">
        <ele>329.94</ele>
        <time>2025-02-13T14:53:10.892Z</time>
      </trkpt>
      <trkpt lat="50.30867141671479" lon="5.517669478431344">
        <ele>330.32</ele>
        <time>2025-02-13T14:53:12.298Z</time>
      </trkpt>
      <trkpt lat="50.30882120132446" lon="5.517926216125488">
        <ele>330.63</ele>
        <time>2025-02-13T14:53:13.707Z</time>
      </trkpt>
      <trkpt lat="50.30891792848706" lon="5.5181411281228065">
        <ele>330.89</ele>
        <time>2025-02-13T14:53:15.119Z</time>
      </trkpt>
      <trkpt lat="50.30901440419257" lon="5.518355369567871">
        <ele>331.11</ele>
        <time>2025-02-13T14:53:16.534Z</time>
      </trkpt>
      <trkpt lat="50.309143317863345" lon="5.5186025518924">
        <ele>331.27</ele>
        <time>2025-02-13T14:53:17.952Z</time>
      </trkpt>
      <trkpt lat="50.309271812438965" lon="5.518848896026611">
        <ele>331.32</ele>
        <time>2025-02-13T14:53:19.373Z</time>
      </trkpt>
      <trkpt lat="50.309479515999556" lon="5.519149638712406">
        <ele>331.26</ele>
        <time>2025-02-13T14:53:20.799Z</time>
      </trkpt>
      <trkpt lat="50.309687219560146" lon="5.519450465217233">
        <ele>331.17</ele>
        <time>2025-02-13T14:53:22.229Z</time>
      </trkpt>
      <trkpt lat="50.30989416874945" lon="5.519750118255615">
        <ele>331.04</ele>
        <time>2025-02-13T14:53:23.664Z</time>
      </trkpt>
      <trkpt lat="50.31000154092908" lon="5.519986571744084">
        <ele>330.85</ele>
        <time>2025-02-13T14:53:25.102Z</time>
      </trkpt>
      <trkpt lat="50.31010866165161" lon="5.520222187042236">
        <ele>330.59</ele>
        <time>2025-02-13T14:53:26.543Z</time>
      </trkpt>
      <trkpt lat="50.31034494750202" lon="5.52051748149097">
        <ele>330.36</ele>
        <time>2025-02-13T14:53:27.989Z</time>
      </trkpt>
      <trkpt lat="50.31058123335242" lon="5.520812859758735">
        <ele>330.07</ele>
        <time>2025-02-13T14:53:29.440Z</time>
      </trkpt>
      <trkpt lat="50.31081751920283" lon="5.5211082380265">
        <ele>329.72</ele>
        <time>2025-02-13T14:53:30.895Z</time>
      </trkpt>
      <trkpt lat="50.31105279922485" lon="5.521402359008789">
        <ele>329.29</ele>
        <time>2025-02-13T14:53:32.355Z</time>
      </trkpt>
      <trkpt lat="50.31116008758545" lon="5.521681308746338">
        <ele>328.9</ele>
        <time>2025-02-13T14:53:33.819Z</time>
      </trkpt>
      <trkpt lat="50.31098851002753" lon="5.521831512451172">
        <ele>328.47</ele>
        <time>2025-02-13T14:53:35.286Z</time>
      </trkpt>
      <trkpt lat="50.31075222417712" lon="5.522046172991395">
        <ele>328.01</ele>
        <time>2025-02-13T14:53:36.757Z</time>
      </trkpt>
      <trkpt lat="50.310516357421875" lon="5.522260665893555">
        <ele>327.43</ele>
        <time>2025-02-13T14:53:38.232Z</time>
      </trkpt>
      <trkpt lat="50.310237407684326" lon="5.522432327270508">
        <ele>326.74</ele>
        <time>2025-02-13T14:53:39.712Z</time>
      </trkpt>
      <trkpt lat="50.3099799156189" lon="5.522496700286865">
        <ele>326.07</ele>
        <time>2025-02-13T14:53:41.196Z</time>
      </trkpt>
      <trkpt lat="50.309690153226256" lon="5.522464429959655">
        <ele>325.43</ele>
        <time>2025-02-13T14:53:42.685Z</time>
      </trkpt>
      <trkpt lat="50.30940055847168" lon="5.522432327270508">
        <ele>324.78</ele>
        <time>2025-02-13T14:53:44.179Z</time>
      </trkpt>
      <trkpt lat="50.30908724293113" lon="5.522389328107238">
        <ele>324.08</ele>
        <time>2025-02-13T14:53:45.678Z</time>
      </trkpt>
      <trkpt lat="50.308773927390575" lon="5.5223464127629995">
        <ele>323.39</ele>
        <time>2025-02-13T14:53:47.182Z</time>
      </trkpt>
      <trkpt lat="50.30846061185002" lon="5.522303497418761">
        <ele>322.68</ele>
        <time>2025-02-13T14:53:48.691Z</time>
      </trkpt>
      <trkpt lat="50.30814729630947" lon="5.522260582074523">
        <ele>321.96</ele>
        <time>2025-02-13T14:53:50.205Z</time>
      </trkpt>
      <trkpt lat="50.30783414840698" lon="5.522217750549316">
        <ele>321.28</ele>
        <time>2025-02-13T14:53:51.724Z</time>
      </trkpt>
      <trkpt lat="50.307555198669434" lon="5.5222392082214355">
        <ele>320.53</ele>
        <time>2025-02-13T14:53:53.247Z</time>
      </trkpt>
      <trkpt lat="50.307319248095155" lon="5.5223894119262695">
        <ele>319.71</ele>
        <time>2025-02-13T14:53:54.774Z</time>
      </trkpt>
      <trkpt lat="50.307276248931885" lon="5.522432327270508">
        <ele>318.94</ele>
        <time>2025-02-13T14:53:56.302Z</time>
      </trkpt>
      <trkpt lat="50.30705706216395" lon="5.5227546114474535">
        <ele>318.11</ele>
        <time>2025-02-13T14:53:57.835Z</time>
      </trkpt>
      <trkpt lat="50.30683787539601" lon="5.523076895624399">
        <ele>317.34</ele>
        <time>2025-02-13T14:53:59.373Z</time>
      </trkpt>
      <trkpt lat="50.30661868862808" lon="5.523399179801345">
        <ele>316.55</ele>
        <time>2025-02-13T14:54:00.916Z</time>
      </trkpt>
      <trkpt lat="50.30639950186014" lon="5.523721547797322">
        <ele>315.71</ele>
        <time>2025-02-13T14:54:02.464Z</time>
      </trkpt>
      <trkpt lat="50.30618190765381" lon="5.524041652679443">
        <ele>314.84</ele>
        <time>2025-02-13T14:54:04.016Z</time>
      </trkpt>
      <trkpt lat="50.305981412529945" lon="5.524285063147545">
        <ele>313.92</ele>
        <time>2025-02-13T14:54:05.572Z</time>
      </trkpt>
      <trkpt lat="50.30578091740608" lon="5.524528557434678">
        <ele>312.99</ele>
        <time>2025-02-13T14:54:07.132Z</time>
      </trkpt>
      <trkpt lat="50.305581176653504" lon="5.524771213531494">
        <ele>312.08</ele>
        <time>2025-02-13T14:54:08.697Z</time>
      </trkpt>
      <trkpt lat="50.30536659993231" lon="5.525007247924805">
        <ele>311.21</ele>
        <time>2025-02-13T14:54:10.266Z</time>
      </trkpt>
      <trkpt lat="50.305151771754026" lon="5.5252219922840595">
        <ele>310.29</ele>
        <time>2025-02-13T14:54:11.839Z</time>
      </trkpt>
      <trkpt lat="50.3049373626709" lon="5.5254364013671875">
        <ele>309.48</ele>
        <time>2025-02-13T14:54:13.416Z</time>
      </trkpt>
      <trkpt lat="50.30475480481982" lon="5.525586688891053">
        <ele>308.64</ele>
        <time>2025-02-13T14:54:14.996Z</time>
      </trkpt>
      <trkpt lat="50.30457258224487" lon="5.5257368087768555">
        <ele>307.78</ele>
        <time>2025-02-13T14:54:16.580Z</time>
      </trkpt>
      <trkpt lat="50.30427628196776" lon="5.525899920612574">
        <ele>306.82</ele>
        <time>2025-02-13T14:54:18.169Z</time>
      </trkpt>
      <trkpt lat="50.30398006550968" lon="5.526063032448292">
        <ele>305.94</ele>
        <time>2025-02-13T14:54:19.763Z</time>
      </trkpt>
      <trkpt lat="50.303683849051595" lon="5.526226228103042">
        <ele>305.11</ele>
        <time>2025-02-13T14:54:21.362Z</time>
      </trkpt>
      <trkpt lat="50.30338763259351" lon="5.52638933993876">
        <ele>304.29</ele>
        <time>2025-02-13T14:54:22.966Z</time>
      </trkpt>
      <trkpt lat="50.30309200286865" lon="5.526552200317383">
        <ele>303.5</ele>
        <time>2025-02-13T14:54:24.575Z</time>
      </trkpt>
      <trkpt lat="50.30282369814813" lon="5.526664853096008">
        <ele>302.69</ele>
        <time>2025-02-13T14:54:26.188Z</time>
      </trkpt>
      <trkpt lat="50.30255539342761" lon="5.526777505874634">
        <ele>301.94</ele>
        <time>2025-02-13T14:54:27.806Z</time>
      </trkpt>
      <trkpt lat="50.30228708870709" lon="5.526890242472291">
        <ele>301.21</ele>
        <time>2025-02-13T14:54:29.428Z</time>
      </trkpt>
      <trkpt lat="50.30201878398657" lon="5.5270028952509165">
        <ele>300.54</ele>
        <time>2025-02-13T14:54:31.054Z</time>
      </trkpt>
      <trkpt lat="50.30175047926605" lon="5.527115548029542">
        <ele>299.87</ele>
        <time>2025-02-13T14:54:32.685Z</time>
      </trkpt>
      <trkpt lat="50.30148217454553" lon="5.527228284627199">
        <ele>299.21</ele>
        <time>2025-02-13T14:54:34.320Z</time>
      </trkpt>
      <trkpt lat="50.30121395364404" lon="5.527340937405825">
        <ele>298.59</ele>
        <time>2025-02-13T14:54:35.960Z</time>
      </trkpt>
      <trkpt lat="50.30094623565674" lon="5.527453422546387">
        <ele>297.99</ele>
        <time>2025-02-13T14:54:37.604Z</time>
      </trkpt>
      <trkpt lat="50.30086040496826" lon="5.527474880218506">
        <ele>297.46</ele>
        <time>2025-02-13T14:54:39.250Z</time>
      </trkpt>
      <trkpt lat="50.30058849602938" lon="5.527586946263909">
        <ele>296.96</ele>
        <time>2025-02-13T14:54:40.900Z</time>
      </trkpt>
      <trkpt lat="50.300316670909524" lon="5.527699012309313">
        <ele>296.51</ele>
        <time>2025-02-13T14:54:42.555Z</time>
      </trkpt>
      <trkpt lat="50.30004476197064" lon="5.527811078354716">
        <ele>296.05</ele>
        <time>2025-02-13T14:54:44.214Z</time>
      </trkpt>
      <trkpt lat="50.299772936850786" lon="5.5279232282191515">
        <ele>295.61</ele>
        <time>2025-02-13T14:54:45.878Z</time>
      </trkpt>
      <trkpt lat="50.2995010279119" lon="5.528035294264555">
        <ele>295.32</ele>
        <time>2025-02-13T14:54:47.546Z</time>
      </trkpt>
      <trkpt lat="50.29922920279205" lon="5.5281473603099585">
        <ele>295.07</ele>
        <time>2025-02-13T14:54:49.219Z</time>
      </trkpt>
      <trkpt lat="50.298957293853164" lon="5.528259426355362">
        <ele>294.83</ele>
        <time>2025-02-13T14:54:50.896Z</time>
      </trkpt>
      <trkpt lat="50.29868546873331" lon="5.528371576219797">
        <ele>294.59</ele>
        <time>2025-02-13T14:54:52.578Z</time>
      </trkpt>
      <trkpt lat="50.29841423034668" lon="5.5284833908081055">
        <ele>294.41</ele>
        <time>2025-02-13T14:54:54.264Z</time>
      </trkpt>
      <trkpt lat="50.2981888409704" lon="5.528601408004761">
        <ele>294.3</ele>
        <time>2025-02-13T14:54:55.954Z</time>
      </trkpt>
      <trkpt lat="50.29796361923218" lon="5.528719425201416">
        <ele>294.28</ele>
        <time>2025-02-13T14:54:57.648Z</time>
      </trkpt>
      <trkpt lat="50.297706043347716" lon="5.52892486564815">
        <ele>294.34</ele>
        <time>2025-02-13T14:54:59.346Z</time>
      </trkpt>
      <trkpt lat="50.29744855128229" lon="5.529130389913917">
        <ele>294.37</ele>
        <time>2025-02-13T14:55:01.049Z</time>
      </trkpt>
      <trkpt lat="50.29719105921686" lon="5.529335914179683">
        <ele>294.42</ele>
        <time>2025-02-13T14:55:02.757Z</time>
      </trkpt>
      <trkpt lat="50.296933483332396" lon="5.529541438445449">
        <ele>294.5</ele>
        <time>2025-02-13T14:55:04.469Z</time>
      </trkpt>
      <trkpt lat="50.296675991266966" lon="5.529746962711215">
        <ele>294.64</ele>
        <time>2025-02-13T14:55:06.186Z</time>
      </trkpt>
      <trkpt lat="50.296418499201536" lon="5.529952486976981">
        <ele>294.8</ele>
        <time>2025-02-13T14:55:07.908Z</time>
      </trkpt>
      <trkpt lat="50.29616218060255" lon="5.530157089233398">
        <ele>295.0</ele>
        <time>2025-02-13T14:55:09.634Z</time>
      </trkpt>
      <trkpt lat="50.295946933329105" lon="5.530328834429383">
        <ele>295.24</ele>
        <time>2025-02-13T14:55:11.364Z</time>
      </trkpt>
      <trkpt lat="50.29573202133179" lon="5.530500411987305">
        <ele>295.48</ele>
        <time>2025-02-13T14:55:13.098Z</time>
      </trkpt>
      <trkpt lat="50.29556019231677" lon="5.530682969838381">
        <ele>295.71</ele>
        <time>2025-02-13T14:55:14.835Z</time>
      </trkpt>
      <trkpt lat="50.29538869857788" lon="5.53086519241333">
        <ele>295.97</ele>
        <time>2025-02-13T14:55:16.576Z</time>
      </trkpt>
      <trkpt lat="50.29524897225201" lon="5.531069291755557">
        <ele>296.22</ele>
        <time>2025-02-13T14:55:18.320Z</time>
      </trkpt>
      <trkpt lat="50.29510974884033" lon="5.531272888183594">
        <ele>296.5</ele>
        <time>2025-02-13T14:55:20.067Z</time>
      </trkpt>
      <trkpt lat="50.29494848102331" lon="5.531638339161873">
        <ele>296.77</ele>
        <time>2025-02-13T14:55:21.818Z</time>
      </trkpt>
      <trkpt lat="50.29478729702532" lon="5.532003790140152">
        <ele>297.04</ele>
        <time>2025-02-13T14:55:23.574Z</time>
      </trkpt>
      <trkpt lat="50.2946260292083" lon="5.532369324937463">
        <ele>297.29</ele>
        <time>2025-02-13T14:55:25.334Z</time>
      </trkpt>
      <trkpt lat="50.29446610249579" lon="5.532732009887695">
        <ele>297.49</ele>
        <time>2025-02-13T14:55:27.099Z</time>
      </trkpt>
      <trkpt lat="50.29434783384204" lon="5.533011462539434">
        <ele>297.69</ele>
        <time>2025-02-13T14:55:28.867Z</time>
      </trkpt>
      <trkpt lat="50.29423006810248" lon="5.533289909362793">
        <ele>297.79</ele>
        <time>2025-02-13T14:55:30.639Z</time>
      </trkpt>
      <trkpt lat="50.29409025795758" lon="5.533687714487314">
        <ele>297.86</ele>
        <time>2025-02-13T14:55:32.415Z</time>
      </trkpt>
      <trkpt lat="50.29395111836493" lon="5.534083843231201">
        <ele>297.99</ele>
        <time>2025-02-13T14:55:34.196Z</time>
      </trkpt>
      <trkpt lat="50.29386503621936" lon="5.534466728568077">
        <ele>298.11</ele>
        <time>2025-02-13T14:55:35.981Z</time>
      </trkpt>
      <trkpt lat="50.29377895407379" lon="5.534849613904953">
        <ele>298.13</ele>
        <time>2025-02-13T14:55:37.770Z</time>
      </trkpt>
      <trkpt lat="50.29369295574725" lon="5.535232583060861">
        <ele>298.09</ele>
        <time>2025-02-13T14:55:39.564Z</time>
      </trkpt>
      <trkpt lat="50.293606873601675" lon="5.5356154683977365">
        <ele>297.96</ele>
        <time>2025-02-13T14:55:41.362Z</time>
      </trkpt>
      <trkpt lat="50.29352196492255" lon="5.535993576049805">
        <ele>297.77</ele>
        <time>2025-02-13T14:55:43.164Z</time>
      </trkpt>
      <trkpt lat="50.293478881940246" lon="5.536294737830758">
        <ele>297.54</ele>
        <time>2025-02-13T14:55:44.969Z</time>
      </trkpt>
      <trkpt lat="50.29343605041504" lon="5.536594390869141">
        <ele>297.3</ele>
        <time>2025-02-13T14:55:46.777Z</time>
      </trkpt>
      <trkpt lat="50.2934036962688" lon="5.536917094141245">
        <ele>296.97</ele>
        <time>2025-02-13T14:55:48.588Z</time>
      </trkpt>
      <trkpt lat="50.29337167739868" lon="5.537238121032715">
        <ele>296.61</ele>
        <time>2025-02-13T14:55:50.403Z</time>
      </trkpt>
      <trkpt lat="50.29337167739868" lon="5.5375500954687595">
        <ele>296.13</ele>
        <time>2025-02-13T14:55:52.221Z</time>
      </trkpt>
      <trkpt lat="50.29337167739868" lon="5.53786039352417">
        <ele>295.61</ele>
        <time>2025-02-13T14:55:54.042Z</time>
      </trkpt>
      <trkpt lat="50.29347913339734" lon="5.53767766803503">
        <ele>294.97</ele>
        <time>2025-02-13T14:55:55.866Z</time>
      </trkpt>
      <trkpt lat="50.29358625411987" lon="5.5374956130981445">
        <ele>294.3</ele>
        <time>2025-02-13T14:55:57.692Z</time>
      </trkpt>
      <trkpt lat="50.2938437461853" lon="5.537259578704834">
        <ele>293.54</ele>
        <time>2025-02-13T14:55:59.523Z</time>
      </trkpt>
      <trkpt lat="50.29407978057861" lon="5.537173748016357">
        <ele>292.86</ele>
        <time>2025-02-13T14:56:01.358Z</time>
      </trkpt>
      <trkpt lat="50.294294357299805" lon="5.537259578704834">
        <ele>292.08</ele>
        <time>2025-02-13T14:56:03.196Z</time>
      </trkpt>
      <trkpt lat="50.294508934020996" lon="5.537517070770264">
        <ele>291.2</ele>
        <time>2025-02-13T14:56:05.039Z</time>
      </trkpt>
      <trkpt lat="50.2947021368891" lon="5.537635087966919">
        <ele>290.33</ele>
        <time>2025-02-13T14:56:06.885Z</time>
      </trkpt>
      <trkpt lat="50.29489517211914" lon="5.537753105163574">
        <ele>289.42</ele>
        <time>2025-02-13T14:56:08.734Z</time>
      </trkpt>
      <trkpt lat="50.29515266418457" lon="5.537831727415323">
        <ele>288.43</ele>
        <time>2025-02-13T14:56:10.588Z</time>
      </trkpt>
      <trkpt lat="50.29541024006903" lon="5.537910433486104">
        <ele>287.36</ele>
        <time>2025-02-13T14:56:12.446Z</time>
      </trkpt>
      <trkpt lat="50.29566764831543" lon="5.537989139556885">
        <ele>286.22</ele>
        <time>2025-02-13T14:56:14.308Z</time>
      </trkpt>
      <trkpt lat="50.29593947343528" lon="5.538046304136515">
        <ele>285.07</ele>
        <time>2025-02-13T14:56:16.174Z</time>
      </trkpt>
      <trkpt lat="50.296211298555136" lon="5.538103552535176">
        <ele>283.93</ele>
        <time>2025-02-13T14:56:18.045Z</time>
      </trkpt>
      <trkpt lat="50.29648303985596" lon="5.538160800933838">
        <ele>282.8</ele>
        <time>2025-02-13T14:56:19.920Z</time>
      </trkpt>
      <trkpt lat="50.296761989593506" lon="5.538192987442017">
        <ele>281.68</ele>
        <time>2025-02-13T14:56:21.800Z</time>
      </trkpt>
      <trkpt lat="50.297041023150086" lon="5.538225173950195">
        <ele>280.49</ele>
        <time>2025-02-13T14:56:23.684Z</time>
      </trkpt>
      <trkpt lat="50.2972770575434" lon="5.538318129256368">
        <ele>279.34</ele>
        <time>2025-02-13T14:56:25.572Z</time>
      </trkpt>
      <trkpt lat="50.29751309193671" lon="5.538411168381572">
        <ele>278.24</ele>
        <time>2025-02-13T14:56:27.464Z</time>
      </trkpt>
      <trkpt lat="50.297749042510986" lon="5.538504123687744">
        <ele>277.19</ele>
        <time>2025-02-13T14:56:29.360Z</time>
      </trkpt>
      <trkpt lat="50.298049449920654" lon="5.538589954376221">
        <ele>276.06</ele>
        <time>2025-02-13T14:56:31.261Z</time>
      </trkpt>
      <trkpt lat="50.2983283996582" lon="5.538615686818957">
        <ele>275.05</ele>
        <time>2025-02-13T14:56:33.166Z</time>
      </trkpt>
      <trkpt lat="50.29860734939575" lon="5.538641419261694">
        <ele>274.07</ele>
        <time>2025-02-13T14:56:35.076Z</time>
      </trkpt>
      <trkpt lat="50.2988862991333" lon="5.538667151704431">
        <ele>273.19</ele>
        <time>2025-02-13T14:56:36.990Z</time>
      </trkpt>
      <trkpt lat="50.29916533268988" lon="5.538692884147167">
        <ele>272.35</ele>
        <time>2025-02-13T14:56:38.909Z</time>
      </trkpt>
      <trkpt lat="50.2994441986084" lon="5.5387187004089355">
        <ele>271.61</ele>
        <time>2025-02-13T14:56:40.832Z</time>
      </trkpt>
      <trkpt lat="50.29957294464111" lon="5.538589954376221">
        <ele>271.06</ele>
        <time>2025-02-13T14:56:42.758Z</time>
      </trkpt>
      <trkpt lat="50.29968023300171" lon="5.538396835327148">
        <ele>270.63</ele>
        <time>2025-02-13T14:56:44.686Z</time>
      </trkpt>
      <trkpt lat="50.29978768900037" lon="5.538095757365227">
        <ele>270.27</ele>
        <time>2025-02-13T14:56:46.618Z</time>
      </trkpt>
      <trkpt lat="50.2998948097229" lon="5.5377960205078125">
        <ele>270.06</ele>
        <time>2025-02-13T14:56:48.553Z</time>
      </trkpt>
      <trkpt lat="50.300045013427734" lon="5.53760290145874">
        <ele>269.95</ele>
        <time>2025-02-13T14:56:50.491Z</time>
      </trkpt>
      <trkpt lat="50.30021675862372" lon="5.537538528442383">
        <ele>269.94</ele>
        <time>2025-02-13T14:56:52.432Z</time>
      </trkpt>
      <trkpt lat="50.30040987767279" lon="5.537635087966919">
        <ele>270.13</ele>
        <time>2025-02-13T14:56:54.377Z</time>
      </trkpt>
      <trkpt lat="50.30060291290283" lon="5.537731647491455">
        <ele>270.36</ele>
        <time>2025-02-13T14:56:56.325Z</time>
      </trkpt>
      <trkpt lat="50.30082461424172" lon="5.537803145125508">
        <ele>270.64</ele>
        <time>2025-02-13T14:56:58.276Z</time>
      </trkpt>
      <trkpt lat="50.30104639939964" lon="5.5378746427595615">
        <ele>270.94</ele>
        <time>2025-02-13T14:57:00.231Z</time>
      </trkpt>
      <trkpt lat="50.301268100738525" lon="5.5379462242126465">
        <ele>271.23</ele>
        <time>2025-02-13T14:57:02.190Z</time>
      </trkpt>
      <trkpt lat="50.30139684677124" lon="5.538032054901123">
        <ele>271.51</ele>
        <time>2025-02-13T14:57:04.151Z</time>
      </trkpt>
      <trkpt lat="50.301504135131836" lon="5.538160800933838">
        <ele>271.76</ele>
        <time>2025-02-13T14:57:06.114Z</time>
      </trkpt>
      <trkpt lat="50.301633048802614" lon="5.538375629112124">
        <ele>271.96</ele>
        <time>2025-02-13T14:57:08.080Z</time>
      </trkpt>
      <trkpt lat="50.301761627197266" lon="5.538589954376221">
        <ele>272.25</ele>
        <time>2025-02-13T14:57:10.049Z</time>
      </trkpt>
      <trkpt lat="50.30184745788574" lon="5.538697242736816">
        <ele>272.62</ele>
        <time>2025-02-13T14:57:12.020Z</time>
      </trkpt>
      <trkpt lat="50.30197620391846" lon="5.538740158081055">
        <ele>273.09</ele>
        <time>2025-02-13T14:57:13.993Z</time>
      </trkpt>
      <trkpt lat="50.30222648754716" lon="5.538783073425293">
        <ele>273.63</ele>
        <time>2025-02-13T14:57:15.970Z</time>
      </trkpt>
      <trkpt lat="50.30247685499489" lon="5.538825988769531">
        <ele>274.16</ele>
        <time>2025-02-13T14:57:17.951Z</time>
      </trkpt>
      <trkpt lat="50.30272722244263" lon="5.5388689041137695">
        <ele>274.6</ele>
        <time>2025-02-13T14:57:19.936Z</time>
      </trkpt>
      <trkpt lat="50.30298471450806" lon="5.538965463638306">
        <ele>274.91</ele>
        <time>2025-02-13T14:57:21.925Z</time>
      </trkpt>
      <trkpt lat="50.303242206573486" lon="5.539062023162842">
        <ele>275.26</ele>
        <time>2025-02-13T14:57:23.919Z</time>
      </trkpt>
      <trkpt lat="50.30351403169334" lon="5.539212226867676">
        <ele>275.51</ele>
        <time>2025-02-13T14:57:25.917Z</time>
      </trkpt>
      <trkpt lat="50.303785940632224" lon="5.5393625143915415">
        <ele>275.76</ele>
        <time>2025-02-13T14:57:27.920Z</time>
      </trkpt>
      <trkpt lat="50.304057598114014" lon="5.539512634277344">
        <ele>276.06</ele>
        <time>2025-02-13T14:57:29.927Z</time>
      </trkpt>
      <trkpt lat="50.30422925949097" lon="5.539534091949463">
        <ele>276.38</ele>
        <time>2025-02-13T14:57:31.937Z</time>
      </trkpt>
      <trkpt lat="50.30440092086792" lon="5.539555549621582">
        <ele>276.65</ele>
        <time>2025-02-13T14:57:33.950Z</time>
      </trkpt>
      <trkpt lat="50.30440100468695" lon="5.539555549621582">
        <ele>276.81</ele>
        <time>2025-02-13T14:57:35.963Z</time>
      </trkpt>
      <trkpt lat="50.30448683537543" lon="5.5396199226379395">
        <ele>276.93</ele>
        <time>2025-02-13T14:57:37.977Z</time>
      </trkpt>
      <trkpt lat="50.30470132827759" lon="5.539748668670654">
        <ele>277.0</ele>
        <time>2025-02-13T14:57:39.995Z</time>
      </trkpt>
      <trkpt lat="50.30491598881781" lon="5.539941871538758">
        <ele>276.93</ele>
        <time>2025-02-13T14:57:42.017Z</time>
      </trkpt>
      <trkpt lat="50.30513048171997" lon="5.540134906768799">
        <ele>276.85</ele>
        <time>2025-02-13T14:57:44.043Z</time>
      </trkpt>
      <trkpt lat="50.3053380176425" lon="5.540263652801514">
        <ele>276.81</ele>
        <time>2025-02-13T14:57:46.073Z</time>
      </trkpt>
      <trkpt lat="50.305545553565025" lon="5.54039248265326">
        <ele>276.73</ele>
        <time>2025-02-13T14:57:48.106Z</time>
      </trkpt>
      <trkpt lat="50.30575283803046" lon="5.540521144866943">
        <ele>276.66</ele>
        <time>2025-02-13T14:57:50.143Z</time>
      </trkpt>
      <trkpt lat="50.30597831122577" lon="5.540725076571107">
        <ele>276.29</ele>
        <time>2025-02-13T14:57:52.184Z</time>
      </trkpt>
      <trkpt lat="50.30620344914496" lon="5.540928840637207">
        <ele>275.76</ele>
        <time>2025-02-13T14:57:54.229Z</time>
      </trkpt>
      <trkpt lat="50.30626782216132" lon="5.5409932136535645">
        <ele>275.31</ele>
        <time>2025-02-13T14:57:56.275Z</time>
      </trkpt>
      <trkpt lat="50.30651626177132" lon="5.541226314380765">
        <ele>274.82</ele>
        <time>2025-02-13T14:57:58.326Z</time>
      </trkpt>
      <trkpt lat="50.30676478520036" lon="5.541459498926997">
        <ele>274.33</ele>
        <time>2025-02-13T14:58:00.382Z</time>
      </trkpt>
      <trkpt lat="50.30701322481036" lon="5.541692599654198">
        <ele>273.73</ele>
        <time>2025-02-13T14:58:02.442Z</time>
      </trkpt>
      <trkpt lat="50.3072617482394" lon="5.54192578420043">
        <ele>273.13</ele>
        <time>2025-02-13T14:58:04.507Z</time>
      </trkpt>
      <trkpt lat="50.3075101878494" lon="5.54215888492763">
        <ele>272.51</ele>
        <time>2025-02-13T14:58:06.577Z</time>
      </trkpt>
      <trkpt lat="50.30775871127844" lon="5.542392069473863">
        <ele>271.89</ele>
        <time>2025-02-13T14:58:08.651Z</time>
      </trkpt>
      <trkpt lat="50.308005809783936" lon="5.542623996734619">
        <ele>271.14</ele>
        <time>2025-02-13T14:58:10.730Z</time>
      </trkpt>
      <trkpt lat="50.30825802125037" lon="5.542801106348634">
        <ele>270.46</ele>
        <time>2025-02-13T14:58:12.813Z</time>
      </trkpt>
      <trkpt lat="50.30851031653583" lon="5.542978215962648">
        <ele>269.69</ele>
        <time>2025-02-13T14:58:14.901Z</time>
      </trkpt>
      <trkpt lat="50.30876252800226" lon="5.543155325576663">
        <ele>268.9</ele>
        <time>2025-02-13T14:58:16.993Z</time>
      </trkpt>
      <trkpt lat="50.309014320373535" lon="5.543332099914551">
        <ele>268.07</ele>
        <time>2025-02-13T14:58:19.090Z</time>
      </trkpt>
      <trkpt lat="50.30925052240491" lon="5.5435736663639545">
        <ele>267.15</ele>
        <time>2025-02-13T14:58:21.191Z</time>
      </trkpt>
      <trkpt lat="50.309486808255315" lon="5.54381531663239">
        <ele>266.21</ele>
        <time>2025-02-13T14:58:23.297Z</time>
      </trkpt>
      <trkpt lat="50.30972301028669" lon="5.544056883081794">
        <ele>265.3</ele>
        <time>2025-02-13T14:58:25.407Z</time>
      </trkpt>
      <trkpt lat="50.30995845794678" lon="5.544297695159912">
        <ele>264.41</ele>
        <time>2025-02-13T14:58:27.522Z</time>
      </trkpt>
      <trkpt lat="50.310167921707034" lon="5.544587709009647">
        <ele>263.45</ele>
        <time>2025-02-13T14:58:29.641Z</time>
      </trkpt>
      <trkpt lat="50.31037738546729" lon="5.544877722859383">
        <ele>262.47</ele>
        <time>2025-02-13T14:58:31.765Z</time>
      </trkpt>
      <trkpt lat="50.31058684922755" lon="5.54516782052815">
        <ele>261.47</ele>
        <time>2025-02-13T14:58:33.893Z</time>
      </trkpt>
      <trkpt lat="50.310795307159424" lon="5.545456409454346">
        <ele>260.44</ele>
        <time>2025-02-13T14:58:36.026Z</time>
      </trkpt>
      <trkpt lat="50.31099588610232" lon="5.545828901231289">
        <ele>259.31</ele>
        <time>2025-02-13T14:58:38.164Z</time>
      </trkpt>
      <trkpt lat="50.311196465045214" lon="5.546201476827264">
        <ele>258.33</ele>
        <time>2025-02-13T14:58:40.307Z</time>
      </trkpt>
      <trkpt lat="50.31139612197876" lon="5.546572208404541">
        <ele>257.53</ele>
        <time>2025-02-13T14:58:42.454Z</time>
      </trkpt>
      <trkpt lat="50.31158949248493" lon="5.546894492581487">
        <ele>256.74</ele>
        <time>2025-02-13T14:58:44.606Z</time>
      </trkpt>
      <trkpt lat="50.311782360076904" lon="5.547215938568115">
        <ele>255.92</ele>
        <time>2025-02-13T14:58:46.763Z</time>
      </trkpt>
      <trkpt lat="50.31201143749058" lon="5.5475094728171825">
        <ele>255.16</ele>
        <time>2025-02-13T14:58:48.924Z</time>
      </trkpt>
      <trkpt lat="50.31224059872329" lon="5.547803090885282">
        <ele>254.39</ele>
        <time>2025-02-13T14:58:51.090Z</time>
      </trkpt>
      <trkpt lat="50.31246900558472" lon="5.548095703125">
        <ele>253.57</ele>
        <time>2025-02-13T14:58:53.261Z</time>
      </trkpt>
      <trkpt lat="50.31255500391126" lon="5.54831069894135">
        <ele>252.68</ele>
        <time>2025-02-13T14:58:55.434Z</time>
      </trkpt>
      <trkpt lat="50.31264066696167" lon="5.548524856567383">
        <ele>251.83</ele>
        <time>2025-02-13T14:58:57.610Z</time>
      </trkpt>
      <trkpt lat="50.31266757287085" lon="5.54899281822145">
        <ele>250.94</ele>
        <time>2025-02-13T14:58:59.791Z</time>
      </trkpt>
      <trkpt lat="50.31269447878003" lon="5.549460863694549">
        <ele>250.14</ele>
        <time>2025-02-13T14:59:01.977Z</time>
      </trkpt>
      <trkpt lat="50.31272138468921" lon="5.549928825348616">
        <ele>249.3</ele>
        <time>2025-02-13T14:59:04.167Z</time>
      </trkpt>
      <trkpt lat="50.3127480391413" lon="5.550391674041748">
        <ele>248.33</ele>
        <time>2025-02-13T14:59:06.362Z</time>
      </trkpt>
      <trkpt lat="50.31283378601074" lon="5.550756454467773">
        <ele>247.57</ele>
        <time>2025-02-13T14:59:08.561Z</time>
      </trkpt>
      <trkpt lat="50.31296253204346" lon="5.551142692565918">
        <ele>246.89</ele>
        <time>2025-02-13T14:59:10.765Z</time>
      </trkpt>
      <trkpt lat="50.313166631385684" lon="5.551481153815985">
        <ele>246.18</ele>
        <time>2025-02-13T14:59:12.973Z</time>
      </trkpt>
      <trkpt lat="50.31337081454694" lon="5.5518196150660515">
        <ele>245.46</ele>
        <time>2025-02-13T14:59:15.186Z</time>
      </trkpt>
      <trkpt lat="50.3135749977082" lon="5.552158076316118">
        <ele>244.79</ele>
        <time>2025-02-13T14:59:17.404Z</time>
      </trkpt>
      <trkpt lat="50.313777923583984" lon="5.552494525909424">
        <ele>244.11</ele>
        <time>2025-02-13T14:59:19.627Z</time>
      </trkpt>
      <trkpt lat="50.31394983641803" lon="5.552849164232612">
        <ele>243.47</ele>
        <time>2025-02-13T14:59:21.854Z</time>
      </trkpt>
      <trkpt lat="50.31412124633789" lon="5.5532026290893555">
        <ele>242.81</ele>
        <time>2025-02-13T14:59:24.086Z</time>
      </trkpt>
      <trkpt lat="50.314264576882124" lon="5.553546622395515">
        <ele>242.29</ele>
        <time>2025-02-13T14:59:26.322Z</time>
      </trkpt>
      <trkpt lat="50.31440790742636" lon="5.553890615701675">
        <ele>241.73</ele>
        <time>2025-02-13T14:59:28.562Z</time>
      </trkpt>
      <trkpt lat="50.31455039978027" lon="5.554232597351074">
        <ele>241.09</ele>
        <time>2025-02-13T14:59:30.806Z</time>
      </trkpt>
      <trkpt lat="50.31466858461499" lon="5.554436696693301">
        <ele>240.44</ele>
        <time>2025-02-13T14:59:33.053Z</time>
      </trkpt>
      <trkpt lat="50.314786434173584" lon="5.554640293121338">
        <ele>239.79</ele>
        <time>2025-02-13T14:59:35.303Z</time>
      </trkpt>
      <trkpt lat="50.31493663787842" lon="5.554811954498291">
        <ele>239.16</ele>
        <time>2025-02-13T14:59:37.556Z</time>
      </trkpt>
      <trkpt lat="50.31519412994385" lon="5.555026531219482">
        <ele>238.39</ele>
        <time>2025-02-13T14:59:39.814Z</time>
      </trkpt>
      <trkpt lat="50.31540158204734" lon="5.555083695799112">
        <ele>237.68</ele>
        <time>2025-02-13T14:59:42.075Z</time>
      </trkpt>
      <trkpt lat="50.31560903415084" lon="5.555140944197774">
        <ele>237.0</ele>
        <time>2025-02-13T14:59:44.339Z</time>
      </trkpt>
      <trkpt lat="50.3158164024353" lon="5.5551981925964355">
        <ele>236.34</ele>
        <time>2025-02-13T14:59:46.607Z</time>
      </trkpt>
      <trkpt lat="50.31598814763129" lon="5.555294752120972">
        <ele>235.56</ele>
        <time>2025-02-13T14:59:48.878Z</time>
      </trkpt>
      <trkpt lat="50.31615980900824" lon="5.555391311645508">
        <ele>234.82</ele>
        <time>2025-02-13T14:59:51.152Z</time>
      </trkpt>
      <trkpt lat="50.3162241820246" lon="5.555434226989746">
        <ele>234.18</ele>
        <time>2025-02-13T14:59:53.427Z</time>
      </trkpt>
      <trkpt lat="50.31639575958252" lon="5.5556488037109375">
        <ele>233.46</ele>
        <time>2025-02-13T14:59:55.705Z</time>
      </trkpt>
      <trkpt lat="50.316524505615234" lon="5.555884838104248">
        <ele>232.87</ele>
        <time>2025-02-13T14:59:57.986Z</time>
      </trkpt>
      <trkpt lat="50.31666062772274" lon="5.556185748428106">
        <ele>232.29</ele>
        <time>2025-02-13T15:00:00.271Z</time>
      </trkpt>
      <trkpt lat="50.316796749830246" lon="5.556486742570996">
        <ele>231.78</ele>
        <time>2025-02-13T15:00:02.560Z</time>
      </trkpt>
      <trkpt lat="50.3169322013855" lon="5.556786060333252">
        <ele>231.32</ele>
        <time>2025-02-13T15:00:04.853Z</time>
      </trkpt>
      <trkpt lat="50.31709698960185" lon="5.557151511311531">
        <ele>231.04</ele>
        <time>2025-02-13T15:00:07.150Z</time>
      </trkpt>
      <trkpt lat="50.317261861637235" lon="5.55751696228981">
        <ele>230.78</ele>
        <time>2025-02-13T15:00:09.452Z</time>
      </trkpt>
      <trkpt lat="50.31742581166327" lon="5.557880401611328">
        <ele>230.57</ele>
        <time>2025-02-13T15:00:11.759Z</time>
      </trkpt>
      <trkpt lat="50.31754399649799" lon="5.558084500953555">
        <ele>230.39</ele>
        <time>2025-02-13T15:00:14.068Z</time>
      </trkpt>
      <trkpt lat="50.31766184605658" lon="5.558288097381592">
        <ele>230.27</ele>
        <time>2025-02-13T15:00:16.380Z</time>
      </trkpt>
      <trkpt lat="50.31786954961717" lon="5.558646256104112">
        <ele>230.16</ele>
        <time>2025-02-13T15:00:18.697Z</time>
      </trkpt>
      <trkpt lat="50.318077336996794" lon="5.5590044148266315">
        <ele>230.01</ele>
        <time>2025-02-13T15:00:21.019Z</time>
      </trkpt>
      <trkpt lat="50.318284118548036" lon="5.559360980987549">
        <ele>229.89</ele>
        <time>2025-02-13T15:00:23.346Z</time>
      </trkpt>
      <trkpt lat="50.31845577992499" lon="5.559661388397217">
        <ele>229.82</ele>
        <time>2025-02-13T15:00:25.677Z</time>
      </trkpt>
      <trkpt lat="50.3186384215951" lon="5.560026755556464">
        <ele>229.84</ele>
        <time>2025-02-13T15:00:28.013Z</time>
      </trkpt>
      <trkpt lat="50.31882047653198" lon="5.560390949249268">
        <ele>229.96</ele>
        <time>2025-02-13T15:00:30.354Z</time>
      </trkpt>
      <trkpt lat="50.318820560351014" lon="5.560390949249268">
        <ele>230.01</ele>
        <time>2025-02-13T15:00:32.695Z</time>
      </trkpt>
      <trkpt lat="50.31897529028356" lon="5.560752125456929">
        <ele>230.08</ele>
        <time>2025-02-13T15:00:35.040Z</time>
      </trkpt>
      <trkpt lat="50.31913010403514" lon="5.561113301664591">
        <ele>230.05</ele>
        <time>2025-02-13T15:00:37.390Z</time>
      </trkpt>
      <trkpt lat="50.319284833967686" lon="5.5614744778722525">
        <ele>230.17</ele>
        <time>2025-02-13T15:00:39.744Z</time>
      </trkpt>
      <trkpt lat="50.319439647719264" lon="5.561835654079914">
        <ele>230.33</ele>
        <time>2025-02-13T15:00:42.102Z</time>
      </trkpt>
      <trkpt lat="50.31959295272827" lon="5.562193393707275">
        <ele>230.57</ele>
        <time>2025-02-13T15:00:44.465Z</time>
      </trkpt>
      <trkpt lat="50.31970049254596" lon="5.562571920454502">
        <ele>230.68</ele>
        <time>2025-02-13T15:00:46.832Z</time>
      </trkpt>
      <trkpt lat="50.31980803236365" lon="5.562950447201729">
        <ele>230.63</ele>
        <time>2025-02-13T15:00:49.203Z</time>
      </trkpt>
      <trkpt lat="50.319915572181344" lon="5.5633289739489555">
        <ele>230.54</ele>
        <time>2025-02-13T15:00:51.579Z</time>
      </trkpt>
      <trkpt lat="50.320023111999035" lon="5.563707584515214">
        <ele>230.54</ele>
        <time>2025-02-13T15:00:53.959Z</time>
      </trkpt>
      <trkpt lat="50.32012939453125" lon="5.56408166885376">
        <ele>230.5</ele>
        <time>2025-02-13T15:00:56.343Z</time>
      </trkpt>
      <trkpt lat="50.320258140563965" lon="5.564446449279785">
        <ele>230.35</ele>
        <time>2025-02-13T15:00:58.731Z</time>
      </trkpt>
      <trkpt lat="50.32037992961705" lon="5.564754568040371">
        <ele>230.14</ele>
        <time>2025-02-13T15:01:01.123Z</time>
      </trkpt>
      <trkpt lat="50.32050180248916" lon="5.565062770619988">
        <ele>229.75</ele>
        <time>2025-02-13T15:01:03.519Z</time>
      </trkpt>
      <trkpt lat="50.32062292098999" lon="5.565369129180908">
        <ele>229.36</ele>
        <time>2025-02-13T15:01:05.918Z</time>
      </trkpt>
      <trkpt lat="50.32074957154691" lon="5.565770538523793">
        <ele>228.74</ele>
        <time>2025-02-13T15:01:08.322Z</time>
      </trkpt>
      <trkpt lat="50.320876222103834" lon="5.566171947866678">
        <ele>227.91</ele>
        <time>2025-02-13T15:01:10.731Z</time>
      </trkpt>
      <trkpt lat="50.321002872660756" lon="5.566573441028595">
        <ele>227.15</ele>
        <time>2025-02-13T15:01:13.144Z</time>
      </trkpt>
      <trkpt lat="50.32112952321768" lon="5.56697485037148">
        <ele>226.55</ele>
        <time>2025-02-13T15:01:15.562Z</time>
      </trkpt>
      <trkpt lat="50.3212561737746" lon="5.567376343533397">
        <ele>225.84</ele>
        <time>2025-02-13T15:01:17.984Z</time>
      </trkpt>
      <trkpt lat="50.32138282433152" lon="5.567777752876282">
        <ele>225.03</ele>
        <time>2025-02-13T15:01:20.411Z</time>
      </trkpt>
      <trkpt lat="50.321509474888444" lon="5.5681792460381985">
        <ele>224.24</ele>
        <time>2025-02-13T15:01:22.843Z</time>
      </trkpt>
      <trkpt lat="50.321636125445366" lon="5.568580739200115">
        <ele>223.53</ele>
        <time>2025-02-13T15:01:25.279Z</time>
      </trkpt>
      <trkpt lat="50.321760177612305" lon="5.568974018096924">
        <ele>222.8</ele>
        <time>2025-02-13T15:01:27.720Z</time>
      </trkpt>
      <trkpt lat="50.32191038131714" lon="5.5693817138671875">
        <ele>222.05</ele>
        <time>2025-02-13T15:01:30.165Z</time>
      </trkpt>
      <trkpt lat="50.321996212005615" lon="5.569553375244141">
        <ele>221.31</ele>
        <time>2025-02-13T15:01:32.613Z</time>
      </trkpt>
      <trkpt lat="50.32217516563833" lon="5.5697681196033955">
        <ele>220.58</ele>
        <time>2025-02-13T15:01:35.064Z</time>
      </trkpt>
      <trkpt lat="50.32235420309007" lon="5.569982947781682">
        <ele>219.92</ele>
        <time>2025-02-13T15:01:37.519Z</time>
      </trkpt>
      <trkpt lat="50.322532653808594" lon="5.570197105407715">
        <ele>219.28</ele>
        <time>2025-02-13T15:01:39.978Z</time>
      </trkpt>
      <trkpt lat="50.32274739816785" lon="5.570433307439089">
        <ele>218.6</ele>
        <time>2025-02-13T15:01:42.441Z</time>
      </trkpt>
      <trkpt lat="50.322962226346135" lon="5.5706695932894945">
        <ele>217.99</ele>
        <time>2025-02-13T15:01:44.908Z</time>
      </trkpt>
      <trkpt lat="50.32317638397217" lon="5.5709052085876465">
        <ele>217.37</ele>
        <time>2025-02-13T15:01:47.379Z</time>
      </trkpt>
      <trkpt lat="50.323262214660645" lon="5.571033954620361">
        <ele>216.79</ele>
        <time>2025-02-13T15:01:49.852Z</time>
      </trkpt>
      <trkpt lat="50.323283672332764" lon="5.571227073669434">
        <ele>216.24</ele>
        <time>2025-02-13T15:01:52.327Z</time>
      </trkpt>
      <trkpt lat="50.323262214660645" lon="5.571420192718506">
        <ele>215.7</ele>
        <time>2025-02-13T15:01:54.804Z</time>
      </trkpt>
      <trkpt lat="50.323100946843624" lon="5.571785643696785">
        <ele>215.19</ele>
        <time>2025-02-13T15:01:57.286Z</time>
      </trkpt>
      <trkpt lat="50.32294034957886" lon="5.572149753570557">
        <ele>214.77</ele>
        <time>2025-02-13T15:01:59.772Z</time>
      </trkpt>
      <trkpt lat="50.32285451889038" lon="5.572514533996582">
        <ele>214.35</ele>
        <time>2025-02-13T15:02:02.262Z</time>
      </trkpt>
      <trkpt lat="50.322768688201904" lon="5.572943687438965">
        <ele>213.97</ele>
        <time>2025-02-13T15:02:04.757Z</time>
      </trkpt>
      <trkpt lat="50.32270439900458" lon="5.573158264160156">
        <ele>213.64</ele>
        <time>2025-02-13T15:02:07.254Z</time>
      </trkpt>
      <trkpt lat="50.32264002598822" lon="5.573458671569824">
        <ele>213.36</ele>
        <time>2025-02-13T15:02:09.754Z</time>
      </trkpt>
      <trkpt lat="50.3226185683161" lon="5.57382345199585">
        <ele>213.15</ele>
        <time>2025-02-13T15:02:12.258Z</time>
      </trkpt>
      <trkpt lat="50.32263994216919" lon="5.573973655700684">
        <ele>212.95</ele>
        <time>2025-02-13T15:02:14.764Z</time>
      </trkpt>
      <trkpt lat="50.32278318889439" lon="5.574245899915695">
        <ele>212.74</ele>
        <time>2025-02-13T15:02:17.273Z</time>
      </trkpt>
      <trkpt lat="50.322926519438624" lon="5.574518144130707">
        <ele>212.53</ele>
        <time>2025-02-13T15:02:19.786Z</time>
      </trkpt>
      <trkpt lat="50.32306909561157" lon="5.574789047241211">
        <ele>212.3</ele>
        <time>2025-02-13T15:02:22.303Z</time>
      </trkpt>
      <trkpt lat="50.32331611029804" lon="5.575089706107974">
        <ele>212.04</ele>
        <time>2025-02-13T15:02:24.825Z</time>
      </trkpt>
      <trkpt lat="50.323562705889344" lon="5.575389862060547">
        <ele>211.86</ele>
        <time>2025-02-13T15:02:27.352Z</time>
      </trkpt>
      <trkpt lat="50.32371282577515" lon="5.575604438781738">
        <ele>211.74</ele>
        <time>2025-02-13T15:02:29.882Z</time>
      </trkpt>
      <trkpt lat="50.323831010609865" lon="5.5758623499423265">
        <ele>211.65</ele>
        <time>2025-02-13T15:02:32.415Z</time>
      </trkpt>
      <trkpt lat="50.32394886016846" lon="5.576119422912598">
        <ele>211.59</ele>
        <time>2025-02-13T15:02:34.951Z</time>
      </trkpt>
      <trkpt lat="50.3240483533591" lon="5.5763565469533205">
        <ele>211.48</ele>
        <time>2025-02-13T15:02:37.490Z</time>
      </trkpt>
      <trkpt lat="50.32420014962554" lon="5.576718226075172">
        <ele>211.36</ele>
        <time>2025-02-13T15:02:40.034Z</time>
      </trkpt>
      <trkpt lat="50.324351945891976" lon="5.577079989016056">
        <ele>211.35</ele>
        <time>2025-02-13T15:02:42.582Z</time>
      </trkpt>
      <trkpt lat="50.32450374215841" lon="5.57744175195694">
        <ele>211.32</ele>
        <time>2025-02-13T15:02:45.135Z</time>
      </trkpt>
      <trkpt lat="50.32465553842485" lon="5.577803431078792">
        <ele>211.31</ele>
        <time>2025-02-13T15:02:47.692Z</time>
      </trkpt>
      <trkpt lat="50.324807334691286" lon="5.578165194019675">
        <ele>211.33</ele>
        <time>2025-02-13T15:02:50.253Z</time>
      </trkpt>
      <trkpt lat="50.32495737075806" lon="5.578522682189941">
        <ele>211.3</ele>
        <time>2025-02-13T15:02:52.819Z</time>
      </trkpt>
      <trkpt lat="50.325075555592775" lon="5.578812947496772">
        <ele>211.3</ele>
        <time>2025-02-13T15:02:55.388Z</time>
      </trkpt>
      <trkpt lat="50.32519340515137" lon="5.579102039337158">
        <ele>211.26</ele>
        <time>2025-02-13T15:02:57.961Z</time>
      </trkpt>
      <trkpt lat="50.325311589986086" lon="5.579327680170536">
        <ele>211.23</ele>
        <time>2025-02-13T15:03:00.537Z</time>
      </trkpt>
      <trkpt lat="50.32542943954468" lon="5.57955265045166">
        <ele>211.2</ele>
        <time>2025-02-13T15:03:03.116Z</time>
      </trkpt>
      <trkpt lat="50.325654996559024" lon="5.579842664301395">
        <ele>211.16</ele>
        <time>2025-02-13T15:03:05.700Z</time>
      </trkpt>
      <trkpt lat="50.32588013447821" lon="5.580132007598877">
        <ele>211.15</ele>
        <time>2025-02-13T15:03:08.288Z</time>
      </trkpt>
      <trkpt lat="50.3260947111994" lon="5.580325126647949">
        <ele>211.11</ele>
        <time>2025-02-13T15:03:10.880Z</time>
      </trkpt>
      <trkpt lat="50.32618045806885" lon="5.580410957336426">
        <ele>211.07</ele>
        <time>2025-02-13T15:03:13.474Z</time>
      </trkpt>
      <trkpt lat="50.32643384300172" lon="5.580668617039919">
        <ele>211.05</ele>
        <time>2025-02-13T15:03:16.073Z</time>
      </trkpt>
      <trkpt lat="50.32668731175363" lon="5.580926360562444">
        <ele>210.98</ele>
        <time>2025-02-13T15:03:18.676Z</time>
      </trkpt>
      <trkpt lat="50.326940696686506" lon="5.581184104084969">
        <ele>210.91</ele>
        <time>2025-02-13T15:03:21.284Z</time>
      </trkpt>
      <trkpt lat="50.327194165438414" lon="5.581441763788462">
        <ele>210.86</ele>
        <time>2025-02-13T15:03:23.897Z</time>
      </trkpt>
      <trkpt lat="50.32744646072388" lon="5.581698417663574">
        <ele>210.72</ele>
        <time>2025-02-13T15:03:26.515Z</time>
      </trkpt>
      <trkpt lat="50.32759666442871" lon="5.581912994384766">
        <ele>210.43</ele>
        <time>2025-02-13T15:03:29.136Z</time>
      </trkpt>
      <trkpt lat="50.327746868133545" lon="5.582277774810791">
        <ele>210.04</ele>
        <time>2025-02-13T15:03:31.762Z</time>
      </trkpt>
      <trkpt lat="50.32783269882202" lon="5.582706928253174">
        <ele>209.66</ele>
        <time>2025-02-13T15:03:34.392Z</time>
      </trkpt>
      <trkpt lat="50.32787561416626" lon="5.583136081695557">
        <ele>209.32</ele>
        <time>2025-02-13T15:03:37.027Z</time>
      </trkpt>
      <trkpt lat="50.32786480151117" lon="5.583501867949963">
        <ele>208.95</ele>
        <time>2025-02-13T15:03:39.666Z</time>
      </trkpt>
      <trkpt lat="50.32785415649414" lon="5.583865642547607">
        <ele>208.58</ele>
        <time>2025-02-13T15:03:42.308Z</time>
      </trkpt>
      <trkpt lat="50.32789707183838" lon="5.584144592285156">
        <ele>208.22</ele>
        <time>2025-02-13T15:03:44.953Z</time>
      </trkpt>
      <trkpt lat="50.32802606932819" lon="5.584477856755257">
        <ele>207.84</ele>
        <time>2025-02-13T15:03:47.602Z</time>
      </trkpt>
      <trkpt lat="50.328155066818" lon="5.584811121225357">
        <ele>207.42</ele>
        <time>2025-02-13T15:03:50.255Z</time>
      </trkpt>
      <trkpt lat="50.32828406430781" lon="5.5851443856954575">
        <ele>207.01</ele>
        <time>2025-02-13T15:03:52.912Z</time>
      </trkpt>
      <trkpt lat="50.32841205596924" lon="5.585474967956543">
        <ele>206.66</ele>
        <time>2025-02-13T15:03:55.573Z</time>
      </trkpt>
      <trkpt lat="50.32847659662366" lon="5.585819128900766">
        <ele>206.25</ele>
        <time>2025-02-13T15:03:58.238Z</time>
      </trkpt>
      <trkpt lat="50.32854113727808" lon="5.5861633736640215">
        <ele>205.87</ele>
        <time>2025-02-13T15:04:00.907Z</time>
      </trkpt>
      <trkpt lat="50.32860517501831" lon="5.586504936218262">
        <ele>205.49</ele>
        <time>2025-02-13T15:04:03.579Z</time>
      </trkpt>
      <trkpt lat="50.328776836395264" lon="5.586826801300049">
        <ele>205.11</ele>
        <time>2025-02-13T15:04:06.255Z</time>
      </trkpt>
      <trkpt lat="50.32894849777222" lon="5.587019920349121">
        <ele>204.73</ele>
        <time>2025-02-13T15:04:08.935Z</time>
      </trkpt>
      <trkpt lat="50.32916307449341" lon="5.587213039398193">
        <ele>204.35</ele>
        <time>2025-02-13T15:04:11.619Z</time>
      </trkpt>
      <trkpt lat="50.329248905181885" lon="5.5872344970703125">
        <ele>203.98</ele>
        <time>2025-02-13T15:04:14.304Z</time>
      </trkpt>
      <trkpt lat="50.32940983772278" lon="5.587202226743102">
        <ele>203.62</ele>
        <time>2025-02-13T15:04:16.992Z</time>
      </trkpt>
      <trkpt lat="50.32957077026367" lon="5.587170124053955">
        <ele>203.23</ele>
        <time>2025-02-13T15:04:19.682Z</time>
      </trkpt>
      <trkpt lat="50.32981753349304" lon="5.587213039398193">
        <ele>202.82</ele>
        <time>2025-02-13T15:04:22.376Z</time>
      </trkpt>
      <trkpt lat="50.33006429672241" lon="5.587255954742432">
        <ele>202.43</ele>
        <time>2025-02-13T15:04:25.074Z</time>
      </trkpt>
      <trkpt lat="50.3302859980613" lon="5.587255954742432">
        <ele>202.05</ele>
        <time>2025-02-13T15:04:27.776Z</time>
      </trkpt>
      <trkpt lat="50.33050778321922" lon="5.587255954742432">
        <ele>201.71</ele>
        <time>2025-02-13T15:04:30.481Z</time>
      </trkpt>
      <trkpt lat="50.330729484558105" lon="5.587255954742432">
        <ele>201.38</ele>
        <time>2025-02-13T15:04:33.190Z</time>
      </trkpt>
      <trkpt lat="50.3309440612793" lon="5.5873095989227295">
        <ele>201.07</ele>
        <time>2025-02-13T15:04:35.902Z</time>
      </trkpt>
      <trkpt lat="50.33115863800049" lon="5.587363243103027">
        <ele>200.79</ele>
        <time>2025-02-13T15:04:38.618Z</time>
      </trkpt>
      <trkpt lat="50.3313946723938" lon="5.587481260299683">
        <ele>200.5</ele>
        <time>2025-02-13T15:04:41.338Z</time>
      </trkpt>
      <trkpt lat="50.33163070678711" lon="5.587599277496338">
        <ele>200.16</ele>
        <time>2025-02-13T15:04:44.062Z</time>
      </trkpt>
      <trkpt lat="50.33187218941748" lon="5.587754845619202">
        <ele>199.91</ele>
        <time>2025-02-13T15:04:46.790Z</time>
      </trkpt>
      <trkpt lat="50.33211367204785" lon="5.587910497561097">
        <ele>199.71</ele>
        <time>2025-02-13T15:04:49.522Z</time>
      </trkpt>
      <trkpt lat="50.33235523849726" lon="5.588066149502993">
        <ele>199.43</ele>
        <time>2025-02-13T15:04:52.258Z</time>
      </trkpt>
      <trkpt lat="50.33259630203247" lon="5.588221549987793">
        <ele>199.06</ele>
        <time>2025-02-13T15:04:54.999Z</time>
      </trkpt>
      <trkpt lat="50.3325963858515" lon="5.588221549987793">
        <ele>198.87</ele>
        <time>2025-02-13T15:04:57.740Z</time>
      </trkpt>
      <trkpt lat="50.332859409973025" lon="5.588410142809153">
        <ele>198.54</ele>
        <time>2025-02-13T15:05:00.485Z</time>
      </trkpt>
      <trkpt lat="50.33312251791358" lon="5.588598735630512">
        <ele>198.39</ele>
        <time>2025-02-13T15:05:03.235Z</time>
      </trkpt>
      <trkpt lat="50.333385625854135" lon="5.588787412270904">
        <ele>198.32</ele>
        <time>2025-02-13T15:05:05.990Z</time>
      </trkpt>
      <trkpt lat="50.33364814706147" lon="5.588975669816136">
        <ele>198.24</ele>
        <time>2025-02-13T15:05:08.749Z</time>
      </trkpt>
      <trkpt lat="50.333733558654785" lon="5.58903694152832">
        <ele>198.17</ele>
        <time>2025-02-13T15:05:11.510Z</time>
      </trkpt>
      <trkpt lat="50.3338623046875" lon="5.589165687561035">
        <ele>198.14</ele>
        <time>2025-02-13T15:05:14.273Z</time>
      </trkpt>
      <trkpt lat="50.33394813537598" lon="5.589358806610107">
        <ele>198.14</ele>
        <time>2025-02-13T15:05:17.039Z</time>
      </trkpt>
      <trkpt lat="50.33399113453925" lon="5.58955192565918">
        <ele>198.16</ele>
        <time>2025-02-13T15:05:19.807Z</time>
      </trkpt>
      <trkpt lat="50.334087777882814" lon="5.589820649474859">
        <ele>198.2</ele>
        <time>2025-02-13T15:05:22.578Z</time>
      </trkpt>
      <trkpt lat="50.33418416976929" lon="5.590088367462158">
        <ele>198.21</ele>
        <time>2025-02-13T15:05:25.352Z</time>
      </trkpt>
      <trkpt lat="50.33437041565776" lon="5.590410735458136">
        <ele>198.21</ele>
        <time>2025-02-13T15:05:28.130Z</time>
      </trkpt>
      <trkpt lat="50.33455666154623" lon="5.590733103454113">
        <ele>198.26</ele>
        <time>2025-02-13T15:05:30.913Z</time>
      </trkpt>
      <trkpt lat="50.334742069244385" lon="5.5910539627075195">
        <ele>198.31</ele>
        <time>2025-02-13T15:05:33.700Z</time>
      </trkpt>
      <trkpt lat="50.33480644226074" lon="5.591139793395996">
        <ele>198.39</ele>
        <time>2025-02-13T15:05:36.489Z</time>
      </trkpt>
      <trkpt lat="50.33484944142401" lon="5.591247081756592">
        <ele>198.49</ele>
        <time>2025-02-13T15:05:39.279Z</time>
      </trkpt>
      <trkpt lat="50.33506418578327" lon="5.591558553278446">
        <ele>198.62</ele>
        <time>2025-02-13T15:05:42.074Z</time>
      </trkpt>
      <trkpt lat="50.33527851104736" lon="5.591869354248047">
        <ele>198.79</ele>
        <time>2025-02-13T15:05:44.873Z</time>
      </trkpt>
      <trkpt lat="50.33551479689777" lon="5.59215928427875">
        <ele>198.97</ele>
        <time>2025-02-13T15:05:47.677Z</time>
      </trkpt>
      <trkpt lat="50.335750579833984" lon="5.592448711395264">
        <ele>199.15</ele>
        <time>2025-02-13T15:05:50.486Z</time>
      </trkpt>
      <trkpt lat="50.33592224121094" lon="5.592234134674072">
        <ele>199.22</ele>
        <time>2025-02-13T15:05:53.298Z</time>
      </trkpt>
      <trkpt lat="50.33607244491577" lon="5.592062473297119">
        <ele>199.33</ele>
        <time>2025-02-13T15:05:56.113Z</time>
      </trkpt>
      <trkpt lat="50.33628702163696" lon="5.591955184936523">
        <ele>199.49</ele>
        <time>2025-02-13T15:05:58.932Z</time>
      </trkpt>
      <trkpt lat="50.33658742904663" lon="5.591847896575928">
        <ele>199.66</ele>
        <time>2025-02-13T15:06:01.756Z</time>
      </trkpt>
      <trkpt lat="50.33681022003293" lon="5.591846220195293">
        <ele>199.77</ele>
        <time>2025-02-13T15:06:04.584Z</time>
      </trkpt>
      <trkpt lat="50.337095372378826" lon="5.591843957081437">
        <ele>199.83</ele>
        <time>2025-02-13T15:06:07.416Z</time>
      </trkpt>
      <trkpt lat="50.337380608543754" lon="5.5918417777866125">
        <ele>199.91</ele>
        <time>2025-02-13T15:06:10.253Z</time>
      </trkpt>
      <trkpt lat="50.33766584470868" lon="5.591839598491788">
        <ele>199.88</ele>
        <time>2025-02-13T15:06:13.094Z</time>
      </trkpt>
      <trkpt lat="50.33795108087361" lon="5.591837419196963">
        <ele>199.9</ele>
        <time>2025-02-13T15:06:15.940Z</time>
      </trkpt>
      <trkpt lat="50.338236317038536" lon="5.591835156083107">
        <ele>200.0</ele>
        <time>2025-02-13T15:06:18.790Z</time>
      </trkpt>
      <trkpt lat="50.338521553203464" lon="5.591832976788282">
        <ele>200.15</ele>
        <time>2025-02-13T15:06:21.645Z</time>
      </trkpt>
      <trkpt lat="50.33880670554936" lon="5.591830797493458">
        <ele>200.34</ele>
        <time>2025-02-13T15:06:24.505Z</time>
      </trkpt>
      <trkpt lat="50.33909194171429" lon="5.591828618198633">
        <ele>200.45</ele>
        <time>2025-02-13T15:06:27.369Z</time>
      </trkpt>
      <trkpt lat="50.33937701024115" lon="5.591826438903809">
        <ele>200.52</ele>
        <time>2025-02-13T15:06:30.238Z</time>
      </trkpt>
      <trkpt lat="50.33937692642212" lon="5.591826438903809">
        <ele>200.45</ele>
        <time>2025-02-13T15:06:33.107Z</time>
      </trkpt>
      <trkpt lat="50.33954858779907" lon="5.591826438903809">
        <ele>200.4</ele>
        <time>2025-02-13T15:06:35.978Z</time>
      </trkpt>
      <trkpt lat="50.339709520339966" lon="5.591826355084777">
        <ele>200.3</ele>
        <time>2025-02-13T15:06:38.852Z</time>
      </trkpt>
      <trkpt lat="50.33987053669989" lon="5.591826438903809">
        <ele>200.11</ele>
        <time>2025-02-13T15:06:41.729Z</time>
      </trkpt>
      <trkpt lat="50.33987045288086" lon="5.591826438903809">
        <ele>199.87</ele>
        <time>2025-02-13T15:06:44.606Z</time>
      </trkpt>
      <trkpt lat="50.34010648727417" lon="5.591819230467081">
        <ele>199.59</ele>
        <time>2025-02-13T15:06:47.486Z</time>
      </trkpt>
      <trkpt lat="50.34034252166748" lon="5.591812105849385">
        <ele>199.25</ele>
        <time>2025-02-13T15:06:50.370Z</time>
      </trkpt>
      <trkpt lat="50.34057855606079" lon="5.5918049812316895">
        <ele>198.77</ele>
        <time>2025-02-13T15:06:53.258Z</time>
      </trkpt>
      <trkpt lat="50.34086471423507" lon="5.59170481748879">
        <ele>198.2</ele>
        <time>2025-02-13T15:06:56.151Z</time>
      </trkpt>
      <trkpt lat="50.341150872409344" lon="5.59160465374589">
        <ele>197.64</ele>
        <time>2025-02-13T15:06:59.048Z</time>
      </trkpt>
      <trkpt lat="50.34143686294556" lon="5.5915045738220215">
        <ele>197.15</ele>
        <time>2025-02-13T15:07:01.950Z</time>
      </trkpt>
      <trkpt lat="50.341737773269415" lon="5.591393262147903">
        <ele>196.66</ele>
        <time>2025-02-13T15:07:04.857Z</time>
      </trkpt>
      <trkpt lat="50.34203868359327" lon="5.591281950473785">
        <ele>196.03</ele>
        <time>2025-02-13T15:07:07.769Z</time>
      </trkpt>
      <trkpt lat="50.34233959391713" lon="5.591170722618699">
        <ele>195.34</ele>
        <time>2025-02-13T15:07:10.686Z</time>
      </trkpt>
      <trkpt lat="50.34264058806002" lon="5.591059410944581">
        <ele>194.74</ele>
        <time>2025-02-13T15:07:13.608Z</time>
      </trkpt>
      <trkpt lat="50.34294149838388" lon="5.590948183089495">
        <ele>194.22</ele>
        <time>2025-02-13T15:07:16.535Z</time>
      </trkpt>
      <trkpt lat="50.34324240870774" lon="5.590836871415377">
        <ele>193.62</ele>
        <time>2025-02-13T15:07:19.467Z</time>
      </trkpt>
      <trkpt lat="50.34354340285063" lon="5.59072564356029">
        <ele>193.0</ele>
        <time>2025-02-13T15:07:22.404Z</time>
      </trkpt>
      <trkpt lat="50.343844313174486" lon="5.590614331886172">
        <ele>192.44</ele>
        <time>2025-02-13T15:07:25.346Z</time>
      </trkpt>
      <trkpt lat="50.344145223498344" lon="5.590503020212054">
        <ele>191.91</ele>
        <time>2025-02-13T15:07:28.293Z</time>
      </trkpt>
      <trkpt lat="50.344446217641234" lon="5.590391792356968">
        <ele>191.35</ele>
        <time>2025-02-13T15:07:31.245Z</time>
      </trkpt>
      <trkpt lat="50.34474712796509" lon="5.59028048068285">
        <ele>190.85</ele>
        <time>2025-02-13T15:07:34.201Z</time>
      </trkpt>
      <trkpt lat="50.345047283917665" lon="5.590169504284859">
        <ele>190.34</ele>
        <time>2025-02-13T15:07:37.162Z</time>
      </trkpt>
      <trkpt lat="50.34530209377408" lon="5.590075207874179">
        <ele>189.83</ele>
        <time>2025-02-13T15:07:40.128Z</time>
      </trkpt>
      <trkpt lat="50.34555681981146" lon="5.5899810791015625">
        <ele>189.38</ele>
        <time>2025-02-13T15:07:43.098Z</time>
      </trkpt>
      <trkpt lat="50.34577131271362" lon="5.589916622266173">
        <ele>188.97</ele>
        <time>2025-02-13T15:07:46.071Z</time>
      </trkpt>
      <trkpt lat="50.345985889434814" lon="5.589852333068848">
        <ele>188.6</ele>
        <time>2025-02-13T15:07:49.048Z</time>
      </trkpt>
      <trkpt lat="50.34616836346686" lon="5.589723503217101">
        <ele>188.17</ele>
        <time>2025-02-13T15:07:52.028Z</time>
      </trkpt>
      <trkpt lat="50.34635066986084" lon="5.589594841003418">
        <ele>187.74</ele>
        <time>2025-02-13T15:07:55.011Z</time>
      </trkpt>
      <trkpt lat="50.346533227711916" lon="5.589390741661191">
        <ele>187.33</ele>
        <time>2025-02-13T15:07:57.998Z</time>
      </trkpt>
      <trkpt lat="50.3467155341059" lon="5.589187145233154">
        <ele>186.95</ele>
        <time>2025-02-13T15:08:00.988Z</time>
      </trkpt>
      <trkpt lat="50.346715450286865" lon="5.589187145233154">
        <ele>186.64</ele>
        <time>2025-02-13T15:08:03.978Z</time>
      </trkpt>
      <trkpt lat="50.34693011082709" lon="5.588951110839844">
        <ele>186.35</ele>
        <time>2025-02-13T15:08:06.973Z</time>
      </trkpt>
      <trkpt lat="50.347037399187684" lon="5.588843822479248">
        <ele>186.11</ele>
        <time>2025-02-13T15:08:09.970Z</time>
      </trkpt>
      <trkpt lat="50.34721995703876" lon="5.588639723137021">
        <ele>185.89</ele>
        <time>2025-02-13T15:08:12.970Z</time>
      </trkpt>
      <trkpt lat="50.34740217961371" lon="5.588436126708984">
        <ele>185.64</ele>
        <time>2025-02-13T15:08:15.974Z</time>
      </trkpt>
      <trkpt lat="50.34755238331854" lon="5.58828592300415">
        <ele>185.42</ele>
        <time>2025-02-13T15:08:18.981Z</time>
      </trkpt>
      <trkpt lat="50.34755229949951" lon="5.58828592300415">
        <ele>185.24</ele>
        <time>2025-02-13T15:08:21.988Z</time>
      </trkpt>
      <trkpt lat="50.3477240446955" lon="5.588092803955078">
        <ele>185.03</ele>
        <time>2025-02-13T15:08:24.998Z</time>
      </trkpt>
      <trkpt lat="50.3479674551636" lon="5.587835060432553">
        <ele>184.86</ele>
        <time>2025-02-13T15:08:28.013Z</time>
      </trkpt>
      <trkpt lat="50.3482108656317" lon="5.5875773169100285">
        <ele>184.8</ele>
        <time>2025-02-13T15:08:31.033Z</time>
      </trkpt>
      <trkpt lat="50.3484542760998" lon="5.587319573387504">
        <ele>184.74</ele>
        <time>2025-02-13T15:08:34.057Z</time>
      </trkpt>
      <trkpt lat="50.3486976865679" lon="5.587061829864979">
        <ele>184.66</ele>
        <time>2025-02-13T15:08:37.086Z</time>
      </trkpt>
      <trkpt lat="50.348941097036004" lon="5.586804086342454">
        <ele>184.55</ele>
        <time>2025-02-13T15:08:40.120Z</time>
      </trkpt>
      <trkpt lat="50.3491831663996" lon="5.5865478515625">
        <ele>184.48</ele>
        <time>2025-02-13T15:08:43.158Z</time>
      </trkpt>
      <trkpt lat="50.34939791075885" lon="5.5863062012940645">
        <ele>184.5</ele>
        <time>2025-02-13T15:08:46.201Z</time>
      </trkpt>
      <trkpt lat="50.34961273893714" lon="5.586064551025629">
        <ele>184.56</ele>
        <time>2025-02-13T15:08:49.248Z</time>
      </trkpt>
      <trkpt lat="50.349827483296394" lon="5.585822900757194">
        <ele>184.51</ele>
        <time>2025-02-13T15:08:52.299Z</time>
      </trkpt>
      <trkpt lat="50.350041473284364" lon="5.585582256317139">
        <ele>184.41</ele>
        <time>2025-02-13T15:08:55.354Z</time>
      </trkpt>
      <trkpt lat="50.35017021931708" lon="5.585324764251709">
        <ele>184.41</ele>
        <time>2025-02-13T15:08:58.413Z</time>
      </trkpt>
      <trkpt lat="50.350256050005555" lon="5.585024356842041">
        <ele>184.48</ele>
        <time>2025-02-13T15:09:01.475Z</time>
      </trkpt>
      <trkpt lat="50.35029888153076" lon="5.584895610809326">
        <ele>184.52</ele>
        <time>2025-02-13T15:09:04.538Z</time>
      </trkpt>
      <trkpt lat="50.35032042302191" lon="5.584831237792969">
        <ele>184.5</ele>
        <time>2025-02-13T15:09:07.602Z</time>
      </trkpt>
      <trkpt lat="50.35042771138251" lon="5.584423542022705">
        <ele>184.45</ele>
        <time>2025-02-13T15:09:10.671Z</time>
      </trkpt>
      <trkpt lat="50.35042762756348" lon="5.584423542022705">
        <ele>184.38</ele>
        <time>2025-02-13T15:09:13.740Z</time>
      </trkpt>
      <trkpt lat="50.35054589621723" lon="5.58399329893291">
        <ele>184.23</ele>
        <time>2025-02-13T15:09:16.814Z</time>
      </trkpt>
      <trkpt lat="50.35066374577582" lon="5.5835652351379395">
        <ele>184.21</ele>
        <time>2025-02-13T15:09:19.892Z</time>
      </trkpt>
      <trkpt lat="50.35072820261121" lon="5.583328614011407">
        <ele>184.18</ele>
        <time>2025-02-13T15:09:22.973Z</time>
      </trkpt>
      <trkpt lat="50.350792491808534" lon="5.583093166351318">
        <ele>184.19</ele>
        <time>2025-02-13T15:09:26.057Z</time>
      </trkpt>
      <trkpt lat="50.350921489298344" lon="5.582670131698251">
        <ele>184.19</ele>
        <time>2025-02-13T15:09:29.145Z</time>
      </trkpt>
      <trkpt lat="50.351050486788154" lon="5.582247180864215">
        <ele>184.14</ele>
        <time>2025-02-13T15:09:32.238Z</time>
      </trkpt>
      <trkpt lat="50.35117864608765" lon="5.581827163696289">
        <ele>184.21</ele>
        <time>2025-02-13T15:09:35.336Z</time>
      </trkpt>
      <trkpt lat="50.351243102923036" lon="5.581698417663574">
        <ele>184.11</ele>
        <time>2025-02-13T15:09:38.436Z</time>
      </trkpt>
      <trkpt lat="50.35130739212036" lon="5.5815911293029785">
        <ele>184.13</ele>
        <time>2025-02-13T15:09:41.537Z</time>
      </trkpt>
      <trkpt lat="50.351479137316346" lon="5.581355094909668">
        <ele>184.16</ele>
        <time>2025-02-13T15:09:44.642Z</time>
      </trkpt>
      <trkpt lat="50.35156488418579" lon="5.581204891204834">
        <ele>184.45</ele>
        <time>2025-02-13T15:09:47.749Z</time>
      </trkpt>
      <trkpt lat="50.3515540715307" lon="5.581527594476938">
        <ele>184.83</ele>
        <time>2025-02-13T15:09:50.859Z</time>
      </trkpt>
      <trkpt lat="50.35154342651367" lon="5.581848621368408">
        <ele>185.44</ele>
        <time>2025-02-13T15:09:53.972Z</time>
      </trkpt>
      <trkpt lat="50.35151107236743" lon="5.582203594967723">
        <ele>186.24</ele>
        <time>2025-02-13T15:09:57.089Z</time>
      </trkpt>
      <trkpt lat="50.351479053497314" lon="5.58255672454834">
        <ele>187.14</ele>
        <time>2025-02-13T15:10:00.210Z</time>
      </trkpt>
      <trkpt lat="50.351457595825195" lon="5.582642555236816">
        <ele>188.11</ele>
        <time>2025-02-13T15:10:03.332Z</time>
      </trkpt>
      <trkpt lat="50.35139330662787" lon="5.58305025100708">
        <ele>189.14</ele>
        <time>2025-02-13T15:10:06.458Z</time>
      </trkpt>
      <trkpt lat="50.35135022364557" lon="5.583372954279184">
        <ele>190.35</ele>
        <time>2025-02-13T15:10:09.587Z</time>
      </trkpt>
      <trkpt lat="50.35130739212036" lon="5.583693981170654">
        <ele>191.78</ele>
        <time>2025-02-13T15:10:12.720Z</time>
      </trkpt>
      <trkpt lat="50.35128593444824" lon="5.583972930908203">
        <ele>193.44</ele>
        <time>2025-02-13T15:10:15.856Z</time>
      </trkpt>
      <trkpt lat="50.35132893361151" lon="5.583994388580322">
        <ele>195.07</ele>
        <time>2025-02-13T15:10:18.992Z</time>
      </trkpt>
      <trkpt lat="50.351538229733706" lon="5.583811830729246">
        <ele>196.97</ele>
        <time>2025-02-13T15:10:22.132Z</time>
      </trkpt>
      <trkpt lat="50.35174760967493" lon="5.58362927287817">
        <ele>198.84</ele>
        <time>2025-02-13T15:10:25.276Z</time>
      </trkpt>
      <trkpt lat="50.351956905797124" lon="5.583446798846126">
        <ele>200.87</ele>
        <time>2025-02-13T15:10:28.424Z</time>
      </trkpt>
      <trkpt lat="50.35216569900513" lon="5.5832648277282715">
        <ele>202.92</ele>
        <time>2025-02-13T15:10:31.576Z</time>
      </trkpt>
      <trkpt lat="50.35232663154602" lon="5.583211099728942">
        <ele>205.24</ele>
        <time>2025-02-13T15:10:34.730Z</time>
      </trkpt>
      <trkpt lat="50.352487564086914" lon="5.583157539367676">
        <ele>207.57</ele>
        <time>2025-02-13T15:10:37.887Z</time>
      </trkpt>
      <trkpt lat="50.352702140808105" lon="5.582985877990723">
        <ele>209.81</ele>
        <time>2025-02-13T15:10:41.048Z</time>
      </trkpt>
      <trkpt lat="50.35291688516736" lon="5.582771049812436">
        <ele>212.16</ele>
        <time>2025-02-13T15:10:44.213Z</time>
      </trkpt>
      <trkpt lat="50.35313129425049" lon="5.58255672454834">
        <ele>214.68</ele>
        <time>2025-02-13T15:10:47.382Z</time>
      </trkpt>
      <trkpt lat="50.353303123265505" lon="5.582298813387752">
        <ele>217.18</ele>
        <time>2025-02-13T15:10:50.555Z</time>
      </trkpt>
      <trkpt lat="50.353474617004395" lon="5.5820417404174805">
        <ele>219.74</ele>
        <time>2025-02-13T15:10:53.732Z</time>
      </trkpt>
      <trkpt lat="50.35364627838135" lon="5.581955909729004">
        <ele>222.38</ele>
        <time>2025-02-13T15:10:56.912Z</time>
      </trkpt>
      <trkpt lat="50.35377502441406" lon="5.5820417404174805">
        <ele>225.07</ele>
        <time>2025-02-13T15:11:00.094Z</time>
      </trkpt>
      <trkpt lat="50.353946685791016" lon="5.581998825073242">
        <ele>227.71</ele>
        <time>2025-02-13T15:11:03.279Z</time>
      </trkpt>
      <trkpt lat="50.35408632829785" lon="5.581805454567075">
        <ele>230.23</ele>
        <time>2025-02-13T15:11:06.467Z</time>
      </trkpt>
      <trkpt lat="50.354225635528564" lon="5.581612586975098">
        <ele>232.71</ele>
        <time>2025-02-13T15:11:09.658Z</time>
      </trkpt>
      <trkpt lat="50.354440212249756" lon="5.581483840942383">
        <ele>235.33</ele>
        <time>2025-02-13T15:11:12.852Z</time>
      </trkpt>
      <trkpt lat="50.35459041595459" lon="5.5814409255981445">
        <ele>237.82</ele>
        <time>2025-02-13T15:11:16.049Z</time>
      </trkpt>
      <trkpt lat="50.35489082336426" lon="5.581569671630859">
        <ele>240.45</ele>
        <time>2025-02-13T15:11:19.251Z</time>
      </trkpt>
      <trkpt lat="50.35500389523804" lon="5.581557098776102">
        <ele>242.81</ele>
        <time>2025-02-13T15:11:22.454Z</time>
      </trkpt>
      <trkpt lat="50.35508394241333" lon="5.58154821395874">
        <ele>245.1</ele>
        <time>2025-02-13T15:11:25.659Z</time>
      </trkpt>
      <trkpt lat="50.35531293600798" lon="5.581340594217181">
        <ele>247.3</ele>
        <time>2025-02-13T15:11:28.868Z</time>
      </trkpt>
      <trkpt lat="50.355542013421655" lon="5.581132974475622">
        <ele>249.47</ele>
        <time>2025-02-13T15:11:32.081Z</time>
      </trkpt>
      <trkpt lat="50.35577058792114" lon="5.580925941467285">
        <ele>251.53</ele>
        <time>2025-02-13T15:11:35.298Z</time>
      </trkpt>
      <trkpt lat="50.355931520462036" lon="5.580829298123717">
        <ele>253.54</ele>
        <time>2025-02-13T15:11:38.518Z</time>
      </trkpt>
      <trkpt lat="50.35609245300293" lon="5.580732822418213">
        <ele>255.45</ele>
        <time>2025-02-13T15:11:41.741Z</time>
      </trkpt>
      <trkpt lat="50.35634994506836" lon="5.580689823254943">
        <ele>257.28</ele>
        <time>2025-02-13T15:11:44.968Z</time>
      </trkpt>
      <trkpt lat="50.35660743713379" lon="5.580646991729736">
        <ele>258.97</ele>
        <time>2025-02-13T15:11:48.199Z</time>
      </trkpt>
      <trkpt lat="50.35687574185431" lon="5.580722093582153">
        <ele>260.65</ele>
        <time>2025-02-13T15:11:51.435Z</time>
      </trkpt>
      <trkpt lat="50.3571439627558" lon="5.58079719543457">
        <ele>262.11</ele>
        <time>2025-02-13T15:11:54.675Z</time>
      </trkpt>
      <trkpt lat="50.35714387893677" lon="5.58079719543457">
        <ele>263.4</ele>
        <time>2025-02-13T15:11:57.915Z</time>
      </trkpt>
      <trkpt lat="50.35729416646063" lon="5.580754280090332">
        <ele>264.53</ele>
        <time>2025-02-13T15:12:01.157Z</time>
      </trkpt>
      <trkpt lat="50.35735853947699" lon="5.580732822418213">
        <ele>265.57</ele>
        <time>2025-02-13T15:12:04.401Z</time>
      </trkpt>
      <trkpt lat="50.35750865936279" lon="5.580604076385498">
        <ele>266.45</ele>
        <time>2025-02-13T15:12:07.647Z</time>
      </trkpt>
      <trkpt lat="50.35761603154242" lon="5.580539703369141">
        <ele>267.29</ele>
        <time>2025-02-13T15:12:10.895Z</time>
      </trkpt>
      <trkpt lat="50.357744777575135" lon="5.580475330352783">
        <ele>268.03</ele>
        <time>2025-02-13T15:12:14.145Z</time>
      </trkpt>
      <trkpt lat="50.35798802040517" lon="5.580332167446613">
        <ele>268.68</ele>
        <time>2025-02-13T15:12:17.399Z</time>
      </trkpt>
      <trkpt lat="50.35823134705424" lon="5.580189088359475">
        <ele>269.28</ele>
        <time>2025-02-13T15:12:20.658Z</time>
      </trkpt>
      <trkpt lat="50.358474338427186" lon="5.5800461769104">
        <ele>269.71</ele>
        <time>2025-02-13T15:12:23.921Z</time>
      </trkpt>
      <trkpt lat="50.358764100819826" lon="5.579917347058654">
        <ele>270.0</ele>
        <time>2025-02-13T15:12:27.189Z</time>
      </trkpt>
      <trkpt lat="50.3590536955744" lon="5.579788684844971">
        <ele>270.14</ele>
        <time>2025-02-13T15:12:30.461Z</time>
      </trkpt>
      <trkpt lat="50.35929685458541" lon="5.57970997877419">
        <ele>270.16</ele>
        <time>2025-02-13T15:12:33.737Z</time>
      </trkpt>
      <trkpt lat="50.35954009741545" lon="5.579631272703409">
        <ele>270.05</ele>
        <time>2025-02-13T15:12:37.017Z</time>
      </trkpt>
      <trkpt lat="50.359783256426454" lon="5.57955265045166">
        <ele>269.85</ele>
        <time>2025-02-13T15:12:40.301Z</time>
      </trkpt>
      <trkpt lat="50.359976291656494" lon="5.579488277435303">
        <ele>269.53</ele>
        <time>2025-02-13T15:12:43.588Z</time>
      </trkpt>
      <trkpt lat="50.36021249368787" lon="5.579262720420957">
        <ele>269.15</ele>
        <time>2025-02-13T15:12:46.880Z</time>
      </trkpt>
      <trkpt lat="50.360448360443115" lon="5.579037666320801">
        <ele>268.69</ele>
        <time>2025-02-13T15:12:50.176Z</time>
      </trkpt>
      <trkpt lat="50.36064156331122" lon="5.578919565305114">
        <ele>268.13</ele>
        <time>2025-02-13T15:12:53.476Z</time>
      </trkpt>
      <trkpt lat="50.36083459854126" lon="5.57880163192749">
        <ele>267.49</ele>
        <time>2025-02-13T15:12:56.779Z</time>
      </trkpt>
      <trkpt lat="50.36088841035962" lon="5.578371305018663">
        <ele>266.59</ele>
        <time>2025-02-13T15:13:00.086Z</time>
      </trkpt>
      <trkpt lat="50.36094197072089" lon="5.577943325042725">
        <ele>265.65</ele>
        <time>2025-02-13T15:13:03.398Z</time>
      </trkpt>
      <trkpt lat="50.361060155555606" lon="5.577674517408013">
        <ele>264.72</ele>
        <time>2025-02-13T15:13:06.713Z</time>
      </trkpt>
      <trkpt lat="50.361177921295166" lon="5.577406883239746">
        <ele>263.76</ele>
        <time>2025-02-13T15:13:10.032Z</time>
      </trkpt>
      <trkpt lat="50.36126375198364" lon="5.577085018157959">
        <ele>262.73</ele>
        <time>2025-02-13T15:13:13.354Z</time>
      </trkpt>
      <trkpt lat="50.36124221049249" lon="5.576826771721244">
        <ele>261.68</ele>
        <time>2025-02-13T15:13:16.679Z</time>
      </trkpt>
      <trkpt lat="50.361220836639404" lon="5.5765700340271">
        <ele>260.58</ele>
        <time>2025-02-13T15:13:20.007Z</time>
      </trkpt>
      <trkpt lat="50.36096862517297" lon="5.576473390683532">
        <ele>259.37</ele>
        <time>2025-02-13T15:13:23.339Z</time>
      </trkpt>
      <trkpt lat="50.36071641370654" lon="5.576376831158996">
        <ele>258.06</ele>
        <time>2025-02-13T15:13:26.675Z</time>
      </trkpt>
      <trkpt lat="50.36046420224011" lon="5.5762802716344595">
        <ele>256.73</ele>
        <time>2025-02-13T15:13:30.015Z</time>
      </trkpt>
      <trkpt lat="50.360212326049805" lon="5.576183795928955">
        <ele>255.41</ele>
        <time>2025-02-13T15:13:33.359Z</time>
      </trkpt>
      <trkpt lat="50.36010512150824" lon="5.576162338256836">
        <ele>254.08</ele>
        <time>2025-02-13T15:13:36.705Z</time>
      </trkpt>
      <trkpt lat="50.359922647476196" lon="5.576087152585387">
        <ele>252.71</ele>
        <time>2025-02-13T15:13:40.054Z</time>
      </trkpt>
      <trkpt lat="50.359740341082215" lon="5.576012134552002">
        <ele>251.33</ele>
        <time>2025-02-13T15:13:43.406Z</time>
      </trkpt>
      <trkpt lat="50.35956867970526" lon="5.575926303863525">
        <ele>249.91</ele>
        <time>2025-02-13T15:13:46.761Z</time>
      </trkpt>
      <trkpt lat="50.359504306688905" lon="5.575861930847168">
        <ele>248.53</ele>
        <time>2025-02-13T15:13:50.117Z</time>
      </trkpt>
      <trkpt lat="50.35946139134467" lon="5.57581901550293">
        <ele>247.16</ele>
        <time>2025-02-13T15:13:53.474Z</time>
      </trkpt>
      <trkpt lat="50.35935410298407" lon="5.575690269470215">
        <ele>245.75</ele>
        <time>2025-02-13T15:13:56.833Z</time>
      </trkpt>
      <trkpt lat="50.359246814623475" lon="5.5755615234375">
        <ele>244.36</ele>
        <time>2025-02-13T15:14:00.194Z</time>
      </trkpt>
      <trkpt lat="50.359160983935" lon="5.575389862060547">
        <ele>242.97</ele>
        <time>2025-02-13T15:14:03.557Z</time>
      </trkpt>
      <trkpt lat="50.35901756957173" lon="5.5750601179897785">
        <ele>241.57</ele>
        <time>2025-02-13T15:14:06.924Z</time>
      </trkpt>
      <trkpt lat="50.3588742390275" lon="5.574730457738042">
        <ele>240.12</ele>
        <time>2025-02-13T15:14:10.296Z</time>
      </trkpt>
      <trkpt lat="50.358731830492616" lon="5.574402809143066">
        <ele>238.64</ele>
        <time>2025-02-13T15:14:13.672Z</time>
      </trkpt>
      <trkpt lat="50.35864599980414" lon="5.574188232421875">
        <ele>237.26</ele>
        <time>2025-02-13T15:14:17.050Z</time>
      </trkpt>
      <trkpt lat="50.35849546082318" lon="5.573844155296683">
        <ele>235.83</ele>
        <time>2025-02-13T15:14:20.433Z</time>
      </trkpt>
      <trkpt lat="50.35834500566125" lon="5.573500161990523">
        <ele>234.41</ele>
        <time>2025-02-13T15:14:23.820Z</time>
      </trkpt>
      <trkpt lat="50.35819538868964" lon="5.573158264160156">
        <ele>233.04</ele>
        <time>2025-02-13T15:14:27.211Z</time>
      </trkpt>
      <trkpt lat="50.35814811475575" lon="5.573010910302401">
        <ele>231.73</ele>
        <time>2025-02-13T15:14:30.604Z</time>
      </trkpt>
      <trkpt lat="50.35814819857478" lon="5.573010910302401">
        <ele>230.45</ele>
        <time>2025-02-13T15:14:33.997Z</time>
      </trkpt>
      <trkpt lat="50.35802364349365" lon="5.572621822357178">
        <ele>229.12</ele>
        <time>2025-02-13T15:14:37.394Z</time>
      </trkpt>
      <trkpt lat="50.35795935429633" lon="5.572192668914795">
        <ele>227.77</ele>
        <time>2025-02-13T15:14:40.796Z</time>
      </trkpt>
      <trkpt lat="50.35800218582153" lon="5.5718278884887695">
        <ele>226.49</ele>
        <time>2025-02-13T15:14:44.201Z</time>
      </trkpt>
      <trkpt lat="50.358002269640565" lon="5.5718278884887695">
        <ele>225.23</ele>
        <time>2025-02-13T15:14:47.606Z</time>
      </trkpt>
      <trkpt lat="50.358077455312014" lon="5.571569725871086">
        <ele>223.9</ele>
        <time>2025-02-13T15:14:51.014Z</time>
      </trkpt>
      <trkpt lat="50.35815238952637" lon="5.57131290435791">
        <ele>222.56</ele>
        <time>2025-02-13T15:14:54.425Z</time>
      </trkpt>
      <trkpt lat="50.35823838785291" lon="5.571022471413016">
        <ele>221.21</ele>
        <time>2025-02-13T15:14:57.840Z</time>
      </trkpt>
      <trkpt lat="50.35832405090332" lon="5.570733547210693">
        <ele>219.85</ele>
        <time>2025-02-13T15:15:01.258Z</time>
      </trkpt>
      <trkpt lat="50.35832413472235" lon="5.570733547210693">
        <ele>218.58</ele>
        <time>2025-02-13T15:15:04.676Z</time>
      </trkpt>
      <trkpt lat="50.35840996541083" lon="5.570390224456787">
        <ele>217.22</ele>
        <time>2025-02-13T15:15:08.098Z</time>
      </trkpt>
      <trkpt lat="50.35843142308295" lon="5.570261478424072">
        <ele>215.94</ele>
        <time>2025-02-13T15:15:11.521Z</time>
      </trkpt>
      <trkpt lat="50.35836696624756" lon="5.570025444030762">
        <ele>214.58</ele>
        <time>2025-02-13T15:15:14.947Z</time>
      </trkpt>
      <trkpt lat="50.35836705006659" lon="5.570025444030762">
        <ele>213.28</ele>
        <time>2025-02-13T15:15:18.373Z</time>
      </trkpt>
      <trkpt lat="50.35830267705023" lon="5.569918155670166">
        <ele>211.93</ele>
        <time>2025-02-13T15:15:21.800Z</time>
      </trkpt>
      <trkpt lat="50.35808810032904" lon="5.569617748260498">
        <ele>210.55</ele>
        <time>2025-02-13T15:15:25.232Z</time>
      </trkpt>
      <trkpt lat="50.35789489746094" lon="5.56931734085083">
        <ele>209.18</ele>
        <time>2025-02-13T15:15:28.668Z</time>
      </trkpt>
      <trkpt lat="50.35777302458882" lon="5.568973263725638">
        <ele>207.83</ele>
        <time>2025-02-13T15:15:32.108Z</time>
      </trkpt>
      <trkpt lat="50.35765115171671" lon="5.568629186600447">
        <ele>206.38</ele>
        <time>2025-02-13T15:15:35.552Z</time>
      </trkpt>
      <trkpt lat="50.35753011703491" lon="5.568287372589111">
        <ele>204.82</ele>
        <time>2025-02-13T15:15:39.000Z</time>
      </trkpt>
      <trkpt lat="50.35746557638049" lon="5.5679969396442175">
        <ele>203.29</ele>
        <time>2025-02-13T15:15:42.451Z</time>
      </trkpt>
      <trkpt lat="50.3574013710022" lon="5.5677080154418945">
        <ele>201.76</ele>
        <time>2025-02-13T15:15:45.905Z</time>
      </trkpt>
      <trkpt lat="50.357336830347776" lon="5.567406769841909">
        <ele>200.25</ele>
        <time>2025-02-13T15:15:49.363Z</time>
      </trkpt>
      <trkpt lat="50.35727262496948" lon="5.567107200622559">
        <ele>198.58</ele>
        <time>2025-02-13T15:15:52.824Z</time>
      </trkpt>
      <trkpt lat="50.3572940826416" lon="5.566699504852295">
        <ele>196.99</ele>
        <time>2025-02-13T15:15:56.289Z</time>
      </trkpt>
      <trkpt lat="50.35736935213208" lon="5.566409071907401">
        <ele>195.54</ele>
        <time>2025-02-13T15:15:59.757Z</time>
      </trkpt>
      <trkpt lat="50.357444286346436" lon="5.566120147705078">
        <ele>194.07</ele>
        <time>2025-02-13T15:16:03.229Z</time>
      </trkpt>
      <trkpt lat="50.357567919418216" lon="5.565689904615283">
        <ele>192.55</ele>
        <time>2025-02-13T15:16:06.705Z</time>
      </trkpt>
      <trkpt lat="50.35769163630903" lon="5.56525974534452">
        <ele>190.92</ele>
        <time>2025-02-13T15:16:10.186Z</time>
      </trkpt>
      <trkpt lat="50.35781526938081" lon="5.564829586073756">
        <ele>189.46</ele>
        <time>2025-02-13T15:16:13.672Z</time>
      </trkpt>
      <trkpt lat="50.357937812805176" lon="5.564403533935547">
        <ele>187.88</ele>
        <time>2025-02-13T15:16:17.163Z</time>
      </trkpt>
      <trkpt lat="50.358066810294986" lon="5.564102455973625">
        <ele>186.34</ele>
        <time>2025-02-13T15:16:20.658Z</time>
      </trkpt>
      <trkpt lat="50.358195304870605" lon="5.563802719116211">
        <ele>184.85</ele>
        <time>2025-02-13T15:16:24.156Z</time>
      </trkpt>
      <trkpt lat="50.35836713388562" lon="5.563544807955623">
        <ele>183.5</ele>
        <time>2025-02-13T15:16:27.658Z</time>
      </trkpt>
      <trkpt lat="50.35853904671967" lon="5.563286980614066">
        <ele>182.2</ele>
        <time>2025-02-13T15:16:31.164Z</time>
      </trkpt>
      <trkpt lat="50.35871095955372" lon="5.56302915327251">
        <ele>180.92</ele>
        <time>2025-02-13T15:16:34.674Z</time>
      </trkpt>
      <trkpt lat="50.35888195037842" lon="5.562772750854492">
        <ele>179.57</ele>
        <time>2025-02-13T15:16:38.187Z</time>
      </trkpt>
      <trkpt lat="50.35901094786823" lon="5.562504027038813">
        <ele>178.22</ele>
        <time>2025-02-13T15:16:41.704Z</time>
      </trkpt>
      <trkpt lat="50.35913952626288" lon="5.562236309051514">
        <ele>176.94</ele>
        <time>2025-02-13T15:16:45.224Z</time>
      </trkpt>
      <trkpt lat="50.359275648370385" lon="5.5619424395263195">
        <ele>175.81</ele>
        <time>2025-02-13T15:16:48.748Z</time>
      </trkpt>
      <trkpt lat="50.35941177047789" lon="5.561648653820157">
        <ele>174.69</ele>
        <time>2025-02-13T15:16:52.276Z</time>
      </trkpt>
      <trkpt lat="50.35954722203314" lon="5.561356544494629">
        <ele>173.74</ele>
        <time>2025-02-13T15:16:55.807Z</time>
      </trkpt>
      <trkpt lat="50.35959022119641" lon="5.561066027730703">
        <ele>172.69</ele>
        <time>2025-02-13T15:16:59.342Z</time>
      </trkpt>
      <trkpt lat="50.35963305272162" lon="5.560777187347412">
        <ele>171.63</ele>
        <time>2025-02-13T15:17:02.880Z</time>
      </trkpt>
      <trkpt lat="50.35969742573798" lon="5.560412406921387">
        <ele>170.48</ele>
        <time>2025-02-13T15:17:06.421Z</time>
      </trkpt>
      <trkpt lat="50.35965451039374" lon="5.560176372528076">
        <ele>169.47</ele>
        <time>2025-02-13T15:17:09.965Z</time>
      </trkpt>
      <trkpt lat="50.35956859588623" lon="5.559940338134766">
        <ele>168.6</ele>
        <time>2025-02-13T15:17:13.512Z</time>
      </trkpt>
      <trkpt lat="50.35970823839307" lon="5.559746967628598">
        <ele>167.85</ele>
        <time>2025-02-13T15:17:17.062Z</time>
      </trkpt>
      <trkpt lat="50.35984754562378" lon="5.559554100036621">
        <ele>167.23</ele>
        <time>2025-02-13T15:17:20.615Z</time>
      </trkpt>
      <trkpt lat="50.360030103474855" lon="5.5593392718583345">
        <ele>166.7</ele>
        <time>2025-02-13T15:17:24.171Z</time>
      </trkpt>
      <trkpt lat="50.360212409868836" lon="5.559124946594238">
        <ele>166.25</ele>
        <time>2025-02-13T15:17:27.731Z</time>
      </trkpt>
      <trkpt lat="50.36039496771991" lon="5.558888576924801">
        <ele>165.88</ele>
        <time>2025-02-13T15:17:31.295Z</time>
      </trkpt>
      <trkpt lat="50.36057719029486" lon="5.558652877807617">
        <ele>165.52</ele>
        <time>2025-02-13T15:17:34.863Z</time>
      </trkpt>
      <trkpt lat="50.36070761270821" lon="5.558513319119811">
        <ele>165.21</ele>
        <time>2025-02-13T15:17:38.433Z</time>
      </trkpt>
      <trkpt lat="50.3608378674835" lon="5.5583741795271635">
        <ele>164.91</ele>
        <time>2025-02-13T15:17:42.006Z</time>
      </trkpt>
      <trkpt lat="50.36101874895394" lon="5.558180725201964">
        <ele>164.72</ele>
        <time>2025-02-13T15:17:45.582Z</time>
      </trkpt>
      <trkpt lat="50.361199378967285" lon="5.557987689971924">
        <ele>164.5</ele>
        <time>2025-02-13T15:17:49.162Z</time>
      </trkpt>
      <trkpt lat="50.36144630983472" lon="5.557740675285459">
        <ele>164.33</ele>
        <time>2025-02-13T15:17:52.746Z</time>
      </trkpt>
      <trkpt lat="50.361692905426025" lon="5.557494163513184">
        <ele>164.17</ele>
        <time>2025-02-13T15:17:56.335Z</time>
      </trkpt>
      <trkpt lat="50.36194335669279" lon="5.557315209880471">
        <ele>164.04</ele>
        <time>2025-02-13T15:17:59.928Z</time>
      </trkpt>
      <trkpt lat="50.36219389177859" lon="5.557136256247759">
        <ele>163.91</ele>
        <time>2025-02-13T15:18:03.526Z</time>
      </trkpt>
      <trkpt lat="50.36244400776923" lon="5.556957721710205">
        <ele>163.78</ele>
        <time>2025-02-13T15:18:07.128Z</time>
      </trkpt>
      <trkpt lat="50.362508380785584" lon="5.556914806365967">
        <ele>163.74</ele>
        <time>2025-02-13T15:18:10.731Z</time>
      </trkpt>
      <trkpt lat="50.36268012598157" lon="5.556775163859129">
        <ele>163.65</ele>
        <time>2025-02-13T15:18:14.338Z</time>
      </trkpt>
      <trkpt lat="50.36285170353949" lon="5.556635856628418">
        <ele>163.58</ele>
        <time>2025-02-13T15:18:17.948Z</time>
      </trkpt>
      <trkpt lat="50.363023448735476" lon="5.556517755612731">
        <ele>163.59</ele>
        <time>2025-02-13T15:18:21.561Z</time>
      </trkpt>
      <trkpt lat="50.3631950262934" lon="5.556399822235107">
        <ele>163.72</ele>
        <time>2025-02-13T15:18:25.177Z</time>
      </trkpt>
      <trkpt lat="50.36332377232611" lon="5.556313991546631">
        <ele>163.85</ele>
        <time>2025-02-13T15:18:28.795Z</time>
      </trkpt>
      <trkpt lat="50.36332368850708" lon="5.556313991546631">
        <ele>163.95</ele>
        <time>2025-02-13T15:18:32.413Z</time>
      </trkpt>
      <trkpt lat="50.363574055954814" lon="5.556163704022765">
        <ele>164.1</ele>
        <time>2025-02-13T15:18:36.035Z</time>
      </trkpt>
      <trkpt lat="50.36382450722158" lon="5.5560134164988995">
        <ele>164.21</ele>
        <time>2025-02-13T15:18:39.661Z</time>
      </trkpt>
      <trkpt lat="50.36407470703125" lon="5.555863380432129">
        <ele>164.32</ele>
        <time>2025-02-13T15:18:43.292Z</time>
      </trkpt>
      <trkpt lat="50.36428928375244" lon="5.555777465924621">
        <ele>164.49</ele>
        <time>2025-02-13T15:18:46.926Z</time>
      </trkpt>
      <trkpt lat="50.36450386047363" lon="5.555691719055176">
        <ele>164.73</ele>
        <time>2025-02-13T15:18:50.564Z</time>
      </trkpt>
      <trkpt lat="50.364718437194824" lon="5.555634470656514">
        <ele>164.92</ele>
        <time>2025-02-13T15:18:54.205Z</time>
      </trkpt>
      <trkpt lat="50.364933013916016" lon="5.5555772222578526">
        <ele>165.09</ele>
        <time>2025-02-13T15:18:57.850Z</time>
      </trkpt>
      <trkpt lat="50.36514759063721" lon="5.555520057678223">
        <ele>165.26</ele>
        <time>2025-02-13T15:19:01.498Z</time>
      </trkpt>
      <trkpt lat="50.36532998085022" lon="5.555434143170714">
        <ele>165.29</ele>
        <time>2025-02-13T15:19:05.149Z</time>
      </trkpt>
      <trkpt lat="50.36551237106323" lon="5.5553483963012695">
        <ele>165.25</ele>
        <time>2025-02-13T15:19:08.803Z</time>
      </trkpt>
      <trkpt lat="50.36578721366823" lon="5.5551121942698956">
        <ele>165.17</ele>
        <time>2025-02-13T15:19:12.462Z</time>
      </trkpt>
      <trkpt lat="50.36606205627322" lon="5.554875992238522">
        <ele>165.19</ele>
        <time>2025-02-13T15:19:16.126Z</time>
      </trkpt>
      <trkpt lat="50.36633689887822" lon="5.554639790207148">
        <ele>165.31</ele>
        <time>2025-02-13T15:19:19.795Z</time>
      </trkpt>
      <trkpt lat="50.36661174148321" lon="5.554403588175774">
        <ele>165.41</ele>
        <time>2025-02-13T15:19:23.470Z</time>
      </trkpt>
      <trkpt lat="50.36688566207886" lon="5.554168224334717">
        <ele>165.39</ele>
        <time>2025-02-13T15:19:27.150Z</time>
      </trkpt>
      <trkpt lat="50.36707886494696" lon="5.5540823098272085">
        <ele>165.39</ele>
        <time>2025-02-13T15:19:30.833Z</time>
      </trkpt>
      <trkpt lat="50.367271983996034" lon="5.553996562957764">
        <ele>165.29</ele>
        <time>2025-02-13T15:19:34.519Z</time>
      </trkpt>
      <trkpt lat="50.36742218770087" lon="5.553953647613525">
        <ele>165.22</ele>
        <time>2025-02-13T15:19:38.207Z</time>
      </trkpt>
      <trkpt lat="50.3675723914057" lon="5.553889274597168">
        <ele>165.09</ele>
        <time>2025-02-13T15:19:41.898Z</time>
      </trkpt>
      <trkpt lat="50.367733323946595" lon="5.553824817761779">
        <ele>164.97</ele>
        <time>2025-02-13T15:19:45.592Z</time>
      </trkpt>
      <trkpt lat="50.36789425648749" lon="5.553760528564453">
        <ele>164.88</ele>
        <time>2025-02-13T15:19:49.288Z</time>
      </trkpt>
      <trkpt lat="50.368033815175295" lon="5.553620886057615">
        <ele>164.76</ele>
        <time>2025-02-13T15:19:52.987Z</time>
      </trkpt>
      <trkpt lat="50.36817320622504" lon="5.553481578826904">
        <ele>164.7</ele>
        <time>2025-02-13T15:19:56.689Z</time>
      </trkpt>
      <trkpt lat="50.368216121569276" lon="5.553438663482666">
        <ele>164.58</ele>
        <time>2025-02-13T15:20:00.391Z</time>
      </trkpt>
      <trkpt lat="50.36836640909314" lon="5.553256021812558">
        <ele>164.45</ele>
        <time>2025-02-13T15:20:04.096Z</time>
      </trkpt>
      <trkpt lat="50.36851644515991" lon="5.553073883056641">
        <ele>164.34</ele>
        <time>2025-02-13T15:20:07.804Z</time>
      </trkpt>
      <trkpt lat="50.36866698414087" lon="5.5526975356042385">
        <ele>164.11</ele>
        <time>2025-02-13T15:20:11.517Z</time>
      </trkpt>
      <trkpt lat="50.36881693638861" lon="5.552322864532471">
        <ele>163.97</ele>
        <time>2025-02-13T15:20:15.234Z</time>
      </trkpt>
      <trkpt lat="50.36883839406073" lon="5.552279949188232">
        <ele>163.78</ele>
        <time>2025-02-13T15:20:18.952Z</time>
      </trkpt>
      <trkpt lat="50.36888130940497" lon="5.552172660827637">
        <ele>163.6</ele>
        <time>2025-02-13T15:20:22.671Z</time>
      </trkpt>
      <trkpt lat="50.368924140930176" lon="5.5519795417785645">
        <ele>163.4</ele>
        <time>2025-02-13T15:20:26.392Z</time>
      </trkpt>
      <trkpt lat="50.36902447231114" lon="5.551534965634346">
        <ele>163.17</ele>
        <time>2025-02-13T15:20:30.118Z</time>
      </trkpt>
      <trkpt lat="50.369124887511134" lon="5.551090389490128">
        <ele>162.96</ele>
        <time>2025-02-13T15:20:33.849Z</time>
      </trkpt>
      <trkpt lat="50.369224548339844" lon="5.550649166107178">
        <ele>162.65</ele>
        <time>2025-02-13T15:20:37.585Z</time>
      </trkpt>
      <trkpt lat="50.369310546666384" lon="5.550175840035081">
        <ele>162.4</ele>
        <time>2025-02-13T15:20:41.326Z</time>
      </trkpt>
      <trkpt lat="50.3693962097168" lon="5.5497050285339355">
        <ele>162.13</ele>
        <time>2025-02-13T15:20:45.072Z</time>
      </trkpt>
      <trkpt lat="50.3693962097168" lon="5.549220805987716">
        <ele>161.76</ele>
        <time>2025-02-13T15:20:48.823Z</time>
      </trkpt>
      <trkpt lat="50.3693962097168" lon="5.548739433288574">
        <ele>161.51</ele>
        <time>2025-02-13T15:20:52.579Z</time>
      </trkpt>
      <trkpt lat="50.36941775120795" lon="5.548374652862549">
        <ele>161.26</ele>
        <time>2025-02-13T15:20:56.339Z</time>
      </trkpt>
      <trkpt lat="50.36947147920728" lon="5.547965783625841">
        <ele>160.96</ele>
        <time>2025-02-13T15:21:00.103Z</time>
      </trkpt>
      <trkpt lat="50.36952503956854" lon="5.5475592613220215">
        <ele>160.56</ele>
        <time>2025-02-13T15:21:03.871Z</time>
      </trkpt>
      <trkpt lat="50.36954649724066" lon="5.547430515289307">
        <ele>160.33</ele>
        <time>2025-02-13T15:21:07.640Z</time>
      </trkpt>
      <trkpt lat="50.36954649724066" lon="5.54734468460083">
        <ele>160.13</ele>
        <time>2025-02-13T15:21:11.410Z</time>
      </trkpt>
      <trkpt lat="50.36961078643799" lon="5.547022819519043">
        <ele>159.86</ele>
        <time>2025-02-13T15:21:15.184Z</time>
      </trkpt>
      <trkpt lat="50.369662418961525" lon="5.546635491773486">
        <ele>159.71</ele>
        <time>2025-02-13T15:21:18.962Z</time>
      </trkpt>
      <trkpt lat="50.36971405148506" lon="5.546248247846961">
        <ele>159.6</ele>
        <time>2025-02-13T15:21:22.744Z</time>
      </trkpt>
      <trkpt lat="50.3697656840086" lon="5.545860920101404">
        <ele>159.54</ele>
        <time>2025-02-13T15:21:26.530Z</time>
      </trkpt>
      <trkpt lat="50.369817316532135" lon="5.545473676174879">
        <ele>159.51</ele>
        <time>2025-02-13T15:21:30.320Z</time>
      </trkpt>
      <trkpt lat="50.36986827850342" lon="5.54509162902832">
        <ele>159.48</ele>
        <time>2025-02-13T15:21:34.114Z</time>
      </trkpt>
      <trkpt lat="50.36988981999457" lon="5.5446624755859375">
        <ele>159.55</ele>
        <time>2025-02-13T15:21:37.912Z</time>
      </trkpt>
      <trkpt lat="50.36988973617554" lon="5.5446624755859375">
        <ele>159.52</ele>
        <time>2025-02-13T15:21:41.710Z</time>
      </trkpt>
      <trkpt lat="50.36982536315918" lon="5.544254779815674">
        <ele>159.66</ele>
        <time>2025-02-13T15:21:45.513Z</time>
      </trkpt>
      <trkpt lat="50.369718158617616" lon="5.544040203094482">
        <ele>159.71</ele>
        <time>2025-02-13T15:21:49.319Z</time>
      </trkpt>
      <trkpt lat="50.369718074798584" lon="5.544040203094482">
        <ele>159.66</ele>
        <time>2025-02-13T15:21:53.125Z</time>
      </trkpt>
      <trkpt lat="50.36950743757188" lon="5.543724289163947">
        <ele>159.71</ele>
        <time>2025-02-13T15:21:56.935Z</time>
      </trkpt>
      <trkpt lat="50.369296884164214" lon="5.543408375233412">
        <ele>159.71</ele>
        <time>2025-02-13T15:22:00.750Z</time>
      </trkpt>
      <trkpt lat="50.369086330756545" lon="5.543092545121908">
        <ele>159.6</ele>
        <time>2025-02-13T15:22:04.570Z</time>
      </trkpt>
      <trkpt lat="50.368875777348876" lon="5.542776631191373">
        <ele>159.37</ele>
        <time>2025-02-13T15:22:08.394Z</time>
      </trkpt>
      <trkpt lat="50.36866522394121" lon="5.5424607172608376">
        <ele>159.09</ele>
        <time>2025-02-13T15:22:12.223Z</time>
      </trkpt>
      <trkpt lat="50.368454586714506" lon="5.542144887149334">
        <ele>158.84</ele>
        <time>2025-02-13T15:22:16.057Z</time>
      </trkpt>
      <trkpt lat="50.36824403330684" lon="5.541828973218799">
        <ele>158.6</ele>
        <time>2025-02-13T15:22:19.895Z</time>
      </trkpt>
      <trkpt lat="50.36803347989917" lon="5.541513143107295">
        <ele>158.43</ele>
        <time>2025-02-13T15:22:23.738Z</time>
      </trkpt>
      <trkpt lat="50.3678229264915" lon="5.54119722917676">
        <ele>158.13</ele>
        <time>2025-02-13T15:22:27.586Z</time>
      </trkpt>
      <trkpt lat="50.36761530674994" lon="5.540885925292969">
        <ele>157.73</ele>
        <time>2025-02-13T15:22:31.438Z</time>
      </trkpt>
      <trkpt lat="50.36741120740771" lon="5.540638826787472">
        <ele>157.3</ele>
        <time>2025-02-13T15:22:35.294Z</time>
      </trkpt>
      <trkpt lat="50.367207610979676" lon="5.5403923988342285">
        <ele>156.75</ele>
        <time>2025-02-13T15:22:39.154Z</time>
      </trkpt>
      <trkpt lat="50.36698205396533" lon="5.540134571492672">
        <ele>156.17</ele>
        <time>2025-02-13T15:22:43.019Z</time>
      </trkpt>
      <trkpt lat="50.366756999865174" lon="5.539877414703369">
        <ele>155.49</ele>
        <time>2025-02-13T15:22:46.888Z</time>
      </trkpt>
      <trkpt lat="50.36660646088421" lon="5.539511879906058">
        <ele>154.8</ele>
        <time>2025-02-13T15:22:50.762Z</time>
      </trkpt>
      <trkpt lat="50.366456592455506" lon="5.539147853851318">
        <ele>154.17</ele>
        <time>2025-02-13T15:22:54.640Z</time>
      </trkpt>
      <trkpt lat="50.366413593292236" lon="5.538911819458008">
        <ele>153.54</ele>
        <time>2025-02-13T15:22:58.521Z</time>
      </trkpt>
      <trkpt lat="50.366435050964355" lon="5.538697242736816">
        <ele>152.95</ele>
        <time>2025-02-13T15:23:02.404Z</time>
      </trkpt>
      <trkpt lat="50.366520965471864" lon="5.538547039031982">
        <ele>152.38</ele>
        <time>2025-02-13T15:23:06.289Z</time>
      </trkpt>
      <trkpt lat="50.3666711691767" lon="5.538332462310791">
        <ele>151.78</ele>
        <time>2025-02-13T15:23:10.177Z</time>
      </trkpt>
      <trkpt lat="50.366671085357666" lon="5.538332462310791">
        <ele>151.17</ele>
        <time>2025-02-13T15:23:14.065Z</time>
      </trkpt>
      <trkpt lat="50.36692162044346" lon="5.538060385733843">
        <ele>150.51</ele>
        <time>2025-02-13T15:23:17.958Z</time>
      </trkpt>
      <trkpt lat="50.36717223934829" lon="5.537788309156895">
        <ele>149.79</ele>
        <time>2025-02-13T15:23:21.856Z</time>
      </trkpt>
      <trkpt lat="50.367422103881836" lon="5.537517070770264">
        <ele>149.08</ele>
        <time>2025-02-13T15:23:25.759Z</time>
      </trkpt>
      <trkpt lat="50.36761530674994" lon="5.537281036376953">
        <ele>148.45</ele>
        <time>2025-02-13T15:23:29.666Z</time>
      </trkpt>
      <trkpt lat="50.367846144363284" lon="5.537009797990322">
        <ele>147.85</ele>
        <time>2025-02-13T15:23:33.578Z</time>
      </trkpt>
      <trkpt lat="50.36807706579566" lon="5.536738643422723">
        <ele>147.34</ele>
        <time>2025-02-13T15:23:37.494Z</time>
      </trkpt>
      <trkpt lat="50.368307987228036" lon="5.536467405036092">
        <ele>146.87</ele>
        <time>2025-02-13T15:23:41.415Z</time>
      </trkpt>
      <trkpt lat="50.36853890866041" lon="5.5361962504684925">
        <ele>146.43</ele>
        <time>2025-02-13T15:23:45.340Z</time>
      </trkpt>
      <trkpt lat="50.36876983009279" lon="5.535925095900893">
        <ele>146.03</ele>
        <time>2025-02-13T15:23:49.270Z</time>
      </trkpt>
      <trkpt lat="50.369000751525164" lon="5.535653857514262">
        <ele>145.66</ele>
        <time>2025-02-13T15:23:53.205Z</time>
      </trkpt>
      <trkpt lat="50.36923167295754" lon="5.535382702946663">
        <ele>145.37</ele>
        <time>2025-02-13T15:23:57.144Z</time>
      </trkpt>
      <trkpt lat="50.369460666552186" lon="5.53511381149292">
        <ele>145.07</ele>
        <time>2025-02-13T15:24:01.088Z</time>
      </trkpt>
      <trkpt lat="50.369460582733154" lon="5.53511381149292">
        <ele>144.82</ele>
        <time>2025-02-13T15:24:05.032Z</time>
      </trkpt>
      <trkpt lat="50.369617994874716" lon="5.534938797354698">
        <ele>144.59</ele>
        <time>2025-02-13T15:24:08.979Z</time>
      </trkpt>
      <trkpt lat="50.369775239378214" lon="5.534764202311635">
        <ele>144.41</ele>
        <time>2025-02-13T15:24:12.929Z</time>
      </trkpt>
      <trkpt lat="50.370004400610924" lon="5.534509560093284">
        <ele>144.23</ele>
        <time>2025-02-13T15:24:16.884Z</time>
      </trkpt>
      <trkpt lat="50.370233142748475" lon="5.534255504608154">
        <ele>144.18</ele>
        <time>2025-02-13T15:24:20.843Z</time>
      </trkpt>
      <trkpt lat="50.37031897343695" lon="5.534148216247559">
        <ele>144.11</ele>
        <time>2025-02-13T15:24:24.804Z</time>
      </trkpt>
      <trkpt lat="50.370501447468996" lon="5.534030115231872">
        <ele>144.05</ele>
        <time>2025-02-13T15:24:28.768Z</time>
      </trkpt>
      <trkpt lat="50.37068375386298" lon="5.533912181854248">
        <ele>143.96</ele>
        <time>2025-02-13T15:24:32.735Z</time>
      </trkpt>
      <trkpt lat="50.370683670043945" lon="5.533912181854248">
        <ele>143.93</ele>
        <time>2025-02-13T15:24:36.702Z</time>
      </trkpt>
      <trkpt lat="50.370726669207215" lon="5.533912181854248">
        <ele>143.89</ele>
        <time>2025-02-13T15:24:40.670Z</time>
      </trkpt>
      <trkpt lat="50.37094124592841" lon="5.533847725018859">
        <ele>143.85</ele>
        <time>2025-02-13T15:24:44.641Z</time>
      </trkpt>
      <trkpt lat="50.3711558226496" lon="5.533783435821533">
        <ele>143.87</ele>
        <time>2025-02-13T15:24:48.616Z</time>
      </trkpt>
      <trkpt lat="50.371155738830566" lon="5.533783435821533">
        <ele>143.88</ele>
        <time>2025-02-13T15:24:52.591Z</time>
      </trkpt>
      <trkpt lat="50.37140250205994" lon="5.533740436658263">
        <ele>143.94</ele>
        <time>2025-02-13T15:24:56.570Z</time>
      </trkpt>
      <trkpt lat="50.37164926528931" lon="5.533697605133057">
        <ele>144.15</ele>
        <time>2025-02-13T15:25:00.553Z</time>
      </trkpt>
      <trkpt lat="50.37183165550232" lon="5.5337512493133545">
        <ele>144.11</ele>
        <time>2025-02-13T15:25:04.539Z</time>
      </trkpt>
      <trkpt lat="50.37201404571533" lon="5.533804893493652">
        <ele>144.09</ele>
        <time>2025-02-13T15:25:08.528Z</time>
      </trkpt>
      <trkpt lat="50.37225008010864" lon="5.534062385559082">
        <ele>143.98</ele>
        <time>2025-02-13T15:25:12.521Z</time>
      </trkpt>
      <trkpt lat="50.37241126410663" lon="5.534347118809819">
        <ele>143.84</ele>
        <time>2025-02-13T15:25:16.518Z</time>
      </trkpt>
      <trkpt lat="50.37257244810462" lon="5.534631852060556">
        <ele>143.76</ele>
        <time>2025-02-13T15:25:20.519Z</time>
      </trkpt>
      <trkpt lat="50.37273363210261" lon="5.534916669130325">
        <ele>143.67</ele>
        <time>2025-02-13T15:25:24.524Z</time>
      </trkpt>
      <trkpt lat="50.37289381027222" lon="5.5351996421813965">
        <ele>143.58</ele>
        <time>2025-02-13T15:25:28.533Z</time>
      </trkpt>
      <trkpt lat="50.37304409779608" lon="5.535328388214111">
        <ele>143.49</ele>
        <time>2025-02-13T15:25:32.545Z</time>
      </trkpt>
      <trkpt lat="50.37312992848456" lon="5.5353498458862305">
        <ele>143.4</ele>
        <time>2025-02-13T15:25:36.558Z</time>
      </trkpt>
      <trkpt lat="50.37332304753363" lon="5.535339033231139">
        <ele>143.38</ele>
        <time>2025-02-13T15:25:40.574Z</time>
      </trkpt>
      <trkpt lat="50.373516166582704" lon="5.535328388214111">
        <ele>143.3</ele>
        <time>2025-02-13T15:25:44.593Z</time>
      </trkpt>
      <trkpt lat="50.37373065948486" lon="5.5353068467229605">
        <ele>143.11</ele>
        <time>2025-02-13T15:25:48.616Z</time>
      </trkpt>
      <trkpt lat="50.373945236206055" lon="5.535285389050841">
        <ele>142.79</ele>
        <time>2025-02-13T15:25:52.642Z</time>
      </trkpt>
      <trkpt lat="50.374159812927246" lon="5.535264015197754">
        <ele>142.38</ele>
        <time>2025-02-13T15:25:56.672Z</time>
      </trkpt>
      <trkpt lat="50.37429937161505" lon="5.535145914182067">
        <ele>142.02</ele>
        <time>2025-02-13T15:26:00.704Z</time>
      </trkpt>
      <trkpt lat="50.374438762664795" lon="5.535027980804443">
        <ele>141.62</ele>
        <time>2025-02-13T15:26:04.739Z</time>
      </trkpt>
      <trkpt lat="50.37456750869751" lon="5.534877777099609">
        <ele>141.36</ele>
        <time>2025-02-13T15:26:08.776Z</time>
      </trkpt>
      <trkpt lat="50.374653339385986" lon="5.53462028503418">
        <ele>141.03</ele>
        <time>2025-02-13T15:26:12.816Z</time>
      </trkpt>
      <trkpt lat="50.374746546149254" lon="5.534297581762075">
        <ele>140.74</ele>
        <time>2025-02-13T15:26:16.860Z</time>
      </trkpt>
      <trkpt lat="50.37483975291252" lon="5.533974962309003">
        <ele>140.23</ele>
        <time>2025-02-13T15:26:20.907Z</time>
      </trkpt>
      <trkpt lat="50.37493237294257" lon="5.533654689788818">
        <ele>139.66</ele>
        <time>2025-02-13T15:26:24.958Z</time>
      </trkpt>
      <trkpt lat="50.374932289123535" lon="5.533654689788818">
        <ele>139.18</ele>
        <time>2025-02-13T15:26:29.009Z</time>
      </trkpt>
      <trkpt lat="50.37502725608647" lon="5.533211873844266">
        <ele>138.64</ele>
        <time>2025-02-13T15:26:33.065Z</time>
      </trkpt>
      <trkpt lat="50.375122306868434" lon="5.5327690578997135">
        <ele>138.12</ele>
        <time>2025-02-13T15:26:37.126Z</time>
      </trkpt>
      <trkpt lat="50.37521727383137" lon="5.532326325774193">
        <ele>137.53</ele>
        <time>2025-02-13T15:26:41.191Z</time>
      </trkpt>
      <trkpt lat="50.37531232461333" lon="5.53188350982964">
        <ele>136.93</ele>
        <time>2025-02-13T15:26:45.261Z</time>
      </trkpt>
      <trkpt lat="50.3754073753953" lon="5.531440693885088">
        <ele>136.38</ele>
        <time>2025-02-13T15:26:49.336Z</time>
      </trkpt>
      <trkpt lat="50.37550234235823" lon="5.530997961759567">
        <ele>135.9</ele>
        <time>2025-02-13T15:26:53.416Z</time>
      </trkpt>
      <trkpt lat="50.3755973931402" lon="5.530555145815015">
        <ele>135.46</ele>
        <time>2025-02-13T15:26:57.501Z</time>
      </trkpt>
      <trkpt lat="50.37569244392216" lon="5.530112329870462">
        <ele>135.05</ele>
        <time>2025-02-13T15:27:01.590Z</time>
      </trkpt>
      <trkpt lat="50.375787410885096" lon="5.529669597744942">
        <ele>134.66</ele>
        <time>2025-02-13T15:27:05.684Z</time>
      </trkpt>
      <trkpt lat="50.37588246166706" lon="5.529226781800389">
        <ele>134.27</ele>
        <time>2025-02-13T15:27:09.783Z</time>
      </trkpt>
      <trkpt lat="50.375977512449026" lon="5.528783965855837">
        <ele>133.95</ele>
        <time>2025-02-13T15:27:13.887Z</time>
      </trkpt>
      <trkpt lat="50.37606954574585" lon="5.528354644775391">
        <ele>133.64</ele>
        <time>2025-02-13T15:27:17.995Z</time>
      </trkpt>
      <trkpt lat="50.37613408640027" lon="5.527978129684925">
        <ele>133.4</ele>
        <time>2025-02-13T15:27:22.107Z</time>
      </trkpt>
      <trkpt lat="50.376198375597596" lon="5.527603626251221">
        <ele>133.19</ele>
        <time>2025-02-13T15:27:26.223Z</time>
      </trkpt>
      <trkpt lat="50.37625570781529" lon="5.527252173051238">
        <ele>133.01</ele>
        <time>2025-02-13T15:27:30.343Z</time>
      </trkpt>
      <trkpt lat="50.37631304003298" lon="5.526900803670287">
        <ele>132.89</ele>
        <time>2025-02-13T15:27:34.467Z</time>
      </trkpt>
      <trkpt lat="50.37637003697455" lon="5.526552200317383">
        <ele>132.89</ele>
        <time>2025-02-13T15:27:38.594Z</time>
      </trkpt>
      <trkpt lat="50.376441702246666" lon="5.526093207299709">
        <ele>132.93</ele>
        <time>2025-02-13T15:27:42.726Z</time>
      </trkpt>
      <trkpt lat="50.376513451337814" lon="5.525634214282036">
        <ele>133.09</ele>
        <time>2025-02-13T15:27:46.863Z</time>
      </trkpt>
      <trkpt lat="50.37658461369574" lon="5.525178909301758">
        <ele>133.29</ele>
        <time>2025-02-13T15:27:51.005Z</time>
      </trkpt>
      <trkpt lat="50.37658452987671" lon="5.525178909301758">
        <ele>133.57</ele>
        <time>2025-02-13T15:27:55.147Z</time>
      </trkpt>
      <trkpt lat="50.37662744522095" lon="5.524942874908447">
        <ele>133.92</ele>
        <time>2025-02-13T15:27:59.291Z</time>
      </trkpt>
      <trkpt lat="50.37669198587537" lon="5.524469465017319">
        <ele>134.36</ele>
        <time>2025-02-13T15:28:03.440Z</time>
      </trkpt>
      <trkpt lat="50.37675619125366" lon="5.523998737335205">
        <ele>134.84</ele>
        <time>2025-02-13T15:28:07.594Z</time>
      </trkpt>
      <trkpt lat="50.37651998922229" lon="5.523805450648069">
        <ele>135.39</ele>
        <time>2025-02-13T15:28:11.753Z</time>
      </trkpt>
      <trkpt lat="50.37628420628607" lon="5.5236124992370605">
        <ele>136.08</ele>
        <time>2025-02-13T15:28:15.916Z</time>
      </trkpt>
      <trkpt lat="50.37613400258124" lon="5.523505210876465">
        <ele>136.83</ele>
        <time>2025-02-13T15:28:20.081Z</time>
      </trkpt>
      <trkpt lat="50.37594088353217" lon="5.523333549499512">
        <ele>137.63</ele>
        <time>2025-02-13T15:28:24.250Z</time>
      </trkpt>
      <trkpt lat="50.37571323104203" lon="5.52315317094326">
        <ele>138.46</ele>
        <time>2025-02-13T15:28:28.423Z</time>
      </trkpt>
      <trkpt lat="50.37548557855189" lon="5.522972792387009">
        <ele>139.34</ele>
        <time>2025-02-13T15:28:32.600Z</time>
      </trkpt>
      <trkpt lat="50.37525800988078" lon="5.522792413830757">
        <ele>140.31</ele>
        <time>2025-02-13T15:28:36.781Z</time>
      </trkpt>
      <trkpt lat="50.37503035739064" lon="5.522612035274506">
        <ele>141.37</ele>
        <time>2025-02-13T15:28:40.966Z</time>
      </trkpt>
      <trkpt lat="50.37480354309082" lon="5.522432327270508">
        <ele>142.46</ele>
        <time>2025-02-13T15:28:45.155Z</time>
      </trkpt>
      <trkpt lat="50.37452979013324" lon="5.522206854075193">
        <ele>143.57</ele>
        <time>2025-02-13T15:28:49.349Z</time>
      </trkpt>
      <trkpt lat="50.374256037175655" lon="5.521981380879879">
        <ele>144.67</ele>
        <time>2025-02-13T15:28:53.548Z</time>
      </trkpt>
      <trkpt lat="50.37398228421807" lon="5.521755907684565">
        <ele>145.73</ele>
        <time>2025-02-13T15:28:57.752Z</time>
      </trkpt>
      <trkpt lat="50.373709285631776" lon="5.521531105041504">
        <ele>146.81</ele>
        <time>2025-02-13T15:29:01.961Z</time>
      </trkpt>
      <trkpt lat="50.373709201812744" lon="5.521531105041504">
        <ele>147.82</ele>
        <time>2025-02-13T15:29:06.170Z</time>
      </trkpt>
      <trkpt lat="50.37351599894464" lon="5.521391546353698">
        <ele>148.89</ele>
        <time>2025-02-13T15:29:10.383Z</time>
      </trkpt>
      <trkpt lat="50.37332304753363" lon="5.521252155303955">
        <ele>149.92</ele>
        <time>2025-02-13T15:29:14.599Z</time>
      </trkpt>
      <trkpt lat="50.37305390462279" lon="5.521030202507973">
        <ele>150.95</ele>
        <time>2025-02-13T15:29:18.820Z</time>
      </trkpt>
      <trkpt lat="50.372784761711955" lon="5.520808333531022">
        <ele>151.97</ele>
        <time>2025-02-13T15:29:23.046Z</time>
      </trkpt>
      <trkpt lat="50.37251628935337" lon="5.520586967468262">
        <ele>152.98</ele>
        <time>2025-02-13T15:29:27.277Z</time>
      </trkpt>
      <trkpt lat="50.372307915240526" lon="5.520415138453245">
        <ele>153.93</ele>
        <time>2025-02-13T15:29:31.511Z</time>
      </trkpt>
      <trkpt lat="50.37209987640381" lon="5.5202436447143555">
        <ele>154.77</ele>
        <time>2025-02-13T15:29:35.749Z</time>
      </trkpt>
      <trkpt lat="50.3718638420105" lon="5.520007610321045">
        <ele>155.45</ele>
        <time>2025-02-13T15:29:39.992Z</time>
      </trkpt>
      <trkpt lat="50.37162587977946" lon="5.519723296165466">
        <ele>156.04</ele>
        <time>2025-02-13T15:29:44.240Z</time>
      </trkpt>
      <trkpt lat="50.37138791754842" lon="5.519439065828919">
        <ele>156.42</ele>
        <time>2025-02-13T15:29:48.492Z</time>
      </trkpt>
      <trkpt lat="50.37114995531738" lon="5.5191548354923725">
        <ele>156.68</ele>
        <time>2025-02-13T15:29:52.749Z</time>
      </trkpt>
      <trkpt lat="50.37091199308634" lon="5.518870605155826">
        <ele>157.02</ele>
        <time>2025-02-13T15:29:57.011Z</time>
      </trkpt>
      <trkpt lat="50.37067411467433" lon="5.518586374819279">
        <ele>157.27</ele>
        <time>2025-02-13T15:30:01.278Z</time>
      </trkpt>
      <trkpt lat="50.37043615244329" lon="5.5183022283017635">
        <ele>157.51</ele>
        <time>2025-02-13T15:30:05.550Z</time>
      </trkpt>
      <trkpt lat="50.37019819021225" lon="5.518017997965217">
        <ele>157.62</ele>
        <time>2025-02-13T15:30:09.826Z</time>
      </trkpt>
      <trkpt lat="50.36996022798121" lon="5.51773376762867">
        <ele>157.72</ele>
        <time>2025-02-13T15:30:14.107Z</time>
      </trkpt>
      <trkpt lat="50.36972226575017" lon="5.517449537292123">
        <ele>157.83</ele>
        <time>2025-02-13T15:30:18.393Z</time>
      </trkpt>
      <trkpt lat="50.36948438733816" lon="5.517165306955576">
        <ele>157.84</ele>
        <time>2025-02-13T15:30:22.684Z</time>
      </trkpt>
      <trkpt lat="50.36924642510712" lon="5.516881076619029">
        <ele>157.76</ele>
        <time>2025-02-13T15:30:26.979Z</time>
      </trkpt>
      <trkpt lat="50.36900846287608" lon="5.516596846282482">
        <ele>157.67</ele>
        <time>2025-02-13T15:30:31.279Z</time>
      </trkpt>
      <trkpt lat="50.36877393722534" lon="5.516316890716553">
        <ele>157.57</ele>
        <time>2025-02-13T15:30:35.584Z</time>
      </trkpt>
      <trkpt lat="50.36852574907243" lon="5.516083035618067">
        <ele>157.45</ele>
        <time>2025-02-13T15:30:39.894Z</time>
      </trkpt>
      <trkpt lat="50.36827756091952" lon="5.515849180519581">
        <ele>157.21</ele>
        <time>2025-02-13T15:30:44.208Z</time>
      </trkpt>
      <trkpt lat="50.368029456585646" lon="5.515615325421095">
        <ele>156.97</ele>
        <time>2025-02-13T15:30:48.527Z</time>
      </trkpt>
      <trkpt lat="50.367781268432736" lon="5.515381470322609">
        <ele>156.72</ele>
        <time>2025-02-13T15:30:52.851Z</time>
      </trkpt>
      <trkpt lat="50.36753308027983" lon="5.515147615224123">
        <ele>156.43</ele>
        <time>2025-02-13T15:30:57.179Z</time>
      </trkpt>
      <trkpt lat="50.36728497594595" lon="5.514913760125637">
        <ele>156.17</ele>
        <time>2025-02-13T15:31:01.512Z</time>
      </trkpt>
      <trkpt lat="50.36703678779304" lon="5.514679905027151">
        <ele>155.89</ele>
        <time>2025-02-13T15:31:05.850Z</time>
      </trkpt>
      <trkpt lat="50.36678859964013" lon="5.514446049928665">
        <ele>155.61</ele>
        <time>2025-02-13T15:31:10.192Z</time>
      </trkpt>
      <trkpt lat="50.36654233932495" lon="5.514214038848877">
        <ele>155.38</ele>
        <time>2025-02-13T15:31:14.539Z</time>
      </trkpt>
      <trkpt lat="50.366370510309935" lon="5.51408520899713">
        <ele>155.12</ele>
        <time>2025-02-13T15:31:18.889Z</time>
      </trkpt>
      <trkpt lat="50.366199016571045" lon="5.513956546783447">
        <ele>154.83</ele>
        <time>2025-02-13T15:31:23.242Z</time>
      </trkpt>
      <trkpt lat="50.36593833938241" lon="5.513800056651235">
        <ele>154.55</ele>
        <time>2025-02-13T15:31:27.599Z</time>
      </trkpt>
      <trkpt lat="50.365677662193775" lon="5.513643650338054">
        <ele>154.29</ele>
        <time>2025-02-13T15:31:31.961Z</time>
      </trkpt>
      <trkpt lat="50.36541698500514" lon="5.513487244024873">
        <ele>154.04</ele>
        <time>2025-02-13T15:31:36.327Z</time>
      </trkpt>
      <trkpt lat="50.365156307816505" lon="5.513330837711692">
        <ele>153.76</ele>
        <time>2025-02-13T15:31:40.698Z</time>
      </trkpt>
      <trkpt lat="50.36489563062787" lon="5.513174431398511">
        <ele>153.45</ele>
        <time>2025-02-13T15:31:45.073Z</time>
      </trkpt>
      <trkpt lat="50.364634953439236" lon="5.51301802508533">
        <ele>153.16</ele>
        <time>2025-02-13T15:31:49.453Z</time>
      </trkpt>
      <trkpt lat="50.36437511444092" lon="5.512862205505371">
        <ele>152.84</ele>
        <time>2025-02-13T15:31:53.837Z</time>
      </trkpt>
      <trkpt lat="50.364085268229246" lon="5.512711917981505">
        <ele>152.65</ele>
        <time>2025-02-13T15:31:58.226Z</time>
      </trkpt>
      <trkpt lat="50.3637957572937" lon="5.512561798095703">
        <ele>152.39</ele>
        <time>2025-02-13T15:32:02.620Z</time>
      </trkpt>
      <trkpt lat="50.36353818140924" lon="5.512454425916076">
        <ele>152.04</ele>
        <time>2025-02-13T15:32:07.018Z</time>
      </trkpt>
      <trkpt lat="50.36328077316284" lon="5.512347221374512">
        <ele>151.73</ele>
        <time>2025-02-13T15:32:11.420Z</time>
      </trkpt>
      <trkpt lat="50.363030321896076" lon="5.512282764539123">
        <ele>151.51</ele>
        <time>2025-02-13T15:32:15.827Z</time>
      </trkpt>
      <trkpt lat="50.36277995444834" lon="5.512218391522765">
        <ele>151.25</ele>
        <time>2025-02-13T15:32:20.238Z</time>
      </trkpt>
      <trkpt lat="50.36252975463867" lon="5.5121541023254395">
        <ele>150.99</ele>
        <time>2025-02-13T15:32:24.653Z</time>
      </trkpt>
      <trkpt lat="50.362422466278076" lon="5.512111186981201">
        <ele>150.67</ele>
        <time>2025-02-13T15:32:29.069Z</time>
      </trkpt>
      <trkpt lat="50.36229380406439" lon="5.511918067932129">
        <ele>150.19</ele>
        <time>2025-02-13T15:32:33.488Z</time>
      </trkpt>
      <trkpt lat="50.362229431048036" lon="5.511746406555176">
        <ele>149.71</ele>
        <time>2025-02-13T15:32:37.909Z</time>
      </trkpt>
      <trkpt lat="50.362229347229004" lon="5.511746406555176">
        <ele>149.4</ele>
        <time>2025-02-13T15:32:42.330Z</time>
      </trkpt>
      <trkpt lat="50.36210060119629" lon="5.511574745178223">
        <ele>148.97</ele>
        <time>2025-02-13T15:32:46.754Z</time>
      </trkpt>
      <trkpt lat="50.36190748214722" lon="5.511445999145508">
        <ele>148.61</ele>
        <time>2025-02-13T15:32:51.181Z</time>
      </trkpt>
      <trkpt lat="50.36161771975458" lon="5.511333262547851">
        <ele>148.41</ele>
        <time>2025-02-13T15:32:55.613Z</time>
      </trkpt>
      <trkpt lat="50.36132795736194" lon="5.511220609769225">
        <ele>148.18</ele>
        <time>2025-02-13T15:33:00.050Z</time>
      </trkpt>
      <trkpt lat="50.3610381949693" lon="5.511107873171568">
        <ele>147.83</ele>
        <time>2025-02-13T15:33:04.492Z</time>
      </trkpt>
      <trkpt lat="50.36074876785278" lon="5.510995388031006">
        <ele>147.64</ele>
        <time>2025-02-13T15:33:08.939Z</time>
      </trkpt>
      <trkpt lat="50.36049831658602" lon="5.510866558179259">
        <ele>147.38</ele>
        <time>2025-02-13T15:33:13.390Z</time>
      </trkpt>
      <trkpt lat="50.36024786531925" lon="5.510737728327513">
        <ele>147.03</ele>
        <time>2025-02-13T15:33:17.845Z</time>
      </trkpt>
      <trkpt lat="50.359997414052486" lon="5.510608982294798">
        <ele>146.79</ele>
        <time>2025-02-13T15:33:22.304Z</time>
      </trkpt>
      <trkpt lat="50.35974704660475" lon="5.510480152443051">
        <ele>146.52</ele>
        <time>2025-02-13T15:33:26.767Z</time>
      </trkpt>
      <trkpt lat="50.35949659533799" lon="5.5103514064103365">
        <ele>146.27</ele>
        <time>2025-02-13T15:33:31.235Z</time>
      </trkpt>
      <trkpt lat="50.35924673080444" lon="5.510222911834717">
        <ele>145.99</ele>
        <time>2025-02-13T15:33:35.707Z</time>
      </trkpt>
      <trkpt lat="50.3589675296098" lon="5.510008167475462">
        <ele>145.61</ele>
        <time>2025-02-13T15:33:40.184Z</time>
      </trkpt>
      <trkpt lat="50.358688831329346" lon="5.509793758392334">
        <ele>145.23</ele>
        <time>2025-02-13T15:33:44.666Z</time>
      </trkpt>
      <trkpt lat="50.35846117883921" lon="5.509566022083163">
        <ele>144.88</ele>
        <time>2025-02-13T15:33:49.152Z</time>
      </trkpt>
      <trkpt lat="50.35823352634907" lon="5.509338369593024">
        <ele>144.59</ele>
        <time>2025-02-13T15:33:53.642Z</time>
      </trkpt>
      <trkpt lat="50.35800587385893" lon="5.509110717102885">
        <ele>144.35</ele>
        <time>2025-02-13T15:33:58.137Z</time>
      </trkpt>
      <trkpt lat="50.35777822136879" lon="5.508883064612746">
        <ele>144.06</ele>
        <time>2025-02-13T15:34:02.636Z</time>
      </trkpt>
      <trkpt lat="50.35755157470703" lon="5.5086565017700195">
        <ele>143.71</ele>
        <time>2025-02-13T15:34:07.139Z</time>
      </trkpt>
      <trkpt lat="50.35737999714911" lon="5.508570671081543">
        <ele>143.45</ele>
        <time>2025-02-13T15:34:11.645Z</time>
      </trkpt>
      <trkpt lat="50.35714387893677" lon="5.508484840393066">
        <ele>143.24</ele>
        <time>2025-02-13T15:34:16.155Z</time>
      </trkpt>
      <trkpt lat="50.356850596144795" lon="5.5084632989019156">
        <ele>143.05</ele>
        <time>2025-02-13T15:34:20.670Z</time>
      </trkpt>
      <trkpt lat="50.35655731335282" lon="5.508441841229796">
        <ele>142.85</ele>
        <time>2025-02-13T15:34:25.190Z</time>
      </trkpt>
      <trkpt lat="50.356264198198915" lon="5.508420467376709">
        <ele>142.69</ele>
        <time>2025-02-13T15:34:29.714Z</time>
      </trkpt>
      <trkpt lat="50.35626411437988" lon="5.508420467376709">
        <ele>142.55</ele>
        <time>2025-02-13T15:34:34.238Z</time>
      </trkpt>
      <trkpt lat="50.35611399449408" lon="5.50839900970459">
        <ele>142.41</ele>
        <time>2025-02-13T15:34:38.765Z</time>
      </trkpt>
      <trkpt lat="50.35611391067505" lon="5.50839900970459">
        <ele>142.32</ele>
        <time>2025-02-13T15:34:43.292Z</time>
      </trkpt>
      <trkpt lat="50.35587796010077" lon="5.508334636688232">
        <ele>142.27</ele>
        <time>2025-02-13T15:34:47.823Z</time>
      </trkpt>
      <trkpt lat="50.35572758875787" lon="5.508237993344665">
        <ele>142.21</ele>
        <time>2025-02-13T15:34:52.356Z</time>
      </trkpt>
      <trkpt lat="50.35557746887207" lon="5.50814151763916">
        <ele>142.2</ele>
        <time>2025-02-13T15:34:56.892Z</time>
      </trkpt>
      <trkpt lat="50.355373453348875" lon="5.507937418296933">
        <ele>142.15</ele>
        <time>2025-02-13T15:35:01.432Z</time>
      </trkpt>
      <trkpt lat="50.35516985692084" lon="5.5077338218688965">
        <ele>142.15</ele>
        <time>2025-02-13T15:35:05.976Z</time>
      </trkpt>
      <trkpt lat="50.35497640259564" lon="5.507483119145036">
        <ele>142.26</ele>
        <time>2025-02-13T15:35:10.524Z</time>
      </trkpt>
      <trkpt lat="50.35478303208947" lon="5.507232500240207">
        <ele>142.39</ele>
        <time>2025-02-13T15:35:15.076Z</time>
      </trkpt>
      <trkpt lat="50.35459041595459" lon="5.506982803344727">
        <ele>142.51</ele>
        <time>2025-02-13T15:35:19.632Z</time>
      </trkpt>
      <trkpt lat="50.354375671595335" lon="5.50680024549365">
        <ele>142.62</ele>
        <time>2025-02-13T15:35:24.191Z</time>
      </trkpt>
      <trkpt lat="50.35416134633124" lon="5.506618022918701">
        <ele>142.71</ele>
        <time>2025-02-13T15:35:28.754Z</time>
      </trkpt>
      <trkpt lat="50.35416126251221" lon="5.506618022918701">
        <ele>142.88</ele>
        <time>2025-02-13T15:35:33.317Z</time>
      </trkpt>
      <trkpt lat="50.35388239659369" lon="5.506424903869629">
        <ele>143.05</ele>
        <time>2025-02-13T15:35:37.885Z</time>
      </trkpt>
      <trkpt lat="50.35388231277466" lon="5.506424903869629">
        <ele>143.26</ele>
        <time>2025-02-13T15:35:42.453Z</time>
      </trkpt>
      <trkpt lat="50.35371056757867" lon="5.506296074017882">
        <ele>143.48</ele>
        <time>2025-02-13T15:35:47.024Z</time>
      </trkpt>
      <trkpt lat="50.353539073839784" lon="5.506167411804199">
        <ele>143.72</ele>
        <time>2025-02-13T15:35:51.598Z</time>
      </trkpt>
      <trkpt lat="50.35326523706317" lon="5.505952667444944">
        <ele>143.98</ele>
        <time>2025-02-13T15:35:56.177Z</time>
      </trkpt>
      <trkpt lat="50.35299148410559" lon="5.5057379230856895">
        <ele>144.3</ele>
        <time>2025-02-13T15:36:00.761Z</time>
      </trkpt>
      <trkpt lat="50.352717731148005" lon="5.505523262545466">
        <ele>144.68</ele>
        <time>2025-02-13T15:36:05.350Z</time>
      </trkpt>
      <trkpt lat="50.352444648742676" lon="5.505309104919434">
        <ele>145.02</ele>
        <time>2025-02-13T15:36:09.944Z</time>
      </trkpt>
      <trkpt lat="50.35228354856372" lon="5.505137275904417">
        <ele>145.23</ele>
        <time>2025-02-13T15:36:14.541Z</time>
      </trkpt>
      <trkpt lat="50.35212278366089" lon="5.504965782165527">
        <ele>145.4</ele>
        <time>2025-02-13T15:36:19.141Z</time>
      </trkpt>
      <trkpt lat="50.351972579956055" lon="5.5046868324279785">
        <ele>145.48</ele>
        <time>2025-02-13T15:36:23.745Z</time>
      </trkpt>
      <trkpt lat="50.351843582466245" lon="5.504396567121148">
        <ele>145.61</ele>
        <time>2025-02-13T15:36:28.353Z</time>
      </trkpt>
      <trkpt lat="50.351715087890625" lon="5.504107475280762">
        <ele>145.8</ele>
        <time>2025-02-13T15:36:32.964Z</time>
      </trkpt>
      <trkpt lat="50.35158600658178" lon="5.503688044846058">
        <ele>146.0</ele>
        <time>2025-02-13T15:36:37.580Z</time>
      </trkpt>
      <trkpt lat="50.351457595825195" lon="5.503270626068115">
        <ele>146.2</ele>
        <time>2025-02-13T15:36:42.201Z</time>
      </trkpt>
      <trkpt lat="50.3513812366873" lon="5.502982372418046">
        <ele>146.35</ele>
        <time>2025-02-13T15:36:46.825Z</time>
      </trkpt>
      <trkpt lat="50.3513053804636" lon="5.502695627510548">
        <ele>146.43</ele>
        <time>2025-02-13T15:36:51.452Z</time>
      </trkpt>
      <trkpt lat="50.351264560595155" lon="5.5025410652160645">
        <ele>146.49</ele>
        <time>2025-02-13T15:36:56.081Z</time>
      </trkpt>
      <trkpt lat="50.35126447677612" lon="5.5025410652160645">
        <ele>146.54</ele>
        <time>2025-02-13T15:37:00.710Z</time>
      </trkpt>
      <trkpt lat="50.3511999361217" lon="5.502143008634448">
        <ele>146.49</ele>
        <time>2025-02-13T15:37:05.343Z</time>
      </trkpt>
      <trkpt lat="50.35113581456244" lon="5.501747131347656">
        <ele>146.51</ele>
        <time>2025-02-13T15:37:09.980Z</time>
      </trkpt>
      <trkpt lat="50.35113573074341" lon="5.501747131347656">
        <ele>146.47</ele>
        <time>2025-02-13T15:37:14.617Z</time>
      </trkpt>
      <trkpt lat="50.35108191892505" lon="5.501284450292587">
        <ele>146.5</ele>
        <time>2025-02-13T15:37:19.259Z</time>
      </trkpt>
      <trkpt lat="50.351028526201844" lon="5.500824451446533">
        <ele>146.34</ele>
        <time>2025-02-13T15:37:23.906Z</time>
      </trkpt>
      <trkpt lat="50.3509961720556" lon="5.500447852537036">
        <ele>146.14</ele>
        <time>2025-02-13T15:37:28.557Z</time>
      </trkpt>
      <trkpt lat="50.35096415318549" lon="5.500073432922363">
        <ele>145.96</ele>
        <time>2025-02-13T15:37:33.212Z</time>
      </trkpt>
      <trkpt lat="50.35094269551337" lon="5.4996657371521">
        <ele>145.84</ele>
        <time>2025-02-13T15:37:37.871Z</time>
      </trkpt>
      <trkpt lat="50.35092115402222" lon="5.49940824508667">
        <ele>145.7</ele>
        <time>2025-02-13T15:37:42.532Z</time>
      </trkpt>
      <trkpt lat="50.35089978016913" lon="5.499236583709717">
        <ele>145.49</ele>
        <time>2025-02-13T15:37:47.195Z</time>
      </trkpt>
      <trkpt lat="50.35086742602289" lon="5.498870713636279">
        <ele>145.26</ele>
        <time>2025-02-13T15:37:51.862Z</time>
      </trkpt>
      <trkpt lat="50.35083532333374" lon="5.498507022857666">
        <ele>144.93</ele>
        <time>2025-02-13T15:37:56.533Z</time>
      </trkpt>
      <trkpt lat="50.35079224035144" lon="5.498227318748832">
        <ele>144.59</ele>
        <time>2025-02-13T15:38:01.207Z</time>
      </trkpt>
      <trkpt lat="50.350749492645264" lon="5.497949123382568">
        <ele>144.18</ele>
        <time>2025-02-13T15:38:05.884Z</time>
      </trkpt>
      <trkpt lat="50.35064195282757" lon="5.497604962438345">
        <ele>143.72</ele>
        <time>2025-02-13T15:38:10.565Z</time>
      </trkpt>
      <trkpt lat="50.35053441300988" lon="5.497260885313153">
        <ele>143.22</ele>
        <time>2025-02-13T15:38:15.250Z</time>
      </trkpt>
      <trkpt lat="50.35042762756348" lon="5.49691915512085">
        <ele>142.74</ele>
        <time>2025-02-13T15:38:19.938Z</time>
      </trkpt>
      <trkpt lat="50.350352274253964" lon="5.496617993339896">
        <ele>142.17</ele>
        <time>2025-02-13T15:38:24.630Z</time>
      </trkpt>
      <trkpt lat="50.35027742385864" lon="5.496318340301514">
        <ele>141.65</ele>
        <time>2025-02-13T15:38:29.325Z</time>
      </trkpt>
      <trkpt lat="50.35027742385864" lon="5.495996475219727">
        <ele>141.11</ele>
        <time>2025-02-13T15:38:34.023Z</time>
      </trkpt>
      <trkpt lat="50.35032042302191" lon="5.495695229619741">
        <ele>140.58</ele>
        <time>2025-02-13T15:38:38.724Z</time>
      </trkpt>
      <trkpt lat="50.35036325454712" lon="5.495395660400391">
        <ele>140.09</ele>
        <time>2025-02-13T15:38:43.429Z</time>
      </trkpt>
      <trkpt lat="50.35040625371039" lon="5.495138168334961">
        <ele>139.66</ele>
        <time>2025-02-13T15:38:48.136Z</time>
      </trkpt>
      <trkpt lat="50.350492084398866" lon="5.494687557220459">
        <ele>139.18</ele>
        <time>2025-02-13T15:38:52.848Z</time>
      </trkpt>
      <trkpt lat="50.35055645741522" lon="5.4943013191223145">
        <ele>138.72</ele>
        <time>2025-02-13T15:38:57.564Z</time>
      </trkpt>
      <trkpt lat="50.35059928894043" lon="5.493979454040527">
        <ele>138.3</ele>
        <time>2025-02-13T15:39:02.284Z</time>
      </trkpt>
      <trkpt lat="50.35059937275946" lon="5.493979454040527">
        <ele>137.95</ele>
        <time>2025-02-13T15:39:07.004Z</time>
      </trkpt>
      <trkpt lat="50.35061010159552" lon="5.4936781246215105">
        <ele>137.61</ele>
        <time>2025-02-13T15:39:11.727Z</time>
      </trkpt>
      <trkpt lat="50.35062083043158" lon="5.493378639221191">
        <ele>137.34</ele>
        <time>2025-02-13T15:39:16.453Z</time>
      </trkpt>
      <trkpt lat="50.350685119628906" lon="5.493271350860596">
        <ele>137.09</ele>
        <time>2025-02-13T15:39:21.180Z</time>
      </trkpt>
      <trkpt lat="50.35066366195679" lon="5.493206977844238">
        <ele>136.92</ele>
        <time>2025-02-13T15:39:25.908Z</time>
      </trkpt>
      <trkpt lat="50.35059928894043" lon="5.493206977844238">
        <ele>136.83</ele>
        <time>2025-02-13T15:39:30.637Z</time>
      </trkpt>
      <trkpt lat="50.35051345825195" lon="5.49290657043457">
        <ele>136.76</ele>
        <time>2025-02-13T15:39:35.369Z</time>
      </trkpt>
      <trkpt lat="50.3504919167608" lon="5.492648323997855">
        <ele>136.74</ele>
        <time>2025-02-13T15:39:40.104Z</time>
      </trkpt>
      <trkpt lat="50.350470542907715" lon="5.492391586303711">
        <ele>136.8</ele>
        <time>2025-02-13T15:39:44.842Z</time>
      </trkpt>
      <trkpt lat="50.35049920901656" lon="5.491997050121427">
        <ele>136.93</ele>
        <time>2025-02-13T15:39:49.584Z</time>
      </trkpt>
      <trkpt lat="50.35052787512541" lon="5.491602597758174">
        <ele>137.18</ele>
        <time>2025-02-13T15:39:54.330Z</time>
      </trkpt>
      <trkpt lat="50.35055637359619" lon="5.491211414337158">
        <ele>137.55</ele>
        <time>2025-02-13T15:39:59.080Z</time>
      </trkpt>
      <trkpt lat="50.35053491592407" lon="5.4909539222717285">
        <ele>137.99</ele>
        <time>2025-02-13T15:40:03.833Z</time>
      </trkpt>
      <trkpt lat="50.35062074661255" lon="5.4906535148620605">
        <ele>138.48</ele>
        <time>2025-02-13T15:40:08.589Z</time>
      </trkpt>
      <trkpt lat="50.35064220428467" lon="5.490319915115833">
        <ele>139.1</ele>
        <time>2025-02-13T15:40:13.348Z</time>
      </trkpt>
      <trkpt lat="50.35066366195679" lon="5.489988327026367">
        <ele>139.73</ele>
        <time>2025-02-13T15:40:18.111Z</time>
      </trkpt>
      <trkpt lat="50.35066366195679" lon="5.489902496337891">
        <ele>140.41</ele>
        <time>2025-02-13T15:40:22.875Z</time>
      </trkpt>
      <trkpt lat="50.35066366195679" lon="5.48966646194458">
        <ele>141.2</ele>
        <time>2025-02-13T15:40:27.641Z</time>
      </trkpt>
      <trkpt lat="50.350695932284" lon="5.489257592707872">
        <ele>142.07</ele>
        <time>2025-02-13T15:40:32.411Z</time>
      </trkpt>
      <trkpt lat="50.350728034973145" lon="5.488851070404053">
        <ele>143.05</ele>
        <time>2025-02-13T15:40:37.186Z</time>
      </trkpt>
      <trkpt lat="50.350749492645264" lon="5.488592823967338">
        <ele>144.06</ele>
        <time>2025-02-13T15:40:41.963Z</time>
      </trkpt>
      <trkpt lat="50.35077095031738" lon="5.488336086273193">
        <ele>145.12</ele>
        <time>2025-02-13T15:40:46.743Z</time>
      </trkpt>
      <trkpt lat="50.3507924079895" lon="5.488014221191406">
        <ele>146.21</ele>
        <time>2025-02-13T15:40:51.526Z</time>
      </trkpt>
      <trkpt lat="50.35077086649835" lon="5.487605351954699">
        <ele>147.4</ele>
        <time>2025-02-13T15:40:56.313Z</time>
      </trkpt>
      <trkpt lat="50.350749492645264" lon="5.487198829650879">
        <ele>148.68</ele>
        <time>2025-02-13T15:41:01.105Z</time>
      </trkpt>
      <trkpt lat="50.350706577301025" lon="5.4869842529296875">
        <ele>149.91</ele>
        <time>2025-02-13T15:41:05.899Z</time>
      </trkpt>
      <trkpt lat="50.350609766319394" lon="5.486629279330373">
        <ele>151.24</ele>
        <time>2025-02-13T15:41:10.697Z</time>
      </trkpt>
      <trkpt lat="50.35051345825195" lon="5.486276149749756">
        <ele>152.56</ele>
        <time>2025-02-13T15:41:15.499Z</time>
      </trkpt>
      <trkpt lat="50.35036291927099" lon="5.4858798533678055">
        <ele>153.86</ele>
        <time>2025-02-13T15:41:20.306Z</time>
      </trkpt>
      <trkpt lat="50.35021238029003" lon="5.485483556985855">
        <ele>155.17</ele>
        <time>2025-02-13T15:41:25.117Z</time>
      </trkpt>
      <trkpt lat="50.35006184130907" lon="5.485087260603905">
        <ele>156.48</ele>
        <time>2025-02-13T15:41:29.933Z</time>
      </trkpt>
      <trkpt lat="50.34991130232811" lon="5.484690964221954">
        <ele>157.82</ele>
        <time>2025-02-13T15:41:34.754Z</time>
      </trkpt>
      <trkpt lat="50.34976084716618" lon="5.484294751659036">
        <ele>159.21</ele>
        <time>2025-02-13T15:41:39.579Z</time>
      </trkpt>
      <trkpt lat="50.34961030818522" lon="5.483898455277085">
        <ele>160.55</ele>
        <time>2025-02-13T15:41:44.409Z</time>
      </trkpt>
      <trkpt lat="50.349462032318115" lon="5.483508110046387">
        <ele>161.88</ele>
        <time>2025-02-13T15:41:49.244Z</time>
      </trkpt>
      <trkpt lat="50.34956932067871" lon="5.48342227935791">
        <ele>163.2</ele>
        <time>2025-02-13T15:41:54.081Z</time>
      </trkpt>
      <trkpt lat="50.349738635122776" lon="5.483478689566255">
        <ele>164.5</ele>
        <time>2025-02-13T15:41:58.920Z</time>
      </trkpt>
      <trkpt lat="50.34956932067871" lon="5.48342227935791">
        <ele>163.2</ele>
        <time>2025-02-13T15:42:03.762Z</time>
      </trkpt>
      <trkpt lat="50.34946211613715" lon="5.483508110046387">
        <ele>166.83</ele>
        <time>2025-02-13T15:42:08.606Z</time>
      </trkpt>
      <trkpt lat="50.34931870177388" lon="5.483131762593985">
        <ele>168.09</ele>
        <time>2025-02-13T15:42:13.455Z</time>
      </trkpt>
      <trkpt lat="50.34917537122965" lon="5.4827554151415825">
        <ele>169.34</ele>
        <time>2025-02-13T15:42:18.308Z</time>
      </trkpt>
      <trkpt lat="50.349032040685415" lon="5.482379151508212">
        <ele>170.61</ele>
        <time>2025-02-13T15:42:23.166Z</time>
      </trkpt>
      <trkpt lat="50.34888871014118" lon="5.48200280405581">
        <ele>171.85</ele>
        <time>2025-02-13T15:42:28.028Z</time>
      </trkpt>
      <trkpt lat="50.34874529577792" lon="5.48162654042244">
        <ele>173.02</ele>
        <time>2025-02-13T15:42:32.895Z</time>
      </trkpt>
      <trkpt lat="50.34860380925238" lon="5.481255054473877">
        <ele>174.1</ele>
        <time>2025-02-13T15:42:37.766Z</time>
      </trkpt>
      <trkpt lat="50.34856089390814" lon="5.481147766113281">
        <ele>175.18</ele>
        <time>2025-02-13T15:42:42.638Z</time>
      </trkpt>
      <trkpt lat="50.348424687981606" lon="5.480789355933666">
        <ele>176.28</ele>
        <time>2025-02-13T15:42:47.515Z</time>
      </trkpt>
      <trkpt lat="50.34828848205507" lon="5.480430945754051">
        <ele>177.38</ele>
        <time>2025-02-13T15:42:52.396Z</time>
      </trkpt>
      <trkpt lat="50.34815227612853" lon="5.480072535574436">
        <ele>178.48</ele>
        <time>2025-02-13T15:42:57.281Z</time>
      </trkpt>
      <trkpt lat="50.34801607020199" lon="5.479714209213853">
        <ele>179.57</ele>
        <time>2025-02-13T15:43:02.170Z</time>
      </trkpt>
      <trkpt lat="50.347879864275455" lon="5.479355799034238">
        <ele>180.6</ele>
        <time>2025-02-13T15:43:07.064Z</time>
      </trkpt>
      <trkpt lat="50.347745418548584" lon="5.479001998901367">
        <ele>181.6</ele>
        <time>2025-02-13T15:43:11.962Z</time>
      </trkpt>
      <trkpt lat="50.34770258702338" lon="5.479023456573486">
        <ele>182.53</ele>
        <time>2025-02-13T15:43:16.861Z</time>
      </trkpt>
      <trkpt lat="50.34768112935126" lon="5.478980541229248">
        <ele>183.48</ele>
        <time>2025-02-13T15:43:21.760Z</time>
      </trkpt>
      <trkpt lat="50.34754131920636" lon="5.478658005595207">
        <ele>184.42</ele>
        <time>2025-02-13T15:43:26.663Z</time>
      </trkpt>
      <trkpt lat="50.34740209579468" lon="5.478336811065674">
        <ele>185.37</ele>
        <time>2025-02-13T15:43:31.570Z</time>
      </trkpt>
      <trkpt lat="50.34723554737866" lon="5.4780627228319645">
        <ele>186.32</ele>
        <time>2025-02-13T15:43:36.481Z</time>
      </trkpt>
      <trkpt lat="50.34706899896264" lon="5.477788718417287">
        <ele>187.31</ele>
        <time>2025-02-13T15:43:41.396Z</time>
      </trkpt>
      <trkpt lat="50.34690245054662" lon="5.477514714002609">
        <ele>188.24</ele>
        <time>2025-02-13T15:43:46.315Z</time>
      </trkpt>
      <trkpt lat="50.346736991778016" lon="5.477242469787598">
        <ele>189.16</ele>
        <time>2025-02-13T15:43:51.238Z</time>
      </trkpt>
      <trkpt lat="50.346543453633785" lon="5.476887747645378">
        <ele>190.0</ele>
        <time>2025-02-13T15:43:56.165Z</time>
      </trkpt>
      <trkpt lat="50.34635066986084" lon="5.476534366607666">
        <ele>190.82</ele>
        <time>2025-02-13T15:44:01.097Z</time>
      </trkpt>
      <trkpt lat="50.34618588164449" lon="5.47626924701035">
        <ele>191.68</ele>
        <time>2025-02-13T15:44:06.033Z</time>
      </trkpt>
      <trkpt lat="50.34602117724717" lon="5.476004211232066">
        <ele>192.54</ele>
        <time>2025-02-13T15:44:10.973Z</time>
      </trkpt>
      <trkpt lat="50.34585722722113" lon="5.475740432739258">
        <ele>193.39</ele>
        <time>2025-02-13T15:44:15.917Z</time>
      </trkpt>
      <trkpt lat="50.3458571434021" lon="5.475740432739258">
        <ele>194.13</ele>
        <time>2025-02-13T15:44:20.861Z</time>
      </trkpt>
      <trkpt lat="50.34567978233099" lon="5.47543415799737">
        <ele>194.91</ele>
        <time>2025-02-13T15:44:25.809Z</time>
      </trkpt>
      <trkpt lat="50.34550250507891" lon="5.475127883255482">
        <ele>195.63</ele>
        <time>2025-02-13T15:44:30.761Z</time>
      </trkpt>
      <trkpt lat="50.3453251440078" lon="5.474821608513594">
        <ele>196.19</ele>
        <time>2025-02-13T15:44:35.717Z</time>
      </trkpt>
      <trkpt lat="50.34514904022217" lon="5.474517345428467">
        <ele>196.73</ele>
        <time>2025-02-13T15:44:40.677Z</time>
      </trkpt>
      <trkpt lat="50.34504150040448" lon="5.474230600520968">
        <ele>197.31</ele>
        <time>2025-02-13T15:44:45.641Z</time>
      </trkpt>
      <trkpt lat="50.344933960586786" lon="5.47394385561347">
        <ele>197.9</ele>
        <time>2025-02-13T15:44:50.608Z</time>
      </trkpt>
      <trkpt lat="50.34482717514038" lon="5.473659038543701">
        <ele>198.48</ele>
        <time>2025-02-13T15:44:55.579Z</time>
      </trkpt>
      <trkpt lat="50.34471963532269" lon="5.473286211490631">
        <ele>199.05</ele>
        <time>2025-02-13T15:45:00.554Z</time>
      </trkpt>
      <trkpt lat="50.344612095505" lon="5.472913384437561">
        <ele>199.53</ele>
        <time>2025-02-13T15:45:05.533Z</time>
      </trkpt>
      <trkpt lat="50.344505393877625" lon="5.472543239593506">
        <ele>199.99</ele>
        <time>2025-02-13T15:45:10.516Z</time>
      </trkpt>
      <trkpt lat="50.344393495470285" lon="5.472151720896363">
        <ele>200.41</ele>
        <time>2025-02-13T15:45:15.504Z</time>
      </trkpt>
      <trkpt lat="50.344281597062945" lon="5.471760286018252">
        <ele>200.72</ele>
        <time>2025-02-13T15:45:20.496Z</time>
      </trkpt>
      <trkpt lat="50.34416978247464" lon="5.4713688511401415">
        <ele>200.96</ele>
        <time>2025-02-13T15:45:25.492Z</time>
      </trkpt>
      <trkpt lat="50.3440578840673" lon="5.470977332442999">
        <ele>201.09</ele>
        <time>2025-02-13T15:45:30.493Z</time>
      </trkpt>
      <trkpt lat="50.343947410583496" lon="5.470590591430664">
        <ele>201.12</ele>
        <time>2025-02-13T15:45:35.498Z</time>
      </trkpt>
      <trkpt lat="50.34390457905829" lon="5.470397472381592">
        <ele>201.1</ele>
        <time>2025-02-13T15:45:40.505Z</time>
      </trkpt>
      <trkpt lat="50.34388312138617" lon="5.4703545570373535">
        <ele>201.03</ele>
        <time>2025-02-13T15:45:45.513Z</time>
      </trkpt>
      <trkpt lat="50.34380240365863" lon="5.469983406364918">
        <ele>200.87</ele>
        <time>2025-02-13T15:45:50.525Z</time>
      </trkpt>
      <trkpt lat="50.34372176975012" lon="5.469612339511514">
        <ele>200.64</ele>
        <time>2025-02-13T15:45:55.541Z</time>
      </trkpt>
      <trkpt lat="50.343641052022576" lon="5.46924127265811">
        <ele>200.39</ele>
        <time>2025-02-13T15:46:00.561Z</time>
      </trkpt>
      <trkpt lat="50.34356125630438" lon="5.468873977661133">
        <ele>200.12</ele>
        <time>2025-02-13T15:46:05.585Z</time>
      </trkpt>
      <trkpt lat="50.343475341796875" lon="5.468487739562988">
        <ele>199.81</ele>
        <time>2025-02-13T15:46:10.613Z</time>
      </trkpt>
      <trkpt lat="50.343518340960145" lon="5.46844482421875">
        <ele>199.41</ele>
        <time>2025-02-13T15:46:15.642Z</time>
      </trkpt>
      <trkpt lat="50.34343795850873" lon="5.468066884204745">
        <ele>198.92</ele>
        <time>2025-02-13T15:46:20.675Z</time>
      </trkpt>
      <trkpt lat="50.34335765987635" lon="5.467688944190741">
        <ele>198.35</ele>
        <time>2025-02-13T15:46:25.712Z</time>
      </trkpt>
      <trkpt lat="50.34327727742493" lon="5.467311087995768">
        <ele>197.69</ele>
        <time>2025-02-13T15:46:30.753Z</time>
      </trkpt>
      <trkpt lat="50.343197816982865" lon="5.4669370874762535">
        <ele>196.99</ele>
        <time>2025-02-13T15:46:35.798Z</time>
      </trkpt>
      <trkpt lat="50.343098659068346" lon="5.466470802202821">
        <ele>196.34</ele>
        <time>2025-02-13T15:46:40.848Z</time>
      </trkpt>
      <trkpt lat="50.34299958497286" lon="5.466004516929388">
        <ele>195.63</ele>
        <time>2025-02-13T15:46:45.903Z</time>
      </trkpt>
      <trkpt lat="50.34290051087737" lon="5.465538231655955">
        <ele>194.87</ele>
        <time>2025-02-13T15:46:50.963Z</time>
      </trkpt>
      <trkpt lat="50.34280143678188" lon="5.465072030201554">
        <ele>194.03</ele>
        <time>2025-02-13T15:46:56.028Z</time>
      </trkpt>
      <trkpt lat="50.342702278867364" lon="5.464605744928122">
        <ele>193.16</ele>
        <time>2025-02-13T15:47:01.098Z</time>
      </trkpt>
      <trkpt lat="50.342603204771876" lon="5.464139459654689">
        <ele>192.28</ele>
        <time>2025-02-13T15:47:06.173Z</time>
      </trkpt>
      <trkpt lat="50.34250413067639" lon="5.463673258200288">
        <ele>191.39</ele>
        <time>2025-02-13T15:47:11.253Z</time>
      </trkpt>
      <trkpt lat="50.3424050565809" lon="5.463206972926855">
        <ele>190.52</ele>
        <time>2025-02-13T15:47:16.338Z</time>
      </trkpt>
      <trkpt lat="50.34230589866638" lon="5.462740687653422">
        <ele>189.65</ele>
        <time>2025-02-13T15:47:21.428Z</time>
      </trkpt>
      <trkpt lat="50.342209339141846" lon="5.462286472320557">
        <ele>188.77</ele>
        <time>2025-02-13T15:47:26.523Z</time>
      </trkpt>
      <trkpt lat="50.342134069651365" lon="5.46188841573894">
        <ele>187.89</ele>
        <time>2025-02-13T15:47:31.623Z</time>
      </trkpt>
      <trkpt lat="50.34205921925604" lon="5.461492538452148">
        <ele>186.99</ele>
        <time>2025-02-13T15:47:36.727Z</time>
      </trkpt>
      <trkpt lat="50.34199467860162" lon="5.4612236469984055">
        <ele>186.14</ele>
        <time>2025-02-13T15:47:41.834Z</time>
      </trkpt>
      <trkpt lat="50.34193047322333" lon="5.46095609664917">
        <ele>185.27</ele>
        <time>2025-02-13T15:47:46.944Z</time>
      </trkpt>
      <trkpt lat="50.34184439107776" lon="5.460540102794766">
        <ele>184.43</ele>
        <time>2025-02-13T15:47:52.058Z</time>
      </trkpt>
      <trkpt lat="50.341758308932185" lon="5.460124192759395">
        <ele>183.59</ele>
        <time>2025-02-13T15:47:57.177Z</time>
      </trkpt>
      <trkpt lat="50.34167289733887" lon="5.45971155166626">
        <ele>182.8</ele>
        <time>2025-02-13T15:48:02.300Z</time>
      </trkpt>
      <trkpt lat="50.34162998199463" lon="5.459539890289307">
        <ele>182.02</ele>
        <time>2025-02-13T15:48:07.425Z</time>
      </trkpt>
      <trkpt lat="50.34158706665039" lon="5.459582805633545">
        <ele>181.35</ele>
        <time>2025-02-13T15:48:12.551Z</time>
      </trkpt>
      <trkpt lat="50.3415656927973" lon="5.459432601928711">
        <ele>180.65</ele>
        <time>2025-02-13T15:48:17.678Z</time>
      </trkpt>
      <trkpt lat="50.34156560897827" lon="5.459432601928711">
        <ele>180.03</ele>
        <time>2025-02-13T15:48:22.805Z</time>
      </trkpt>
      <trkpt lat="50.341476425528526" lon="5.45901769772172">
        <ele>179.45</ele>
        <time>2025-02-13T15:48:27.937Z</time>
      </trkpt>
      <trkpt lat="50.34138732589781" lon="5.4586027935147285">
        <ele>178.87</ele>
        <time>2025-02-13T15:48:33.073Z</time>
      </trkpt>
      <trkpt lat="50.3412982262671" lon="5.458187889307737">
        <ele>178.33</ele>
        <time>2025-02-13T15:48:38.214Z</time>
      </trkpt>
      <trkpt lat="50.341209126636386" lon="5.457772985100746">
        <ele>177.82</ele>
        <time>2025-02-13T15:48:43.359Z</time>
      </trkpt>
      <trkpt lat="50.34111994318664" lon="5.457358164712787">
        <ele>177.34</ele>
        <time>2025-02-13T15:48:48.509Z</time>
      </trkpt>
      <trkpt lat="50.34103084355593" lon="5.4569432605057955">
        <ele>176.95</ele>
        <time>2025-02-13T15:48:53.663Z</time>
      </trkpt>
      <trkpt lat="50.340943336486816" lon="5.456535816192627">
        <ele>176.62</ele>
        <time>2025-02-13T15:48:58.822Z</time>
      </trkpt>
      <trkpt lat="50.340964794158936" lon="5.45644998550415">
        <ele>176.36</ele>
        <time>2025-02-13T15:49:03.982Z</time>
      </trkpt>
      <trkpt lat="50.340884076431394" lon="5.456068105995655">
        <ele>176.2</ele>
        <time>2025-02-13T15:49:09.146Z</time>
      </trkpt>
      <trkpt lat="50.34080344252288" lon="5.45568622648716">
        <ele>176.07</ele>
        <time>2025-02-13T15:49:14.314Z</time>
      </trkpt>
      <trkpt lat="50.34072280861437" lon="5.455304430797696">
        <ele>175.99</ele>
        <time>2025-02-13T15:49:19.486Z</time>
      </trkpt>
      <trkpt lat="50.34064301289618" lon="5.454926490783691">
        <ele>176.02</ele>
        <time>2025-02-13T15:49:24.662Z</time>
      </trkpt>
      <trkpt lat="50.34060009755194" lon="5.4547119140625">
        <ele>176.05</ele>
        <time>2025-02-13T15:49:29.840Z</time>
      </trkpt>
      <trkpt lat="50.34054628573358" lon="5.454432209953666">
        <ele>176.1</ele>
        <time>2025-02-13T15:49:35.021Z</time>
      </trkpt>
      <trkpt lat="50.340492809191346" lon="5.454154014587402">
        <ele>176.21</ele>
        <time>2025-02-13T15:49:40.205Z</time>
      </trkpt>
      <trkpt lat="50.340417455881834" lon="5.453820498660207">
        <ele>176.36</ele>
        <time>2025-02-13T15:49:45.393Z</time>
      </trkpt>
      <trkpt lat="50.34034252166748" lon="5.453488826751709">
        <ele>176.52</ele>
        <time>2025-02-13T15:49:50.585Z</time>
      </trkpt>
      <trkpt lat="50.34027814865112" lon="5.453360080718994">
        <ele>176.71</ele>
        <time>2025-02-13T15:49:55.778Z</time>
      </trkpt>
      <trkpt lat="50.34018133766949" lon="5.452929837629199">
        <ele>176.95</ele>
        <time>2025-02-13T15:50:00.976Z</time>
      </trkpt>
      <trkpt lat="50.34008511342108" lon="5.4525017738342285">
        <ele>177.23</ele>
        <time>2025-02-13T15:50:06.179Z</time>
      </trkpt>
      <trkpt lat="50.33999903127551" lon="5.452066082507372">
        <ele>177.52</ele>
        <time>2025-02-13T15:50:11.386Z</time>
      </trkpt>
      <trkpt lat="50.33991294912994" lon="5.451630474999547">
        <ele>177.77</ele>
        <time>2025-02-13T15:50:16.598Z</time>
      </trkpt>
      <trkpt lat="50.33982686698437" lon="5.45119478367269">
        <ele>177.96</ele>
        <time>2025-02-13T15:50:21.815Z</time>
      </trkpt>
      <trkpt lat="50.339741706848145" lon="5.450763702392578">
        <ele>178.15</ele>
        <time>2025-02-13T15:50:27.036Z</time>
      </trkpt>
      <trkpt lat="50.339680686593056" lon="5.450283167883754">
        <ele>178.27</ele>
        <time>2025-02-13T15:50:32.262Z</time>
      </trkpt>
      <trkpt lat="50.339619750157" lon="5.449802633374929">
        <ele>178.46</ele>
        <time>2025-02-13T15:50:37.493Z</time>
      </trkpt>
      <trkpt lat="50.33955881372094" lon="5.449322098866105">
        <ele>178.59</ele>
        <time>2025-02-13T15:50:42.729Z</time>
      </trkpt>
      <trkpt lat="50.33949779346585" lon="5.448841564357281">
        <ele>178.7</ele>
        <time>2025-02-13T15:50:47.970Z</time>
      </trkpt>
      <trkpt lat="50.339436857029796" lon="5.448361029848456">
        <ele>178.81</ele>
        <time>2025-02-13T15:50:53.216Z</time>
      </trkpt>
      <trkpt lat="50.33937692642212" lon="5.447888374328613">
        <ele>178.86</ele>
        <time>2025-02-13T15:50:58.467Z</time>
      </trkpt>
      <trkpt lat="50.33939838409424" lon="5.447759628295898">
        <ele>178.94</ele>
        <time>2025-02-13T15:51:03.720Z</time>
      </trkpt>
      <trkpt lat="50.33935538493097" lon="5.447383029386401">
        <ele>178.98</ele>
        <time>2025-02-13T15:51:08.977Z</time>
      </trkpt>
      <trkpt lat="50.33931263722479" lon="5.4470086097717285">
        <ele>179.04</ele>
        <time>2025-02-13T15:51:14.237Z</time>
      </trkpt>
      <trkpt lat="50.33926955424249" lon="5.446678614243865">
        <ele>179.1</ele>
        <time>2025-02-13T15:51:19.501Z</time>
      </trkpt>
      <trkpt lat="50.33922655507922" lon="5.446348702535033">
        <ele>179.14</ele>
        <time>2025-02-13T15:51:24.768Z</time>
      </trkpt>
      <trkpt lat="50.33918389119208" lon="5.446021556854248">
        <ele>179.18</ele>
        <time>2025-02-13T15:51:30.039Z</time>
      </trkpt>
      <trkpt lat="50.33913007937372" lon="5.445634229108691">
        <ele>179.18</ele>
        <time>2025-02-13T15:51:35.314Z</time>
      </trkpt>
      <trkpt lat="50.33907660283148" lon="5.445249080657959">
        <ele>179.11</ele>
        <time>2025-02-13T15:51:40.593Z</time>
      </trkpt>
      <trkpt lat="50.339015079662204" lon="5.4447756707668304">
        <ele>178.99</ele>
        <time>2025-02-13T15:51:45.877Z</time>
      </trkpt>
      <trkpt lat="50.338953640311956" lon="5.444302344694734">
        <ele>178.88</ele>
        <time>2025-02-13T15:51:51.166Z</time>
      </trkpt>
      <trkpt lat="50.33889211714268" lon="5.443828934803605">
        <ele>178.74</ele>
        <time>2025-02-13T15:51:56.460Z</time>
      </trkpt>
      <trkpt lat="50.33883067779243" lon="5.443355608731508">
        <ele>178.6</ele>
        <time>2025-02-13T15:52:01.759Z</time>
      </trkpt>
      <trkpt lat="50.33876923844218" lon="5.442882282659411">
        <ele>178.45</ele>
        <time>2025-02-13T15:52:07.063Z</time>
      </trkpt>
      <trkpt lat="50.3387077152729" lon="5.442408872768283">
        <ele>178.18</ele>
        <time>2025-02-13T15:52:12.372Z</time>
      </trkpt>
      <trkpt lat="50.3386474493891" lon="5.441944599151611">
        <ele>177.8</ele>
        <time>2025-02-13T15:52:17.685Z</time>
      </trkpt>
      <trkpt lat="50.3386043664068" lon="5.441611083224416">
        <ele>177.42</ele>
        <time>2025-02-13T15:52:23.002Z</time>
      </trkpt>
      <trkpt lat="50.33856161870062" lon="5.441279411315918">
        <ele>177.03</ele>
        <time>2025-02-13T15:52:28.322Z</time>
      </trkpt>
      <trkpt lat="50.33850780688226" lon="5.44082754291594">
        <ele>176.64</ele>
        <time>2025-02-13T15:52:33.647Z</time>
      </trkpt>
      <trkpt lat="50.33845433034003" lon="5.440378189086914">
        <ele>176.24</ele>
        <time>2025-02-13T15:52:38.977Z</time>
      </trkpt>
      <trkpt lat="50.33840051852167" lon="5.440012402832508">
        <ele>175.86</ele>
        <time>2025-02-13T15:52:44.311Z</time>
      </trkpt>
      <trkpt lat="50.33834704197943" lon="5.439648628234863">
        <ele>175.42</ele>
        <time>2025-02-13T15:52:49.648Z</time>
      </trkpt>
      <trkpt lat="50.33830395899713" lon="5.439289966598153">
        <ele>174.93</ele>
        <time>2025-02-13T15:52:54.989Z</time>
      </trkpt>
      <trkpt lat="50.33826095983386" lon="5.438931388780475">
        <ele>174.44</ele>
        <time>2025-02-13T15:53:00.334Z</time>
      </trkpt>
      <trkpt lat="50.33821829594672" lon="5.438575744628906">
        <ele>173.93</ele>
        <time>2025-02-13T15:53:05.683Z</time>
      </trkpt>
      <trkpt lat="50.3381968382746" lon="5.438318252563477">
        <ele>173.42</ele>
        <time>2025-02-13T15:53:11.034Z</time>
      </trkpt>
      <trkpt lat="50.338142942637205" lon="5.437898654490709">
        <ele>172.89</ele>
        <time>2025-02-13T15:53:16.390Z</time>
      </trkpt>
      <trkpt lat="50.33808946609497" lon="5.43748140335083">
        <ele>172.35</ele>
        <time>2025-02-13T15:53:21.750Z</time>
      </trkpt>
      <trkpt lat="50.3378963470459" lon="5.437502861022949">
        <ele>171.81</ele>
        <time>2025-02-13T15:53:27.113Z</time>
      </trkpt>
      <trkpt lat="50.33770331181586" lon="5.437524318695068">
        <ele>171.3</ele>
        <time>2025-02-13T15:53:32.479Z</time>
      </trkpt>
      <trkpt lat="50.33757456578314" lon="5.437502861022949">
        <ele>170.8</ele>
        <time>2025-02-13T15:53:37.847Z</time>
      </trkpt>
      <trkpt lat="50.33744581975043" lon="5.43748140335083">
        <ele>170.33</ele>
        <time>2025-02-13T15:53:43.217Z</time>
      </trkpt>
      <trkpt lat="50.33723618835211" lon="5.437455922365189">
        <ele>169.88</ele>
        <time>2025-02-13T15:53:48.591Z</time>
      </trkpt>
      <trkpt lat="50.33702664077282" lon="5.437430525198579">
        <ele>169.44</ele>
        <time>2025-02-13T15:53:53.968Z</time>
      </trkpt>
      <trkpt lat="50.33681717701256" lon="5.437405211851001">
        <ele>169.03</ele>
        <time>2025-02-13T15:53:59.349Z</time>
      </trkpt>
      <trkpt lat="50.3367377165705" lon="5.4373955726623535">
        <ele>168.7</ele>
        <time>2025-02-13T15:54:04.731Z</time>
      </trkpt>
      <trkpt lat="50.336458683013916" lon="5.4373525734990835">
        <ele>168.38</ele>
        <time>2025-02-13T15:54:10.117Z</time>
      </trkpt>
      <trkpt lat="50.3361798170954" lon="5.437309741973877">
        <ele>168.18</ele>
        <time>2025-02-13T15:54:15.508Z</time>
      </trkpt>
      <trkpt lat="50.336029613390565" lon="5.437288284301758">
        <ele>168.03</ele>
        <time>2025-02-13T15:54:20.901Z</time>
      </trkpt>
      <trkpt lat="50.335750579833984" lon="5.437256013974547">
        <ele>167.92</ele>
        <time>2025-02-13T15:54:26.299Z</time>
      </trkpt>
      <trkpt lat="50.33547171391547" lon="5.4372239112854">
        <ele>167.8</ele>
        <time>2025-02-13T15:54:31.701Z</time>
      </trkpt>
      <trkpt lat="50.33517482690513" lon="5.437177391722798">
        <ele>167.74</ele>
        <time>2025-02-13T15:54:37.108Z</time>
      </trkpt>
      <trkpt lat="50.334877939894795" lon="5.437130872160196">
        <ele>167.74</ele>
        <time>2025-02-13T15:54:42.520Z</time>
      </trkpt>
      <trkpt lat="50.33458105288446" lon="5.437084352597594">
        <ele>167.83</ele>
        <time>2025-02-13T15:54:47.937Z</time>
      </trkpt>
      <trkpt lat="50.334284249693155" lon="5.437037916854024">
        <ele>167.95</ele>
        <time>2025-02-13T15:54:53.358Z</time>
      </trkpt>
      <trkpt lat="50.33398736268282" lon="5.436991397291422">
        <ele>168.12</ele>
        <time>2025-02-13T15:54:58.784Z</time>
      </trkpt>
      <trkpt lat="50.33369072712958" lon="5.436944961547852">
        <ele>168.29</ele>
        <time>2025-02-13T15:55:04.215Z</time>
      </trkpt>
      <trkpt lat="50.33343315124512" lon="5.436751842498779">
        <ele>168.49</ele>
        <time>2025-02-13T15:55:09.650Z</time>
      </trkpt>
      <trkpt lat="50.33322905190289" lon="5.436494015157223">
        <ele>168.74</ele>
        <time>2025-02-13T15:55:15.090Z</time>
      </trkpt>
      <trkpt lat="50.333025539293885" lon="5.43623685836792">
        <ele>169.07</ele>
        <time>2025-02-13T15:55:20.534Z</time>
      </trkpt>
      <trkpt lat="50.3328228648752" lon="5.435889847576618">
        <ele>169.35</ele>
        <time>2025-02-13T15:55:25.983Z</time>
      </trkpt>
      <trkpt lat="50.33262019045651" lon="5.435542920604348">
        <ele>169.6</ele>
        <time>2025-02-13T15:55:31.436Z</time>
      </trkpt>
      <trkpt lat="50.33241759985685" lon="5.435195993632078">
        <ele>169.97</ele>
        <time>2025-02-13T15:55:36.894Z</time>
      </trkpt>
      <trkpt lat="50.332214925438166" lon="5.434849066659808">
        <ele>170.37</ele>
        <time>2025-02-13T15:55:42.357Z</time>
      </trkpt>
      <trkpt lat="50.33201233483851" lon="5.434502139687538">
        <ele>170.74</ele>
        <time>2025-02-13T15:55:47.825Z</time>
      </trkpt>
      <trkpt lat="50.33180966041982" lon="5.434155128896236">
        <ele>171.09</ele>
        <time>2025-02-13T15:55:53.298Z</time>
      </trkpt>
      <trkpt lat="50.33160933293402" lon="5.433812141418457">
        <ele>171.46</ele>
        <time>2025-02-13T15:55:58.775Z</time>
      </trkpt>
      <trkpt lat="50.33141587860882" lon="5.433484325185418">
        <ele>171.86</ele>
        <time>2025-02-13T15:56:04.257Z</time>
      </trkpt>
      <trkpt lat="50.331222424283624" lon="5.433156592771411">
        <ele>172.19</ele>
        <time>2025-02-13T15:56:09.744Z</time>
      </trkpt>
      <trkpt lat="50.331029053777456" lon="5.432828860357404">
        <ele>172.51</ele>
        <time>2025-02-13T15:56:15.235Z</time>
      </trkpt>
      <trkpt lat="50.33083685673773" lon="5.4325032234191895">
        <ele>172.84</ele>
        <time>2025-02-13T15:56:20.731Z</time>
      </trkpt>
      <trkpt lat="50.3308367729187" lon="5.4325032234191895">
        <ele>173.2</ele>
        <time>2025-02-13T15:56:26.227Z</time>
      </trkpt>
      <trkpt lat="50.33066486008465" lon="5.432213041931391">
        <ele>173.55</ele>
        <time>2025-02-13T15:56:31.727Z</time>
      </trkpt>
      <trkpt lat="50.330492947250605" lon="5.431922944262624">
        <ele>173.87</ele>
        <time>2025-02-13T15:56:37.231Z</time>
      </trkpt>
      <trkpt lat="50.330321034416556" lon="5.431632762774825">
        <ele>174.25</ele>
        <time>2025-02-13T15:56:42.739Z</time>
      </trkpt>
      <trkpt lat="50.33015021122992" lon="5.431344509124756">
        <ele>174.64</ele>
        <time>2025-02-13T15:56:48.251Z</time>
      </trkpt>
      <trkpt lat="50.32996103167534" lon="5.431022057309747">
        <ele>175.04</ele>
        <time>2025-02-13T15:56:53.767Z</time>
      </trkpt>
      <trkpt lat="50.32977193593979" lon="5.430699689313769">
        <ele>175.34</ele>
        <time>2025-02-13T15:56:59.288Z</time>
      </trkpt>
      <trkpt lat="50.32958284020424" lon="5.430377321317792">
        <ele>175.65</ele>
        <time>2025-02-13T15:57:04.813Z</time>
      </trkpt>
      <trkpt lat="50.32939366064966" lon="5.4300549533218145">
        <ele>175.95</ele>
        <time>2025-02-13T15:57:10.343Z</time>
      </trkpt>
      <trkpt lat="50.32920607365668" lon="5.42973518371582">
        <ele>176.27</ele>
        <time>2025-02-13T15:57:15.877Z</time>
      </trkpt>
      <trkpt lat="50.329055869951844" lon="5.4294562339782715">
        <ele>176.59</ele>
        <time>2025-02-13T15:57:21.415Z</time>
      </trkpt>
      <trkpt lat="50.329012954607606" lon="5.429370403289795">
        <ele>176.89</ele>
        <time>2025-02-13T15:57:26.954Z</time>
      </trkpt>
      <trkpt lat="50.328807178884745" lon="5.429023392498493">
        <ele>177.18</ele>
        <time>2025-02-13T15:57:32.498Z</time>
      </trkpt>
      <trkpt lat="50.328601486980915" lon="5.428676465526223">
        <ele>177.46</ele>
        <time>2025-02-13T15:57:38.047Z</time>
      </trkpt>
      <trkpt lat="50.328395795077085" lon="5.428329538553953">
        <ele>177.77</ele>
        <time>2025-02-13T15:57:43.601Z</time>
      </trkpt>
      <trkpt lat="50.328190103173256" lon="5.427982611581683">
        <ele>178.08</ele>
        <time>2025-02-13T15:57:49.160Z</time>
      </trkpt>
      <trkpt lat="50.327984411269426" lon="5.427635684609413">
        <ele>178.39</ele>
        <time>2025-02-13T15:57:54.723Z</time>
      </trkpt>
      <trkpt lat="50.3277787193656" lon="5.427288757637143">
        <ele>178.64</ele>
        <time>2025-02-13T15:58:00.291Z</time>
      </trkpt>
      <trkpt lat="50.32757529057562" lon="5.426945686340332">
        <ele>178.84</ele>
        <time>2025-02-13T15:58:05.864Z</time>
      </trkpt>
      <trkpt lat="50.32757520675659" lon="5.426945686340332">
        <ele>179.03</ele>
        <time>2025-02-13T15:58:11.437Z</time>
      </trkpt>
      <trkpt lat="50.32736792229116" lon="5.426594065502286">
        <ele>179.23</ele>
        <time>2025-02-13T15:58:17.015Z</time>
      </trkpt>
      <trkpt lat="50.32716072164476" lon="5.426242528483272">
        <ele>179.45</ele>
        <time>2025-02-13T15:58:22.598Z</time>
      </trkpt>
      <trkpt lat="50.32695343717933" lon="5.425890991464257">
        <ele>179.67</ele>
        <time>2025-02-13T15:58:28.186Z</time>
      </trkpt>
      <trkpt lat="50.32674623653293" lon="5.425539370626211">
        <ele>179.83</ele>
        <time>2025-02-13T15:58:33.779Z</time>
      </trkpt>
      <trkpt lat="50.326539035886526" lon="5.425187833607197">
        <ele>180.02</ele>
        <time>2025-02-13T15:58:39.377Z</time>
      </trkpt>
      <trkpt lat="50.326331751421094" lon="5.4248362965881824">
        <ele>180.16</ele>
        <time>2025-02-13T15:58:44.979Z</time>
      </trkpt>
      <trkpt lat="50.32612455077469" lon="5.424484759569168">
        <ele>180.33</ele>
        <time>2025-02-13T15:58:50.586Z</time>
      </trkpt>
      <trkpt lat="50.32591726630926" lon="5.424133222550154">
        <ele>180.54</ele>
        <time>2025-02-13T15:58:56.198Z</time>
      </trkpt>
      <trkpt lat="50.32571006566286" lon="5.423781685531139">
        <ele>180.75</ele>
        <time>2025-02-13T15:59:01.815Z</time>
      </trkpt>
      <trkpt lat="50.32550286501646" lon="5.423430064693093">
        <ele>180.92</ele>
        <time>2025-02-13T15:59:07.437Z</time>
      </trkpt>
      <trkpt lat="50.32529558055103" lon="5.423078527674079">
        <ele>181.05</ele>
        <time>2025-02-13T15:59:13.064Z</time>
      </trkpt>
      <trkpt lat="50.32508837990463" lon="5.422726990655065">
        <ele>181.25</ele>
        <time>2025-02-13T15:59:18.696Z</time>
      </trkpt>
      <trkpt lat="50.324881095439196" lon="5.42237545363605">
        <ele>181.55</ele>
        <time>2025-02-13T15:59:24.333Z</time>
      </trkpt>
      <trkpt lat="50.32467842102051" lon="5.422031879425049">
        <ele>181.86</ele>
        <time>2025-02-13T15:59:29.975Z</time>
      </trkpt>
      <trkpt lat="50.324506759643555" lon="5.422117710113525">
        <ele>182.23</ele>
        <time>2025-02-13T15:59:35.619Z</time>
      </trkpt>
      <trkpt lat="50.324206268414855" lon="5.422224998474121">
        <ele>182.65</ele>
        <time>2025-02-13T15:59:41.268Z</time>
      </trkpt>
      <trkpt lat="50.323905777186155" lon="5.422332286834717">
        <ele>183.06</ele>
        <time>2025-02-13T15:59:46.922Z</time>
      </trkpt>
      <trkpt lat="50.32360536977649" lon="5.4224395751953125">
        <ele>183.6</ele>
        <time>2025-02-13T15:59:52.581Z</time>
      </trkpt>
      <trkpt lat="50.32330487854779" lon="5.42254694737494">
        <ele>184.18</ele>
        <time>2025-02-13T15:59:58.245Z</time>
      </trkpt>
      <trkpt lat="50.32300438731909" lon="5.422654235735536">
        <ele>184.81</ele>
        <time>2025-02-13T16:00:03.914Z</time>
      </trkpt>
      <trkpt lat="50.32270397990942" lon="5.422761524096131">
        <ele>185.48</ele>
        <time>2025-02-13T16:00:09.588Z</time>
      </trkpt>
      <trkpt lat="50.32240399159491" lon="5.422868728637695">
        <ele>186.1</ele>
        <time>2025-02-13T16:00:15.267Z</time>
      </trkpt>
      <trkpt lat="50.322232246398926" lon="5.422922372817993">
        <ele>186.77</ele>
        <time>2025-02-13T16:00:20.949Z</time>
      </trkpt>
      <trkpt lat="50.322060668841004" lon="5.422976016998291">
        <ele>187.52</ele>
        <time>2025-02-13T16:00:26.634Z</time>
      </trkpt>
      <trkpt lat="50.321756238117814" lon="5.423081377521157">
        <ele>188.29</ele>
        <time>2025-02-13T16:00:32.324Z</time>
      </trkpt>
      <trkpt lat="50.321451891213655" lon="5.4231867380440235">
        <ele>189.16</ele>
        <time>2025-02-13T16:00:38.019Z</time>
      </trkpt>
      <trkpt lat="50.321147460490465" lon="5.42329209856689">
        <ele>190.07</ele>
        <time>2025-02-13T16:00:43.719Z</time>
      </trkpt>
      <trkpt lat="50.32084311358631" lon="5.423397459089756">
        <ele>191.05</ele>
        <time>2025-02-13T16:00:49.424Z</time>
      </trkpt>
      <trkpt lat="50.32053876668215" lon="5.423502819612622">
        <ele>192.16</ele>
        <time>2025-02-13T16:00:55.134Z</time>
      </trkpt>
      <trkpt lat="50.32023433595896" lon="5.4236081801354885">
        <ele>193.38</ele>
        <time>2025-02-13T16:01:00.849Z</time>
      </trkpt>
      <trkpt lat="50.3199299890548" lon="5.423713540658355">
        <ele>194.7</ele>
        <time>2025-02-13T16:01:06.569Z</time>
      </trkpt>
      <trkpt lat="50.31962555833161" lon="5.423818901181221">
        <ele>196.11</ele>
        <time>2025-02-13T16:01:12.294Z</time>
      </trkpt>
      <trkpt lat="50.31932121142745" lon="5.423924261704087">
        <ele>197.59</ele>
        <time>2025-02-13T16:01:18.024Z</time>
      </trkpt>
      <trkpt lat="50.31901686452329" lon="5.4240296222269535">
        <ele>199.09</ele>
        <time>2025-02-13T16:01:23.759Z</time>
      </trkpt>
      <trkpt lat="50.31871318817139" lon="5.424134731292725">
        <ele>200.65</ele>
        <time>2025-02-13T16:01:29.499Z</time>
      </trkpt>
      <trkpt lat="50.31841076910496" lon="5.42424394749105">
        <ele>202.18</ele>
        <time>2025-02-13T16:01:35.243Z</time>
      </trkpt>
      <trkpt lat="50.31810835003853" lon="5.424353247508407">
        <ele>203.68</ele>
        <time>2025-02-13T16:01:40.992Z</time>
      </trkpt>
      <trkpt lat="50.3178059309721" lon="5.424462463706732">
        <ele>205.17</ele>
        <time>2025-02-13T16:01:46.746Z</time>
      </trkpt>
      <trkpt lat="50.31750351190567" lon="5.424571763724089">
        <ele>206.55</ele>
        <time>2025-02-13T16:01:52.505Z</time>
      </trkpt>
      <trkpt lat="50.31720109283924" lon="5.4246810637414455">
        <ele>207.87</ele>
        <time>2025-02-13T16:01:58.269Z</time>
      </trkpt>
      <trkpt lat="50.31689867377281" lon="5.424790279939771">
        <ele>209.12</ele>
        <time>2025-02-13T16:02:04.038Z</time>
      </trkpt>
      <trkpt lat="50.31659625470638" lon="5.424899579957128">
        <ele>210.3</ele>
        <time>2025-02-13T16:02:09.812Z</time>
      </trkpt>
      <trkpt lat="50.316293835639954" lon="5.425008796155453">
        <ele>211.42</ele>
        <time>2025-02-13T16:02:15.591Z</time>
      </trkpt>
      <trkpt lat="50.315991416573524" lon="5.42511809617281">
        <ele>212.55</ele>
        <time>2025-02-13T16:02:21.375Z</time>
      </trkpt>
      <trkpt lat="50.315688997507095" lon="5.4252273961901665">
        <ele>213.61</ele>
        <time>2025-02-13T16:02:27.164Z</time>
      </trkpt>
      <trkpt lat="50.31538733281195" lon="5.4253363609313965">
        <ele>214.57</ele>
        <time>2025-02-13T16:02:32.958Z</time>
      </trkpt>
      <trkpt lat="50.315101090818644" lon="5.425450773909688">
        <ele>215.44</ele>
        <time>2025-02-13T16:02:38.757Z</time>
      </trkpt>
      <trkpt lat="50.31481493264437" lon="5.425565270707011">
        <ele>216.23</ele>
        <time>2025-02-13T16:02:44.561Z</time>
      </trkpt>
      <trkpt lat="50.314529025927186" lon="5.425679683685303">
        <ele>216.9</ele>
        <time>2025-02-13T16:02:50.369Z</time>
      </trkpt>
      <trkpt lat="50.31425544060767" lon="5.425773561000824">
        <ele>217.44</ele>
        <time>2025-02-13T16:02:56.182Z</time>
      </trkpt>
      <trkpt lat="50.31398193910718" lon="5.425867522135377">
        <ele>217.81</ele>
        <time>2025-02-13T16:03:01.999Z</time>
      </trkpt>
      <trkpt lat="50.31370868906379" lon="5.425961399450898">
        <ele>218.09</ele>
        <time>2025-02-13T16:03:07.821Z</time>
      </trkpt>
      <trkpt lat="50.31344776041806" lon="5.42605091817677">
        <ele>218.37</ele>
        <time>2025-02-13T16:03:13.647Z</time>
      </trkpt>
      <trkpt lat="50.31318691559136" lon="5.426140520721674">
        <ele>218.56</ele>
        <time>2025-02-13T16:03:19.477Z</time>
      </trkpt>
      <trkpt lat="50.31292607076466" lon="5.426230123266578">
        <ele>218.6</ele>
        <time>2025-02-13T16:03:25.312Z</time>
      </trkpt>
      <trkpt lat="50.31266522593796" lon="5.4263197258114815">
        <ele>218.43</ele>
        <time>2025-02-13T16:03:31.151Z</time>
      </trkpt>
      <trkpt lat="50.31240463256836" lon="5.4264092445373535">
        <ele>218.08</ele>
        <time>2025-02-13T16:03:36.994Z</time>
      </trkpt>
      <trkpt lat="50.312102884054184" lon="5.426521310582757">
        <ele>217.56</ele>
        <time>2025-02-13T16:03:42.842Z</time>
      </trkpt>
      <trkpt lat="50.31180121935904" lon="5.4266333766281605">
        <ele>217.06</ele>
        <time>2025-02-13T16:03:48.695Z</time>
      </trkpt>
      <trkpt lat="50.3114995546639" lon="5.426745442673564">
        <ele>216.55</ele>
        <time>2025-02-13T16:03:54.553Z</time>
      </trkpt>
      <trkpt lat="50.31119788996875" lon="5.426857592537999">
        <ele>215.9</ele>
        <time>2025-02-13T16:04:00.416Z</time>
      </trkpt>
      <trkpt lat="50.31089622527361" lon="5.426969658583403">
        <ele>215.11</ele>
        <time>2025-02-13T16:04:06.284Z</time>
      </trkpt>
      <trkpt lat="50.310594560578465" lon="5.427081724628806">
        <ele>214.23</ele>
        <time>2025-02-13T16:04:12.157Z</time>
      </trkpt>
      <trkpt lat="50.31029289588332" lon="5.427193874493241">
        <ele>213.25</ele>
        <time>2025-02-13T16:04:18.035Z</time>
      </trkpt>
      <trkpt lat="50.30999123118818" lon="5.427305940538645">
        <ele>212.19</ele>
        <time>2025-02-13T16:04:23.918Z</time>
      </trkpt>
      <trkpt lat="50.309689566493034" lon="5.427418006584048">
        <ele>211.09</ele>
        <time>2025-02-13T16:04:29.806Z</time>
      </trkpt>
      <trkpt lat="50.30938790179789" lon="5.427530072629452">
        <ele>209.93</ele>
        <time>2025-02-13T16:04:35.699Z</time>
      </trkpt>
      <trkpt lat="50.30908623710275" lon="5.427642222493887">
        <ele>208.72</ele>
        <time>2025-02-13T16:04:41.597Z</time>
      </trkpt>
      <trkpt lat="50.3087845724076" lon="5.42775428853929">
        <ele>207.45</ele>
        <time>2025-02-13T16:04:47.500Z</time>
      </trkpt>
      <trkpt lat="50.30848290771246" lon="5.427866354584694">
        <ele>206.15</ele>
        <time>2025-02-13T16:04:53.408Z</time>
      </trkpt>
      <trkpt lat="50.308181243017316" lon="5.427978420630097">
        <ele>204.8</ele>
        <time>2025-02-13T16:04:59.321Z</time>
      </trkpt>
      <trkpt lat="50.30787957832217" lon="5.428090570494533">
        <ele>203.46</ele>
        <time>2025-02-13T16:05:05.239Z</time>
      </trkpt>
      <trkpt lat="50.30757791362703" lon="5.428202636539936">
        <ele>202.19</ele>
        <time>2025-02-13T16:05:11.162Z</time>
      </trkpt>
      <trkpt lat="50.307276248931885" lon="5.4283147025853395">
        <ele>200.97</ele>
        <time>2025-02-13T16:05:17.090Z</time>
      </trkpt>
      <trkpt lat="50.30697584152222" lon="5.428426265716553">
        <ele>199.69</ele>
        <time>2025-02-13T16:05:23.023Z</time>
      </trkpt>
      <trkpt lat="50.306701082736254" lon="5.428529279306531">
        <ele>198.39</ele>
        <time>2025-02-13T16:05:28.960Z</time>
      </trkpt>
      <trkpt lat="50.30642640776932" lon="5.428632292896509">
        <ele>197.09</ele>
        <time>2025-02-13T16:05:34.902Z</time>
      </trkpt>
      <trkpt lat="50.30615164898336" lon="5.428735306486487">
        <ele>195.82</ele>
        <time>2025-02-13T16:05:40.848Z</time>
      </trkpt>
      <trkpt lat="50.30587697401643" lon="5.428838320076466">
        <ele>194.59</ele>
        <time>2025-02-13T16:05:46.799Z</time>
      </trkpt>
      <trkpt lat="50.30560263432562" lon="5.428941249847412">
        <ele>193.45</ele>
        <time>2025-02-13T16:05:52.754Z</time>
      </trkpt>
      <trkpt lat="50.30540943145752" lon="5.4290056228637695">
        <ele>192.31</ele>
        <time>2025-02-13T16:05:58.712Z</time>
      </trkpt>
      <trkpt lat="50.30516258440912" lon="5.429112911224365">
        <ele>191.14</ele>
        <time>2025-02-13T16:06:04.674Z</time>
      </trkpt>
      <trkpt lat="50.30491598881781" lon="5.429220199584961">
        <ele>190.05</ele>
        <time>2025-02-13T16:06:10.641Z</time>
      </trkpt>
      <trkpt lat="50.304754888638854" lon="5.429348945617676">
        <ele>189.1</ele>
        <time>2025-02-13T16:06:16.610Z</time>
      </trkpt>
      <trkpt lat="50.30459403991699" lon="5.429477691650391">
        <ele>188.22</ele>
        <time>2025-02-13T16:06:22.582Z</time>
      </trkpt>
      <trkpt lat="50.3043794631958" lon="5.42973518371582">
        <ele>187.34</ele>
        <time>2025-02-13T16:06:28.559Z</time>
      </trkpt>
      <trkpt lat="50.30414351262152" lon="5.430035591125488">
        <ele>186.5</ele>
        <time>2025-02-13T16:06:34.541Z</time>
      </trkpt>
      <trkpt lat="50.30397185124457" lon="5.43025016784668">
        <ele>185.71</ele>
        <time>2025-02-13T16:06:40.526Z</time>
      </trkpt>
      <trkpt lat="50.30376775190234" lon="5.430497182533145">
        <ele>185.04</ele>
        <time>2025-02-13T16:06:46.515Z</time>
      </trkpt>
      <trkpt lat="50.303563652560115" lon="5.43074419721961">
        <ele>184.37</ele>
        <time>2025-02-13T16:06:52.508Z</time>
      </trkpt>
      <trkpt lat="50.30335955321789" lon="5.4309912119060755">
        <ele>183.66</ele>
        <time>2025-02-13T16:06:58.506Z</time>
      </trkpt>
      <trkpt lat="50.30315645970404" lon="5.43123722076416">
        <ele>182.95</ele>
        <time>2025-02-13T16:07:04.508Z</time>
      </trkpt>
      <trkpt lat="50.30292729847133" lon="5.431523630395532">
        <ele>182.32</ele>
        <time>2025-02-13T16:07:10.514Z</time>
      </trkpt>
      <trkpt lat="50.30269813723862" lon="5.431810040026903">
        <ele>181.76</ele>
        <time>2025-02-13T16:07:16.525Z</time>
      </trkpt>
      <trkpt lat="50.30246897600591" lon="5.432096533477306">
        <ele>181.28</ele>
        <time>2025-02-13T16:07:22.541Z</time>
      </trkpt>
      <trkpt lat="50.3022398147732" lon="5.432382943108678">
        <ele>180.79</ele>
        <time>2025-02-13T16:07:28.561Z</time>
      </trkpt>
      <trkpt lat="50.302010737359524" lon="5.432669352740049">
        <ele>180.32</ele>
        <time>2025-02-13T16:07:34.586Z</time>
      </trkpt>
      <trkpt lat="50.30178316868842" lon="5.432953834533691">
        <ele>179.87</ele>
        <time>2025-02-13T16:07:40.616Z</time>
      </trkpt>
      <trkpt lat="50.3016544226557" lon="5.4331254959106445">
        <ele>179.43</ele>
        <time>2025-02-13T16:07:46.649Z</time>
      </trkpt>
      <trkpt lat="50.301424507051706" lon="5.433409055694938">
        <ele>178.96</ele>
        <time>2025-02-13T16:07:52.686Z</time>
      </trkpt>
      <trkpt lat="50.30119467526674" lon="5.433692615479231">
        <ele>178.52</ele>
        <time>2025-02-13T16:07:58.728Z</time>
      </trkpt>
      <trkpt lat="50.30096484348178" lon="5.433976175263524">
        <ele>178.14</ele>
        <time>2025-02-13T16:08:04.775Z</time>
      </trkpt>
      <trkpt lat="50.300734927877784" lon="5.434259735047817">
        <ele>177.77</ele>
        <time>2025-02-13T16:08:10.826Z</time>
      </trkpt>
      <trkpt lat="50.30050509609282" lon="5.43454329483211">
        <ele>177.4</ele>
        <time>2025-02-13T16:08:16.882Z</time>
      </trkpt>
      <trkpt lat="50.30027526430786" lon="5.434826854616404">
        <ele>176.94</ele>
        <time>2025-02-13T16:08:22.943Z</time>
      </trkpt>
      <trkpt lat="50.30004543252289" lon="5.4351104982197285">
        <ele>176.48</ele>
        <time>2025-02-13T16:08:29.008Z</time>
      </trkpt>
      <trkpt lat="50.2998155169189" lon="5.435394058004022">
        <ele>176.12</ele>
        <time>2025-02-13T16:08:35.078Z</time>
      </trkpt>
      <trkpt lat="50.299585685133934" lon="5.435677617788315">
        <ele>175.9</ele>
        <time>2025-02-13T16:08:41.153Z</time>
      </trkpt>
      <trkpt lat="50.299358451738954" lon="5.435957908630371">
        <ele>175.74</ele>
        <time>2025-02-13T16:08:47.232Z</time>
      </trkpt>
      <trkpt lat="50.29914362356067" lon="5.43621925637126">
        <ele>175.54</ele>
        <time>2025-02-13T16:08:53.316Z</time>
      </trkpt>
      <trkpt lat="50.29892879538238" lon="5.436480604112148">
        <ele>175.4</ele>
        <time>2025-02-13T16:08:59.404Z</time>
      </trkpt>
      <trkpt lat="50.298713967204094" lon="5.436741951853037">
        <ele>175.31</ele>
        <time>2025-02-13T16:09:05.496Z</time>
      </trkpt>
      <trkpt lat="50.29849913902581" lon="5.4370032995939255">
        <ele>175.24</ele>
        <time>2025-02-13T16:09:11.593Z</time>
      </trkpt>
      <trkpt lat="50.29828431084752" lon="5.437264647334814">
        <ele>175.21</ele>
        <time>2025-02-13T16:09:17.694Z</time>
      </trkpt>
      <trkpt lat="50.298070991411805" lon="5.437524318695068">
        <ele>175.17</ele>
        <time>2025-02-13T16:09:23.800Z</time>
      </trkpt>
      <trkpt lat="50.29807090759277" lon="5.437524318695068">
        <ele>175.13</ele>
        <time>2025-02-13T16:09:29.906Z</time>
      </trkpt>
      <trkpt lat="50.29786320403218" lon="5.437782062217593">
        <ele>175.12</ele>
        <time>2025-02-13T16:09:36.016Z</time>
      </trkpt>
      <trkpt lat="50.297655584290624" lon="5.43803988955915">
        <ele>175.14</ele>
        <time>2025-02-13T16:09:42.130Z</time>
      </trkpt>
      <trkpt lat="50.297447964549065" lon="5.438297633081675">
        <ele>175.18</ele>
        <time>2025-02-13T16:09:48.248Z</time>
      </trkpt>
      <trkpt lat="50.297240260988474" lon="5.438555460423231">
        <ele>175.19</ele>
        <time>2025-02-13T16:09:54.371Z</time>
      </trkpt>
      <trkpt lat="50.297032641246915" lon="5.438813203945756">
        <ele>175.2</ele>
        <time>2025-02-13T16:10:00.498Z</time>
      </trkpt>
      <trkpt lat="50.296826446428895" lon="5.4390692710876465">
        <ele>175.13</ele>
        <time>2025-02-13T16:10:06.629Z</time>
      </trkpt>
      <trkpt lat="50.29660625383258" lon="5.439332379028201">
        <ele>175.16</ele>
        <time>2025-02-13T16:10:12.764Z</time>
      </trkpt>
      <trkpt lat="50.29638606123626" lon="5.439595486968756">
        <ele>175.24</ele>
        <time>2025-02-13T16:10:18.904Z</time>
      </trkpt>
      <trkpt lat="50.296165868639946" lon="5.439858678728342">
        <ele>175.31</ele>
        <time>2025-02-13T16:10:25.048Z</time>
      </trkpt>
      <trkpt lat="50.29594668187201" lon="5.440120697021484">
        <ele>175.35</ele>
        <time>2025-02-13T16:10:31.197Z</time>
      </trkpt>
      <trkpt lat="50.295731853693724" lon="5.440335441380739">
        <ele>175.33</ele>
        <time>2025-02-13T16:10:37.350Z</time>
      </trkpt>
      <trkpt lat="50.29551702551544" lon="5.440550185739994">
        <ele>175.33</ele>
        <time>2025-02-13T16:10:43.507Z</time>
      </trkpt>
      <trkpt lat="50.295302867889404" lon="5.440764427185059">
        <ele>175.35</ele>
        <time>2025-02-13T16:10:49.668Z</time>
      </trkpt>
      <trkpt lat="50.29508829116821" lon="5.440936088562012">
        <ele>175.38</ele>
        <time>2025-02-13T16:10:55.833Z</time>
      </trkpt>
      <trkpt lat="50.29488435946405" lon="5.441043376922607">
        <ele>175.35</ele>
        <time>2025-02-13T16:11:02.001Z</time>
      </trkpt>
      <trkpt lat="50.29468059539795" lon="5.441150665283203">
        <ele>175.36</ele>
        <time>2025-02-13T16:11:08.173Z</time>
      </trkpt>
      <trkpt lat="50.29438010416925" lon="5.44123649597168">
        <ele>175.38</ele>
        <time>2025-02-13T16:11:14.350Z</time>
      </trkpt>
      <trkpt lat="50.29407961294055" lon="5.441322326660156">
        <ele>175.35</ele>
        <time>2025-02-13T16:11:20.532Z</time>
      </trkpt>
      <trkpt lat="50.29377920553088" lon="5.441408157348633">
        <ele>175.33</ele>
        <time>2025-02-13T16:11:26.718Z</time>
      </trkpt>
      <trkpt lat="50.29347896575928" lon="5.441493988037109">
        <ele>175.3</ele>
        <time>2025-02-13T16:11:32.909Z</time>
      </trkpt>
      <trkpt lat="50.29317847453058" lon="5.441554756835103">
        <ele>175.27</ele>
        <time>2025-02-13T16:11:39.105Z</time>
      </trkpt>
      <trkpt lat="50.29287806712091" lon="5.441615525633097">
        <ele>175.23</ele>
        <time>2025-02-13T16:11:45.306Z</time>
      </trkpt>
      <trkpt lat="50.29257757589221" lon="5.441676378250122">
        <ele>175.25</ele>
        <time>2025-02-13T16:11:51.512Z</time>
      </trkpt>
      <trkpt lat="50.29227716848254" lon="5.441737147048116">
        <ele>175.19</ele>
        <time>2025-02-13T16:11:57.723Z</time>
      </trkpt>
      <trkpt lat="50.291976761072874" lon="5.441797999665141">
        <ele>175.12</ele>
        <time>2025-02-13T16:12:03.939Z</time>
      </trkpt>
      <trkpt lat="50.291676269844174" lon="5.441858768463135">
        <ele>175.07</ele>
        <time>2025-02-13T16:12:10.159Z</time>
      </trkpt>
      <trkpt lat="50.291375862434506" lon="5.44191962108016">
        <ele>174.99</ele>
        <time>2025-02-13T16:12:16.384Z</time>
      </trkpt>
      <trkpt lat="50.29107545502484" lon="5.441980389878154">
        <ele>174.87</ele>
        <time>2025-02-13T16:12:22.614Z</time>
      </trkpt>
      <trkpt lat="50.29077496379614" lon="5.442041242495179">
        <ele>174.78</ele>
        <time>2025-02-13T16:12:28.849Z</time>
      </trkpt>
      <trkpt lat="50.29047455638647" lon="5.442102011293173">
        <ele>174.68</ele>
        <time>2025-02-13T16:12:35.089Z</time>
      </trkpt>
      <trkpt lat="50.2901741489768" lon="5.4421627800911665">
        <ele>174.68</ele>
        <time>2025-02-13T16:12:41.334Z</time>
      </trkpt>
      <trkpt lat="50.28987416066229" lon="5.44222354888916">
        <ele>174.61</ele>
        <time>2025-02-13T16:12:47.584Z</time>
      </trkpt>
      <trkpt lat="50.28967022895813" lon="5.442255735397339">
        <ele>174.52</ele>
        <time>2025-02-13T16:12:53.837Z</time>
      </trkpt>
      <trkpt lat="50.28946646489203" lon="5.442287921905518">
        <ele>174.46</ele>
        <time>2025-02-13T16:13:00.093Z</time>
      </trkpt>
      <trkpt lat="50.289466381073" lon="5.442287921905518">
        <ele>174.35</ele>
        <time>2025-02-13T16:13:06.349Z</time>
      </trkpt>
      <trkpt lat="50.28920880518854" lon="5.442298650741577">
        <ele>174.24</ele>
        <time>2025-02-13T16:13:12.609Z</time>
      </trkpt>
      <trkpt lat="50.28895139694214" lon="5.442309379577637">
        <ele>174.08</ele>
        <time>2025-02-13T16:13:18.873Z</time>
      </trkpt>
      <trkpt lat="50.28865325264633" lon="5.442230673506856">
        <ele>173.84</ele>
        <time>2025-02-13T16:13:25.142Z</time>
      </trkpt>
      <trkpt lat="50.28835519216955" lon="5.442151967436075">
        <ele>173.61</ele>
        <time>2025-02-13T16:13:31.416Z</time>
      </trkpt>
      <trkpt lat="50.28805713169277" lon="5.4420732613652945">
        <ele>173.44</ele>
        <time>2025-02-13T16:13:37.695Z</time>
      </trkpt>
      <trkpt lat="50.28775907121599" lon="5.441994555294514">
        <ele>173.33</ele>
        <time>2025-02-13T16:13:43.979Z</time>
      </trkpt>
      <trkpt lat="50.28746101073921" lon="5.441915849223733">
        <ele>173.28</ele>
        <time>2025-02-13T16:13:50.268Z</time>
      </trkpt>
      <trkpt lat="50.28716295026243" lon="5.441837143152952">
        <ele>173.25</ele>
        <time>2025-02-13T16:13:56.561Z</time>
      </trkpt>
      <trkpt lat="50.28686488978565" lon="5.441758520901203">
        <ele>173.17</ele>
        <time>2025-02-13T16:14:02.859Z</time>
      </trkpt>
      <trkpt lat="50.28656682930887" lon="5.441679814830422">
        <ele>173.11</ele>
        <time>2025-02-13T16:14:09.162Z</time>
      </trkpt>
      <trkpt lat="50.286269187927246" lon="5.441601276397705">
        <ele>173.07</ele>
        <time>2025-02-13T16:14:15.470Z</time>
      </trkpt>
      <trkpt lat="50.28611898422241" lon="5.441558361053467">
        <ele>173.04</ele>
        <time>2025-02-13T16:14:21.780Z</time>
      </trkpt>
      <trkpt lat="50.28590449132025" lon="5.441408157348633">
        <ele>173.03</ele>
        <time>2025-02-13T16:14:28.094Z</time>
      </trkpt>
      <trkpt lat="50.28570801950991" lon="5.441250242292881">
        <ele>173.02</ele>
        <time>2025-02-13T16:14:34.412Z</time>
      </trkpt>
      <trkpt lat="50.28551196679473" lon="5.441092662513256">
        <ele>173.02</ele>
        <time>2025-02-13T16:14:40.733Z</time>
      </trkpt>
      <trkpt lat="50.285277776420116" lon="5.440904404968023">
        <ele>173.03</ele>
        <time>2025-02-13T16:14:47.058Z</time>
      </trkpt>
      <trkpt lat="50.285043669864535" lon="5.440716231241822">
        <ele>173.06</ele>
        <time>2025-02-13T16:14:53.388Z</time>
      </trkpt>
      <trkpt lat="50.284810066223145" lon="5.440528392791748">
        <ele>173.1</ele>
        <time>2025-02-13T16:14:59.722Z</time>
      </trkpt>
      <trkpt lat="50.28456305153668" lon="5.440306439995766">
        <ele>173.13</ele>
        <time>2025-02-13T16:15:06.060Z</time>
      </trkpt>
      <trkpt lat="50.284316120669246" lon="5.440084571018815">
        <ele>173.14</ele>
        <time>2025-02-13T16:15:12.403Z</time>
      </trkpt>
      <trkpt lat="50.28406918980181" lon="5.439862618222833">
        <ele>173.16</ele>
        <time>2025-02-13T16:15:18.751Z</time>
      </trkpt>
      <trkpt lat="50.28382225893438" lon="5.439640749245882">
        <ele>173.21</ele>
        <time>2025-02-13T16:15:25.103Z</time>
      </trkpt>
      <trkpt lat="50.283575328066945" lon="5.439418880268931">
        <ele>173.27</ele>
        <time>2025-02-13T16:15:31.460Z</time>
      </trkpt>
      <trkpt lat="50.283329570665956" lon="5.439198017120361">
        <ele>173.62</ele>
        <time>2025-02-13T16:15:37.821Z</time>
      </trkpt>
      <trkpt lat="50.28302916325629" lon="5.4390692710876465">
        <ele>173.7</ele>
        <time>2025-02-13T16:15:44.187Z</time>
      </trkpt>
      <trkpt lat="50.282857501879334" lon="5.439047813415527">
        <ele>173.78</ele>
        <time>2025-02-13T16:15:50.556Z</time>
      </trkpt>
      <trkpt lat="50.28268575668335" lon="5.4390692710876465">
        <ele>173.86</ele>
        <time>2025-02-13T16:15:56.928Z</time>
      </trkpt>
      <trkpt lat="50.282557010650635" lon="5.4392409324646">
        <ele>174.03</ele>
        <time>2025-02-13T16:16:03.302Z</time>
      </trkpt>
      <trkpt lat="50.28244980610907" lon="5.439541339874268">
        <ele>174.2</ele>
        <time>2025-02-13T16:16:09.680Z</time>
      </trkpt>
      <trkpt lat="50.28238534927368" lon="5.439755916595459">
        <ele>174.4</ele>
        <time>2025-02-13T16:16:16.060Z</time>
      </trkpt>
      <trkpt lat="50.28238534927368" lon="5.4399919509887695">
        <ele>174.57</ele>
        <time>2025-02-13T16:16:22.443Z</time>
      </trkpt>
      <trkpt lat="50.282320976257324" lon="5.440013408660889">
        <ele>174.72</ele>
        <time>2025-02-13T16:16:28.827Z</time>
      </trkpt>
      <trkpt lat="50.282278060913086" lon="5.4401421546936035">
        <ele>174.84</ele>
        <time>2025-02-13T16:16:35.212Z</time>
      </trkpt>
      <trkpt lat="50.28214931488037" lon="5.440185070037842">
        <ele>174.97</ele>
        <time>2025-02-13T16:16:41.600Z</time>
      </trkpt>
      <trkpt lat="50.28199911117554" lon="5.440185070037842">
        <ele>175.05</ele>
        <time>2025-02-13T16:16:47.990Z</time>
      </trkpt>
      <trkpt lat="50.28172854334116" lon="5.440000416710973">
        <ele>174.27</ele>
        <time>2025-02-13T16:16:54.385Z</time>
      </trkpt>
      <trkpt lat="50.281458059325814" lon="5.439815763384104">
        <ele>174.26</ele>
        <time>2025-02-13T16:17:00.784Z</time>
      </trkpt>
      <trkpt lat="50.28118757531047" lon="5.439631110057235">
        <ele>174.25</ele>
        <time>2025-02-13T16:17:07.188Z</time>
      </trkpt>
      <trkpt lat="50.28091709129512" lon="5.439446456730366">
        <ele>174.29</ele>
        <time>2025-02-13T16:17:13.597Z</time>
      </trkpt>
      <trkpt lat="50.28064736165106" lon="5.439262390136719">
        <ele>174.68</ele>
        <time>2025-02-13T16:17:20.011Z</time>
      </trkpt>
      <trkpt lat="50.28038961812854" lon="5.439090561121702">
        <ele>174.58</ele>
        <time>2025-02-13T16:17:26.429Z</time>
      </trkpt>
      <trkpt lat="50.28013229370117" lon="5.4389190673828125">
        <ele>174.49</ele>
        <time>2025-02-13T16:17:32.852Z</time>
      </trkpt>
      <trkpt lat="50.280068004503846" lon="5.438897609710693">
        <ele>174.41</ele>
        <time>2025-02-13T16:17:39.276Z</time>
      </trkpt>
      <trkpt lat="50.27991771697998" lon="5.438940525054932">
        <ele>174.3</ele>
        <time>2025-02-13T16:17:45.702Z</time>
      </trkpt>
      <trkpt lat="50.279831886291504" lon="5.43898344039917">
        <ele>174.19</ele>
        <time>2025-02-13T16:17:52.129Z</time>
      </trkpt>
      <trkpt lat="50.279692159965634" lon="5.439230538904667">
        <ele>174.1</ele>
        <time>2025-02-13T16:17:58.560Z</time>
      </trkpt>
      <trkpt lat="50.279552936553955" lon="5.43947696685791">
        <ele>174.02</ele>
        <time>2025-02-13T16:18:04.994Z</time>
      </trkpt>
      <trkpt lat="50.27935981750488" lon="5.439713001251221">
        <ele>173.97</ele>
        <time>2025-02-13T16:18:11.432Z</time>
      </trkpt>
      <trkpt lat="50.27914524078369" lon="5.439884662628174">
        <ele>173.98</ele>
        <time>2025-02-13T16:18:17.874Z</time>
      </trkpt>
      <trkpt lat="50.279005682095885" lon="5.440002679824829">
        <ele>174.01</ele>
        <time>2025-02-13T16:18:24.319Z</time>
      </trkpt>
      <trkpt lat="50.278866374865174" lon="5.440120697021484">
        <ele>174.09</ele>
        <time>2025-02-13T16:18:30.766Z</time>
      </trkpt>
      <trkpt lat="50.27871608734131" lon="5.44022798538208">
        <ele>174.19</ele>
        <time>2025-02-13T16:18:37.216Z</time>
      </trkpt>
      <trkpt lat="50.278565967455506" lon="5.440335273742676">
        <ele>174.25</ele>
        <time>2025-02-13T16:18:43.668Z</time>
      </trkpt>
      <trkpt lat="50.27840495109558" lon="5.4403244610875845">
        <ele>174.26</ele>
        <time>2025-02-13T16:18:50.123Z</time>
      </trkpt>
      <trkpt lat="50.27824401855469" lon="5.440313816070557">
        <ele>174.24</ele>
        <time>2025-02-13T16:18:56.581Z</time>
      </trkpt>
      <trkpt lat="50.277950651943684" lon="5.440192110836506">
        <ele>174.37</ele>
        <time>2025-02-13T16:19:03.043Z</time>
      </trkpt>
      <trkpt lat="50.27765728533268" lon="5.440070489421487">
        <ele>174.35</ele>
        <time>2025-02-13T16:19:09.510Z</time>
      </trkpt>
      <trkpt lat="50.27736400254071" lon="5.439948868006468">
        <ele>174.33</ele>
        <time>2025-02-13T16:19:15.982Z</time>
      </trkpt>
      <trkpt lat="50.277070635929704" lon="5.439827246591449">
        <ele>174.3</ele>
        <time>2025-02-13T16:19:22.459Z</time>
      </trkpt>
      <trkpt lat="50.27677735313773" lon="5.43970562517643">
        <ele>174.26</ele>
        <time>2025-02-13T16:19:28.941Z</time>
      </trkpt>
      <trkpt lat="50.27648448944092" lon="5.439584255218506">
        <ele>174.12</ele>
        <time>2025-02-13T16:19:35.428Z</time>
      </trkpt>
      <trkpt lat="50.276281982660294" lon="5.4394964966923">
        <ele>174.14</ele>
        <time>2025-02-13T16:19:41.918Z</time>
      </trkpt>
      <trkpt lat="50.276079727336764" lon="5.439408905804157">
        <ele>174.16</ele>
        <time>2025-02-13T16:19:48.411Z</time>
      </trkpt>
      <trkpt lat="50.276079727336764" lon="5.4394088219851255">
        <ele>174.14</ele>
        <time>2025-02-13T16:19:54.904Z</time>
      </trkpt>
      <trkpt lat="50.275840843096375" lon="5.439305305480957">
        <ele>174.04</ele>
        <time>2025-02-13T16:20:01.401Z</time>
      </trkpt>
      <trkpt lat="50.275840759277344" lon="5.439305305480957">
        <ele>174.02</ele>
        <time>2025-02-13T16:20:07.898Z</time>
      </trkpt>
      <trkpt lat="50.27558318339288" lon="5.43919793330133">
        <ele>173.96</ele>
        <time>2025-02-13T16:20:14.400Z</time>
      </trkpt>
      <trkpt lat="50.275325775146484" lon="5.439090728759766">
        <ele>173.91</ele>
        <time>2025-02-13T16:20:20.906Z</time>
      </trkpt>
      <trkpt lat="50.275025367736816" lon="5.439026355743408">
        <ele>173.92</ele>
        <time>2025-02-13T16:20:27.417Z</time>
      </trkpt>
      <trkpt lat="50.27485362254083" lon="5.439015543088317">
        <ele>173.93</ele>
        <time>2025-02-13T16:20:33.931Z</time>
      </trkpt>
      <trkpt lat="50.27468204498291" lon="5.439004898071289">
        <ele>173.94</ele>
        <time>2025-02-13T16:20:40.447Z</time>
      </trkpt>
      <trkpt lat="50.2744460105896" lon="5.439090728759766">
        <ele>174.03</ele>
        <time>2025-02-13T16:20:46.967Z</time>
      </trkpt>
      <trkpt lat="50.27416999451816" lon="5.439234813675284">
        <ele>174.18</ele>
        <time>2025-02-13T16:20:53.492Z</time>
      </trkpt>
      <trkpt lat="50.273894062265754" lon="5.439378982409835">
        <ele>174.35</ele>
        <time>2025-02-13T16:21:00.022Z</time>
      </trkpt>
      <trkpt lat="50.273618046194315" lon="5.439523067325354">
        <ele>174.39</ele>
        <time>2025-02-13T16:21:06.556Z</time>
      </trkpt>
      <trkpt lat="50.27334211394191" lon="5.439667236059904">
        <ele>174.35</ele>
        <time>2025-02-13T16:21:13.095Z</time>
      </trkpt>
      <trkpt lat="50.27306609787047" lon="5.439811320975423">
        <ele>174.37</ele>
        <time>2025-02-13T16:21:19.638Z</time>
      </trkpt>
      <trkpt lat="50.27279016561806" lon="5.439955405890942">
        <ele>174.42</ele>
        <time>2025-02-13T16:21:26.186Z</time>
      </trkpt>
      <trkpt lat="50.27251490391791" lon="5.440099239349365">
        <ele>174.53</ele>
        <time>2025-02-13T16:21:32.739Z</time>
      </trkpt>
      <trkpt lat="50.2722701523453" lon="5.440219435840845">
        <ele>174.53</ele>
        <time>2025-02-13T16:21:39.296Z</time>
      </trkpt>
      <trkpt lat="50.27202540077269" lon="5.440339632332325">
        <ele>174.63</ele>
        <time>2025-02-13T16:21:45.857Z</time>
      </trkpt>
      <trkpt lat="50.27178073301911" lon="5.440459828823805">
        <ele>174.71</ele>
        <time>2025-02-13T16:21:52.422Z</time>
      </trkpt>
      <trkpt lat="50.271535981446505" lon="5.440580025315285">
        <ele>174.72</ele>
        <time>2025-02-13T16:21:58.991Z</time>
      </trkpt>
      <trkpt lat="50.271291732788086" lon="5.440700054168701">
        <ele>174.94</ele>
        <time>2025-02-13T16:22:05.564Z</time>
      </trkpt>
      <trkpt lat="50.271098613739014" lon="5.440871715545654">
        <ele>175.0</ele>
        <time>2025-02-13T16:22:12.141Z</time>
      </trkpt>
      <trkpt lat="50.27100180275738" lon="5.441086627542973">
        <ele>175.08</ele>
        <time>2025-02-13T16:22:18.721Z</time>
      </trkpt>
      <trkpt lat="50.27090549468994" lon="5.441300868988037">
        <ele>175.2</ele>
        <time>2025-02-13T16:22:25.303Z</time>
      </trkpt>
      <trkpt lat="50.270819664001465" lon="5.4416656494140625">
        <ele>175.32</ele>
        <time>2025-02-13T16:22:31.889Z</time>
      </trkpt>
      <trkpt lat="50.27075529098511" lon="5.441944599151611">
        <ele>175.44</ele>
        <time>2025-02-13T16:22:38.478Z</time>
      </trkpt>
      <trkpt lat="50.27064775116742" lon="5.4422240518033504">
        <ele>175.55</ele>
        <time>2025-02-13T16:22:45.071Z</time>
      </trkpt>
      <trkpt lat="50.270540714263916" lon="5.442502498626709">
        <ele>175.71</ele>
        <time>2025-02-13T16:22:51.667Z</time>
      </trkpt>
      <trkpt lat="50.2704188413918" lon="5.442781951278448">
        <ele>175.83</ele>
        <time>2025-02-13T16:22:58.266Z</time>
      </trkpt>
      <trkpt lat="50.27029705233872" lon="5.443061487749219">
        <ele>175.95</ele>
        <time>2025-02-13T16:23:04.869Z</time>
      </trkpt>
      <trkpt lat="50.27017593383789" lon="5.4433393478393555">
        <ele>176.13</ele>
        <time>2025-02-13T16:23:11.475Z</time>
      </trkpt>
      <trkpt lat="50.27001223526895" lon="5.443619806319475">
        <ele>176.16</ele>
        <time>2025-02-13T16:23:18.085Z</time>
      </trkpt>
      <trkpt lat="50.26984862051904" lon="5.443900348618627">
        <ele>176.33</ele>
        <time>2025-02-13T16:23:24.699Z</time>
      </trkpt>
      <trkpt lat="50.269685005769134" lon="5.444180890917778">
        <ele>176.51</ele>
        <time>2025-02-13T16:23:31.317Z</time>
      </trkpt>
      <trkpt lat="50.269522396847606" lon="5.444459673017263">
        <ele>176.73</ele>
        <time>2025-02-13T16:23:37.939Z</time>
      </trkpt>
      <trkpt lat="50.26939834468067" lon="5.444672238081694">
        <ele>176.94</ele>
        <time>2025-02-13T16:23:44.564Z</time>
      </trkpt>
      <trkpt lat="50.26927479542792" lon="5.444884300231934">
        <ele>177.13</ele>
        <time>2025-02-13T16:23:51.192Z</time>
      </trkpt>
      <trkpt lat="50.26927471160889" lon="5.444884300231934">
        <ele>177.33</ele>
        <time>2025-02-13T16:23:57.820Z</time>
      </trkpt>
      <trkpt lat="50.26914571411908" lon="5.445163752883673">
        <ele>177.48</ele>
        <time>2025-02-13T16:24:04.451Z</time>
      </trkpt>
      <trkpt lat="50.26901730336249" lon="5.445442199707031">
        <ele>177.68</ele>
        <time>2025-02-13T16:24:11.086Z</time>
      </trkpt>
      <trkpt lat="50.268920408561826" lon="5.445775547996163">
        <ele>177.88</ele>
        <time>2025-02-13T16:24:17.725Z</time>
      </trkpt>
      <trkpt lat="50.268824100494385" lon="5.446107387542725">
        <ele>178.08</ele>
        <time>2025-02-13T16:24:24.367Z</time>
      </trkpt>
      <trkpt lat="50.268748831003904" lon="5.446354653686285">
        <ele>178.29</ele>
        <time>2025-02-13T16:24:31.012Z</time>
      </trkpt>
      <trkpt lat="50.26867398060858" lon="5.446600914001465">
        <ele>178.45</ele>
        <time>2025-02-13T16:24:37.660Z</time>
      </trkpt>
      <trkpt lat="50.26867389678955" lon="5.446600914001465">
        <ele>178.59</ele>
        <time>2025-02-13T16:24:44.308Z</time>
      </trkpt>
      <trkpt lat="50.26858781464398" lon="5.446858908981085">
        <ele>178.73</ele>
        <time>2025-02-13T16:24:50.959Z</time>
      </trkpt>
      <trkpt lat="50.2685022354126" lon="5.447115898132324">
        <ele>178.83</ele>
        <time>2025-02-13T16:24:57.613Z</time>
      </trkpt>
      <trkpt lat="50.268394947052" lon="5.447287559509277">
        <ele>178.95</ele>
        <time>2025-02-13T16:25:04.269Z</time>
      </trkpt>
      <trkpt lat="50.26856669224799" lon="5.4474592208862305">
        <ele>179.06</ele>
        <time>2025-02-13T16:25:10.929Z</time>
      </trkpt>
      <trkpt lat="50.26871689595282" lon="5.4476094245910645">
        <ele>179.1</ele>
        <time>2025-02-13T16:25:17.592Z</time>
      </trkpt>
      <trkpt lat="50.268903225660324" lon="5.447824420407414">
        <ele>178.99</ele>
        <time>2025-02-13T16:25:24.258Z</time>
      </trkpt>
      <trkpt lat="50.26908963918686" lon="5.448039500042796">
        <ele>179.03</ele>
        <time>2025-02-13T16:25:30.928Z</time>
      </trkpt>
      <trkpt lat="50.26927546598017" lon="5.448253992944956">
        <ele>179.04</ele>
        <time>2025-02-13T16:25:37.602Z</time>
      </trkpt>
      <trkpt lat="50.26941468939185" lon="5.4484145902097225">
        <ele>179.04</ele>
        <time>2025-02-13T16:25:44.278Z</time>
      </trkpt>
      <trkpt lat="50.269553661346436" lon="5.448575019836426">
        <ele>179.1</ele>
        <time>2025-02-13T16:25:50.957Z</time>
      </trkpt>
      <trkpt lat="50.269832694903016" lon="5.448789596557617">
        <ele>179.05</ele>
        <time>2025-02-13T16:25:57.641Z</time>
      </trkpt>
      <trkpt lat="50.26989698410034" lon="5.4488325119018555">
        <ele>178.99</ele>
        <time>2025-02-13T16:26:04.326Z</time>
      </trkpt>
      <trkpt lat="50.270165372639894" lon="5.4490149859339">
        <ele>178.93</ele>
        <time>2025-02-13T16:26:11.016Z</time>
      </trkpt>
      <trkpt lat="50.27043350972235" lon="5.449197292327881">
        <ele>178.89</ele>
        <time>2025-02-13T16:26:17.711Z</time>
      </trkpt>
      <trkpt lat="50.27043342590332" lon="5.449197292327881">
        <ele>178.81</ele>
        <time>2025-02-13T16:26:24.406Z</time>
      </trkpt>
      <trkpt lat="50.27064808644354" lon="5.449347496032715">
        <ele>178.75</ele>
        <time>2025-02-13T16:26:31.104Z</time>
      </trkpt>
      <trkpt lat="50.2708625793457" lon="5.449497699737549">
        <ele>178.67</ele>
        <time>2025-02-13T16:26:37.806Z</time>
      </trkpt>
      <trkpt lat="50.27097875252366" lon="5.449575148522854">
        <ele>178.53</ele>
        <time>2025-02-13T16:26:44.510Z</time>
      </trkpt>
      <trkpt lat="50.27118452824652" lon="5.44971227645874">
        <ele>178.41</ele>
        <time>2025-02-13T16:26:51.218Z</time>
      </trkpt>
      <trkpt lat="50.2714635618031" lon="5.449905479326844">
        <ele>178.23</ele>
        <time>2025-02-13T16:26:57.931Z</time>
      </trkpt>
      <trkpt lat="50.271742679178715" lon="5.450098682194948">
        <ele>178.05</ele>
        <time>2025-02-13T16:27:04.649Z</time>
      </trkpt>
      <trkpt lat="50.27202179655433" lon="5.450291885063052">
        <ele>177.88</ele>
        <time>2025-02-13T16:27:11.372Z</time>
      </trkpt>
      <trkpt lat="50.27230032719672" lon="5.450484752655029">
        <ele>177.67</ele>
        <time>2025-02-13T16:27:18.099Z</time>
      </trkpt>
      <trkpt lat="50.272343242540956" lon="5.450506210327148">
        <ele>177.5</ele>
        <time>2025-02-13T16:27:24.827Z</time>
      </trkpt>
      <trkpt lat="50.27260081842542" lon="5.450685080140829">
        <ele>177.29</ele>
        <time>2025-02-13T16:27:31.560Z</time>
      </trkpt>
      <trkpt lat="50.27285839430988" lon="5.45086394995451">
        <ele>177.1</ele>
        <time>2025-02-13T16:27:38.297Z</time>
      </trkpt>
      <trkpt lat="50.27311563491821" lon="5.451042652130127">
        <ele>176.94</ele>
        <time>2025-02-13T16:27:45.039Z</time>
      </trkpt>
      <trkpt lat="50.273403050377965" lon="5.451237028464675">
        <ele>176.97</ele>
        <time>2025-02-13T16:27:51.786Z</time>
      </trkpt>
      <trkpt lat="50.273403050377965" lon="5.451237112283707">
        <ele>176.85</ele>
        <time>2025-02-13T16:27:58.533Z</time>
      </trkpt>
      <trkpt lat="50.27362424880266" lon="5.451386645436287">
        <ele>176.76</ele>
        <time>2025-02-13T16:28:05.284Z</time>
      </trkpt>
      <trkpt lat="50.273845279589295" lon="5.451536178588867">
        <ele>176.62</ele>
        <time>2025-02-13T16:28:12.038Z</time>
      </trkpt>
      <trkpt lat="50.273845195770264" lon="5.451536178588867">
        <ele>176.5</ele>
        <time>2025-02-13T16:28:18.792Z</time>
      </trkpt>
      <trkpt lat="50.274108136072755" lon="5.451715970411897">
        <ele>176.37</ele>
        <time>2025-02-13T16:28:25.551Z</time>
      </trkpt>
      <trkpt lat="50.27437116019428" lon="5.451895762234926">
        <ele>176.23</ele>
        <time>2025-02-13T16:28:32.315Z</time>
      </trkpt>
      <trkpt lat="50.27463410049677" lon="5.452075554057956">
        <ele>176.12</ele>
        <time>2025-02-13T16:28:39.083Z</time>
      </trkpt>
      <trkpt lat="50.27489712461829" lon="5.452255345880985">
        <ele>176.02</ele>
        <time>2025-02-13T16:28:45.856Z</time>
      </trkpt>
      <trkpt lat="50.275160148739815" lon="5.452435137704015">
        <ele>175.97</ele>
        <time>2025-02-13T16:28:52.633Z</time>
      </trkpt>
      <trkpt lat="50.275423089042306" lon="5.452614929527044">
        <ele>175.97</ele>
        <time>2025-02-13T16:28:59.415Z</time>
      </trkpt>
      <trkpt lat="50.27568611316383" lon="5.452794721350074">
        <ele>175.9</ele>
        <time>2025-02-13T16:29:06.202Z</time>
      </trkpt>
      <trkpt lat="50.27594804763794" lon="5.45297384262085">
        <ele>175.83</ele>
        <time>2025-02-13T16:29:12.993Z</time>
      </trkpt>
      <trkpt lat="50.27605541981757" lon="5.453038215637207">
        <ele>175.77</ele>
        <time>2025-02-13T16:29:19.786Z</time>
      </trkpt>
      <trkpt lat="50.27623202651739" lon="5.453155981376767">
        <ele>175.77</ele>
        <time>2025-02-13T16:29:26.582Z</time>
      </trkpt>
      <trkpt lat="50.27644165791571" lon="5.453295707702637">
        <ele>175.63</ele>
        <time>2025-02-13T16:29:33.382Z</time>
      </trkpt>
      <trkpt lat="50.276548862457275" lon="5.453381538391113">
        <ele>175.6</ele>
        <time>2025-02-13T16:29:40.184Z</time>
      </trkpt>
      <trkpt lat="50.2768240403384" lon="5.453568873926997">
        <ele>175.56</ele>
        <time>2025-02-13T16:29:46.990Z</time>
      </trkpt>
      <trkpt lat="50.27709921821952" lon="5.453756209462881">
        <ele>175.51</ele>
        <time>2025-02-13T16:29:53.801Z</time>
      </trkpt>
      <trkpt lat="50.27737439610064" lon="5.453943544998765">
        <ele>175.44</ele>
        <time>2025-02-13T16:30:00.617Z</time>
      </trkpt>
      <trkpt lat="50.27764957398176" lon="5.454130880534649">
        <ele>175.42</ele>
        <time>2025-02-13T16:30:07.438Z</time>
      </trkpt>
      <trkpt lat="50.277924751862884" lon="5.4543182998895645">
        <ele>175.53</ele>
        <time>2025-02-13T16:30:14.264Z</time>
      </trkpt>
      <trkpt lat="50.278199929744005" lon="5.454505635425448">
        <ele>175.57</ele>
        <time>2025-02-13T16:30:21.095Z</time>
      </trkpt>
      <trkpt lat="50.27847510762513" lon="5.454692970961332">
        <ele>175.56</ele>
        <time>2025-02-13T16:30:27.930Z</time>
      </trkpt>
      <trkpt lat="50.27875036932528" lon="5.454880306497216">
        <ele>175.58</ele>
        <time>2025-02-13T16:30:34.770Z</time>
      </trkpt>
      <trkpt lat="50.2790255472064" lon="5.455067725852132">
        <ele>175.67</ele>
        <time>2025-02-13T16:30:41.615Z</time>
      </trkpt>
      <trkpt lat="50.27930072508752" lon="5.455255061388016">
        <ele>175.77</ele>
        <time>2025-02-13T16:30:48.465Z</time>
      </trkpt>
      <trkpt lat="50.279574394226074" lon="5.455441474914551">
        <ele>175.85</ele>
        <time>2025-02-13T16:30:55.320Z</time>
      </trkpt>
      <trkpt lat="50.2796817664057" lon="5.455527305603027">
        <ele>175.95</ele>
        <time>2025-02-13T16:31:02.176Z</time>
      </trkpt>
      <trkpt lat="50.27995007112622" lon="5.455709779635072">
        <ele>176.24</ele>
        <time>2025-02-13T16:31:09.037Z</time>
      </trkpt>
      <trkpt lat="50.280218459665775" lon="5.455892253667116">
        <ele>176.36</ele>
        <time>2025-02-13T16:31:15.903Z</time>
      </trkpt>
      <trkpt lat="50.280486764386296" lon="5.456074727699161">
        <ele>176.55</ele>
        <time>2025-02-13T16:31:22.774Z</time>
      </trkpt>
      <trkpt lat="50.28075465001166" lon="5.456256866455078">
        <ele>176.76</ele>
        <time>2025-02-13T16:31:29.649Z</time>
      </trkpt>
      <trkpt lat="50.28100501745939" lon="5.456428611651063">
        <ele>176.98</ele>
        <time>2025-02-13T16:31:36.529Z</time>
      </trkpt>
      <trkpt lat="50.28125546872616" lon="5.456600356847048">
        <ele>177.28</ele>
        <time>2025-02-13T16:31:43.413Z</time>
      </trkpt>
      <trkpt lat="50.2815055847168" lon="5.4567718505859375">
        <ele>177.59</ele>
        <time>2025-02-13T16:31:50.301Z</time>
      </trkpt>
      <trkpt lat="50.281486976891756" lon="5.456984080374241">
        <ele>177.72</ele>
        <time>2025-02-13T16:31:57.192Z</time>
      </trkpt>
      <trkpt lat="50.28145730495453" lon="5.457321954891086">
        <ele>178.0</ele>
        <time>2025-02-13T16:32:04.086Z</time>
      </trkpt>
      <trkpt lat="50.28142771683633" lon="5.45765982940793">
        <ele>178.27</ele>
        <time>2025-02-13T16:32:10.984Z</time>
      </trkpt>
      <trkpt lat="50.28139838017523" lon="5.4579949378967285">
        <ele>178.48</ele>
        <time>2025-02-13T16:32:17.885Z</time>
      </trkpt>
      <trkpt lat="50.28137683868408" lon="5.458273887634277">
        <ele>178.79</ele>
        <time>2025-02-13T16:32:24.789Z</time>
      </trkpt>
      <trkpt lat="50.28138756752014" lon="5.4586611315608025">
        <ele>179.1</ele>
        <time>2025-02-13T16:32:31.697Z</time>
      </trkpt>
      <trkpt lat="50.2813982963562" lon="5.459046363830566">
        <ele>179.41</ele>
        <time>2025-02-13T16:32:38.609Z</time>
      </trkpt>
      <trkpt lat="50.28141438961029" lon="5.459487419575453">
        <ele>179.74</ele>
        <time>2025-02-13T16:32:45.525Z</time>
      </trkpt>
      <trkpt lat="50.28143056668341" lon="5.459928559139371">
        <ele>180.11</ele>
        <time>2025-02-13T16:32:52.446Z</time>
      </trkpt>
      <trkpt lat="50.2814466599375" lon="5.460369698703289">
        <ele>180.5</ele>
        <time>2025-02-13T16:32:59.371Z</time>
      </trkpt>
      <trkpt lat="50.28146266937256" lon="5.460805892944336">
        <ele>180.83</ele>
        <time>2025-02-13T16:33:06.301Z</time>
      </trkpt>
      <trkpt lat="50.28149493969977" lon="5.4612254071980715">
        <ele>181.22</ele>
        <time>2025-02-13T16:33:13.235Z</time>
      </trkpt>
      <trkpt lat="50.281527042388916" lon="5.461642742156982">
        <ele>181.61</ele>
        <time>2025-02-13T16:33:20.174Z</time>
      </trkpt>
      <trkpt lat="50.28158973902464" lon="5.462123528122902">
        <ele>181.76</ele>
        <time>2025-02-13T16:33:27.118Z</time>
      </trkpt>
      <trkpt lat="50.28165243566036" lon="5.462604397907853">
        <ele>182.09</ele>
        <time>2025-02-13T16:33:34.067Z</time>
      </trkpt>
      <trkpt lat="50.281715132296085" lon="5.463085267692804">
        <ele>182.4</ele>
        <time>2025-02-13T16:33:41.021Z</time>
      </trkpt>
      <trkpt lat="50.28177791275084" lon="5.4635661374777555">
        <ele>182.64</ele>
        <time>2025-02-13T16:33:47.980Z</time>
      </trkpt>
      <trkpt lat="50.281839771196246" lon="5.464040553197265">
        <ele>182.88</ele>
        <time>2025-02-13T16:33:54.944Z</time>
      </trkpt>
      <trkpt lat="50.281839771196246" lon="5.464040469378233">
        <ele>183.19</ele>
        <time>2025-02-13T16:34:01.908Z</time>
      </trkpt>
      <trkpt lat="50.2818489074707" lon="5.464110374450684">
        <ele>183.58</ele>
        <time>2025-02-13T16:34:08.872Z</time>
      </trkpt>
      <trkpt lat="50.281960889697075" lon="5.464535001665354">
        <ele>183.81</ele>
        <time>2025-02-13T16:34:15.841Z</time>
      </trkpt>
      <trkpt lat="50.28207287192345" lon="5.464959712699056">
        <ele>184.13</ele>
        <time>2025-02-13T16:34:22.815Z</time>
      </trkpt>
      <trkpt lat="50.28218485414982" lon="5.465384339913726">
        <ele>184.44</ele>
        <time>2025-02-13T16:34:29.794Z</time>
      </trkpt>
      <trkpt lat="50.28229683637619" lon="5.465809050947428">
        <ele>184.78</ele>
        <time>2025-02-13T16:34:36.777Z</time>
      </trkpt>
      <trkpt lat="50.282408902421594" lon="5.46623376198113">
        <ele>185.13</ele>
        <time>2025-02-13T16:34:43.765Z</time>
      </trkpt>
      <trkpt lat="50.282520884647965" lon="5.4666583891958">
        <ele>185.46</ele>
        <time>2025-02-13T16:34:50.758Z</time>
      </trkpt>
      <trkpt lat="50.28263286687434" lon="5.467083100229502">
        <ele>185.78</ele>
        <time>2025-02-13T16:34:57.755Z</time>
      </trkpt>
      <trkpt lat="50.28274484910071" lon="5.467507811263204">
        <ele>186.18</ele>
        <time>2025-02-13T16:35:04.757Z</time>
      </trkpt>
      <trkpt lat="50.28285683132708" lon="5.4679325222969055">
        <ele>186.56</ele>
        <time>2025-02-13T16:35:11.764Z</time>
      </trkpt>
      <trkpt lat="50.282968897372484" lon="5.468357149511576">
        <ele>186.94</ele>
        <time>2025-02-13T16:35:18.776Z</time>
      </trkpt>
      <trkpt lat="50.283077862113714" lon="5.4687707126140594">
        <ele>187.35</ele>
        <time>2025-02-13T16:35:25.792Z</time>
      </trkpt>
      <trkpt lat="50.283183893188834" lon="5.469172960147262">
        <ele>187.74</ele>
        <time>2025-02-13T16:35:32.813Z</time>
      </trkpt>
      <trkpt lat="50.283290008082986" lon="5.4695752914994955">
        <ele>188.05</ele>
        <time>2025-02-13T16:35:39.838Z</time>
      </trkpt>
      <trkpt lat="50.283396039158106" lon="5.469977539032698">
        <ele>188.37</ele>
        <time>2025-02-13T16:35:46.868Z</time>
      </trkpt>
      <trkpt lat="50.28350114822388" lon="5.470376014709473">
        <ele>188.62</ele>
        <time>2025-02-13T16:35:53.902Z</time>
      </trkpt>
      <trkpt lat="50.2836140524596" lon="5.470789996907115">
        <ele>189.01</ele>
        <time>2025-02-13T16:36:00.941Z</time>
      </trkpt>
      <trkpt lat="50.28372695669532" lon="5.471204062923789">
        <ele>189.34</ele>
        <time>2025-02-13T16:36:07.984Z</time>
      </trkpt>
      <trkpt lat="50.28383986093104" lon="5.471618128940463">
        <ele>189.64</ele>
        <time>2025-02-13T16:36:15.032Z</time>
      </trkpt>
      <trkpt lat="50.28395284898579" lon="5.472032111138105">
        <ele>189.94</ele>
        <time>2025-02-13T16:36:22.084Z</time>
      </trkpt>
      <trkpt lat="50.28406575322151" lon="5.472446177154779">
        <ele>190.29</ele>
        <time>2025-02-13T16:36:29.141Z</time>
      </trkpt>
      <trkpt lat="50.28417865745723" lon="5.4728602431714535">
        <ele>190.62</ele>
        <time>2025-02-13T16:36:36.203Z</time>
      </trkpt>
      <trkpt lat="50.28429156169295" lon="5.4732743091881275">
        <ele>190.97</ele>
        <time>2025-02-13T16:36:43.269Z</time>
      </trkpt>
      <trkpt lat="50.28440237045288" lon="5.47368049621582">
        <ele>191.37</ele>
        <time>2025-02-13T16:36:50.340Z</time>
      </trkpt>
      <trkpt lat="50.28451703488827" lon="5.474124988541007">
        <ele>191.85</ele>
        <time>2025-02-13T16:36:57.416Z</time>
      </trkpt>
      <trkpt lat="50.284631783142686" lon="5.4745695646852255">
        <ele>192.11</ele>
        <time>2025-02-13T16:37:04.497Z</time>
      </trkpt>
      <trkpt lat="50.28474569320679" lon="5.475010871887207">
        <ele>192.6</ele>
        <time>2025-02-13T16:37:11.583Z</time>
      </trkpt>
      <trkpt lat="50.28484778478742" lon="5.475344220176339">
        <ele>192.92</ele>
        <time>2025-02-13T16:37:18.672Z</time>
      </trkpt>
      <trkpt lat="50.28494996018708" lon="5.475677568465471">
        <ele>193.24</ele>
        <time>2025-02-13T16:37:25.765Z</time>
      </trkpt>
      <trkpt lat="50.28505213558674" lon="5.476010916754603">
        <ele>193.56</ele>
        <time>2025-02-13T16:37:32.862Z</time>
      </trkpt>
      <trkpt lat="50.28515338897705" lon="5.476341247558594">
        <ele>193.86</ele>
        <time>2025-02-13T16:37:39.963Z</time>
      </trkpt>
      <trkpt lat="50.28526076115668" lon="5.476641654968262">
        <ele>194.14</ele>
        <time>2025-02-13T16:37:47.067Z</time>
      </trkpt>
      <trkpt lat="50.28532521799207" lon="5.476985815912485">
        <ele>194.34</ele>
        <time>2025-02-13T16:37:54.175Z</time>
      </trkpt>
      <trkpt lat="50.28538942337036" lon="5.477328300476074">
        <ele>194.51</ele>
        <time>2025-02-13T16:38:01.287Z</time>
      </trkpt>
      <trkpt lat="50.28541096486151" lon="5.4775214195251465">
        <ele>194.63</ele>
        <time>2025-02-13T16:38:08.401Z</time>
      </trkpt>
      <trkpt lat="50.28536796569824" lon="5.477714538574219">
        <ele>194.72</ele>
        <time>2025-02-13T16:38:15.517Z</time>
      </trkpt>
      <trkpt lat="50.28525506146252" lon="5.478085521608591">
        <ele>194.8</ele>
        <time>2025-02-13T16:38:22.637Z</time>
      </trkpt>
      <trkpt lat="50.2851421572268" lon="5.478456504642963">
        <ele>194.84</ele>
        <time>2025-02-13T16:38:29.761Z</time>
      </trkpt>
      <trkpt lat="50.28502925299108" lon="5.478827487677336">
        <ele>194.92</ele>
        <time>2025-02-13T16:38:36.889Z</time>
      </trkpt>
      <trkpt lat="50.28491743840277" lon="5.4791951179504395">
        <ele>195.01</ele>
        <time>2025-02-13T16:38:44.021Z</time>
      </trkpt>
      <trkpt lat="50.28484635986388" lon="5.479468954727054">
        <ele>195.04</ele>
        <time>2025-02-13T16:38:51.157Z</time>
      </trkpt>
      <trkpt lat="50.284767150878906" lon="5.479774475097656">
        <ele>195.15</ele>
        <time>2025-02-13T16:38:58.296Z</time>
      </trkpt>
      <trkpt lat="50.28489589691162" lon="5.479989051818848">
        <ele>195.24</ele>
        <time>2025-02-13T16:39:05.438Z</time>
      </trkpt>
      <trkpt lat="50.28506772592664" lon="5.480246879160404">
        <ele>195.28</ele>
        <time>2025-02-13T16:39:12.584Z</time>
      </trkpt>
      <trkpt lat="50.28523921966553" lon="5.480504035949707">
        <ele>195.31</ele>
        <time>2025-02-13T16:39:19.734Z</time>
      </trkpt>
      <trkpt lat="50.28541096486151" lon="5.480740070343018">
        <ele>195.37</ele>
        <time>2025-02-13T16:39:26.887Z</time>
      </trkpt>
      <trkpt lat="50.28547525405884" lon="5.480890274047852">
        <ele>195.45</ele>
        <time>2025-02-13T16:39:34.042Z</time>
      </trkpt>
      <trkpt lat="50.28570273891091" lon="5.481055732816458">
        <ele>195.58</ele>
        <time>2025-02-13T16:39:41.201Z</time>
      </trkpt>
      <trkpt lat="50.285930056124926" lon="5.4812210239470005">
        <ele>195.7</ele>
        <time>2025-02-13T16:39:48.364Z</time>
      </trkpt>
      <trkpt lat="50.2861834410578" lon="5.481405258178711">
        <ele>195.78</ele>
        <time>2025-02-13T16:39:55.532Z</time>
      </trkpt>
      <trkpt lat="50.2862907294184" lon="5.4814910888671875">
        <ele>195.89</ele>
        <time>2025-02-13T16:40:02.702Z</time>
      </trkpt>
      <trkpt lat="50.286290645599365" lon="5.4814910888671875">
        <ele>196.02</ele>
        <time>2025-02-13T16:40:09.872Z</time>
      </trkpt>
      <trkpt lat="50.28651603497565" lon="5.481619834899902">
        <ele>196.16</ele>
        <time>2025-02-13T16:40:17.045Z</time>
      </trkpt>
      <trkpt lat="50.28674125671387" lon="5.481748580932617">
        <ele>196.36</ele>
        <time>2025-02-13T16:40:24.222Z</time>
      </trkpt>
      <trkpt lat="50.286827087402344" lon="5.481748580932617">
        <ele>196.55</ele>
        <time>2025-02-13T16:40:31.401Z</time>
      </trkpt>
      <trkpt lat="50.28691291809082" lon="5.481855869293213">
        <ele>196.79</ele>
        <time>2025-02-13T16:40:38.581Z</time>
      </trkpt>
      <trkpt lat="50.28709530830383" lon="5.481963157653809">
        <ele>197.04</ele>
        <time>2025-02-13T16:40:45.764Z</time>
      </trkpt>
      <trkpt lat="50.287277698516846" lon="5.482070446014404">
        <ele>197.31</ele>
        <time>2025-02-13T16:40:52.951Z</time>
      </trkpt>
      <trkpt lat="50.28754943981767" lon="5.482106152921915">
        <ele>197.55</ele>
        <time>2025-02-13T16:41:00.142Z</time>
      </trkpt>
      <trkpt lat="50.28782126493752" lon="5.4821419436484575">
        <ele>197.86</ele>
        <time>2025-02-13T16:41:07.337Z</time>
      </trkpt>
      <trkpt lat="50.28809309005737" lon="5.482177734375">
        <ele>198.2</ele>
        <time>2025-02-13T16:41:14.537Z</time>
      </trkpt>
      <trkpt lat="50.288372123613954" lon="5.482306480407715">
        <ele>198.61</ele>
        <time>2025-02-13T16:41:21.741Z</time>
      </trkpt>
      <trkpt lat="50.28837203979492" lon="5.482306480407715">
        <ele>199.01</ele>
        <time>2025-02-13T16:41:28.945Z</time>
      </trkpt>
      <trkpt lat="50.28861930593848" lon="5.482518374919891">
        <ele>199.54</ele>
        <time>2025-02-13T16:41:36.154Z</time>
      </trkpt>
      <trkpt lat="50.28886657208204" lon="5.4827303532511">
        <ele>200.0</ele>
        <time>2025-02-13T16:41:43.367Z</time>
      </trkpt>
      <trkpt lat="50.2891138382256" lon="5.482942331582308">
        <ele>200.53</ele>
        <time>2025-02-13T16:41:50.585Z</time>
      </trkpt>
      <trkpt lat="50.289361188188195" lon="5.483154309913516">
        <ele>201.06</ele>
        <time>2025-02-13T16:41:57.807Z</time>
      </trkpt>
      <trkpt lat="50.289608454331756" lon="5.483366288244724">
        <ele>201.66</ele>
        <time>2025-02-13T16:42:05.034Z</time>
      </trkpt>
      <trkpt lat="50.289855720475316" lon="5.483578182756901">
        <ele>202.3</ele>
        <time>2025-02-13T16:42:12.265Z</time>
      </trkpt>
      <trkpt lat="50.29010307043791" lon="5.483790161088109">
        <ele>202.98</ele>
        <time>2025-02-13T16:42:19.501Z</time>
      </trkpt>
      <trkpt lat="50.29035033658147" lon="5.484002139419317">
        <ele>203.69</ele>
        <time>2025-02-13T16:42:26.742Z</time>
      </trkpt>
      <trkpt lat="50.29059609398246" lon="5.48421286046505">
        <ele>204.45</ele>
        <time>2025-02-13T16:42:33.987Z</time>
      </trkpt>
      <trkpt lat="50.290775299072266" lon="5.484366416931152">
        <ele>205.25</ele>
        <time>2025-02-13T16:42:41.235Z</time>
      </trkpt>
      <trkpt lat="50.290940003469586" lon="5.484588369727135">
        <ele>206.08</ele>
        <time>2025-02-13T16:42:48.487Z</time>
      </trkpt>
      <trkpt lat="50.29110470786691" lon="5.484810406342149">
        <ele>206.95</ele>
        <time>2025-02-13T16:42:55.742Z</time>
      </trkpt>
      <trkpt lat="50.291268825531006" lon="5.485031604766846">
        <ele>207.83</ele>
        <time>2025-02-13T16:43:03.001Z</time>
      </trkpt>
      <trkpt lat="50.29145507141948" lon="5.485368305817246">
        <ele>208.69</ele>
        <time>2025-02-13T16:43:10.264Z</time>
      </trkpt>
      <trkpt lat="50.29164140112698" lon="5.485705006867647">
        <ele>209.58</ele>
        <time>2025-02-13T16:43:17.532Z</time>
      </trkpt>
      <trkpt lat="50.29182764701545" lon="5.486041707918048">
        <ele>210.51</ele>
        <time>2025-02-13T16:43:24.804Z</time>
      </trkpt>
      <trkpt lat="50.292013976722956" lon="5.486378408968449">
        <ele>211.53</ele>
        <time>2025-02-13T16:43:32.081Z</time>
      </trkpt>
      <trkpt lat="50.29220022261143" lon="5.486715193837881">
        <ele>212.58</ele>
        <time>2025-02-13T16:43:39.363Z</time>
      </trkpt>
      <trkpt lat="50.29238470830023" lon="5.487048625946045">
        <ele>213.58</ele>
        <time>2025-02-13T16:43:46.649Z</time>
      </trkpt>
      <trkpt lat="50.2923846244812" lon="5.487048625946045">
        <ele>214.56</ele>
        <time>2025-02-13T16:43:53.935Z</time>
      </trkpt>
      <trkpt lat="50.29255645349622" lon="5.487277787178755">
        <ele>215.56</ele>
        <time>2025-02-13T16:44:01.225Z</time>
      </trkpt>
      <trkpt lat="50.292728366330266" lon="5.487506948411465">
        <ele>216.59</ele>
        <time>2025-02-13T16:44:08.518Z</time>
      </trkpt>
      <trkpt lat="50.29289960861206" lon="5.487735271453857">
        <ele>217.61</ele>
        <time>2025-02-13T16:44:15.815Z</time>
      </trkpt>
      <trkpt lat="50.29317872598767" lon="5.487937023863196">
        <ele>218.69</ele>
        <time>2025-02-13T16:44:23.117Z</time>
      </trkpt>
      <trkpt lat="50.293457843363285" lon="5.488138860091567">
        <ele>219.78</ele>
        <time>2025-02-13T16:44:30.424Z</time>
      </trkpt>
      <trkpt lat="50.2937369607389" lon="5.488340696319938">
        <ele>220.9</ele>
        <time>2025-02-13T16:44:37.736Z</time>
      </trkpt>
      <trkpt lat="50.29401607811451" lon="5.488542448729277">
        <ele>222.01</ele>
        <time>2025-02-13T16:44:45.053Z</time>
      </trkpt>
      <trkpt lat="50.294294441118836" lon="5.488743782043457">
        <ele>223.23</ele>
        <time>2025-02-13T16:44:52.375Z</time>
      </trkpt>
      <trkpt lat="50.29440172947943" lon="5.488829612731934">
        <ele>224.38</ele>
        <time>2025-02-13T16:44:59.698Z</time>
      </trkpt>
      <trkpt lat="50.294605661183596" lon="5.488979900255799">
        <ele>225.57</ele>
        <time>2025-02-13T16:45:07.025Z</time>
      </trkpt>
      <trkpt lat="50.294809425249696" lon="5.489130020141602">
        <ele>226.75</ele>
        <time>2025-02-13T16:45:14.356Z</time>
      </trkpt>
      <trkpt lat="50.2950026281178" lon="5.489269495010376">
        <ele>227.89</ele>
        <time>2025-02-13T16:45:21.690Z</time>
      </trkpt>
      <trkpt lat="50.29519566334784" lon="5.48940896987915">
        <ele>229.0</ele>
        <time>2025-02-13T16:45:29.028Z</time>
      </trkpt>
      <trkpt lat="50.29542641714215" lon="5.489569902420044">
        <ele>230.06</ele>
        <time>2025-02-13T16:45:36.370Z</time>
      </trkpt>
      <trkpt lat="50.295657170936465" lon="5.489730918779969">
        <ele>231.14</ele>
        <time>2025-02-13T16:45:43.716Z</time>
      </trkpt>
      <trkpt lat="50.29588800854981" lon="5.4898919351398945">
        <ele>232.26</ele>
        <time>2025-02-13T16:45:51.066Z</time>
      </trkpt>
      <trkpt lat="50.29611834324896" lon="5.490052700042725">
        <ele>233.4</ele>
        <time>2025-02-13T16:45:58.420Z</time>
      </trkpt>
      <trkpt lat="50.296365190297365" lon="5.490245902910829">
        <ele>234.57</ele>
        <time>2025-02-13T16:46:05.778Z</time>
      </trkpt>
      <trkpt lat="50.296611869707704" lon="5.490438938140869">
        <ele>235.72</ele>
        <time>2025-02-13T16:46:13.141Z</time>
      </trkpt>
      <trkpt lat="50.29680507257581" lon="5.490567684173584">
        <ele>236.88</ele>
        <time>2025-02-13T16:46:20.507Z</time>
      </trkpt>
      <trkpt lat="50.29699827544391" lon="5.4906965140253305">
        <ele>238.09</ele>
        <time>2025-02-13T16:46:27.876Z</time>
      </trkpt>
      <trkpt lat="50.29719122685492" lon="5.490825176239014">
        <ele>239.32</ele>
        <time>2025-02-13T16:46:35.249Z</time>
      </trkpt>
      <trkpt lat="50.29719114303589" lon="5.490825176239014">
        <ele>240.5</ele>
        <time>2025-02-13T16:46:42.622Z</time>
      </trkpt>
      <trkpt lat="50.29741301201284" lon="5.490989712998271">
        <ele>241.74</ele>
        <time>2025-02-13T16:46:49.999Z</time>
      </trkpt>
      <trkpt lat="50.29763488098979" lon="5.49115433357656">
        <ele>242.97</ele>
        <time>2025-02-13T16:46:57.380Z</time>
      </trkpt>
      <trkpt lat="50.297856414690614" lon="5.491318702697754">
        <ele>244.28</ele>
        <time>2025-02-13T16:47:04.764Z</time>
      </trkpt>
      <trkpt lat="50.29800661839545" lon="5.49142599105835">
        <ele>245.57</ele>
        <time>2025-02-13T16:47:12.151Z</time>
      </trkpt>
      <trkpt lat="50.29815682210028" lon="5.491533279418945">
        <ele>246.87</ele>
        <time>2025-02-13T16:47:19.541Z</time>
      </trkpt>
      <trkpt lat="50.29843577183783" lon="5.491726398468018">
        <ele>248.23</ele>
        <time>2025-02-13T16:47:26.936Z</time>
      </trkpt>
      <trkpt lat="50.298585975542665" lon="5.491898059844971">
        <ele>249.51</ele>
        <time>2025-02-13T16:47:34.334Z</time>
      </trkpt>
      <trkpt lat="50.29867180623114" lon="5.492091178894043">
        <ele>250.71</ele>
        <time>2025-02-13T16:47:41.734Z</time>
      </trkpt>
      <trkpt lat="50.29875780455768" lon="5.492349173873663">
        <ele>251.89</ele>
        <time>2025-02-13T16:47:49.137Z</time>
      </trkpt>
      <trkpt lat="50.298843467608094" lon="5.492606163024902">
        <ele>253.05</ele>
        <time>2025-02-13T16:47:56.543Z</time>
      </trkpt>
      <trkpt lat="50.298951007425785" lon="5.492986114695668">
        <ele>254.14</ele>
        <time>2025-02-13T16:48:03.953Z</time>
      </trkpt>
      <trkpt lat="50.299058547243476" lon="5.493366066366434">
        <ele>255.27</ele>
        <time>2025-02-13T16:48:11.367Z</time>
      </trkpt>
      <trkpt lat="50.29916533268988" lon="5.493743419647217">
        <ele>256.47</ele>
        <time>2025-02-13T16:48:18.786Z</time>
      </trkpt>
      <trkpt lat="50.29916524887085" lon="5.493743419647217">
        <ele>257.53</ele>
        <time>2025-02-13T16:48:26.205Z</time>
      </trkpt>
      <trkpt lat="50.299315536394715" lon="5.494043827056885">
        <ele>258.65</ele>
        <time>2025-02-13T16:48:33.628Z</time>
      </trkpt>
      <trkpt lat="50.299436235800385" lon="5.494150361046195">
        <ele>259.66</ele>
        <time>2025-02-13T16:48:41.053Z</time>
      </trkpt>
      <trkpt lat="50.29968031682074" lon="5.494365692138672">
        <ele>260.59</ele>
        <time>2025-02-13T16:48:48.482Z</time>
      </trkpt>
      <trkpt lat="50.299809062853456" lon="5.494472980499268">
        <ele>261.55</ele>
        <time>2025-02-13T16:48:55.914Z</time>
      </trkpt>
      <trkpt lat="50.30006663873792" lon="5.494676912203431">
        <ele>262.57</ele>
        <time>2025-02-13T16:49:03.350Z</time>
      </trkpt>
      <trkpt lat="50.300324046984315" lon="5.494880676269531">
        <ele>263.53</ele>
        <time>2025-02-13T16:49:10.791Z</time>
      </trkpt>
      <trkpt lat="50.300545915961266" lon="5.495059546083212">
        <ele>264.34</ele>
        <time>2025-02-13T16:49:18.236Z</time>
      </trkpt>
      <trkpt lat="50.300767784938216" lon="5.495238499715924">
        <ele>265.02</ele>
        <time>2025-02-13T16:49:25.685Z</time>
      </trkpt>
      <trkpt lat="50.30098923482001" lon="5.49541711807251">
        <ele>265.68</ele>
        <time>2025-02-13T16:49:33.138Z</time>
      </trkpt>
      <trkpt lat="50.30111789703369" lon="5.495631694793701">
        <ele>266.25</ele>
        <time>2025-02-13T16:49:40.594Z</time>
      </trkpt>
      <trkpt lat="50.30122518539429" lon="5.495932102203369">
        <ele>266.77</ele>
        <time>2025-02-13T16:49:48.053Z</time>
      </trkpt>
      <trkpt lat="50.301246643066406" lon="5.496189594268799">
        <ele>267.21</ele>
        <time>2025-02-13T16:49:55.515Z</time>
      </trkpt>
      <trkpt lat="50.301225101575255" lon="5.496609192341566">
        <ele>267.56</ele>
        <time>2025-02-13T16:50:02.981Z</time>
      </trkpt>
      <trkpt lat="50.301203560084105" lon="5.497028790414333">
        <ele>267.76</ele>
        <time>2025-02-13T16:50:10.452Z</time>
      </trkpt>
      <trkpt lat="50.301182018592954" lon="5.497448388487101">
        <ele>267.83</ele>
        <time>2025-02-13T16:50:17.927Z</time>
      </trkpt>
      <trkpt lat="50.30116081237793" lon="5.497863292694092">
        <ele>267.82</ele>
        <time>2025-02-13T16:50:25.406Z</time>
      </trkpt>
      <trkpt lat="50.30113927088678" lon="5.49822187051177">
        <ele>267.84</ele>
        <time>2025-02-13T16:50:32.889Z</time>
      </trkpt>
      <trkpt lat="50.30111781321466" lon="5.49858053214848">
        <ele>267.85</ele>
        <time>2025-02-13T16:50:40.376Z</time>
      </trkpt>
      <trkpt lat="50.301096523180604" lon="5.498936176300049">
        <ele>267.78</ele>
        <time>2025-02-13T16:50:47.866Z</time>
      </trkpt>
      <trkpt lat="50.301096523180604" lon="5.499386787414551">
        <ele>267.65</ele>
        <time>2025-02-13T16:50:55.361Z</time>
      </trkpt>
      <trkpt lat="50.30116089619696" lon="5.499622821807861">
        <ele>267.4</ele>
        <time>2025-02-13T16:51:02.859Z</time>
      </trkpt>
      <trkpt lat="50.30124672688544" lon="5.499880313873291">
        <ele>267.1</ele>
        <time>2025-02-13T16:51:10.360Z</time>
      </trkpt>
      <trkpt lat="50.30139684677124" lon="5.500094890594482">
        <ele>266.77</ele>
        <time>2025-02-13T16:51:17.864Z</time>
      </trkpt>
      <trkpt lat="50.301622319966555" lon="5.500314999371767">
        <ele>266.41</ele>
        <time>2025-02-13T16:51:25.372Z</time>
      </trkpt>
      <trkpt lat="50.30184779316187" lon="5.500535108149052">
        <ele>266.08</ele>
        <time>2025-02-13T16:51:32.884Z</time>
      </trkpt>
      <trkpt lat="50.30207326635718" lon="5.500755216926336">
        <ele>265.72</ele>
        <time>2025-02-13T16:51:40.401Z</time>
      </trkpt>
      <trkpt lat="50.302298069000244" lon="5.500974655151367">
        <ele>265.39</ele>
        <time>2025-02-13T16:51:47.922Z</time>
      </trkpt>
      <trkpt lat="50.30255572870374" lon="5.501221586018801">
        <ele>265.12</ele>
        <time>2025-02-13T16:51:55.448Z</time>
      </trkpt>
      <trkpt lat="50.3028130531311" lon="5.501468181610107">
        <ele>264.91</ele>
        <time>2025-02-13T16:52:02.979Z</time>
      </trkpt>
      <trkpt lat="50.30302251689136" lon="5.501795830205083">
        <ele>264.67</ele>
        <time>2025-02-13T16:52:10.514Z</time>
      </trkpt>
      <trkpt lat="50.30323206447065" lon="5.50212356261909">
        <ele>264.43</ele>
        <time>2025-02-13T16:52:18.054Z</time>
      </trkpt>
      <trkpt lat="50.30344161204994" lon="5.5024512112140656">
        <ele>264.3</ele>
        <time>2025-02-13T16:52:25.599Z</time>
      </trkpt>
      <trkpt lat="50.30364998616278" lon="5.502777099609375">
        <ele>264.3</ele>
        <time>2025-02-13T16:52:33.149Z</time>
      </trkpt>
      <trkpt lat="50.30371435917914" lon="5.502862930297852">
        <ele>264.33</ele>
        <time>2025-02-13T16:52:40.700Z</time>
      </trkpt>
      <trkpt lat="50.30388593673706" lon="5.503056049346924">
        <ele>264.44</ele>
        <time>2025-02-13T16:52:48.254Z</time>
      </trkpt>
      <trkpt lat="50.30410051345825" lon="5.5031418800354">
        <ele>264.67</ele>
        <time>2025-02-13T16:52:55.812Z</time>
      </trkpt>
      <trkpt lat="50.30431509017944" lon="5.503195524215698">
        <ele>264.94</ele>
        <time>2025-02-13T16:53:03.373Z</time>
      </trkpt>
      <trkpt lat="50.304529666900635" lon="5.503249168395996">
        <ele>265.29</ele>
        <time>2025-02-13T16:53:10.938Z</time>
      </trkpt>
      <trkpt lat="50.304797887802124" lon="5.503355031833053">
        <ele>265.76</ele>
        <time>2025-02-13T16:53:18.507Z</time>
      </trkpt>
      <trkpt lat="50.305066192522645" lon="5.503460979089141">
        <ele>266.31</ele>
        <time>2025-02-13T16:53:26.081Z</time>
      </trkpt>
      <trkpt lat="50.305334497243166" lon="5.503566842526197">
        <ele>266.92</ele>
        <time>2025-02-13T16:53:33.659Z</time>
      </trkpt>
      <trkpt lat="50.30560255050659" lon="5.503672705963254">
        <ele>267.62</ele>
        <time>2025-02-13T16:53:41.242Z</time>
      </trkpt>
      <trkpt lat="50.30588150024414" lon="5.503782760351896">
        <ele>268.39</ele>
        <time>2025-02-13T16:53:48.829Z</time>
      </trkpt>
      <trkpt lat="50.30616044998169" lon="5.50389289855957">
        <ele>269.22</ele>
        <time>2025-02-13T16:53:56.421Z</time>
      </trkpt>
      <trkpt lat="50.30643939971924" lon="5.504021644592285">
        <ele>270.16</ele>
        <time>2025-02-13T16:54:04.017Z</time>
      </trkpt>
      <trkpt lat="50.30671843327582" lon="5.504150390625">
        <ele>271.16</ele>
        <time>2025-02-13T16:54:11.618Z</time>
      </trkpt>
      <trkpt lat="50.3069974668324" lon="5.504279220476747">
        <ele>272.23</ele>
        <time>2025-02-13T16:54:19.224Z</time>
      </trkpt>
      <trkpt lat="50.307276248931885" lon="5.50440788269043">
        <ele>273.34</ele>
        <time>2025-02-13T16:54:26.834Z</time>
      </trkpt>
      <trkpt lat="50.30743726529181" lon="5.504504442214966">
        <ele>274.53</ele>
        <time>2025-02-13T16:54:34.447Z</time>
      </trkpt>
      <trkpt lat="50.307598197832704" lon="5.504601001739502">
        <ele>275.82</ele>
        <time>2025-02-13T16:54:42.063Z</time>
      </trkpt>
      <trkpt lat="50.30781269073486" lon="5.504922866821289">
        <ele>277.25</ele>
        <time>2025-02-13T16:54:49.684Z</time>
      </trkpt>
      <trkpt lat="50.3079470526427" lon="5.505261495709419">
        <ele>278.69</ele>
        <time>2025-02-13T16:54:57.309Z</time>
      </trkpt>
      <trkpt lat="50.30808141455054" lon="5.505600124597549">
        <ele>280.19</ele>
        <time>2025-02-13T16:55:04.938Z</time>
      </trkpt>
      <trkpt lat="50.30821577645838" lon="5.50593875348568">
        <ele>281.79</ele>
        <time>2025-02-13T16:55:12.571Z</time>
      </trkpt>
      <trkpt lat="50.30834913253784" lon="5.506274700164795">
        <ele>283.42</ele>
        <time>2025-02-13T16:55:20.208Z</time>
      </trkpt>
      <trkpt lat="50.30847276560962" lon="5.5066455993801355">
        <ele>285.15</ele>
        <time>2025-02-13T16:55:27.849Z</time>
      </trkpt>
      <trkpt lat="50.3085963986814" lon="5.507016582414508">
        <ele>286.83</ele>
        <time>2025-02-13T16:55:35.495Z</time>
      </trkpt>
      <trkpt lat="50.30872003175318" lon="5.50738756544888">
        <ele>288.46</ele>
        <time>2025-02-13T16:55:43.145Z</time>
      </trkpt>
      <trkpt lat="50.30884265899658" lon="5.507755279541016">
        <ele>290.08</ele>
        <time>2025-02-13T16:55:50.799Z</time>
      </trkpt>
      <trkpt lat="50.30888565815985" lon="5.508099524304271">
        <ele>291.81</ele>
        <time>2025-02-13T16:55:58.457Z</time>
      </trkpt>
      <trkpt lat="50.30892848968506" lon="5.508441925048828">
        <ele>293.56</ele>
        <time>2025-02-13T16:56:06.118Z</time>
      </trkpt>
      <trkpt lat="50.30892128124833" lon="5.508872251957655">
        <ele>295.37</ele>
        <time>2025-02-13T16:56:13.784Z</time>
      </trkpt>
      <trkpt lat="50.3089140728116" lon="5.509302578866482">
        <ele>297.2</ele>
        <time>2025-02-13T16:56:21.454Z</time>
      </trkpt>
      <trkpt lat="50.30890703201294" lon="5.509729385375977">
        <ele>299.04</ele>
        <time>2025-02-13T16:56:29.129Z</time>
      </trkpt>
      <trkpt lat="50.30895539559424" lon="5.5101219937205315">
        <ele>301.34</ele>
        <time>2025-02-13T16:56:36.808Z</time>
      </trkpt>
      <trkpt lat="50.30900384299457" lon="5.510514685884118">
        <ele>303.15</ele>
        <time>2025-02-13T16:56:44.491Z</time>
      </trkpt>
      <trkpt lat="50.3090522903949" lon="5.510907378047705">
        <ele>304.83</ele>
        <time>2025-02-13T16:56:52.178Z</time>
      </trkpt>
      <trkpt lat="50.30910023488104" lon="5.511295795440674">
        <ele>307.59</ele>
        <time>2025-02-13T16:56:59.869Z</time>
      </trkpt>
      <trkpt lat="50.30913242138922" lon="5.511575499549508">
        <ele>309.16</ele>
        <time>2025-02-13T16:57:07.563Z</time>
      </trkpt>
      <trkpt lat="50.30916452407837" lon="5.5118536949157715">
        <ele>310.74</ele>
        <time>2025-02-13T16:57:15.260Z</time>
      </trkpt>
      <trkpt lat="50.30914306640625" lon="5.5121541023254395">
        <ele>312.32</ele>
        <time>2025-02-13T16:57:22.960Z</time>
      </trkpt>
      <trkpt lat="50.30908925458789" lon="5.512412181124091">
        <ele>313.84</ele>
        <time>2025-02-13T16:57:30.663Z</time>
      </trkpt>
      <trkpt lat="50.309035778045654" lon="5.512669086456299">
        <ele>315.27</ele>
        <time>2025-02-13T16:57:38.368Z</time>
      </trkpt>
      <trkpt lat="50.30905723571777" lon="5.512959519401193">
        <ele>316.63</ele>
        <time>2025-02-13T16:57:46.076Z</time>
      </trkpt>
      <trkpt lat="50.30907869338989" lon="5.513248443603516">
        <ele>317.98</ele>
        <time>2025-02-13T16:57:53.787Z</time>
      </trkpt>
      <trkpt lat="50.309035778045654" lon="5.513591766357422">
        <ele>319.25</ele>
        <time>2025-02-13T16:58:01.502Z</time>
      </trkpt>
      <trkpt lat="50.3089140728116" lon="5.513661336153746">
        <ele>319.5</ele>
        <time>2025-02-13T16:58:09.219Z</time>
      </trkpt>
      <trkpt lat="50.30888557434082" lon="5.513677597045898">
        <ele>320.37</ele>
        <time>2025-02-13T16:58:16.936Z</time>
      </trkpt>
      <trkpt lat="50.308778285980225" lon="5.51389217376709">
        <ele>321.51</ele>
        <time>2025-02-13T16:58:24.656Z</time>
      </trkpt>
      <trkpt lat="50.30868147499859" lon="5.514171710237861">
        <ele>322.61</ele>
        <time>2025-02-13T16:58:32.380Z</time>
      </trkpt>
      <trkpt lat="50.30858516693115" lon="5.5144500732421875">
        <ele>323.68</ele>
        <time>2025-02-13T16:58:40.107Z</time>
      </trkpt>
      <trkpt lat="50.3084135055542" lon="5.514664649963379">
        <ele>324.65</ele>
        <time>2025-02-13T16:58:47.837Z</time>
      </trkpt>
      <trkpt lat="50.30832767486572" lon="5.514836311340332">
        <ele>325.55</ele>
        <time>2025-02-13T16:58:55.570Z</time>
      </trkpt>
      <trkpt lat="50.308342007920146" lon="5.5152523051947355">
        <ele>326.44</ele>
        <time>2025-02-13T16:59:03.307Z</time>
      </trkpt>
      <trkpt lat="50.30835634097457" lon="5.515668299049139">
        <ele>327.23</ele>
        <time>2025-02-13T16:59:11.048Z</time>
      </trkpt>
      <trkpt lat="50.30837059020996" lon="5.516080856323242">
        <ele>327.89</ele>
        <time>2025-02-13T16:59:18.793Z</time>
      </trkpt>
      <trkpt lat="50.30836262740195" lon="5.516422335058451">
        <ele>328.42</ele>
        <time>2025-02-13T16:59:26.542Z</time>
      </trkpt>
      <trkpt lat="50.30835583806038" lon="5.516713690012693">
        <ele>328.95</ele>
        <time>2025-02-13T16:59:34.294Z</time>
      </trkpt>
      <trkpt lat="50.30834913253784" lon="5.517003536224365">
        <ele>329.02</ele>
        <time>2025-02-13T16:59:42.049Z</time>
      </trkpt>
      <trkpt lat="50.30837067402899" lon="5.517153739929199">
        <ele>329.5</ele>
        <time>2025-02-13T16:59:49.805Z</time>
      </trkpt>
      <trkpt lat="50.30852104537189" lon="5.517411567270756">
        <ele>329.94</ele>
        <time>2025-02-13T16:59:57.565Z</time>
      </trkpt>
      <trkpt lat="50.30867141671479" lon="5.517669478431344">
        <ele>330.32</ele>
        <time>2025-02-13T17:00:05.329Z</time>
      </trkpt>
      <trkpt lat="50.30882120132446" lon="5.517926216125488">
        <ele>330.63</ele>
        <time>2025-02-13T17:00:13.096Z</time>
      </trkpt>
      <trkpt lat="50.30891792848706" lon="5.5181411281228065">
        <ele>330.89</ele>
        <time>2025-02-13T17:00:20.866Z</time>
      </trkpt>
      <trkpt lat="50.30901440419257" lon="5.518355369567871">
        <ele>331.11</ele>
        <time>2025-02-13T17:00:28.638Z</time>
      </trkpt>
      <trkpt lat="50.309143317863345" lon="5.5186025518924">
        <ele>331.27</ele>
        <time>2025-02-13T17:00:36.414Z</time>
      </trkpt>
      <trkpt lat="50.309271812438965" lon="5.518848896026611">
        <ele>331.32</ele>
        <time>2025-02-13T17:00:44.193Z</time>
      </trkpt>
      <trkpt lat="50.309479515999556" lon="5.519149638712406">
        <ele>331.26</ele>
        <time>2025-02-13T17:00:51.977Z</time>
      </trkpt>
      <trkpt lat="50.309687219560146" lon="5.519450465217233">
        <ele>331.17</ele>
        <time>2025-02-13T17:00:59.765Z</time>
      </trkpt>
      <trkpt lat="50.30989416874945" lon="5.519750118255615">
        <ele>331.04</ele>
        <time>2025-02-13T17:01:07.558Z</time>
      </trkpt>
      <trkpt lat="50.31000154092908" lon="5.519986571744084">
        <ele>330.85</ele>
        <time>2025-02-13T17:01:15.354Z</time>
      </trkpt>
      <trkpt lat="50.31010866165161" lon="5.520222187042236">
        <ele>330.59</ele>
        <time>2025-02-13T17:01:23.153Z</time>
      </trkpt>
      <trkpt lat="50.31034494750202" lon="5.52051748149097">
        <ele>330.36</ele>
        <time>2025-02-13T17:01:30.956Z</time>
      </trkpt>
      <trkpt lat="50.31058123335242" lon="5.520812859758735">
        <ele>330.07</ele>
        <time>2025-02-13T17:01:38.764Z</time>
      </trkpt>
      <trkpt lat="50.31081751920283" lon="5.5211082380265">
        <ele>329.72</ele>
        <time>2025-02-13T17:01:46.577Z</time>
      </trkpt>
      <trkpt lat="50.31105279922485" lon="5.521402359008789">
        <ele>329.29</ele>
        <time>2025-02-13T17:01:54.395Z</time>
      </trkpt>
      <trkpt lat="50.31116008758545" lon="5.521681308746338">
        <ele>328.9</ele>
        <time>2025-02-13T17:02:02.216Z</time>
      </trkpt>
      <trkpt lat="50.31098851002753" lon="5.521831512451172">
        <ele>328.47</ele>
        <time>2025-02-13T17:02:10.040Z</time>
      </trkpt>
      <trkpt lat="50.31090083532035" lon="5.5219111405313015">
        <ele>328.07</ele>
        <time>2025-02-13T17:02:17.866Z</time>
      </trkpt>
      <trkpt lat="50.310708386823535" lon="5.52208598703146">
        <ele>327.6</ele>
        <time>2025-02-13T17:02:25.696Z</time>
      </trkpt>
      <trkpt lat="50.310516357421875" lon="5.522260665893555">
        <ele>327.43</ele>
        <time>2025-02-13T17:02:33.529Z</time>
      </trkpt>
      <trkpt lat="50.310237407684326" lon="5.522432327270508">
        <ele>326.74</ele>
        <time>2025-02-13T17:02:41.367Z</time>
      </trkpt>
      <trkpt lat="50.3099799156189" lon="5.522496700286865">
        <ele>326.07</ele>
        <time>2025-02-13T17:02:49.209Z</time>
      </trkpt>
      <trkpt lat="50.309690153226256" lon="5.522464429959655">
        <ele>325.43</ele>
        <time>2025-02-13T17:02:57.056Z</time>
      </trkpt>
      <trkpt lat="50.30940055847168" lon="5.522432327270508">
        <ele>324.78</ele>
        <time>2025-02-13T17:03:04.907Z</time>
      </trkpt>
      <trkpt lat="50.30908724293113" lon="5.522389328107238">
        <ele>324.08</ele>
        <time>2025-02-13T17:03:12.763Z</time>
      </trkpt>
      <trkpt lat="50.308773927390575" lon="5.5223464127629995">
        <ele>323.39</ele>
        <time>2025-02-13T17:03:20.625Z</time>
      </trkpt>
      <trkpt lat="50.30846061185002" lon="5.522303497418761">
        <ele>322.68</ele>
        <time>2025-02-13T17:03:28.492Z</time>
      </trkpt>
      <trkpt lat="50.30814729630947" lon="5.522260582074523">
        <ele>321.96</ele>
        <time>2025-02-13T17:03:36.364Z</time>
      </trkpt>
      <trkpt lat="50.30783414840698" lon="5.522217750549316">
        <ele>321.28</ele>
        <time>2025-02-13T17:03:44.241Z</time>
      </trkpt>
      <trkpt lat="50.307555198669434" lon="5.5222392082214355">
        <ele>320.53</ele>
        <time>2025-02-13T17:03:52.122Z</time>
      </trkpt>
      <trkpt lat="50.307319248095155" lon="5.5223894119262695">
        <ele>319.71</ele>
        <time>2025-02-13T17:04:00.007Z</time>
      </trkpt>
      <trkpt lat="50.307276248931885" lon="5.522432327270508">
        <ele>318.94</ele>
        <time>2025-02-13T17:04:07.893Z</time>
      </trkpt>
      <trkpt lat="50.30705706216395" lon="5.5227546114474535">
        <ele>318.11</ele>
        <time>2025-02-13T17:04:15.784Z</time>
      </trkpt>
      <trkpt lat="50.30683787539601" lon="5.523076895624399">
        <ele>317.34</ele>
        <time>2025-02-13T17:04:23.680Z</time>
      </trkpt>
      <trkpt lat="50.30661868862808" lon="5.523399179801345">
        <ele>316.55</ele>
        <time>2025-02-13T17:04:31.580Z</time>
      </trkpt>
      <trkpt lat="50.30639950186014" lon="5.523721547797322">
        <ele>315.71</ele>
        <time>2025-02-13T17:04:39.485Z</time>
      </trkpt>
      <trkpt lat="50.30618190765381" lon="5.524041652679443">
        <ele>314.84</ele>
        <time>2025-02-13T17:04:47.395Z</time>
      </trkpt>
      <trkpt lat="50.305981412529945" lon="5.524285063147545">
        <ele>313.92</ele>
        <time>2025-02-13T17:04:55.309Z</time>
      </trkpt>
      <trkpt lat="50.30578091740608" lon="5.524528557434678">
        <ele>312.99</ele>
        <time>2025-02-13T17:05:03.227Z</time>
      </trkpt>
      <trkpt lat="50.305581176653504" lon="5.524771213531494">
        <ele>312.08</ele>
        <time>2025-02-13T17:05:11.149Z</time>
      </trkpt>
      <trkpt lat="50.30536659993231" lon="5.525007247924805">
        <ele>311.21</ele>
        <time>2025-02-13T17:05:19.075Z</time>
      </trkpt>
      <trkpt lat="50.305151771754026" lon="5.5252219922840595">
        <ele>310.29</ele>
        <time>2025-02-13T17:05:27.006Z</time>
      </trkpt>
      <trkpt lat="50.3049373626709" lon="5.5254364013671875">
        <ele>309.48</ele>
        <time>2025-02-13T17:05:34.941Z</time>
      </trkpt>
      <trkpt lat="50.30475480481982" lon="5.525586688891053">
        <ele>308.64</ele>
        <time>2025-02-13T17:05:42.879Z</time>
      </trkpt>
      <trkpt lat="50.30457258224487" lon="5.5257368087768555">
        <ele>307.78</ele>
        <time>2025-02-13T17:05:50.820Z</time>
      </trkpt>
      <trkpt lat="50.30427628196776" lon="5.525899920612574">
        <ele>306.82</ele>
        <time>2025-02-13T17:05:58.766Z</time>
      </trkpt>
      <trkpt lat="50.30398006550968" lon="5.526063032448292">
        <ele>305.94</ele>
        <time>2025-02-13T17:06:06.717Z</time>
      </trkpt>
      <trkpt lat="50.303683849051595" lon="5.526226228103042">
        <ele>305.11</ele>
        <time>2025-02-13T17:06:14.673Z</time>
      </trkpt>
      <trkpt lat="50.30338763259351" lon="5.52638933993876">
        <ele>304.29</ele>
        <time>2025-02-13T17:06:22.634Z</time>
      </trkpt>
      <trkpt lat="50.30309200286865" lon="5.526552200317383">
        <ele>303.5</ele>
        <time>2025-02-13T17:06:30.600Z</time>
      </trkpt>
      <trkpt lat="50.30282369814813" lon="5.526664853096008">
        <ele>302.69</ele>
        <time>2025-02-13T17:06:38.571Z</time>
      </trkpt>
      <trkpt lat="50.30255539342761" lon="5.526777505874634">
        <ele>301.94</ele>
        <time>2025-02-13T17:06:46.546Z</time>
      </trkpt>
      <trkpt lat="50.30228708870709" lon="5.526890242472291">
        <ele>301.21</ele>
        <time>2025-02-13T17:06:54.526Z</time>
      </trkpt>
      <trkpt lat="50.30201878398657" lon="5.5270028952509165">
        <ele>300.54</ele>
        <time>2025-02-13T17:07:02.510Z</time>
      </trkpt>
      <trkpt lat="50.30175047926605" lon="5.527115548029542">
        <ele>299.87</ele>
        <time>2025-02-13T17:07:10.499Z</time>
      </trkpt>
      <trkpt lat="50.30148217454553" lon="5.527228284627199">
        <ele>299.21</ele>
        <time>2025-02-13T17:07:18.492Z</time>
      </trkpt>
      <trkpt lat="50.30121395364404" lon="5.527340937405825">
        <ele>298.59</ele>
        <time>2025-02-13T17:07:26.490Z</time>
      </trkpt>
      <trkpt lat="50.30094623565674" lon="5.527453422546387">
        <ele>297.99</ele>
        <time>2025-02-13T17:07:34.492Z</time>
      </trkpt>
      <trkpt lat="50.30086040496826" lon="5.527474880218506">
        <ele>297.46</ele>
        <time>2025-02-13T17:07:42.495Z</time>
      </trkpt>
      <trkpt lat="50.30058849602938" lon="5.527586946263909">
        <ele>296.96</ele>
        <time>2025-02-13T17:07:50.503Z</time>
      </trkpt>
      <trkpt lat="50.300316670909524" lon="5.527699012309313">
        <ele>296.51</ele>
        <time>2025-02-13T17:07:58.515Z</time>
      </trkpt>
      <trkpt lat="50.30004476197064" lon="5.527811078354716">
        <ele>296.05</ele>
        <time>2025-02-13T17:08:06.532Z</time>
      </trkpt>
      <trkpt lat="50.299772936850786" lon="5.5279232282191515">
        <ele>295.61</ele>
        <time>2025-02-13T17:08:14.553Z</time>
      </trkpt>
      <trkpt lat="50.2995010279119" lon="5.528035294264555">
        <ele>295.32</ele>
        <time>2025-02-13T17:08:22.579Z</time>
      </trkpt>
      <trkpt lat="50.29922920279205" lon="5.5281473603099585">
        <ele>295.07</ele>
        <time>2025-02-13T17:08:30.609Z</time>
      </trkpt>
      <trkpt lat="50.298957293853164" lon="5.528259426355362">
        <ele>294.83</ele>
        <time>2025-02-13T17:08:38.644Z</time>
      </trkpt>
      <trkpt lat="50.29868546873331" lon="5.528371576219797">
        <ele>294.59</ele>
        <time>2025-02-13T17:08:46.683Z</time>
      </trkpt>
      <trkpt lat="50.29841423034668" lon="5.5284833908081055">
        <ele>294.41</ele>
        <time>2025-02-13T17:08:54.727Z</time>
      </trkpt>
      <trkpt lat="50.2981888409704" lon="5.528601408004761">
        <ele>294.3</ele>
        <time>2025-02-13T17:09:02.775Z</time>
      </trkpt>
      <trkpt lat="50.29796361923218" lon="5.528719425201416">
        <ele>294.28</ele>
        <time>2025-02-13T17:09:10.827Z</time>
      </trkpt>
      <trkpt lat="50.297774942591786" lon="5.528869964182377">
        <ele>294.27</ele>
        <time>2025-02-13T17:09:18.882Z</time>
      </trkpt>
      <trkpt lat="50.297586265951395" lon="5.529020586982369">
        <ele>294.31</ele>
        <time>2025-02-13T17:09:26.940Z</time>
      </trkpt>
      <trkpt lat="50.29739800840616" lon="5.529170874506235">
        <ele>294.37</ele>
        <time>2025-02-13T17:09:35.002Z</time>
      </trkpt>
      <trkpt lat="50.297120148316026" lon="5.529392575845122">
        <ele>294.42</ele>
        <time>2025-02-13T17:09:43.069Z</time>
      </trkpt>
      <trkpt lat="50.29684228822589" lon="5.5296142771840096">
        <ele>294.55</ele>
        <time>2025-02-13T17:09:51.141Z</time>
      </trkpt>
      <trkpt lat="50.29656442813575" lon="5.5298360623419285">
        <ele>294.7</ele>
        <time>2025-02-13T17:09:59.218Z</time>
      </trkpt>
      <trkpt lat="50.296286568045616" lon="5.530057763680816">
        <ele>294.89</ele>
        <time>2025-02-13T17:10:07.300Z</time>
      </trkpt>
      <trkpt lat="50.29600879177451" lon="5.530279548838735">
        <ele>295.14</ele>
        <time>2025-02-13T17:10:15.387Z</time>
      </trkpt>
      <trkpt lat="50.29573202133179" lon="5.530500411987305">
        <ele>295.48</ele>
        <time>2025-02-13T17:10:23.479Z</time>
      </trkpt>
      <trkpt lat="50.29556019231677" lon="5.530682969838381">
        <ele>295.71</ele>
        <time>2025-02-13T17:10:31.574Z</time>
      </trkpt>
      <trkpt lat="50.29538869857788" lon="5.53086519241333">
        <ele>295.97</ele>
        <time>2025-02-13T17:10:39.672Z</time>
      </trkpt>
      <trkpt lat="50.29524897225201" lon="5.531069291755557">
        <ele>296.22</ele>
        <time>2025-02-13T17:10:47.773Z</time>
      </trkpt>
      <trkpt lat="50.29510974884033" lon="5.531272888183594">
        <ele>296.5</ele>
        <time>2025-02-13T17:10:55.877Z</time>
      </trkpt>
      <trkpt lat="50.29494848102331" lon="5.531638339161873">
        <ele>296.77</ele>
        <time>2025-02-13T17:11:03.986Z</time>
      </trkpt>
      <trkpt lat="50.29478729702532" lon="5.532003790140152">
        <ele>297.04</ele>
        <time>2025-02-13T17:11:12.100Z</time>
      </trkpt>
      <trkpt lat="50.2946260292083" lon="5.532369324937463">
        <ele>297.29</ele>
        <time>2025-02-13T17:11:20.218Z</time>
      </trkpt>
      <trkpt lat="50.29446610249579" lon="5.532732009887695">
        <ele>297.49</ele>
        <time>2025-02-13T17:11:28.341Z</time>
      </trkpt>
      <trkpt lat="50.29434783384204" lon="5.533011462539434">
        <ele>297.69</ele>
        <time>2025-02-13T17:11:36.467Z</time>
      </trkpt>
      <trkpt lat="50.29423006810248" lon="5.533289909362793">
        <ele>297.79</ele>
        <time>2025-02-13T17:11:44.596Z</time>
      </trkpt>
      <trkpt lat="50.29409025795758" lon="5.533687714487314">
        <ele>297.86</ele>
        <time>2025-02-13T17:11:52.730Z</time>
      </trkpt>
      <trkpt lat="50.29395111836493" lon="5.534083843231201">
        <ele>297.99</ele>
        <time>2025-02-13T17:12:00.869Z</time>
      </trkpt>
      <trkpt lat="50.29386503621936" lon="5.534466728568077">
        <ele>298.11</ele>
        <time>2025-02-13T17:12:09.012Z</time>
      </trkpt>
      <trkpt lat="50.29377895407379" lon="5.534849613904953">
        <ele>298.13</ele>
        <time>2025-02-13T17:12:17.159Z</time>
      </trkpt>
      <trkpt lat="50.29369295574725" lon="5.535232583060861">
        <ele>298.09</ele>
        <time>2025-02-13T17:12:25.310Z</time>
      </trkpt>
      <trkpt lat="50.293606873601675" lon="5.5356154683977365">
        <ele>297.96</ele>
        <time>2025-02-13T17:12:33.465Z</time>
      </trkpt>
      <trkpt lat="50.29352196492255" lon="5.535993576049805">
        <ele>297.77</ele>
        <time>2025-02-13T17:12:41.625Z</time>
      </trkpt>
      <trkpt lat="50.293478881940246" lon="5.536294737830758">
        <ele>297.54</ele>
        <time>2025-02-13T17:12:49.788Z</time>
      </trkpt>
      <trkpt lat="50.29343605041504" lon="5.536594390869141">
        <ele>297.3</ele>
        <time>2025-02-13T17:12:57.954Z</time>
      </trkpt>
      <trkpt lat="50.2934036962688" lon="5.536917094141245">
        <ele>296.97</ele>
        <time>2025-02-13T17:13:06.123Z</time>
      </trkpt>
      <trkpt lat="50.29337167739868" lon="5.537238121032715">
        <ele>296.61</ele>
        <time>2025-02-13T17:13:14.296Z</time>
      </trkpt>
      <trkpt lat="50.29337167739868" lon="5.5375500954687595">
        <ele>296.13</ele>
        <time>2025-02-13T17:13:22.472Z</time>
      </trkpt>
      <trkpt lat="50.29337167739868" lon="5.53786039352417">
        <ele>295.61</ele>
        <time>2025-02-13T17:13:30.651Z</time>
      </trkpt>
      <trkpt lat="50.29347913339734" lon="5.53767766803503">
        <ele>294.97</ele>
        <time>2025-02-13T17:13:38.832Z</time>
      </trkpt>
      <trkpt lat="50.29358625411987" lon="5.5374956130981445">
        <ele>294.3</ele>
        <time>2025-02-13T17:13:47.016Z</time>
      </trkpt>
      <trkpt lat="50.2938437461853" lon="5.537259578704834">
        <ele>293.54</ele>
        <time>2025-02-13T17:13:55.205Z</time>
      </trkpt>
      <trkpt lat="50.29407978057861" lon="5.537173748016357">
        <ele>292.86</ele>
        <time>2025-02-13T17:14:03.398Z</time>
      </trkpt>
      <trkpt lat="50.29426887631416" lon="5.537249436601996">
        <ele>292.77</ele>
        <time>2025-02-13T17:14:11.594Z</time>
      </trkpt>
      <trkpt lat="50.294294357299805" lon="5.537259578704834">
        <ele>292.08</ele>
        <time>2025-02-13T17:14:19.790Z</time>
      </trkpt>
      <trkpt lat="50.294508934020996" lon="5.537517070770264">
        <ele>291.2</ele>
        <time>2025-02-13T17:14:27.991Z</time>
      </trkpt>
      <trkpt lat="50.2947021368891" lon="5.537635087966919">
        <ele>290.33</ele>
        <time>2025-02-13T17:14:36.195Z</time>
      </trkpt>
      <trkpt lat="50.29489517211914" lon="5.537753105163574">
        <ele>289.42</ele>
        <time>2025-02-13T17:14:44.402Z</time>
      </trkpt>
      <trkpt lat="50.29515266418457" lon="5.537831727415323">
        <ele>288.43</ele>
        <time>2025-02-13T17:14:52.613Z</time>
      </trkpt>
      <trkpt lat="50.29541024006903" lon="5.537910433486104">
        <ele>287.36</ele>
        <time>2025-02-13T17:15:00.829Z</time>
      </trkpt>
      <trkpt lat="50.29566764831543" lon="5.537989139556885">
        <ele>286.22</ele>
        <time>2025-02-13T17:15:09.049Z</time>
      </trkpt>
      <trkpt lat="50.29593947343528" lon="5.538046304136515">
        <ele>285.07</ele>
        <time>2025-02-13T17:15:17.273Z</time>
      </trkpt>
      <trkpt lat="50.296211298555136" lon="5.538103552535176">
        <ele>283.93</ele>
        <time>2025-02-13T17:15:25.502Z</time>
      </trkpt>
      <trkpt lat="50.29648303985596" lon="5.538160800933838">
        <ele>282.8</ele>
        <time>2025-02-13T17:15:33.735Z</time>
      </trkpt>
      <trkpt lat="50.296761989593506" lon="5.538192987442017">
        <ele>281.68</ele>
        <time>2025-02-13T17:15:41.972Z</time>
      </trkpt>
      <trkpt lat="50.297041023150086" lon="5.538225173950195">
        <ele>280.49</ele>
        <time>2025-02-13T17:15:50.214Z</time>
      </trkpt>
      <trkpt lat="50.2972770575434" lon="5.538318129256368">
        <ele>279.34</ele>
        <time>2025-02-13T17:15:58.460Z</time>
      </trkpt>
      <trkpt lat="50.29751309193671" lon="5.538411168381572">
        <ele>278.24</ele>
        <time>2025-02-13T17:16:06.710Z</time>
      </trkpt>
      <trkpt lat="50.297749042510986" lon="5.538504123687744">
        <ele>277.19</ele>
        <time>2025-02-13T17:16:14.964Z</time>
      </trkpt>
      <trkpt lat="50.298049449920654" lon="5.538589954376221">
        <ele>276.06</ele>
        <time>2025-02-13T17:16:23.223Z</time>
      </trkpt>
      <trkpt lat="50.2983283996582" lon="5.538615686818957">
        <ele>275.05</ele>
        <time>2025-02-13T17:16:31.486Z</time>
      </trkpt>
      <trkpt lat="50.29860734939575" lon="5.538641419261694">
        <ele>274.07</ele>
        <time>2025-02-13T17:16:39.753Z</time>
      </trkpt>
      <trkpt lat="50.2988862991333" lon="5.538667151704431">
        <ele>273.19</ele>
        <time>2025-02-13T17:16:48.025Z</time>
      </trkpt>
      <trkpt lat="50.29916533268988" lon="5.538692884147167">
        <ele>272.35</ele>
        <time>2025-02-13T17:16:56.301Z</time>
      </trkpt>
      <trkpt lat="50.2994441986084" lon="5.5387187004089355">
        <ele>271.61</ele>
        <time>2025-02-13T17:17:04.582Z</time>
      </trkpt>
      <trkpt lat="50.29957294464111" lon="5.538589954376221">
        <ele>271.06</ele>
        <time>2025-02-13T17:17:12.865Z</time>
      </trkpt>
      <trkpt lat="50.29968023300171" lon="5.538396835327148">
        <ele>270.63</ele>
        <time>2025-02-13T17:17:21.151Z</time>
      </trkpt>
      <trkpt lat="50.29978768900037" lon="5.538095757365227">
        <ele>270.27</ele>
        <time>2025-02-13T17:17:29.441Z</time>
      </trkpt>
      <trkpt lat="50.2998948097229" lon="5.5377960205078125">
        <ele>270.06</ele>
        <time>2025-02-13T17:17:37.734Z</time>
      </trkpt>
      <trkpt lat="50.300045013427734" lon="5.53760290145874">
        <ele>269.95</ele>
        <time>2025-02-13T17:17:46.030Z</time>
      </trkpt>
      <trkpt lat="50.30021675862372" lon="5.537538528442383">
        <ele>269.94</ele>
        <time>2025-02-13T17:17:54.329Z</time>
      </trkpt>
      <trkpt lat="50.30040987767279" lon="5.537635087966919">
        <ele>270.13</ele>
        <time>2025-02-13T17:18:02.631Z</time>
      </trkpt>
      <trkpt lat="50.30060291290283" lon="5.537731647491455">
        <ele>270.36</ele>
        <time>2025-02-13T17:18:10.936Z</time>
      </trkpt>
      <trkpt lat="50.30085411854088" lon="5.537812700495124">
        <ele>270.68</ele>
        <time>2025-02-13T17:18:19.246Z</time>
      </trkpt>
      <trkpt lat="50.30106106773019" lon="5.537879420444369">
        <ele>270.96</ele>
        <time>2025-02-13T17:18:27.559Z</time>
      </trkpt>
      <trkpt lat="50.301268100738525" lon="5.5379462242126465">
        <ele>271.23</ele>
        <time>2025-02-13T17:18:35.875Z</time>
      </trkpt>
      <trkpt lat="50.30139684677124" lon="5.538032054901123">
        <ele>271.51</ele>
        <time>2025-02-13T17:18:44.194Z</time>
      </trkpt>
      <trkpt lat="50.301504135131836" lon="5.538160800933838">
        <ele>271.76</ele>
        <time>2025-02-13T17:18:52.515Z</time>
      </trkpt>
      <trkpt lat="50.301633048802614" lon="5.538375629112124">
        <ele>271.96</ele>
        <time>2025-02-13T17:19:00.839Z</time>
      </trkpt>
      <trkpt lat="50.301761627197266" lon="5.538589954376221">
        <ele>272.25</ele>
        <time>2025-02-13T17:19:09.166Z</time>
      </trkpt>
      <trkpt lat="50.30184745788574" lon="5.538697242736816">
        <ele>272.62</ele>
        <time>2025-02-13T17:19:17.495Z</time>
      </trkpt>
      <trkpt lat="50.30197620391846" lon="5.538740158081055">
        <ele>273.09</ele>
        <time>2025-02-13T17:19:25.826Z</time>
      </trkpt>
      <trkpt lat="50.30222648754716" lon="5.538783073425293">
        <ele>273.63</ele>
        <time>2025-02-13T17:19:34.161Z</time>
      </trkpt>
      <trkpt lat="50.30247685499489" lon="5.538825988769531">
        <ele>274.16</ele>
        <time>2025-02-13T17:19:42.500Z</time>
      </trkpt>
      <trkpt lat="50.30272722244263" lon="5.5388689041137695">
        <ele>274.6</ele>
        <time>2025-02-13T17:19:50.843Z</time>
      </trkpt>
      <trkpt lat="50.30298471450806" lon="5.538965463638306">
        <ele>274.91</ele>
        <time>2025-02-13T17:19:59.190Z</time>
      </trkpt>
      <trkpt lat="50.303242206573486" lon="5.539062023162842">
        <ele>275.26</ele>
        <time>2025-02-13T17:20:07.541Z</time>
      </trkpt>
      <trkpt lat="50.30351403169334" lon="5.539212226867676">
        <ele>275.51</ele>
        <time>2025-02-13T17:20:15.897Z</time>
      </trkpt>
      <trkpt lat="50.303785940632224" lon="5.5393625143915415">
        <ele>275.76</ele>
        <time>2025-02-13T17:20:24.257Z</time>
      </trkpt>
      <trkpt lat="50.304057598114014" lon="5.539512634277344">
        <ele>276.06</ele>
        <time>2025-02-13T17:20:32.622Z</time>
      </trkpt>
      <trkpt lat="50.30422925949097" lon="5.539534091949463">
        <ele>276.38</ele>
        <time>2025-02-13T17:20:40.990Z</time>
      </trkpt>
      <trkpt lat="50.30440092086792" lon="5.539555549621582">
        <ele>276.65</ele>
        <time>2025-02-13T17:20:49.361Z</time>
      </trkpt>
      <trkpt lat="50.30440100468695" lon="5.539555549621582">
        <ele>276.81</ele>
        <time>2025-02-13T17:20:57.732Z</time>
      </trkpt>
      <trkpt lat="50.30448683537543" lon="5.5396199226379395">
        <ele>276.93</ele>
        <time>2025-02-13T17:21:06.104Z</time>
      </trkpt>
      <trkpt lat="50.30470132827759" lon="5.539748668670654">
        <ele>277.0</ele>
        <time>2025-02-13T17:21:14.480Z</time>
      </trkpt>
      <trkpt lat="50.30491598881781" lon="5.539941871538758">
        <ele>276.93</ele>
        <time>2025-02-13T17:21:22.860Z</time>
      </trkpt>
      <trkpt lat="50.30513048171997" lon="5.540134906768799">
        <ele>276.85</ele>
        <time>2025-02-13T17:21:31.244Z</time>
      </trkpt>
      <trkpt lat="50.3053380176425" lon="5.540263652801514">
        <ele>276.81</ele>
        <time>2025-02-13T17:21:39.631Z</time>
      </trkpt>
      <trkpt lat="50.305545553565025" lon="5.54039248265326">
        <ele>276.73</ele>
        <time>2025-02-13T17:21:48.022Z</time>
      </trkpt>
      <trkpt lat="50.30575283803046" lon="5.540521144866943">
        <ele>276.66</ele>
        <time>2025-02-13T17:21:56.416Z</time>
      </trkpt>
      <trkpt lat="50.30597831122577" lon="5.540725076571107">
        <ele>276.29</ele>
        <time>2025-02-13T17:22:04.815Z</time>
      </trkpt>
      <trkpt lat="50.30620344914496" lon="5.540928840637207">
        <ele>275.76</ele>
        <time>2025-02-13T17:22:13.218Z</time>
      </trkpt>
      <trkpt lat="50.30626782216132" lon="5.5409932136535645">
        <ele>275.31</ele>
        <time>2025-02-13T17:22:21.622Z</time>
      </trkpt>
      <trkpt lat="50.30651626177132" lon="5.541226314380765">
        <ele>274.82</ele>
        <time>2025-02-13T17:22:30.031Z</time>
      </trkpt>
      <trkpt lat="50.30676478520036" lon="5.541459498926997">
        <ele>274.33</ele>
        <time>2025-02-13T17:22:38.444Z</time>
      </trkpt>
      <trkpt lat="50.30701322481036" lon="5.541692599654198">
        <ele>273.73</ele>
        <time>2025-02-13T17:22:46.862Z</time>
      </trkpt>
      <trkpt lat="50.3072617482394" lon="5.54192578420043">
        <ele>273.13</ele>
        <time>2025-02-13T17:22:55.285Z</time>
      </trkpt>
      <trkpt lat="50.3075101878494" lon="5.54215888492763">
        <ele>272.51</ele>
        <time>2025-02-13T17:23:03.712Z</time>
      </trkpt>
      <trkpt lat="50.30775871127844" lon="5.542392069473863">
        <ele>271.89</ele>
        <time>2025-02-13T17:23:12.144Z</time>
      </trkpt>
      <trkpt lat="50.308005809783936" lon="5.542623996734619">
        <ele>271.14</ele>
        <time>2025-02-13T17:23:20.581Z</time>
      </trkpt>
      <trkpt lat="50.30825802125037" lon="5.542801106348634">
        <ele>270.46</ele>
        <time>2025-02-13T17:23:29.022Z</time>
      </trkpt>
      <trkpt lat="50.30851031653583" lon="5.542978215962648">
        <ele>269.69</ele>
        <time>2025-02-13T17:23:37.467Z</time>
      </trkpt>
      <trkpt lat="50.30876252800226" lon="5.543155325576663">
        <ele>268.9</ele>
        <time>2025-02-13T17:23:45.917Z</time>
      </trkpt>
      <trkpt lat="50.309014320373535" lon="5.543332099914551">
        <ele>268.07</ele>
        <time>2025-02-13T17:23:54.371Z</time>
      </trkpt>
      <trkpt lat="50.30925052240491" lon="5.5435736663639545">
        <ele>267.15</ele>
        <time>2025-02-13T17:24:02.830Z</time>
      </trkpt>
      <trkpt lat="50.309486808255315" lon="5.54381531663239">
        <ele>266.21</ele>
        <time>2025-02-13T17:24:11.293Z</time>
      </trkpt>
      <trkpt lat="50.30972301028669" lon="5.544056883081794">
        <ele>265.3</ele>
        <time>2025-02-13T17:24:19.761Z</time>
      </trkpt>
      <trkpt lat="50.30995845794678" lon="5.544297695159912">
        <ele>264.41</ele>
        <time>2025-02-13T17:24:28.233Z</time>
      </trkpt>
      <trkpt lat="50.310167921707034" lon="5.544587709009647">
        <ele>263.45</ele>
        <time>2025-02-13T17:24:36.710Z</time>
      </trkpt>
      <trkpt lat="50.31037738546729" lon="5.544877722859383">
        <ele>262.47</ele>
        <time>2025-02-13T17:24:45.191Z</time>
      </trkpt>
      <trkpt lat="50.31058684922755" lon="5.54516782052815">
        <ele>261.47</ele>
        <time>2025-02-13T17:24:53.677Z</time>
      </trkpt>
      <trkpt lat="50.310795307159424" lon="5.545456409454346">
        <ele>260.44</ele>
        <time>2025-02-13T17:25:02.167Z</time>
      </trkpt>
      <trkpt lat="50.31099588610232" lon="5.545828901231289">
        <ele>259.31</ele>
        <time>2025-02-13T17:25:10.662Z</time>
      </trkpt>
      <trkpt lat="50.311196465045214" lon="5.546201476827264">
        <ele>258.33</ele>
        <time>2025-02-13T17:25:19.162Z</time>
      </trkpt>
      <trkpt lat="50.31139612197876" lon="5.546572208404541">
        <ele>257.53</ele>
        <time>2025-02-13T17:25:27.667Z</time>
      </trkpt>
      <trkpt lat="50.31158949248493" lon="5.546894492581487">
        <ele>256.74</ele>
        <time>2025-02-13T17:25:36.177Z</time>
      </trkpt>
      <trkpt lat="50.311782360076904" lon="5.547215938568115">
        <ele>255.92</ele>
        <time>2025-02-13T17:25:44.691Z</time>
      </trkpt>
      <trkpt lat="50.31201143749058" lon="5.5475094728171825">
        <ele>255.16</ele>
        <time>2025-02-13T17:25:53.210Z</time>
      </trkpt>
      <trkpt lat="50.31224059872329" lon="5.547803090885282">
        <ele>254.39</ele>
        <time>2025-02-13T17:26:01.734Z</time>
      </trkpt>
      <trkpt lat="50.31246900558472" lon="5.548095703125">
        <ele>253.57</ele>
        <time>2025-02-13T17:26:10.262Z</time>
      </trkpt>
      <trkpt lat="50.31255500391126" lon="5.54831069894135">
        <ele>252.68</ele>
        <time>2025-02-13T17:26:18.793Z</time>
      </trkpt>
      <trkpt lat="50.31264066696167" lon="5.548524856567383">
        <ele>251.83</ele>
        <time>2025-02-13T17:26:27.327Z</time>
      </trkpt>
      <trkpt lat="50.31266757287085" lon="5.54899281822145">
        <ele>250.94</ele>
        <time>2025-02-13T17:26:35.865Z</time>
      </trkpt>
      <trkpt lat="50.31269447878003" lon="5.549460863694549">
        <ele>250.14</ele>
        <time>2025-02-13T17:26:44.408Z</time>
      </trkpt>
      <trkpt lat="50.31272138468921" lon="5.549928825348616">
        <ele>249.3</ele>
        <time>2025-02-13T17:26:52.956Z</time>
      </trkpt>
      <trkpt lat="50.3127480391413" lon="5.550391674041748">
        <ele>248.33</ele>
        <time>2025-02-13T17:27:01.509Z</time>
      </trkpt>
      <trkpt lat="50.31283378601074" lon="5.550756454467773">
        <ele>247.57</ele>
        <time>2025-02-13T17:27:10.066Z</time>
      </trkpt>
      <trkpt lat="50.31296253204346" lon="5.551142692565918">
        <ele>246.89</ele>
        <time>2025-02-13T17:27:18.627Z</time>
      </trkpt>
      <trkpt lat="50.313166631385684" lon="5.551481153815985">
        <ele>246.18</ele>
        <time>2025-02-13T17:27:27.193Z</time>
      </trkpt>
      <trkpt lat="50.31337081454694" lon="5.5518196150660515">
        <ele>245.46</ele>
        <time>2025-02-13T17:27:35.764Z</time>
      </trkpt>
      <trkpt lat="50.3135749977082" lon="5.552158076316118">
        <ele>244.79</ele>
        <time>2025-02-13T17:27:44.340Z</time>
      </trkpt>
      <trkpt lat="50.313777923583984" lon="5.552494525909424">
        <ele>244.11</ele>
        <time>2025-02-13T17:27:52.920Z</time>
      </trkpt>
      <trkpt lat="50.31394983641803" lon="5.552849164232612">
        <ele>243.47</ele>
        <time>2025-02-13T17:28:01.505Z</time>
      </trkpt>
      <trkpt lat="50.31412124633789" lon="5.5532026290893555">
        <ele>242.81</ele>
        <time>2025-02-13T17:28:10.095Z</time>
      </trkpt>
      <trkpt lat="50.314264576882124" lon="5.553546622395515">
        <ele>242.29</ele>
        <time>2025-02-13T17:28:18.689Z</time>
      </trkpt>
      <trkpt lat="50.31440790742636" lon="5.553890615701675">
        <ele>241.73</ele>
        <time>2025-02-13T17:28:27.287Z</time>
      </trkpt>
      <trkpt lat="50.31455039978027" lon="5.554232597351074">
        <ele>241.09</ele>
        <time>2025-02-13T17:28:35.889Z</time>
      </trkpt>
      <trkpt lat="50.31466858461499" lon="5.554436696693301">
        <ele>240.44</ele>
        <time>2025-02-13T17:28:44.494Z</time>
      </trkpt>
      <trkpt lat="50.314786434173584" lon="5.554640293121338">
        <ele>239.79</ele>
        <time>2025-02-13T17:28:53.102Z</time>
      </trkpt>
      <trkpt lat="50.31493663787842" lon="5.554811954498291">
        <ele>239.16</ele>
        <time>2025-02-13T17:29:01.713Z</time>
      </trkpt>
      <trkpt lat="50.31519412994385" lon="5.555026531219482">
        <ele>238.39</ele>
        <time>2025-02-13T17:29:10.328Z</time>
      </trkpt>
      <trkpt lat="50.31540158204734" lon="5.555083695799112">
        <ele>237.68</ele>
        <time>2025-02-13T17:29:18.947Z</time>
      </trkpt>
      <trkpt lat="50.31560903415084" lon="5.555140944197774">
        <ele>237.0</ele>
        <time>2025-02-13T17:29:27.569Z</time>
      </trkpt>
      <trkpt lat="50.3158164024353" lon="5.5551981925964355">
        <ele>236.34</ele>
        <time>2025-02-13T17:29:36.195Z</time>
      </trkpt>
      <trkpt lat="50.31598814763129" lon="5.555294752120972">
        <ele>235.56</ele>
        <time>2025-02-13T17:29:44.823Z</time>
      </trkpt>
      <trkpt lat="50.31615980900824" lon="5.555391311645508">
        <ele>234.82</ele>
        <time>2025-02-13T17:29:53.454Z</time>
      </trkpt>
      <trkpt lat="50.3162241820246" lon="5.555434226989746">
        <ele>234.18</ele>
        <time>2025-02-13T17:30:02.086Z</time>
      </trkpt>
      <trkpt lat="50.31639575958252" lon="5.5556488037109375">
        <ele>233.46</ele>
        <time>2025-02-13T17:30:10.722Z</time>
      </trkpt>
      <trkpt lat="50.316524505615234" lon="5.555884838104248">
        <ele>232.87</ele>
        <time>2025-02-13T17:30:19.361Z</time>
      </trkpt>
      <trkpt lat="50.31666062772274" lon="5.556185748428106">
        <ele>232.29</ele>
        <time>2025-02-13T17:30:28.004Z</time>
      </trkpt>
      <trkpt lat="50.316796749830246" lon="5.556486742570996">
        <ele>231.78</ele>
        <time>2025-02-13T17:30:36.651Z</time>
      </trkpt>
      <trkpt lat="50.3169322013855" lon="5.556786060333252">
        <ele>231.32</ele>
        <time>2025-02-13T17:30:45.302Z</time>
      </trkpt>
      <trkpt lat="50.31709698960185" lon="5.557151511311531">
        <ele>231.04</ele>
        <time>2025-02-13T17:30:53.957Z</time>
      </trkpt>
      <trkpt lat="50.317261861637235" lon="5.55751696228981">
        <ele>230.78</ele>
        <time>2025-02-13T17:31:02.617Z</time>
      </trkpt>
      <trkpt lat="50.31742581166327" lon="5.557880401611328">
        <ele>230.57</ele>
        <time>2025-02-13T17:31:11.281Z</time>
      </trkpt>
      <trkpt lat="50.31754399649799" lon="5.558084500953555">
        <ele>230.39</ele>
        <time>2025-02-13T17:31:19.948Z</time>
      </trkpt>
      <trkpt lat="50.31766184605658" lon="5.558288097381592">
        <ele>230.27</ele>
        <time>2025-02-13T17:31:28.618Z</time>
      </trkpt>
      <trkpt lat="50.31786954961717" lon="5.558646256104112">
        <ele>230.16</ele>
        <time>2025-02-13T17:31:37.293Z</time>
      </trkpt>
      <trkpt lat="50.318077336996794" lon="5.5590044148266315">
        <ele>230.01</ele>
        <time>2025-02-13T17:31:45.973Z</time>
      </trkpt>
      <trkpt lat="50.318284118548036" lon="5.559360980987549">
        <ele>229.89</ele>
        <time>2025-02-13T17:31:54.658Z</time>
      </trkpt>
      <trkpt lat="50.31845577992499" lon="5.559661388397217">
        <ele>229.82</ele>
        <time>2025-02-13T17:32:03.347Z</time>
      </trkpt>
      <trkpt lat="50.318481009453535" lon="5.559712015092373">
        <ele>229.45</ele>
        <time>2025-02-13T17:32:12.037Z</time>
      </trkpt>
      <trkpt lat="50.318650994449854" lon="5.560052068904042">
        <ele>229.52</ele>
        <time>2025-02-13T17:32:20.731Z</time>
      </trkpt>
      <trkpt lat="50.31882047653198" lon="5.560390949249268">
        <ele>229.96</ele>
        <time>2025-02-13T17:32:29.429Z</time>
      </trkpt>
      <trkpt lat="50.318820560351014" lon="5.560390949249268">
        <ele>230.01</ele>
        <time>2025-02-13T17:32:38.127Z</time>
      </trkpt>
      <trkpt lat="50.31897529028356" lon="5.560752125456929">
        <ele>230.08</ele>
        <time>2025-02-13T17:32:46.830Z</time>
      </trkpt>
      <trkpt lat="50.31913010403514" lon="5.561113301664591">
        <ele>230.05</ele>
        <time>2025-02-13T17:32:55.537Z</time>
      </trkpt>
      <trkpt lat="50.319284833967686" lon="5.5614744778722525">
        <ele>230.17</ele>
        <time>2025-02-13T17:33:04.249Z</time>
      </trkpt>
      <trkpt lat="50.319439647719264" lon="5.561835654079914">
        <ele>230.33</ele>
        <time>2025-02-13T17:33:12.965Z</time>
      </trkpt>
      <trkpt lat="50.31959295272827" lon="5.562193393707275">
        <ele>230.57</ele>
        <time>2025-02-13T17:33:21.686Z</time>
      </trkpt>
      <trkpt lat="50.31970049254596" lon="5.562571920454502">
        <ele>230.68</ele>
        <time>2025-02-13T17:33:30.411Z</time>
      </trkpt>
      <trkpt lat="50.31980803236365" lon="5.562950447201729">
        <ele>230.63</ele>
        <time>2025-02-13T17:33:39.140Z</time>
      </trkpt>
      <trkpt lat="50.319915572181344" lon="5.5633289739489555">
        <ele>230.54</ele>
        <time>2025-02-13T17:33:47.873Z</time>
      </trkpt>
      <trkpt lat="50.320023111999035" lon="5.563707584515214">
        <ele>230.54</ele>
        <time>2025-02-13T17:33:56.611Z</time>
      </trkpt>
      <trkpt lat="50.32012939453125" lon="5.56408166885376">
        <ele>230.5</ele>
        <time>2025-02-13T17:34:05.353Z</time>
      </trkpt>
      <trkpt lat="50.320258140563965" lon="5.564446449279785">
        <ele>230.35</ele>
        <time>2025-02-13T17:34:14.099Z</time>
      </trkpt>
      <trkpt lat="50.32037992961705" lon="5.564754568040371">
        <ele>230.14</ele>
        <time>2025-02-13T17:34:22.849Z</time>
      </trkpt>
      <trkpt lat="50.32050180248916" lon="5.565062770619988">
        <ele>229.75</ele>
        <time>2025-02-13T17:34:31.602Z</time>
      </trkpt>
      <trkpt lat="50.32062292098999" lon="5.565369129180908">
        <ele>229.36</ele>
        <time>2025-02-13T17:34:40.359Z</time>
      </trkpt>
      <trkpt lat="50.32074957154691" lon="5.565770538523793">
        <ele>228.74</ele>
        <time>2025-02-13T17:34:49.121Z</time>
      </trkpt>
      <trkpt lat="50.320876222103834" lon="5.566171947866678">
        <ele>227.91</ele>
        <time>2025-02-13T17:34:57.887Z</time>
      </trkpt>
      <trkpt lat="50.321002872660756" lon="5.566573441028595">
        <ele>227.15</ele>
        <time>2025-02-13T17:35:06.658Z</time>
      </trkpt>
      <trkpt lat="50.32112952321768" lon="5.56697485037148">
        <ele>226.55</ele>
        <time>2025-02-13T17:35:15.434Z</time>
      </trkpt>
      <trkpt lat="50.3212561737746" lon="5.567376343533397">
        <ele>225.84</ele>
        <time>2025-02-13T17:35:24.214Z</time>
      </trkpt>
      <trkpt lat="50.32138282433152" lon="5.567777752876282">
        <ele>225.03</ele>
        <time>2025-02-13T17:35:32.999Z</time>
      </trkpt>
      <trkpt lat="50.321509474888444" lon="5.5681792460381985">
        <ele>224.24</ele>
        <time>2025-02-13T17:35:41.788Z</time>
      </trkpt>
      <trkpt lat="50.321636125445366" lon="5.568580739200115">
        <ele>223.53</ele>
        <time>2025-02-13T17:35:50.582Z</time>
      </trkpt>
      <trkpt lat="50.321760177612305" lon="5.568974018096924">
        <ele>222.8</ele>
        <time>2025-02-13T17:35:59.380Z</time>
      </trkpt>
      <trkpt lat="50.32191038131714" lon="5.5693817138671875">
        <ele>222.05</ele>
        <time>2025-02-13T17:36:08.183Z</time>
      </trkpt>
      <trkpt lat="50.321996212005615" lon="5.569553375244141">
        <ele>221.31</ele>
        <time>2025-02-13T17:36:16.988Z</time>
      </trkpt>
      <trkpt lat="50.32217516563833" lon="5.5697681196033955">
        <ele>220.58</ele>
        <time>2025-02-13T17:36:25.797Z</time>
      </trkpt>
      <trkpt lat="50.32235420309007" lon="5.569982947781682">
        <ele>219.92</ele>
        <time>2025-02-13T17:36:34.610Z</time>
      </trkpt>
      <trkpt lat="50.322532653808594" lon="5.570197105407715">
        <ele>219.28</ele>
        <time>2025-02-13T17:36:43.426Z</time>
      </trkpt>
      <trkpt lat="50.32274739816785" lon="5.570433307439089">
        <ele>218.6</ele>
        <time>2025-02-13T17:36:52.246Z</time>
      </trkpt>
      <trkpt lat="50.322962226346135" lon="5.5706695932894945">
        <ele>217.99</ele>
        <time>2025-02-13T17:37:01.071Z</time>
      </trkpt>
      <trkpt lat="50.32317638397217" lon="5.5709052085876465">
        <ele>217.37</ele>
        <time>2025-02-13T17:37:09.900Z</time>
      </trkpt>
      <trkpt lat="50.323262214660645" lon="5.571033954620361">
        <ele>216.79</ele>
        <time>2025-02-13T17:37:18.731Z</time>
      </trkpt>
      <trkpt lat="50.323283672332764" lon="5.571227073669434">
        <ele>216.24</ele>
        <time>2025-02-13T17:37:27.564Z</time>
      </trkpt>
      <trkpt lat="50.323262214660645" lon="5.571420192718506">
        <ele>215.7</ele>
        <time>2025-02-13T17:37:36.399Z</time>
      </trkpt>
      <trkpt lat="50.323100946843624" lon="5.571785643696785">
        <ele>215.19</ele>
        <time>2025-02-13T17:37:45.238Z</time>
      </trkpt>
      <trkpt lat="50.32294034957886" lon="5.572149753570557">
        <ele>214.77</ele>
        <time>2025-02-13T17:37:54.082Z</time>
      </trkpt>
      <trkpt lat="50.32285451889038" lon="5.572514533996582">
        <ele>214.35</ele>
        <time>2025-02-13T17:38:02.930Z</time>
      </trkpt>
      <trkpt lat="50.322768688201904" lon="5.572943687438965">
        <ele>213.97</ele>
        <time>2025-02-13T17:38:11.782Z</time>
      </trkpt>
      <trkpt lat="50.32270439900458" lon="5.573158264160156">
        <ele>213.64</ele>
        <time>2025-02-13T17:38:20.637Z</time>
      </trkpt>
      <trkpt lat="50.32264002598822" lon="5.573458671569824">
        <ele>213.36</ele>
        <time>2025-02-13T17:38:29.495Z</time>
      </trkpt>
      <trkpt lat="50.3226185683161" lon="5.57382345199585">
        <ele>213.15</ele>
        <time>2025-02-13T17:38:38.357Z</time>
      </trkpt>
      <trkpt lat="50.32263994216919" lon="5.573973655700684">
        <ele>212.95</ele>
        <time>2025-02-13T17:38:47.221Z</time>
      </trkpt>
      <trkpt lat="50.32278318889439" lon="5.574245899915695">
        <ele>212.74</ele>
        <time>2025-02-13T17:38:56.088Z</time>
      </trkpt>
      <trkpt lat="50.322926519438624" lon="5.574518144130707">
        <ele>212.53</ele>
        <time>2025-02-13T17:39:04.959Z</time>
      </trkpt>
      <trkpt lat="50.32306909561157" lon="5.574789047241211">
        <ele>212.3</ele>
        <time>2025-02-13T17:39:13.833Z</time>
      </trkpt>
      <trkpt lat="50.32331611029804" lon="5.575089706107974">
        <ele>212.04</ele>
        <time>2025-02-13T17:39:22.712Z</time>
      </trkpt>
      <trkpt lat="50.323562705889344" lon="5.575389862060547">
        <ele>211.86</ele>
        <time>2025-02-13T17:39:31.596Z</time>
      </trkpt>
      <trkpt lat="50.32371282577515" lon="5.575604438781738">
        <ele>211.74</ele>
        <time>2025-02-13T17:39:40.484Z</time>
      </trkpt>
      <trkpt lat="50.323831010609865" lon="5.5758623499423265">
        <ele>211.65</ele>
        <time>2025-02-13T17:39:49.375Z</time>
      </trkpt>
      <trkpt lat="50.32394886016846" lon="5.576119422912598">
        <ele>211.59</ele>
        <time>2025-02-13T17:39:58.269Z</time>
      </trkpt>
      <trkpt lat="50.32411725260317" lon="5.576520748436451">
        <ele>211.52</ele>
        <time>2025-02-13T17:40:07.168Z</time>
      </trkpt>
      <trkpt lat="50.32428564503789" lon="5.576922073960304">
        <ele>211.46</ele>
        <time>2025-02-13T17:40:16.072Z</time>
      </trkpt>
      <trkpt lat="50.32445412129164" lon="5.577323399484158">
        <ele>211.4</ele>
        <time>2025-02-13T17:40:24.981Z</time>
      </trkpt>
      <trkpt lat="50.324622513726354" lon="5.577724725008011">
        <ele>211.36</ele>
        <time>2025-02-13T17:40:33.895Z</time>
      </trkpt>
      <trkpt lat="50.32479090616107" lon="5.578126050531864">
        <ele>211.35</ele>
        <time>2025-02-13T17:40:42.814Z</time>
      </trkpt>
      <trkpt lat="50.32495737075806" lon="5.578522682189941">
        <ele>211.3</ele>
        <time>2025-02-13T17:40:51.738Z</time>
      </trkpt>
      <trkpt lat="50.325075555592775" lon="5.578812947496772">
        <ele>211.3</ele>
        <time>2025-02-13T17:41:00.665Z</time>
      </trkpt>
      <trkpt lat="50.32519340515137" lon="5.579102039337158">
        <ele>211.26</ele>
        <time>2025-02-13T17:41:09.596Z</time>
      </trkpt>
      <trkpt lat="50.325311589986086" lon="5.579327680170536">
        <ele>211.23</ele>
        <time>2025-02-13T17:41:18.530Z</time>
      </trkpt>
      <trkpt lat="50.32542943954468" lon="5.57955265045166">
        <ele>211.2</ele>
        <time>2025-02-13T17:41:27.467Z</time>
      </trkpt>
      <trkpt lat="50.325654996559024" lon="5.579842664301395">
        <ele>211.16</ele>
        <time>2025-02-13T17:41:36.408Z</time>
      </trkpt>
      <trkpt lat="50.32588013447821" lon="5.580132007598877">
        <ele>211.15</ele>
        <time>2025-02-13T17:41:45.354Z</time>
      </trkpt>
      <trkpt lat="50.3260947111994" lon="5.580325126647949">
        <ele>211.11</ele>
        <time>2025-02-13T17:41:54.304Z</time>
      </trkpt>
      <trkpt lat="50.32618045806885" lon="5.580410957336426">
        <ele>211.07</ele>
        <time>2025-02-13T17:42:03.256Z</time>
      </trkpt>
      <trkpt lat="50.32643384300172" lon="5.580668617039919">
        <ele>211.05</ele>
        <time>2025-02-13T17:42:12.212Z</time>
      </trkpt>
      <trkpt lat="50.32668731175363" lon="5.580926360562444">
        <ele>210.98</ele>
        <time>2025-02-13T17:42:21.173Z</time>
      </trkpt>
      <trkpt lat="50.326940696686506" lon="5.581184104084969">
        <ele>210.91</ele>
        <time>2025-02-13T17:42:30.139Z</time>
      </trkpt>
      <trkpt lat="50.327194165438414" lon="5.581441763788462">
        <ele>210.86</ele>
        <time>2025-02-13T17:42:39.110Z</time>
      </trkpt>
      <trkpt lat="50.32744646072388" lon="5.581698417663574">
        <ele>210.72</ele>
        <time>2025-02-13T17:42:48.086Z</time>
      </trkpt>
      <trkpt lat="50.32759666442871" lon="5.581912994384766">
        <ele>210.43</ele>
        <time>2025-02-13T17:42:57.065Z</time>
      </trkpt>
      <trkpt lat="50.327746868133545" lon="5.582277774810791">
        <ele>210.04</ele>
        <time>2025-02-13T17:43:06.048Z</time>
      </trkpt>
      <trkpt lat="50.32783269882202" lon="5.582706928253174">
        <ele>209.66</ele>
        <time>2025-02-13T17:43:15.036Z</time>
      </trkpt>
      <trkpt lat="50.32787561416626" lon="5.583136081695557">
        <ele>209.32</ele>
        <time>2025-02-13T17:43:24.029Z</time>
      </trkpt>
      <trkpt lat="50.32786480151117" lon="5.583501867949963">
        <ele>208.95</ele>
        <time>2025-02-13T17:43:33.025Z</time>
      </trkpt>
      <trkpt lat="50.32785415649414" lon="5.583865642547607">
        <ele>208.58</ele>
        <time>2025-02-13T17:43:42.025Z</time>
      </trkpt>
      <trkpt lat="50.32789707183838" lon="5.584144592285156">
        <ele>208.22</ele>
        <time>2025-02-13T17:43:51.028Z</time>
      </trkpt>
      <trkpt lat="50.32802606932819" lon="5.584477856755257">
        <ele>207.84</ele>
        <time>2025-02-13T17:44:00.035Z</time>
      </trkpt>
      <trkpt lat="50.328155066818" lon="5.584811121225357">
        <ele>207.42</ele>
        <time>2025-02-13T17:44:09.046Z</time>
      </trkpt>
      <trkpt lat="50.32828406430781" lon="5.5851443856954575">
        <ele>207.01</ele>
        <time>2025-02-13T17:44:18.061Z</time>
      </trkpt>
      <trkpt lat="50.32841205596924" lon="5.585474967956543">
        <ele>206.66</ele>
        <time>2025-02-13T17:44:27.080Z</time>
      </trkpt>
      <trkpt lat="50.32847659662366" lon="5.585819128900766">
        <ele>206.25</ele>
        <time>2025-02-13T17:44:36.103Z</time>
      </trkpt>
      <trkpt lat="50.32854113727808" lon="5.5861633736640215">
        <ele>205.87</ele>
        <time>2025-02-13T17:44:45.129Z</time>
      </trkpt>
      <trkpt lat="50.32860517501831" lon="5.586504936218262">
        <ele>205.49</ele>
        <time>2025-02-13T17:44:54.159Z</time>
      </trkpt>
      <trkpt lat="50.328776836395264" lon="5.586826801300049">
        <ele>205.11</ele>
        <time>2025-02-13T17:45:03.193Z</time>
      </trkpt>
      <trkpt lat="50.32894849777222" lon="5.587019920349121">
        <ele>204.73</ele>
        <time>2025-02-13T17:45:12.231Z</time>
      </trkpt>
      <trkpt lat="50.32916307449341" lon="5.587213039398193">
        <ele>204.35</ele>
        <time>2025-02-13T17:45:21.273Z</time>
      </trkpt>
      <trkpt lat="50.329248905181885" lon="5.5872344970703125">
        <ele>203.98</ele>
        <time>2025-02-13T17:45:30.316Z</time>
      </trkpt>
      <trkpt lat="50.32940983772278" lon="5.587202226743102">
        <ele>203.62</ele>
        <time>2025-02-13T17:45:39.362Z</time>
      </trkpt>
      <trkpt lat="50.32957077026367" lon="5.587170124053955">
        <ele>203.23</ele>
        <time>2025-02-13T17:45:48.410Z</time>
      </trkpt>
      <trkpt lat="50.32981753349304" lon="5.587213039398193">
        <ele>202.82</ele>
        <time>2025-02-13T17:45:57.462Z</time>
      </trkpt>
      <trkpt lat="50.33006429672241" lon="5.587255954742432">
        <ele>202.43</ele>
        <time>2025-02-13T17:46:06.518Z</time>
      </trkpt>
      <trkpt lat="50.3302859980613" lon="5.587255954742432">
        <ele>202.05</ele>
        <time>2025-02-13T17:46:15.578Z</time>
      </trkpt>
      <trkpt lat="50.33050778321922" lon="5.587255954742432">
        <ele>201.71</ele>
        <time>2025-02-13T17:46:24.641Z</time>
      </trkpt>
      <trkpt lat="50.330729484558105" lon="5.587255954742432">
        <ele>201.38</ele>
        <time>2025-02-13T17:46:33.708Z</time>
      </trkpt>
      <trkpt lat="50.3309440612793" lon="5.5873095989227295">
        <ele>201.07</ele>
        <time>2025-02-13T17:46:42.778Z</time>
      </trkpt>
      <trkpt lat="50.33115863800049" lon="5.587363243103027">
        <ele>200.79</ele>
        <time>2025-02-13T17:46:51.852Z</time>
      </trkpt>
      <trkpt lat="50.33138201572001" lon="5.587474890053272">
        <ele>200.68</ele>
        <time>2025-02-13T17:47:00.929Z</time>
      </trkpt>
      <trkpt lat="50.3316053096205" lon="5.587586620822549">
        <ele>200.35</ele>
        <time>2025-02-13T17:47:10.010Z</time>
      </trkpt>
      <trkpt lat="50.33163070678711" lon="5.587599277496338">
        <ele>200.16</ele>
        <time>2025-02-13T17:47:19.092Z</time>
      </trkpt>
      <trkpt lat="50.33187218941748" lon="5.587754845619202">
        <ele>199.91</ele>
        <time>2025-02-13T17:47:28.178Z</time>
      </trkpt>
      <trkpt lat="50.33211367204785" lon="5.587910497561097">
        <ele>199.71</ele>
        <time>2025-02-13T17:47:37.268Z</time>
      </trkpt>
      <trkpt lat="50.33235523849726" lon="5.588066149502993">
        <ele>199.43</ele>
        <time>2025-02-13T17:47:46.362Z</time>
      </trkpt>
      <trkpt lat="50.33259630203247" lon="5.588221549987793">
        <ele>199.06</ele>
        <time>2025-02-13T17:47:55.460Z</time>
      </trkpt>
      <trkpt lat="50.3325963858515" lon="5.588221549987793">
        <ele>198.87</ele>
        <time>2025-02-13T17:48:04.558Z</time>
      </trkpt>
      <trkpt lat="50.33288078382611" lon="5.5884254816919565">
        <ele>198.62</ele>
        <time>2025-02-13T17:48:13.661Z</time>
      </trkpt>
      <trkpt lat="50.333165265619755" lon="5.58862941339612">
        <ele>198.5</ele>
        <time>2025-02-13T17:48:22.769Z</time>
      </trkpt>
      <trkpt lat="50.333449663594365" lon="5.588833345100284">
        <ele>198.44</ele>
        <time>2025-02-13T17:48:31.882Z</time>
      </trkpt>
      <trkpt lat="50.333733558654785" lon="5.58903694152832">
        <ele>198.17</ele>
        <time>2025-02-13T17:48:41.000Z</time>
      </trkpt>
      <trkpt lat="50.3338623046875" lon="5.589165687561035">
        <ele>198.14</ele>
        <time>2025-02-13T17:48:50.121Z</time>
      </trkpt>
      <trkpt lat="50.33394813537598" lon="5.589358806610107">
        <ele>198.14</ele>
        <time>2025-02-13T17:48:59.244Z</time>
      </trkpt>
      <trkpt lat="50.33399113453925" lon="5.58955192565918">
        <ele>198.16</ele>
        <time>2025-02-13T17:49:08.369Z</time>
      </trkpt>
      <trkpt lat="50.334087777882814" lon="5.589820649474859">
        <ele>198.2</ele>
        <time>2025-02-13T17:49:17.498Z</time>
      </trkpt>
      <trkpt lat="50.33418416976929" lon="5.590088367462158">
        <ele>198.21</ele>
        <time>2025-02-13T17:49:26.630Z</time>
      </trkpt>
      <trkpt lat="50.33437041565776" lon="5.590410735458136">
        <ele>198.21</ele>
        <time>2025-02-13T17:49:35.766Z</time>
      </trkpt>
      <trkpt lat="50.33455666154623" lon="5.590733103454113">
        <ele>198.26</ele>
        <time>2025-02-13T17:49:44.907Z</time>
      </trkpt>
      <trkpt lat="50.334742069244385" lon="5.5910539627075195">
        <ele>198.31</ele>
        <time>2025-02-13T17:49:54.052Z</time>
      </trkpt>
      <trkpt lat="50.33480644226074" lon="5.591139793395996">
        <ele>198.39</ele>
        <time>2025-02-13T17:50:03.198Z</time>
      </trkpt>
      <trkpt lat="50.33484944142401" lon="5.591247081756592">
        <ele>198.49</ele>
        <time>2025-02-13T17:50:12.346Z</time>
      </trkpt>
      <trkpt lat="50.33506418578327" lon="5.591558553278446">
        <ele>198.62</ele>
        <time>2025-02-13T17:50:21.498Z</time>
      </trkpt>
      <trkpt lat="50.33527851104736" lon="5.591869354248047">
        <ele>198.79</ele>
        <time>2025-02-13T17:50:30.655Z</time>
      </trkpt>
      <trkpt lat="50.33551479689777" lon="5.59215928427875">
        <ele>198.97</ele>
        <time>2025-02-13T17:50:39.817Z</time>
      </trkpt>
      <trkpt lat="50.335750579833984" lon="5.592448711395264">
        <ele>199.15</ele>
        <time>2025-02-13T17:50:48.984Z</time>
      </trkpt>
      <trkpt lat="50.33592224121094" lon="5.592234134674072">
        <ele>199.22</ele>
        <time>2025-02-13T17:50:58.154Z</time>
      </trkpt>
      <trkpt lat="50.33607244491577" lon="5.592062473297119">
        <ele>199.33</ele>
        <time>2025-02-13T17:51:07.327Z</time>
      </trkpt>
      <trkpt lat="50.33628702163696" lon="5.591955184936523">
        <ele>199.49</ele>
        <time>2025-02-13T17:51:16.504Z</time>
      </trkpt>
      <trkpt lat="50.33658742904663" lon="5.591847896575928">
        <ele>199.66</ele>
        <time>2025-02-13T17:51:25.686Z</time>
      </trkpt>
      <trkpt lat="50.33687241375446" lon="5.591845633462071">
        <ele>199.91</ele>
        <time>2025-02-13T17:51:34.872Z</time>
      </trkpt>
      <trkpt lat="50.33715748228133" lon="5.591843454167247">
        <ele>199.96</ele>
        <time>2025-02-13T17:51:44.063Z</time>
      </trkpt>
      <trkpt lat="50.33744246698916" lon="5.591841274872422">
        <ele>200.04</ele>
        <time>2025-02-13T17:51:53.258Z</time>
      </trkpt>
      <trkpt lat="50.337727535516024" lon="5.591839095577598">
        <ele>199.99</ele>
        <time>2025-02-13T17:52:02.458Z</time>
      </trkpt>
      <trkpt lat="50.338012520223856" lon="5.591836916282773">
        <ele>200.03</ele>
        <time>2025-02-13T17:52:11.663Z</time>
      </trkpt>
      <trkpt lat="50.33829758875072" lon="5.591834736987948">
        <ele>200.14</ele>
        <time>2025-02-13T17:52:20.872Z</time>
      </trkpt>
      <trkpt lat="50.33858257345855" lon="5.591832557693124">
        <ele>200.31</ele>
        <time>2025-02-13T17:52:30.086Z</time>
      </trkpt>
      <trkpt lat="50.338867641985416" lon="5.591830378398299">
        <ele>200.5</ele>
        <time>2025-02-13T17:52:39.304Z</time>
      </trkpt>
      <trkpt lat="50.339152459055185" lon="5.591828199103475">
        <ele>200.59</ele>
        <time>2025-02-13T17:52:48.527Z</time>
      </trkpt>
      <trkpt lat="50.33937701024115" lon="5.591826438903809">
        <ele>200.52</ele>
        <time>2025-02-13T17:52:57.753Z</time>
      </trkpt>
      <trkpt lat="50.33937692642212" lon="5.591826438903809">
        <ele>200.45</ele>
        <time>2025-02-13T17:53:06.979Z</time>
      </trkpt>
      <trkpt lat="50.33954858779907" lon="5.591826438903809">
        <ele>200.4</ele>
        <time>2025-02-13T17:53:16.208Z</time>
      </trkpt>
      <trkpt lat="50.339709520339966" lon="5.591826355084777">
        <ele>200.3</ele>
        <time>2025-02-13T17:53:25.440Z</time>
      </trkpt>
      <trkpt lat="50.33987053669989" lon="5.591826438903809">
        <ele>200.11</ele>
        <time>2025-02-13T17:53:34.674Z</time>
      </trkpt>
      <trkpt lat="50.33987045288086" lon="5.591826438903809">
        <ele>199.87</ele>
        <time>2025-02-13T17:53:43.908Z</time>
      </trkpt>
      <trkpt lat="50.34010648727417" lon="5.591819230467081">
        <ele>199.59</ele>
        <time>2025-02-13T17:53:53.146Z</time>
      </trkpt>
      <trkpt lat="50.34034252166748" lon="5.591812105849385">
        <ele>199.25</ele>
        <time>2025-02-13T17:54:02.388Z</time>
      </trkpt>
      <trkpt lat="50.34057855606079" lon="5.5918049812316895">
        <ele>198.77</ele>
        <time>2025-02-13T17:54:11.634Z</time>
      </trkpt>
      <trkpt lat="50.34086471423507" lon="5.59170481748879">
        <ele>198.2</ele>
        <time>2025-02-13T17:54:20.884Z</time>
      </trkpt>
      <trkpt lat="50.341150872409344" lon="5.59160465374589">
        <ele>197.64</ele>
        <time>2025-02-13T17:54:30.139Z</time>
      </trkpt>
      <trkpt lat="50.34143686294556" lon="5.5915045738220215">
        <ele>197.15</ele>
        <time>2025-02-13T17:54:39.399Z</time>
      </trkpt>
      <trkpt lat="50.34173115156591" lon="5.591395692899823">
        <ele>196.52</ele>
        <time>2025-02-13T17:54:48.664Z</time>
      </trkpt>
      <trkpt lat="50.342025524005294" lon="5.591286895796657">
        <ele>195.87</ele>
        <time>2025-02-13T17:54:57.933Z</time>
      </trkpt>
      <trkpt lat="50.34231989644468" lon="5.591178014874458">
        <ele>195.14</ele>
        <time>2025-02-13T17:55:07.207Z</time>
      </trkpt>
      <trkpt lat="50.34261418506503" lon="5.591069217771292">
        <ele>194.51</ele>
        <time>2025-02-13T17:55:16.486Z</time>
      </trkpt>
      <trkpt lat="50.342908557504416" lon="5.590960336849093">
        <ele>193.94</ele>
        <time>2025-02-13T17:55:25.770Z</time>
      </trkpt>
      <trkpt lat="50.3432029299438" lon="5.590851539745927">
        <ele>193.31</ele>
        <time>2025-02-13T17:55:35.059Z</time>
      </trkpt>
      <trkpt lat="50.343497302383184" lon="5.590742658823729">
        <ele>192.67</ele>
        <time>2025-02-13T17:55:44.353Z</time>
      </trkpt>
      <trkpt lat="50.34379159100354" lon="5.59063377790153">
        <ele>192.05</ele>
        <time>2025-02-13T17:55:53.651Z</time>
      </trkpt>
      <trkpt lat="50.34408596344292" lon="5.590524980798364">
        <ele>191.48</ele>
        <time>2025-02-13T17:56:02.954Z</time>
      </trkpt>
      <trkpt lat="50.344380335882306" lon="5.590416099876165">
        <ele>190.89</ele>
        <time>2025-02-13T17:56:12.262Z</time>
      </trkpt>
      <trkpt lat="50.34467470832169" lon="5.590307302772999">
        <ele>190.35</ele>
        <time>2025-02-13T17:56:21.575Z</time>
      </trkpt>
      <trkpt lat="50.34496899694204" lon="5.5901984218508005">
        <ele>189.79</ele>
        <time>2025-02-13T17:56:30.893Z</time>
      </trkpt>
      <trkpt lat="50.34526336938143" lon="5.590089624747634">
        <ele>189.25</ele>
        <time>2025-02-13T17:56:40.216Z</time>
      </trkpt>
      <trkpt lat="50.34555681981146" lon="5.5899810791015625">
        <ele>189.38</ele>
        <time>2025-02-13T17:56:49.544Z</time>
      </trkpt>
      <trkpt lat="50.34577131271362" lon="5.589916622266173">
        <ele>188.97</ele>
        <time>2025-02-13T17:56:58.875Z</time>
      </trkpt>
      <trkpt lat="50.345985889434814" lon="5.589852333068848">
        <ele>188.6</ele>
        <time>2025-02-13T17:57:08.210Z</time>
      </trkpt>
      <trkpt lat="50.34616836346686" lon="5.589723503217101">
        <ele>188.17</ele>
        <time>2025-02-13T17:57:17.548Z</time>
      </trkpt>
      <trkpt lat="50.34635066986084" lon="5.589594841003418">
        <ele>187.74</ele>
        <time>2025-02-13T17:57:26.889Z</time>
      </trkpt>
      <trkpt lat="50.346533227711916" lon="5.589390741661191">
        <ele>187.33</ele>
        <time>2025-02-13T17:57:36.234Z</time>
      </trkpt>
      <trkpt lat="50.3467155341059" lon="5.589187145233154">
        <ele>186.95</ele>
        <time>2025-02-13T17:57:45.582Z</time>
      </trkpt>
      <trkpt lat="50.346715450286865" lon="5.589187145233154">
        <ele>186.64</ele>
        <time>2025-02-13T17:57:54.930Z</time>
      </trkpt>
      <trkpt lat="50.34693011082709" lon="5.588951110839844">
        <ele>186.35</ele>
        <time>2025-02-13T17:58:04.282Z</time>
      </trkpt>
      <trkpt lat="50.347037399187684" lon="5.588843822479248">
        <ele>186.11</ele>
        <time>2025-02-13T17:58:13.636Z</time>
      </trkpt>
      <trkpt lat="50.34721995703876" lon="5.588639723137021">
        <ele>185.89</ele>
        <time>2025-02-13T17:58:22.994Z</time>
      </trkpt>
      <trkpt lat="50.34740217961371" lon="5.588436126708984">
        <ele>185.64</ele>
        <time>2025-02-13T17:58:32.356Z</time>
      </trkpt>
      <trkpt lat="50.34755238331854" lon="5.58828592300415">
        <ele>185.42</ele>
        <time>2025-02-13T17:58:41.720Z</time>
      </trkpt>
      <trkpt lat="50.34755229949951" lon="5.58828592300415">
        <ele>185.24</ele>
        <time>2025-02-13T17:58:51.084Z</time>
      </trkpt>
      <trkpt lat="50.3477240446955" lon="5.588092803955078">
        <ele>185.03</ele>
        <time>2025-02-13T17:59:00.452Z</time>
      </trkpt>
      <trkpt lat="50.3479674551636" lon="5.587835060432553">
        <ele>184.86</ele>
        <time>2025-02-13T17:59:09.825Z</time>
      </trkpt>
      <trkpt lat="50.3482108656317" lon="5.5875773169100285">
        <ele>184.8</ele>
        <time>2025-02-13T17:59:19.202Z</time>
      </trkpt>
      <trkpt lat="50.3484542760998" lon="5.587319573387504">
        <ele>184.74</ele>
        <time>2025-02-13T17:59:28.584Z</time>
      </trkpt>
      <trkpt lat="50.3486976865679" lon="5.587061829864979">
        <ele>184.66</ele>
        <time>2025-02-13T17:59:37.971Z</time>
      </trkpt>
      <trkpt lat="50.348941097036004" lon="5.586804086342454">
        <ele>184.55</ele>
        <time>2025-02-13T17:59:47.362Z</time>
      </trkpt>
      <trkpt lat="50.3491831663996" lon="5.5865478515625">
        <ele>184.48</ele>
        <time>2025-02-13T17:59:56.758Z</time>
      </trkpt>
      <trkpt lat="50.34939598292112" lon="5.586308296769857">
        <ele>184.88</ele>
        <time>2025-02-13T18:00:06.158Z</time>
      </trkpt>
      <trkpt lat="50.34960888326168" lon="5.5860688257962465">
        <ele>185.12</ele>
        <time>2025-02-13T18:00:15.562Z</time>
      </trkpt>
      <trkpt lat="50.349821113049984" lon="5.585830109193921">
        <ele>185.26</ele>
        <time>2025-02-13T18:00:24.971Z</time>
      </trkpt>
      <trkpt lat="50.34983997233212" lon="5.585879981517792">
        <ele>185.38</ele>
        <time>2025-02-13T18:00:34.380Z</time>
      </trkpt>
      <trkpt lat="50.35002999007702" lon="5.585609916597605">
        <ele>185.53</ele>
        <time>2025-02-13T18:00:43.793Z</time>
      </trkpt>
      <trkpt lat="50.350129986181855" lon="5.585459964349866">
        <ele>185.74</ele>
        <time>2025-02-13T18:00:53.209Z</time>
      </trkpt>
      <trkpt lat="50.3502881526947" lon="5.585034834221005">
        <ele>186.06</ele>
        <time>2025-02-13T18:01:02.630Z</time>
      </trkpt>
      <trkpt lat="50.3502899967134" lon="5.585029972717166">
        <ele>186.24</ele>
        <time>2025-02-13T18:01:12.051Z</time>
      </trkpt>
      <trkpt lat="50.35040985792875" lon="5.58457525447011">
        <ele>186.59</ele>
        <time>2025-02-13T18:01:21.477Z</time>
      </trkpt>
      <trkpt lat="50.350529719144106" lon="5.584120620042086">
        <ele>186.68</ele>
        <time>2025-02-13T18:01:30.908Z</time>
      </trkpt>
      <trkpt lat="50.3505799267441" lon="5.583929931744933">
        <ele>186.92</ele>
        <time>2025-02-13T18:01:40.341Z</time>
      </trkpt>
      <trkpt lat="50.350669361650944" lon="5.583458449691534">
        <ele>187.28</ele>
        <time>2025-02-13T18:01:49.779Z</time>
      </trkpt>
      <trkpt lat="50.350689981132746" lon="5.583349987864494">
        <ele>187.51</ele>
        <time>2025-02-13T18:01:59.218Z</time>
      </trkpt>
      <trkpt lat="50.350782768800855" lon="5.582880098372698">
        <ele>187.89</ele>
        <time>2025-02-13T18:02:08.662Z</time>
      </trkpt>
      <trkpt lat="50.35084999166429" lon="5.582539960741997">
        <ele>188.19</ele>
        <time>2025-02-13T18:02:18.110Z</time>
      </trkpt>
      <trkpt lat="50.350954933092" lon="5.582076357677579">
        <ele>188.56</ele>
        <time>2025-02-13T18:02:27.563Z</time>
      </trkpt>
      <trkpt lat="50.350969936698675" lon="5.58200997300446">
        <ele>188.82</ele>
        <time>2025-02-13T18:02:37.017Z</time>
      </trkpt>
      <trkpt lat="50.35104998387396" lon="5.581759940832853">
        <ele>189.07</ele>
        <time>2025-02-13T18:02:46.473Z</time>
      </trkpt>
      <trkpt lat="50.35121996887028" lon="5.581419970840216">
        <ele>189.05</ele>
        <time>2025-02-13T18:02:55.934Z</time>
      </trkpt>
      <trkpt lat="50.351399928331375" lon="5.58112995699048">
        <ele>189.08</ele>
        <time>2025-02-13T18:03:05.399Z</time>
      </trkpt>
      <trkpt lat="50.35137997940183" lon="5.581549974158406">
        <ele>189.3</ele>
        <time>2025-02-13T18:03:14.868Z</time>
      </trkpt>
      <trkpt lat="50.35135801881552" lon="5.5820405669510365">
        <ele>189.83</ele>
        <time>2025-02-13T18:03:24.342Z</time>
      </trkpt>
      <trkpt lat="50.35133614204824" lon="5.582531075924635">
        <ele>190.49</ele>
        <time>2025-02-13T18:03:33.821Z</time>
      </trkpt>
      <trkpt lat="50.35132993943989" lon="5.582669964060187">
        <ele>191.17</ele>
        <time>2025-02-13T18:03:43.302Z</time>
      </trkpt>
      <trkpt lat="50.3512950707227" lon="5.58315871283412">
        <ele>191.96</ele>
        <time>2025-02-13T18:03:52.788Z</time>
      </trkpt>
      <trkpt lat="50.351269925013185" lon="5.583509998396039">
        <ele>192.91</ele>
        <time>2025-02-13T18:04:02.277Z</time>
      </trkpt>
      <trkpt lat="50.35125995054841" lon="5.5838399939239025">
        <ele>194.07</ele>
        <time>2025-02-13T18:04:11.770Z</time>
      </trkpt>
      <trkpt lat="50.351289957761765" lon="5.583969997242093">
        <ele>195.29</ele>
        <time>2025-02-13T18:04:21.264Z</time>
      </trkpt>
      <trkpt lat="50.3513399977237" lon="5.584009978920221">
        <ele>196.59</ele>
        <time>2025-02-13T18:04:30.759Z</time>
      </trkpt>
      <trkpt lat="50.35148994997144" lon="5.583859942853451">
        <ele>198.02</ele>
        <time>2025-02-13T18:04:40.257Z</time>
      </trkpt>
      <trkpt lat="50.351699916645885" lon="5.583649976179004">
        <ele>199.5</ele>
        <time>2025-02-13T18:04:49.759Z</time>
      </trkpt>
      <trkpt lat="50.35197685472667" lon="5.583416372537613">
        <ele>201.17</ele>
        <time>2025-02-13T18:04:59.266Z</time>
      </trkpt>
      <trkpt lat="50.352019937708974" lon="5.583379995077848">
        <ele>202.77</ele>
        <time>2025-02-13T18:05:08.774Z</time>
      </trkpt>
      <trkpt lat="50.35228991881013" lon="5.583209926262498">
        <ele>204.66</ele>
        <time>2025-02-13T18:05:18.286Z</time>
      </trkpt>
      <trkpt lat="50.35245998762548" lon="5.583119988441467">
        <ele>206.55</ele>
        <time>2025-02-13T18:05:27.801Z</time>
      </trkpt>
      <trkpt lat="50.3526299726218" lon="5.583029966801405">
        <ele>208.45</ele>
        <time>2025-02-13T18:05:37.319Z</time>
      </trkpt>
      <trkpt lat="50.35277992486954" lon="5.58286995626986">
        <ele>210.3</ele>
        <time>2025-02-13T18:05:46.840Z</time>
      </trkpt>
      <trkpt lat="50.35303305834532" lon="5.582577846944332">
        <ele>212.36</ele>
        <time>2025-02-13T18:05:56.366Z</time>
      </trkpt>
      <trkpt lat="50.35316993482411" lon="5.58241993188858">
        <ele>214.53</ele>
        <time>2025-02-13T18:06:05.895Z</time>
      </trkpt>
      <trkpt lat="50.353397000581026" lon="5.582079458981752">
        <ele>216.73</ele>
        <time>2025-02-13T18:06:15.429Z</time>
      </trkpt>
      <trkpt lat="50.35344997420907" lon="5.581999998539686">
        <ele>218.88</ele>
        <time>2025-02-13T18:06:24.964Z</time>
      </trkpt>
      <trkpt lat="50.353699922561646" lon="5.581939984112978">
        <ele>221.3</ele>
        <time>2025-02-13T18:06:34.503Z</time>
      </trkpt>
      <trkpt lat="50.35380997695029" lon="5.581959933042526">
        <ele>223.62</ele>
        <time>2025-02-13T18:06:44.044Z</time>
      </trkpt>
      <trkpt lat="50.353909973055124" lon="5.581959933042526">
        <ele>225.92</ele>
        <time>2025-02-13T18:06:53.587Z</time>
      </trkpt>
      <trkpt lat="50.35397996194661" lon="5.58187996968627">
        <ele>228.15</ele>
        <time>2025-02-13T18:07:03.131Z</time>
      </trkpt>
      <trkpt lat="50.35409999080002" lon="5.581669919192791">
        <ele>230.37</ele>
        <time>2025-02-13T18:07:12.678Z</time>
      </trkpt>
      <trkpt lat="50.354149946942925" lon="5.5816099885851145">
        <ele>232.58</ele>
        <time>2025-02-13T18:07:22.226Z</time>
      </trkpt>
      <trkpt lat="50.35438992083073" lon="5.58144997805357">
        <ele>234.95</ele>
        <time>2025-02-13T18:07:31.778Z</time>
      </trkpt>
      <trkpt lat="50.35466996021569" lon="5.58144997805357">
        <ele>237.33</ele>
        <time>2025-02-13T18:07:41.334Z</time>
      </trkpt>
      <trkpt lat="50.35483994521201" lon="5.581519966945052">
        <ele>239.61</ele>
        <time>2025-02-13T18:07:50.893Z</time>
      </trkpt>
      <trkpt lat="50.35493994131684" lon="5.581529941409826">
        <ele>241.77</ele>
        <time>2025-02-13T18:08:00.454Z</time>
      </trkpt>
      <trkpt lat="50.35511998459697" lon="5.581439919769764">
        <ele>243.89</ele>
        <time>2025-02-13T18:08:10.018Z</time>
      </trkpt>
      <trkpt lat="50.35539910197258" lon="5.581213105469942">
        <ele>245.95</ele>
        <time>2025-02-13T18:08:19.587Z</time>
      </trkpt>
      <trkpt lat="50.355439921841025" lon="5.5811799969524145">
        <ele>247.93</ele>
        <time>2025-02-13T18:08:29.157Z</time>
      </trkpt>
      <trkpt lat="50.35571325570345" lon="5.580936251208186">
        <ele>249.9</ele>
        <time>2025-02-13T18:08:38.732Z</time>
      </trkpt>
      <trkpt lat="50.35580998286605" lon="5.580849917605519">
        <ele>251.75</ele>
        <time>2025-02-13T18:08:48.309Z</time>
      </trkpt>
      <trkpt lat="50.35591995343566" lon="5.580779928714037">
        <ele>253.56</ele>
        <time>2025-02-13T18:08:57.887Z</time>
      </trkpt>
      <trkpt lat="50.35611994564533" lon="5.5806799326092005">
        <ele>255.34</ele>
        <time>2025-02-13T18:09:07.469Z</time>
      </trkpt>
      <trkpt lat="50.35643368028104" lon="5.580641962587833">
        <ele>257.06</ele>
        <time>2025-02-13T18:09:17.056Z</time>
      </trkpt>
      <trkpt lat="50.356449941173196" lon="5.580639950931072">
        <ele>258.58</ele>
        <time>2025-02-13T18:09:26.643Z</time>
      </trkpt>
      <trkpt lat="50.35655999556184" lon="5.580629976466298">
        <ele>260.04</ele>
        <time>2025-02-13T18:09:36.232Z</time>
      </trkpt>
      <trkpt lat="50.35679996944964" lon="5.5806799326092005">
        <ele>261.51</ele>
        <time>2025-02-13T18:09:45.825Z</time>
      </trkpt>
      <trkpt lat="50.35707992501557" lon="5.580769954249263">
        <ele>262.86</ele>
        <time>2025-02-13T18:09:55.422Z</time>
      </trkpt>
      <trkpt lat="50.35715997219086" lon="5.580779928714037">
        <ele>264.01</ele>
        <time>2025-02-13T18:10:05.021Z</time>
      </trkpt>
      <trkpt lat="50.35725996829569" lon="5.580769954249263">
        <ele>265.05</ele>
        <time>2025-02-13T18:10:14.621Z</time>
      </trkpt>
      <trkpt lat="50.35748996771872" lon="5.580599969252944">
        <ele>265.9</ele>
        <time>2025-02-13T18:10:24.225Z</time>
      </trkpt>
      <trkpt lat="50.3577811550349" lon="5.580413639545441">
        <ele>266.81</ele>
        <time>2025-02-13T18:10:33.834Z</time>
      </trkpt>
      <trkpt lat="50.3579899482429" lon="5.580279948189855">
        <ele>267.62</ele>
        <time>2025-02-13T18:10:43.447Z</time>
      </trkpt>
      <trkpt lat="50.358287673443556" lon="5.580120859667659">
        <ele>268.43</ele>
        <time>2025-02-13T18:10:53.065Z</time>
      </trkpt>
      <trkpt lat="50.35856997594237" lon="5.579969985410571">
        <ele>269.03</ele>
        <time>2025-02-13T18:11:02.688Z</time>
      </trkpt>
      <trkpt lat="50.3588499315083" lon="5.5798399820923805">
        <ele>269.49</ele>
        <time>2025-02-13T18:11:12.315Z</time>
      </trkpt>
      <trkpt lat="50.35914991982281" lon="5.579719953238964">
        <ele>269.87</ele>
        <time>2025-02-13T18:11:21.947Z</time>
      </trkpt>
      <trkpt lat="50.35976783372462" lon="5.579533623531461">
        <ele>270.08</ele>
        <time>2025-02-13T18:11:31.589Z</time>
      </trkpt>
      <trkpt lat="50.35977998748422" lon="5.579529935494065">
        <ele>270.23</ele>
        <time>2025-02-13T18:11:41.232Z</time>
      </trkpt>
      <trkpt lat="50.35997997969389" lon="5.579449972137809">
        <ele>270.25</ele>
        <time>2025-02-13T18:11:50.878Z</time>
      </trkpt>
      <trkpt lat="50.36006991751492" lon="5.5793799832463264">
        <ele>270.22</ele>
        <time>2025-02-13T18:12:00.526Z</time>
      </trkpt>
      <trkpt lat="50.360119957476854" lon="5.579329943284392">
        <ele>270.09</ele>
        <time>2025-02-13T18:12:10.175Z</time>
      </trkpt>
      <trkpt lat="50.36038951948285" lon="5.57907622307539">
        <ele>269.87</ele>
        <time>2025-02-13T18:12:19.829Z</time>
      </trkpt>
      <trkpt lat="50.36045992746949" lon="5.579009922221303">
        <ele>269.55</ele>
        <time>2025-02-13T18:12:29.484Z</time>
      </trkpt>
      <trkpt lat="50.36062999628484" lon="5.578939933329821">
        <ele>269.16</ele>
        <time>2025-02-13T18:12:39.142Z</time>
      </trkpt>
      <trkpt lat="50.360699985176325" lon="5.578869944438338">
        <ele>268.68</ele>
        <time>2025-02-13T18:12:48.801Z</time>
      </trkpt>
      <trkpt lat="50.360829988494515" lon="5.578769948333502">
        <ele>268.11</ele>
        <time>2025-02-13T18:12:58.462Z</time>
      </trkpt>
      <trkpt lat="50.36085999570787" lon="5.578489992767572">
        <ele>267.34</ele>
        <time>2025-02-13T18:13:08.126Z</time>
      </trkpt>
      <trkpt lat="50.36087994463742" lon="5.578209953382611">
        <ele>266.52</ele>
        <time>2025-02-13T18:13:17.793Z</time>
      </trkpt>
      <trkpt lat="50.360939959064126" lon="5.577889932319522">
        <ele>265.63</ele>
        <time>2025-02-13T18:13:27.464Z</time>
      </trkpt>
      <trkpt lat="50.36112159490585" lon="5.5774883553385735">
        <ele>264.7</ele>
        <time>2025-02-13T18:13:37.140Z</time>
      </trkpt>
      <trkpt lat="50.361129976809025" lon="5.577469998970628">
        <ele>263.77</ele>
        <time>2025-02-13T18:13:46.816Z</time>
      </trkpt>
      <trkpt lat="50.36121999844909" lon="5.577229941263795">
        <ele>262.76</ele>
        <time>2025-02-13T18:13:56.495Z</time>
      </trkpt>
      <trkpt lat="50.361259980127215" lon="5.577059956267476">
        <ele>261.72</ele>
        <time>2025-02-13T18:14:06.176Z</time>
      </trkpt>
      <trkpt lat="50.36124992184341" lon="5.576869938522577">
        <ele>260.63</ele>
        <time>2025-02-13T18:14:15.858Z</time>
      </trkpt>
      <trkpt lat="50.36120994016528" lon="5.57663993909955">
        <ele>259.47</ele>
        <time>2025-02-13T18:14:25.543Z</time>
      </trkpt>
      <trkpt lat="50.3610899951309" lon="5.57652996852994">
        <ele>258.26</ele>
        <time>2025-02-13T18:14:35.230Z</time>
      </trkpt>
      <trkpt lat="50.36078539676964" lon="5.576406503096223">
        <ele>256.88</ele>
        <time>2025-02-13T18:14:44.922Z</time>
      </trkpt>
      <trkpt lat="50.36071993410587" lon="5.576379932463169">
        <ele>255.55</ele>
        <time>2025-02-13T18:14:54.615Z</time>
      </trkpt>
      <trkpt lat="50.360413659363985" lon="5.576267279684544">
        <ele>254.09</ele>
        <time>2025-02-13T18:15:04.313Z</time>
      </trkpt>
      <trkpt lat="50.3601073846221" lon="5.576154626905918">
        <ele>252.64</ele>
        <time>2025-02-13T18:15:14.016Z</time>
      </trkpt>
      <trkpt lat="50.3598499763757" lon="5.576059995219111">
        <ele>251.15</ele>
        <time>2025-02-13T18:15:23.724Z</time>
      </trkpt>
      <trkpt lat="50.359550239518285" lon="5.575910126790404">
        <ele>249.6</ele>
        <time>2025-02-13T18:15:33.437Z</time>
      </trkpt>
      <trkpt lat="50.35954998806119" lon="5.575909959152341">
        <ele>248.14</ele>
        <time>2025-02-13T18:15:43.150Z</time>
      </trkpt>
      <trkpt lat="50.35932996310294" lon="5.575679959729314">
        <ele>246.57</ele>
        <time>2025-02-13T18:15:52.867Z</time>
      </trkpt>
      <trkpt lat="50.35926994867623" lon="5.5755899380892515">
        <ele>245.05</ele>
        <time>2025-02-13T18:16:02.585Z</time>
      </trkpt>
      <trkpt lat="50.359179927036166" lon="5.575439985841513">
        <ele>243.52</ele>
        <time>2025-02-13T18:16:12.305Z</time>
      </trkpt>
      <trkpt lat="50.35900868475437" lon="5.575027344748378">
        <ele>241.94</ele>
        <time>2025-02-13T18:16:22.030Z</time>
      </trkpt>
      <trkpt lat="50.358959985896945" lon="5.574909998103976">
        <ele>240.38</ele>
        <time>2025-02-13T18:16:31.757Z</time>
      </trkpt>
      <trkpt lat="50.35878631286323" lon="5.574499871581793">
        <ele>238.7</ele>
        <time>2025-02-13T18:16:41.489Z</time>
      </trkpt>
      <trkpt lat="50.358612639829516" lon="5.574089745059609">
        <ele>237.06</ele>
        <time>2025-02-13T18:16:51.226Z</time>
      </trkpt>
      <trkpt lat="50.35843888297677" lon="5.573679618537426">
        <ele>235.41</ele>
        <time>2025-02-13T18:17:00.968Z</time>
      </trkpt>
      <trkpt lat="50.358265209943056" lon="5.573269408196211">
        <ele>233.77</ele>
        <time>2025-02-13T18:17:10.715Z</time>
      </trkpt>
      <trkpt lat="50.35812992602587" lon="5.5729499738663435">
        <ele>232.22</ele>
        <time>2025-02-13T18:17:20.466Z</time>
      </trkpt>
      <trkpt lat="50.35803998820484" lon="5.5726999416947365">
        <ele>230.67</ele>
        <time>2025-02-13T18:17:30.220Z</time>
      </trkpt>
      <trkpt lat="50.35803998820484" lon="5.572679992765188">
        <ele>229.15</ele>
        <time>2025-02-13T18:17:39.974Z</time>
      </trkpt>
      <trkpt lat="50.357969999313354" lon="5.572099965065718">
        <ele>227.57</ele>
        <time>2025-02-13T18:17:49.734Z</time>
      </trkpt>
      <trkpt lat="50.3579899482429" lon="5.571889998391271">
        <ele>226.06</ele>
        <time>2025-02-13T18:17:59.496Z</time>
      </trkpt>
      <trkpt lat="50.358079969882965" lon="5.571519937366247">
        <ele>224.47</ele>
        <time>2025-02-13T18:18:09.262Z</time>
      </trkpt>
      <trkpt lat="50.358221624046564" lon="5.57108080945909">
        <ele>222.85</ele>
        <time>2025-02-13T18:18:19.033Z</time>
      </trkpt>
      <trkpt lat="50.35836327821016" lon="5.570641597732902">
        <ele>221.23</ele>
        <time>2025-02-13T18:18:28.809Z</time>
      </trkpt>
      <trkpt lat="50.358379958197474" lon="5.570589965209365">
        <ele>219.76</ele>
        <time>2025-02-13T18:18:38.586Z</time>
      </trkpt>
      <trkpt lat="50.35840996541083" lon="5.570369940251112">
        <ele>218.25</ele>
        <time>2025-02-13T18:18:48.365Z</time>
      </trkpt>
      <trkpt lat="50.358399990946054" lon="5.570169948041439">
        <ele>216.77</ele>
        <time>2025-02-13T18:18:58.146Z</time>
      </trkpt>
      <trkpt lat="50.3583699837327" lon="5.5700199957937">
        <ele>215.29</ele>
        <time>2025-02-13T18:19:07.929Z</time>
      </trkpt>
      <trkpt lat="50.35827996209264" lon="5.569829978048801">
        <ele>213.82</ele>
        <time>2025-02-13T18:19:17.714Z</time>
      </trkpt>
      <trkpt lat="50.358042335137725" lon="5.569507526233792">
        <ele>212.35</ele>
        <time>2025-02-13T18:19:27.504Z</time>
      </trkpt>
      <trkpt lat="50.35799992270768" lon="5.569449942559004">
        <ele>210.9</ele>
        <time>2025-02-13T18:19:37.295Z</time>
      </trkpt>
      <trkpt lat="50.35787997767329" lon="5.569249950349331">
        <ele>209.43</ele>
        <time>2025-02-13T18:19:47.089Z</time>
      </trkpt>
      <trkpt lat="50.35771996714175" lon="5.568939987570047">
        <ele>207.98</ele>
        <time>2025-02-13T18:19:56.887Z</time>
      </trkpt>
      <trkpt lat="50.35766992717981" lon="5.568789951503277">
        <ele>206.49</ele>
        <time>2025-02-13T18:20:06.687Z</time>
      </trkpt>
      <trkpt lat="50.35756993107498" lon="5.568349985405803">
        <ele>204.95</ele>
        <time>2025-02-13T18:20:16.492Z</time>
      </trkpt>
      <trkpt lat="50.357457445934415" lon="5.567890657112002">
        <ele>203.32</ele>
        <time>2025-02-13T18:20:26.302Z</time>
      </trkpt>
      <trkpt lat="50.35734496079385" lon="5.567431328818202">
        <ele>201.74</ele>
        <time>2025-02-13T18:20:36.117Z</time>
      </trkpt>
      <trkpt lat="50.357329957187176" lon="5.567369973286986">
        <ele>200.24</ele>
        <time>2025-02-13T18:20:45.932Z</time>
      </trkpt>
      <trkpt lat="50.35728997550905" lon="5.567109966650605">
        <ele>198.63</ele>
        <time>2025-02-13T18:20:55.750Z</time>
      </trkpt>
      <trkpt lat="50.35728997550905" lon="5.566919948905706">
        <ele>197.12</ele>
        <time>2025-02-13T18:21:05.570Z</time>
      </trkpt>
      <trkpt lat="50.357329957187176" lon="5.566499931737781">
        <ele>195.58</ele>
        <time>2025-02-13T18:21:15.395Z</time>
      </trkpt>
      <trkpt lat="50.35735996440053" lon="5.56636992841959">
        <ele>194.12</ele>
        <time>2025-02-13T18:21:25.221Z</time>
      </trkpt>
      <trkpt lat="50.35749139264226" lon="5.565923089161515">
        <ele>192.68</ele>
        <time>2025-02-13T18:21:35.052Z</time>
      </trkpt>
      <trkpt lat="50.35750991664827" lon="5.5658599734306335">
        <ele>191.26</ele>
        <time>2025-02-13T18:21:44.884Z</time>
      </trkpt>
      <trkpt lat="50.35764050669968" lon="5.565412463620305">
        <ele>189.75</ele>
        <time>2025-02-13T18:21:54.721Z</time>
      </trkpt>
      <trkpt lat="50.35777101293206" lon="5.564964953809977">
        <ele>188.28</ele>
        <time>2025-02-13T18:22:04.563Z</time>
      </trkpt>
      <trkpt lat="50.35785994492471" lon="5.564659936353564">
        <ele>186.85</ele>
        <time>2025-02-13T18:22:14.408Z</time>
      </trkpt>
      <trkpt lat="50.35797997377813" lon="5.5642699263989925">
        <ele>185.35</ele>
        <time>2025-02-13T18:22:24.258Z</time>
      </trkpt>
      <trkpt lat="50.35816999152303" lon="5.563889974728227">
        <ele>183.93</ele>
        <time>2025-02-13T18:22:34.113Z</time>
      </trkpt>
      <trkpt lat="50.35838037729263" lon="5.563524272292852">
        <ele>182.61</ele>
        <time>2025-02-13T18:22:43.973Z</time>
      </trkpt>
      <trkpt lat="50.35859084688127" lon="5.56315865367651">
        <ele>181.34</ele>
        <time>2025-02-13T18:22:53.838Z</time>
      </trkpt>
      <trkpt lat="50.35877994261682" lon="5.562829999253154">
        <ele>180.04</ele>
        <time>2025-02-13T18:23:03.707Z</time>
      </trkpt>
      <trkpt lat="50.35889997147024" lon="5.562619948759675">
        <ele>178.8</ele>
        <time>2025-02-13T18:23:13.579Z</time>
      </trkpt>
      <trkpt lat="50.35910884849727" lon="5.562252150848508">
        <ele>177.55</ele>
        <time>2025-02-13T18:23:23.456Z</time>
      </trkpt>
      <trkpt lat="50.359317725524306" lon="5.561884269118309">
        <ele>176.51</ele>
        <time>2025-02-13T18:23:33.338Z</time>
      </trkpt>
      <trkpt lat="50.35935997031629" lon="5.5618099216371775">
        <ele>175.45</ele>
        <time>2025-02-13T18:23:43.221Z</time>
      </trkpt>
      <trkpt lat="50.359499948099256" lon="5.561499958857894">
        <ele>174.51</ele>
        <time>2025-02-13T18:23:53.108Z</time>
      </trkpt>
      <trkpt lat="50.35958996973932" lon="5.561119923368096">
        <ele>173.51</ele>
        <time>2025-02-13T18:24:02.999Z</time>
      </trkpt>
      <trkpt lat="50.359609918668866" lon="5.56101992726326">
        <ele>172.58</ele>
        <time>2025-02-13T18:24:12.891Z</time>
      </trkpt>
      <trkpt lat="50.35967353731394" lon="5.560538303107023">
        <ele>171.41</ele>
        <time>2025-02-13T18:24:22.788Z</time>
      </trkpt>
      <trkpt lat="50.35967999137938" lon="5.5604899395257235">
        <ele>170.57</ele>
        <time>2025-02-13T18:24:32.686Z</time>
      </trkpt>
      <trkpt lat="50.35967999137938" lon="5.560329928994179">
        <ele>169.69</ele>
        <time>2025-02-13T18:24:42.585Z</time>
      </trkpt>
      <trkpt lat="50.359559962525964" lon="5.559939919039607">
        <ele>168.8</ele>
        <time>2025-02-13T18:24:52.489Z</time>
      </trkpt>
      <trkpt lat="50.359803875908256" lon="5.559629201889038">
        <ele>168.14</ele>
        <time>2025-02-13T18:25:02.398Z</time>
      </trkpt>
      <trkpt lat="50.36004778929055" lon="5.559318484738469">
        <ele>167.61</ele>
        <time>2025-02-13T18:25:12.312Z</time>
      </trkpt>
      <trkpt lat="50.36028994247317" lon="5.559009946882725">
        <ele>167.19</ele>
        <time>2025-02-13T18:25:22.231Z</time>
      </trkpt>
      <trkpt lat="50.36054374650121" lon="5.558719262480736">
        <ele>166.8</ele>
        <time>2025-02-13T18:25:32.155Z</time>
      </trkpt>
      <trkpt lat="50.36079755052924" lon="5.558428494259715">
        <ele>166.42</ele>
        <time>2025-02-13T18:25:42.084Z</time>
      </trkpt>
      <trkpt lat="50.36083996295929" lon="5.558379963040352">
        <ele>166.07</ele>
        <time>2025-02-13T18:25:52.014Z</time>
      </trkpt>
      <trkpt lat="50.36096996627748" lon="5.558229926973581">
        <ele>165.82</ele>
        <time>2025-02-13T18:26:01.947Z</time>
      </trkpt>
      <trkpt lat="50.361259980127215" lon="5.557929938659072">
        <ele>165.54</ele>
        <time>2025-02-13T18:26:11.885Z</time>
      </trkpt>
      <trkpt lat="50.36152736283839" lon="5.557670686393976">
        <ele>165.32</ele>
        <time>2025-02-13T18:26:21.828Z</time>
      </trkpt>
      <trkpt lat="50.36158997565508" lon="5.5576099175959826">
        <ele>165.13</ele>
        <time>2025-02-13T18:26:31.772Z</time>
      </trkpt>
      <trkpt lat="50.361873200163245" lon="5.557395843788981">
        <ele>164.94</ele>
        <time>2025-02-13T18:26:41.721Z</time>
      </trkpt>
      <trkpt lat="50.36215650849044" lon="5.55718176998198">
        <ele>164.74</ele>
        <time>2025-02-13T18:26:51.675Z</time>
      </trkpt>
      <trkpt lat="50.36243981681764" lon="5.5569676123559475">
        <ele>164.55</ele>
        <time>2025-02-13T18:27:01.634Z</time>
      </trkpt>
      <trkpt lat="50.36244995892048" lon="5.556959984824061">
        <ele>164.47</ele>
        <time>2025-02-13T18:27:11.594Z</time>
      </trkpt>
      <trkpt lat="50.36273628473282" lon="5.556756053119898">
        <ele>164.3</ele>
        <time>2025-02-13T18:27:21.559Z</time>
      </trkpt>
      <trkpt lat="50.36302261054516" lon="5.556552121415734">
        <ele>164.17</ele>
        <time>2025-02-13T18:27:31.529Z</time>
      </trkpt>
      <trkpt lat="50.3633089363575" lon="5.5563482735306025">
        <ele>164.27</ele>
        <time>2025-02-13T18:27:41.504Z</time>
      </trkpt>
      <trkpt lat="50.36359534598887" lon="5.556144341826439">
        <ele>164.34</ele>
        <time>2025-02-13T18:27:51.484Z</time>
      </trkpt>
      <trkpt lat="50.36376994103193" lon="5.556019954383373">
        <ele>164.37</ele>
        <time>2025-02-13T18:28:01.467Z</time>
      </trkpt>
      <trkpt lat="50.36407127045095" lon="5.555878132581711">
        <ele>164.42</ele>
        <time>2025-02-13T18:28:11.455Z</time>
      </trkpt>
      <trkpt lat="50.3641099948436" lon="5.555859943851829">
        <ele>164.5</ele>
        <time>2025-02-13T18:28:21.444Z</time>
      </trkpt>
      <trkpt lat="50.36427997983992" lon="5.55579992942512">
        <ele>164.61</ele>
        <time>2025-02-13T18:28:31.435Z</time>
      </trkpt>
      <trkpt lat="50.36458826623857" lon="5.555701861158013">
        <ele>164.91</ele>
        <time>2025-02-13T18:28:41.431Z</time>
      </trkpt>
      <trkpt lat="50.36489663645625" lon="5.555603709071875">
        <ele>165.03</ele>
        <time>2025-02-13T18:28:51.432Z</time>
      </trkpt>
      <trkpt lat="50.3651599958539" lon="5.555519973859191">
        <ele>165.17</ele>
        <time>2025-02-13T18:29:01.438Z</time>
      </trkpt>
      <trkpt lat="50.36546283401549" lon="5.5553867015987635">
        <ele>165.12</ele>
        <time>2025-02-13T18:29:11.449Z</time>
      </trkpt>
      <trkpt lat="50.36565997637808" lon="5.555299948900938">
        <ele>165.15</ele>
        <time>2025-02-13T18:29:21.463Z</time>
      </trkpt>
      <trkpt lat="50.365839935839176" lon="5.555149996653199">
        <ele>165.16</ele>
        <time>2025-02-13T18:29:31.480Z</time>
      </trkpt>
      <trkpt lat="50.36610161885619" lon="5.554876662790775">
        <ele>165.13</ele>
        <time>2025-02-13T18:29:41.502Z</time>
      </trkpt>
      <trkpt lat="50.366289960220456" lon="5.554679939523339">
        <ele>165.22</ele>
        <time>2025-02-13T18:29:51.528Z</time>
      </trkpt>
      <trkpt lat="50.36643999628723" lon="5.554539961740375">
        <ele>165.31</ele>
        <time>2025-02-13T18:30:01.557Z</time>
      </trkpt>
      <trkpt lat="50.36672146059573" lon="5.554320104420185">
        <ele>165.42</ele>
        <time>2025-02-13T18:30:11.591Z</time>
      </trkpt>
      <trkpt lat="50.366759933531284" lon="5.5542899295687675">
        <ele>165.43</ele>
        <time>2025-02-13T18:30:21.625Z</time>
      </trkpt>
      <trkpt lat="50.367052629590034" lon="5.554109215736389">
        <ele>165.36</ele>
        <time>2025-02-13T18:30:31.665Z</time>
      </trkpt>
      <trkpt lat="50.367099987342954" lon="5.5540799628943205">
        <ele>165.33</ele>
        <time>2025-02-13T18:30:41.705Z</time>
      </trkpt>
      <trkpt lat="50.36740609444678" lon="5.553966220468283">
        <ele>165.22</ele>
        <time>2025-02-13T18:30:51.750Z</time>
      </trkpt>
      <trkpt lat="50.3677122015506" lon="5.553852561861277">
        <ele>165.06</ele>
        <time>2025-02-13T18:31:01.800Z</time>
      </trkpt>
      <trkpt lat="50.36779996007681" lon="5.553819956257939">
        <ele>164.99</ele>
        <time>2025-02-13T18:31:11.852Z</time>
      </trkpt>
      <trkpt lat="50.367959970608354" lon="5.553749967366457">
        <ele>164.92</ele>
        <time>2025-02-13T18:31:21.907Z</time>
      </trkpt>
      <trkpt lat="50.368089973926544" lon="5.553659945726395">
        <ele>164.85</ele>
        <time>2025-02-13T18:31:31.964Z</time>
      </trkpt>
      <trkpt lat="50.36835500970483" lon="5.553394909948111">
        <ele>164.82</ele>
        <time>2025-02-13T18:31:42.026Z</time>
      </trkpt>
      <trkpt lat="50.368369929492474" lon="5.553379990160465">
        <ele>164.71</ele>
        <time>2025-02-13T18:31:52.088Z</time>
      </trkpt>
      <trkpt lat="50.368539998307824" lon="5.55308997631073">
        <ele>164.62</ele>
        <time>2025-02-13T18:32:02.154Z</time>
      </trkpt>
      <trkpt lat="50.368649968877435" lon="5.552859976887703">
        <ele>164.44</ele>
        <time>2025-02-13T18:32:12.223Z</time>
      </trkpt>
      <trkpt lat="50.36872993223369" lon="5.552609944716096">
        <ele>164.26</ele>
        <time>2025-02-13T18:32:22.295Z</time>
      </trkpt>
      <trkpt lat="50.3688692394644" lon="5.552168805152178">
        <ele>164.14</ele>
        <time>2025-02-13T18:32:32.372Z</time>
      </trkpt>
      <trkpt lat="50.368969989940524" lon="5.5518499575555325">
        <ele>164.02</ele>
        <time>2025-02-13T18:32:42.453Z</time>
      </trkpt>
      <trkpt lat="50.369070153683424" lon="5.5513836722821">
        <ele>163.83</ele>
        <time>2025-02-13T18:32:52.539Z</time>
      </trkpt>
      <trkpt lat="50.369170401245356" lon="5.550917303189635">
        <ele>163.6</ele>
        <time>2025-02-13T18:33:02.630Z</time>
      </trkpt>
      <trkpt lat="50.36919998936355" lon="5.550779923796654">
        <ele>163.37</ele>
        <time>2025-02-13T18:33:12.722Z</time>
      </trkpt>
      <trkpt lat="50.369294956326485" lon="5.550310956314206">
        <ele>163.15</ele>
        <time>2025-02-13T18:33:22.819Z</time>
      </trkpt>
      <trkpt lat="50.369359999895096" lon="5.549989929422736">
        <ele>162.92</ele>
        <time>2025-02-13T18:33:32.920Z</time>
      </trkpt>
      <trkpt lat="50.369399981573224" lon="5.549599919468164">
        <ele>162.65</ele>
        <time>2025-02-13T18:33:43.025Z</time>
      </trkpt>
      <trkpt lat="50.369386821985245" lon="5.549108404666185">
        <ele>162.33</ele>
        <time>2025-02-13T18:33:53.135Z</time>
      </trkpt>
      <trkpt lat="50.369379948824644" lon="5.548849990591407">
        <ele>162.11</ele>
        <time>2025-02-13T18:34:03.247Z</time>
      </trkpt>
      <trkpt lat="50.369399981573224" lon="5.548569951206446">
        <ele>161.9</ele>
        <time>2025-02-13T18:34:13.362Z</time>
      </trkpt>
      <trkpt lat="50.36946854554117" lon="5.54808983579278">
        <ele>161.65</ele>
        <time>2025-02-13T18:34:23.482Z</time>
      </trkpt>
      <trkpt lat="50.36947994492948" lon="5.548009956255555">
        <ele>161.44</ele>
        <time>2025-02-13T18:34:33.603Z</time>
      </trkpt>
      <trkpt lat="50.36951992660761" lon="5.5476499535143375">
        <ele>161.1</ele>
        <time>2025-02-13T18:34:43.728Z</time>
      </trkpt>
      <trkpt lat="50.36958555690944" lon="5.547168832272291">
        <ele>160.73</ele>
        <time>2025-02-13T18:34:53.858Z</time>
      </trkpt>
      <trkpt lat="50.369651187211275" lon="5.546687711030245">
        <ele>160.55</ele>
        <time>2025-02-13T18:35:03.993Z</time>
      </trkpt>
      <trkpt lat="50.36966996267438" lon="5.546549996361136">
        <ele>160.42</ele>
        <time>2025-02-13T18:35:14.129Z</time>
      </trkpt>
      <trkpt lat="50.36973207257688" lon="5.546067701652646">
        <ele>160.31</ele>
        <time>2025-02-13T18:35:24.271Z</time>
      </trkpt>
      <trkpt lat="50.36979418247938" lon="5.545585406944156">
        <ele>160.25</ele>
        <time>2025-02-13T18:35:34.418Z</time>
      </trkpt>
      <trkpt lat="50.369856376200914" lon="5.545103112235665">
        <ele>160.22</ele>
        <time>2025-02-13T18:35:44.570Z</time>
      </trkpt>
      <trkpt lat="50.369879929348826" lon="5.544919967651367">
        <ele>160.18</ele>
        <time>2025-02-13T18:35:54.723Z</time>
      </trkpt>
      <trkpt lat="50.36986995488405" lon="5.544589972123504">
        <ele>160.24</ele>
        <time>2025-02-13T18:36:04.880Z</time>
      </trkpt>
      <trkpt lat="50.369769958779216" lon="5.544159980490804">
        <ele>160.35</ele>
        <time>2025-02-13T18:36:15.042Z</time>
      </trkpt>
      <trkpt lat="50.36968999542296" lon="5.543959988281131">
        <ele>160.36</ele>
        <time>2025-02-13T18:36:25.206Z</time>
      </trkpt>
      <trkpt lat="50.369509952142835" lon="5.543689923360944">
        <ele>160.39</ele>
        <time>2025-02-13T18:36:35.374Z</time>
      </trkpt>
      <trkpt lat="50.3692854847759" lon="5.54334525950253">
        <ele>160.38</ele>
        <time>2025-02-13T18:36:45.547Z</time>
      </trkpt>
      <trkpt lat="50.369229996576905" lon="5.543259931728244">
        <ele>160.27</ele>
        <time>2025-02-13T18:36:55.721Z</time>
      </trkpt>
      <trkpt lat="50.36899974569678" lon="5.5429245717823505">
        <ele>160.08</ele>
        <time>2025-02-13T18:37:05.900Z</time>
      </trkpt>
      <trkpt lat="50.36876957863569" lon="5.542589211836457">
        <ele>159.81</ele>
        <time>2025-02-13T18:37:16.084Z</time>
      </trkpt>
      <trkpt lat="50.36853932775557" lon="5.542253851890564">
        <ele>159.53</ele>
        <time>2025-02-13T18:37:26.273Z</time>
      </trkpt>
      <trkpt lat="50.36841996945441" lon="5.5420799273997545">
        <ele>159.28</ele>
        <time>2025-02-13T18:37:36.465Z</time>
      </trkpt>
      <trkpt lat="50.368188712745905" lon="5.541746327653527">
        <ele>159.03</ele>
        <time>2025-02-13T18:37:46.662Z</time>
      </trkpt>
      <trkpt lat="50.367957539856434" lon="5.541412644088268">
        <ele>158.85</ele>
        <time>2025-02-13T18:37:56.864Z</time>
      </trkpt>
      <trkpt lat="50.36772628314793" lon="5.541079044342041">
        <ele>158.5</ele>
        <time>2025-02-13T18:38:07.071Z</time>
      </trkpt>
      <trkpt lat="50.36762997508049" lon="5.540939988568425">
        <ele>158.09</ele>
        <time>2025-02-13T18:38:17.280Z</time>
      </trkpt>
      <trkpt lat="50.36740995012224" lon="5.540659949183464">
        <ele>157.65</ele>
        <time>2025-02-13T18:38:27.494Z</time>
      </trkpt>
      <trkpt lat="50.367160672321916" lon="5.540359877049923">
        <ele>157.1</ele>
        <time>2025-02-13T18:38:37.713Z</time>
      </trkpt>
      <trkpt lat="50.36691131070256" lon="5.54005972109735">
        <ele>156.52</ele>
        <time>2025-02-13T18:38:47.937Z</time>
      </trkpt>
      <trkpt lat="50.36686998791993" lon="5.540009932592511">
        <ele>155.97</ele>
        <time>2025-02-13T18:38:58.162Z</time>
      </trkpt>
      <trkpt lat="50.3666642960161" lon="5.539637608453631">
        <ele>155.24</ele>
        <time>2025-02-13T18:39:08.392Z</time>
      </trkpt>
      <trkpt lat="50.3664999268949" lon="5.53933996707201">
        <ele>154.56</ele>
        <time>2025-02-13T18:39:18.626Z</time>
      </trkpt>
      <trkpt lat="50.366459945216775" lon="5.539249945431948">
        <ele>153.97</ele>
        <time>2025-02-13T18:39:28.861Z</time>
      </trkpt>
      <trkpt lat="50.36641996353865" lon="5.539019946008921">
        <ele>153.37</ele>
        <time>2025-02-13T18:39:39.098Z</time>
      </trkpt>
      <trkpt lat="50.36643999628723" lon="5.538809979334474">
        <ele>152.77</ele>
        <time>2025-02-13T18:39:49.337Z</time>
      </trkpt>
      <trkpt lat="50.366459945216775" lon="5.538679976016283">
        <ele>152.18</ele>
        <time>2025-02-13T18:39:59.578Z</time>
      </trkpt>
      <trkpt lat="50.36655994132161" lon="5.538519965484738">
        <ele>151.63</ele>
        <time>2025-02-13T18:40:09.821Z</time>
      </trkpt>
      <trkpt lat="50.36680871620774" lon="5.5382186360657215">
        <ele>151.03</ele>
        <time>2025-02-13T18:40:20.069Z</time>
      </trkpt>
      <trkpt lat="50.36705740727484" lon="5.537917390465736">
        <ele>150.33</ele>
        <time>2025-02-13T18:40:30.322Z</time>
      </trkpt>
      <trkpt lat="50.36726997233927" lon="5.537659982219338">
        <ele>149.66</ele>
        <time>2025-02-13T18:40:40.580Z</time>
      </trkpt>
      <trkpt lat="50.3675208427012" lon="5.5373630952090025">
        <ele>148.99</ele>
        <time>2025-02-13T18:40:50.843Z</time>
      </trkpt>
      <trkpt lat="50.36777171306312" lon="5.537066208198667">
        <ele>148.38</ele>
        <time>2025-02-13T18:41:01.111Z</time>
      </trkpt>
      <trkpt lat="50.36786994896829" lon="5.536949951201677">
        <ele>147.87</ele>
        <time>2025-02-13T18:41:11.381Z</time>
      </trkpt>
      <trkpt lat="50.36812383681536" lon="5.53665935061872">
        <ele>147.4</ele>
        <time>2025-02-13T18:41:21.656Z</time>
      </trkpt>
      <trkpt lat="50.36837772466242" lon="5.536368750035763">
        <ele>146.97</ele>
        <time>2025-02-13T18:41:31.936Z</time>
      </trkpt>
      <trkpt lat="50.36863161250949" lon="5.5360781494528055">
        <ele>146.57</ele>
        <time>2025-02-13T18:41:42.221Z</time>
      </trkpt>
      <trkpt lat="50.368885500356555" lon="5.535787548869848">
        <ele>146.21</ele>
        <time>2025-02-13T18:41:52.511Z</time>
      </trkpt>
      <trkpt lat="50.36913938820362" lon="5.535496948286891">
        <ele>145.89</ele>
        <time>2025-02-13T18:42:02.806Z</time>
      </trkpt>
      <trkpt lat="50.369393192231655" lon="5.535206347703934">
        <ele>145.59</ele>
        <time>2025-02-13T18:42:13.106Z</time>
      </trkpt>
      <trkpt lat="50.36945999599993" lon="5.535129988566041">
        <ele>145.33</ele>
        <time>2025-02-13T18:42:23.407Z</time>
      </trkpt>
      <trkpt lat="50.36971589550376" lon="5.534843830391765">
        <ele>145.1</ele>
        <time>2025-02-13T18:42:33.713Z</time>
      </trkpt>
      <trkpt lat="50.36997187882662" lon="5.53455775603652">
        <ele>144.85</ele>
        <time>2025-02-13T18:42:44.024Z</time>
      </trkpt>
      <trkpt lat="50.37022786214948" lon="5.534271681681275">
        <ele>144.74</ele>
        <time>2025-02-13T18:42:54.340Z</time>
      </trkpt>
      <trkpt lat="50.370309920981526" lon="5.534179983660579">
        <ele>144.61</ele>
        <time>2025-02-13T18:43:04.658Z</time>
      </trkpt>
      <trkpt lat="50.37046993151307" lon="5.534039922058582">
        <ele>144.49</ele>
        <time>2025-02-13T18:43:14.979Z</time>
      </trkpt>
      <trkpt lat="50.37063991650939" lon="5.533929951488972">
        <ele>144.34</ele>
        <time>2025-02-13T18:43:25.303Z</time>
      </trkpt>
      <trkpt lat="50.37095054984093" lon="5.533851329237223">
        <ele>144.15</ele>
        <time>2025-02-13T18:43:35.632Z</time>
      </trkpt>
      <trkpt lat="50.371261183172464" lon="5.533772790804505">
        <ele>144.07</ele>
        <time>2025-02-13T18:43:45.966Z</time>
      </trkpt>
      <trkpt lat="50.37146997638047" lon="5.533719984814525">
        <ele>144.07</ele>
        <time>2025-02-13T18:43:56.303Z</time>
      </trkpt>
      <trkpt lat="50.37173995748162" lon="5.533709926530719">
        <ele>144.12</ele>
        <time>2025-02-13T18:44:06.645Z</time>
      </trkpt>
      <trkpt lat="50.37187993526459" lon="5.533729959279299">
        <ele>144.02</ele>
        <time>2025-02-13T18:44:16.989Z</time>
      </trkpt>
      <trkpt lat="50.372049920260906" lon="5.533819980919361">
        <ele>143.9</ele>
        <time>2025-02-13T18:44:27.336Z</time>
      </trkpt>
      <trkpt lat="50.37216994911432" lon="5.533959958702326">
        <ele>143.74</ele>
        <time>2025-02-13T18:44:37.685Z</time>
      </trkpt>
      <trkpt lat="50.37238393910229" lon="5.534320631995797">
        <ele>143.49</ele>
        <time>2025-02-13T18:44:48.039Z</time>
      </trkpt>
      <trkpt lat="50.372519977390766" lon="5.5345499608665705">
        <ele>143.32</ele>
        <time>2025-02-13T18:44:58.396Z</time>
      </trkpt>
      <trkpt lat="50.37290998734534" lon="5.535219926387072">
        <ele>143.16</ele>
        <time>2025-02-13T18:45:08.763Z</time>
      </trkpt>
      <trkpt lat="50.37295994348824" lon="5.53527994081378">
        <ele>143.02</ele>
        <time>2025-02-13T18:45:19.131Z</time>
      </trkpt>
      <trkpt lat="50.37305993959308" lon="5.535329980775714">
        <ele>142.88</ele>
        <time>2025-02-13T18:45:29.500Z</time>
      </trkpt>
      <trkpt lat="50.373119954019785" lon="5.535339955240488">
        <ele>142.73</ele>
        <time>2025-02-13T18:45:39.870Z</time>
      </trkpt>
      <trkpt lat="50.37325993180275" lon="5.535369962453842">
        <ele>142.6</ele>
        <time>2025-02-13T18:45:50.243Z</time>
      </trkpt>
      <trkpt lat="50.37357400171459" lon="5.535338530316949">
        <ele>142.56</ele>
        <time>2025-02-13T18:46:00.621Z</time>
      </trkpt>
      <trkpt lat="50.3738599922508" lon="5.535309948027134">
        <ele>142.29</ele>
        <time>2025-02-13T18:46:11.003Z</time>
      </trkpt>
      <trkpt lat="50.37394993007183" lon="5.53529997356236">
        <ele>141.96</ele>
        <time>2025-02-13T18:46:21.387Z</time>
      </trkpt>
      <trkpt lat="50.374249666929245" lon="5.535150105133653">
        <ele>141.52</ele>
        <time>2025-02-13T18:46:31.776Z</time>
      </trkpt>
      <trkpt lat="50.3742899838835" lon="5.535129988566041">
        <ele>141.16</ele>
        <time>2025-02-13T18:46:42.165Z</time>
      </trkpt>
      <trkpt lat="50.37450992502272" lon="5.534919938072562">
        <ele>140.81</ele>
        <time>2025-02-13T18:46:52.558Z</time>
      </trkpt>
      <trkpt lat="50.374579997733235" lon="5.5347999930381775">
        <ele>140.47</ele>
        <time>2025-02-13T18:47:02.953Z</time>
      </trkpt>
      <trkpt lat="50.37464998662472" lon="5.534689938649535">
        <ele>140.09</ele>
        <time>2025-02-13T18:47:13.350Z</time>
      </trkpt>
      <trkpt lat="50.3747699316591" lon="5.534329935908318">
        <ele>139.82</ele>
        <time>2025-02-13T18:47:23.751Z</time>
      </trkpt>
      <trkpt lat="50.37486657500267" lon="5.533861722797155">
        <ele>139.33</ele>
        <time>2025-02-13T18:47:34.157Z</time>
      </trkpt>
      <trkpt lat="50.37489993497729" lon="5.533699952065945">
        <ele>138.85</ele>
        <time>2025-02-13T18:47:44.565Z</time>
      </trkpt>
      <trkpt lat="50.37500194273889" lon="5.533234504982829">
        <ele>138.31</ele>
        <time>2025-02-13T18:47:54.978Z</time>
      </trkpt>
      <trkpt lat="50.37510386668146" lon="5.5327690578997135">
        <ele>137.83</ele>
        <time>2025-02-13T18:48:05.396Z</time>
      </trkpt>
      <trkpt lat="50.37512993440032" lon="5.532649951055646">
        <ele>137.33</ele>
        <time>2025-02-13T18:48:15.815Z</time>
      </trkpt>
      <trkpt lat="50.37523252889514" lon="5.532184839248657">
        <ele>136.78</ele>
        <time>2025-02-13T18:48:26.239Z</time>
      </trkpt>
      <trkpt lat="50.37533512338996" lon="5.5317197274416685">
        <ele>136.24</ele>
        <time>2025-02-13T18:48:36.668Z</time>
      </trkpt>
      <trkpt lat="50.37543771788478" lon="5.53125461563468">
        <ele>135.77</ele>
        <time>2025-02-13T18:48:47.102Z</time>
      </trkpt>
      <trkpt lat="50.3755403123796" lon="5.530789420008659">
        <ele>135.38</ele>
        <time>2025-02-13T18:48:57.541Z</time>
      </trkpt>
      <trkpt lat="50.37564290687442" lon="5.530324308201671">
        <ele>135.02</ele>
        <time>2025-02-13T18:49:07.985Z</time>
      </trkpt>
      <trkpt lat="50.37574550136924" lon="5.529859196394682">
        <ele>134.7</ele>
        <time>2025-02-13T18:49:18.434Z</time>
      </trkpt>
      <trkpt lat="50.37584817968309" lon="5.529394084587693">
        <ele>134.4</ele>
        <time>2025-02-13T18:49:28.888Z</time>
      </trkpt>
      <trkpt lat="50.37595077417791" lon="5.5289289727807045">
        <ele>134.12</ele>
        <time>2025-02-13T18:49:39.347Z</time>
      </trkpt>
      <trkpt lat="50.37602998316288" lon="5.5285699758678675">
        <ele>133.87</ele>
        <time>2025-02-13T18:49:49.810Z</time>
      </trkpt>
      <trkpt lat="50.37611656822264" lon="5.5280969850718975">
        <ele>133.71</ele>
        <time>2025-02-13T18:50:00.278Z</time>
      </trkpt>
      <trkpt lat="50.376203237101436" lon="5.527623910456896">
        <ele>133.58</ele>
        <time>2025-02-13T18:50:10.751Z</time>
      </trkpt>
      <trkpt lat="50.37628990598023" lon="5.527150919660926">
        <ele>133.45</ele>
        <time>2025-02-13T18:50:21.229Z</time>
      </trkpt>
      <trkpt lat="50.37637649103999" lon="5.526677928864956">
        <ele>133.44</ele>
        <time>2025-02-13T18:50:31.712Z</time>
      </trkpt>
      <trkpt lat="50.37639996036887" lon="5.5265499372035265">
        <ele>133.52</ele>
        <time>2025-02-13T18:50:42.197Z</time>
      </trkpt>
      <trkpt lat="50.376470955088735" lon="5.526070659980178">
        <ele>133.65</ele>
        <time>2025-02-13T18:50:52.687Z</time>
      </trkpt>
      <trkpt lat="50.3765419498086" lon="5.5255912989377975">
        <ele>133.9</ele>
        <time>2025-02-13T18:51:03.182Z</time>
      </trkpt>
      <trkpt lat="50.376599952578545" lon="5.525199947878718">
        <ele>134.2</ele>
        <time>2025-02-13T18:51:13.681Z</time>
      </trkpt>
      <trkpt lat="50.376670276746154" lon="5.524720335379243">
        <ele>134.58</ele>
        <time>2025-02-13T18:51:24.185Z</time>
      </trkpt>
      <trkpt lat="50.37674051709473" lon="5.524240806698799">
        <ele>135.03</ele>
        <time>2025-02-13T18:51:34.694Z</time>
      </trkpt>
      <trkpt lat="50.37676993757486" lon="5.524039976298809">
        <ele>135.54</ele>
        <time>2025-02-13T18:51:45.205Z</time>
      </trkpt>
      <trkpt lat="50.37649157457054" lon="5.5238107312470675">
        <ele>136.11</ele>
        <time>2025-02-13T18:51:55.721Z</time>
      </trkpt>
      <trkpt lat="50.37621312774718" lon="5.523581402376294">
        <ele>136.84</ele>
        <time>2025-02-13T18:52:06.242Z</time>
      </trkpt>
      <trkpt lat="50.37608999758959" lon="5.5234799813479185">
        <ele>137.6</ele>
        <time>2025-02-13T18:52:16.765Z</time>
      </trkpt>
      <trkpt lat="50.37581020966172" lon="5.5232546757906675">
        <ele>138.43</ele>
        <time>2025-02-13T18:52:27.293Z</time>
      </trkpt>
      <trkpt lat="50.37553050555289" lon="5.523029286414385">
        <ele>139.27</ele>
        <time>2025-02-13T18:52:37.827Z</time>
      </trkpt>
      <trkpt lat="50.375250801444054" lon="5.522803980857134">
        <ele>140.22</ele>
        <time>2025-02-13T18:52:48.366Z</time>
      </trkpt>
      <trkpt lat="50.37497109733522" lon="5.522578675299883">
        <ele>141.29</ele>
        <time>2025-02-13T18:52:58.910Z</time>
      </trkpt>
      <trkpt lat="50.374691393226385" lon="5.522353369742632">
        <ele>142.39</ele>
        <time>2025-02-13T18:53:09.459Z</time>
      </trkpt>
      <trkpt lat="50.37441168911755" lon="5.522128064185381">
        <ele>143.48</ele>
        <time>2025-02-13T18:53:20.013Z</time>
      </trkpt>
      <trkpt lat="50.3742899838835" lon="5.522029995918274">
        <ele>144.54</ele>
        <time>2025-02-13T18:53:30.569Z</time>
      </trkpt>
      <trkpt lat="50.374010698869824" lon="5.521803265437484">
        <ele>145.62</ele>
        <time>2025-02-13T18:53:41.130Z</time>
      </trkpt>
      <trkpt lat="50.37373141385615" lon="5.521576618775725">
        <ele>146.7</ele>
        <time>2025-02-13T18:53:51.696Z</time>
      </trkpt>
      <trkpt lat="50.37359998561442" lon="5.521469917148352">
        <ele>147.78</ele>
        <time>2025-02-13T18:54:02.264Z</time>
      </trkpt>
      <trkpt lat="50.373479956761" lon="5.521349972113967">
        <ele>148.85</ele>
        <time>2025-02-13T18:54:12.835Z</time>
      </trkpt>
      <trkpt lat="50.37334995344281" lon="5.521219968795776">
        <ele>149.91</ele>
        <time>2025-02-13T18:54:23.408Z</time>
      </trkpt>
      <trkpt lat="50.37307024933398" lon="5.520994663238525">
        <ele>150.98</ele>
        <time>2025-02-13T18:54:33.986Z</time>
      </trkpt>
      <trkpt lat="50.372989950701594" lon="5.520929954946041">
        <ele>151.96</ele>
        <time>2025-02-13T18:54:44.566Z</time>
      </trkpt>
      <trkpt lat="50.37290998734534" lon="5.520869940519333">
        <ele>152.91</ele>
        <time>2025-02-13T18:54:55.147Z</time>
      </trkpt>
      <trkpt lat="50.372819965705276" lon="5.520849991589785">
        <ele>153.81</ele>
        <time>2025-02-13T18:55:05.729Z</time>
      </trkpt>
      <trkpt lat="50.37256993353367" lon="5.520649999380112">
        <ele>154.77</ele>
        <time>2025-02-13T18:55:16.316Z</time>
      </trkpt>
      <trkpt lat="50.372290732339025" lon="5.520423101261258">
        <ele>155.72</ele>
        <time>2025-02-13T18:55:26.908Z</time>
      </trkpt>
      <trkpt lat="50.37224999628961" lon="5.5203899927437305">
        <ele>156.43</ele>
        <time>2025-02-13T18:55:37.501Z</time>
      </trkpt>
      <trkpt lat="50.371976997703314" lon="5.520145241171122">
        <ele>157.12</ele>
        <time>2025-02-13T18:55:48.099Z</time>
      </trkpt>
      <trkpt lat="50.371959982439876" lon="5.520129986107349">
        <ele>157.66</ele>
        <time>2025-02-13T18:55:58.697Z</time>
      </trkpt>
      <trkpt lat="50.3717100340873" lon="5.519831087440252">
        <ele>158.12</ele>
        <time>2025-02-13T18:56:09.300Z</time>
      </trkpt>
      <trkpt lat="50.37146016955376" lon="5.5195321049541235">
        <ele>158.41</ele>
        <time>2025-02-13T18:56:19.908Z</time>
      </trkpt>
      <trkpt lat="50.37144994363189" lon="5.519519951194525">
        <ele>158.71</ele>
        <time>2025-02-13T18:56:30.516Z</time>
      </trkpt>
      <trkpt lat="50.37120033055544" lon="5.519220465794206">
        <ele>158.76</ele>
        <time>2025-02-13T18:56:41.129Z</time>
      </trkpt>
      <trkpt lat="50.37095071747899" lon="5.518920896574855">
        <ele>158.86</ele>
        <time>2025-02-13T18:56:51.747Z</time>
      </trkpt>
      <trkpt lat="50.37070110440254" lon="5.518621411174536">
        <ele>158.91</ele>
        <time>2025-02-13T18:57:02.370Z</time>
      </trkpt>
      <trkpt lat="50.370451491326094" lon="5.518321841955185">
        <ele>158.95</ele>
        <time>2025-02-13T18:57:12.999Z</time>
      </trkpt>
      <trkpt lat="50.370201878249645" lon="5.518022356554866">
        <ele>158.87</ele>
        <time>2025-02-13T18:57:23.633Z</time>
      </trkpt>
      <trkpt lat="50.36995234899223" lon="5.517722787335515">
        <ele>158.79</ele>
        <time>2025-02-13T18:57:34.272Z</time>
      </trkpt>
      <trkpt lat="50.36970273591578" lon="5.517423301935196">
        <ele>158.72</ele>
        <time>2025-02-13T18:57:44.916Z</time>
      </trkpt>
      <trkpt lat="50.36945312283933" lon="5.517123732715845">
        <ele>158.56</ele>
        <time>2025-02-13T18:57:55.565Z</time>
      </trkpt>
      <trkpt lat="50.36920350976288" lon="5.516824247315526">
        <ele>158.33</ele>
        <time>2025-02-13T18:58:06.219Z</time>
      </trkpt>
      <trkpt lat="50.36914994940162" lon="5.5167599581182">
        <ele>158.1</ele>
        <time>2025-02-13T18:58:16.874Z</time>
      </trkpt>
      <trkpt lat="50.368892792612314" lon="5.516476482152939">
        <ele>157.87</ele>
        <time>2025-02-13T18:58:27.534Z</time>
      </trkpt>
      <trkpt lat="50.368759939447045" lon="5.5163299664855">
        <ele>157.63</ele>
        <time>2025-02-13T18:58:38.196Z</time>
      </trkpt>
      <trkpt lat="50.36849339492619" lon="5.516068618744612">
        <ele>157.35</ele>
        <time>2025-02-13T18:58:48.864Z</time>
      </trkpt>
      <trkpt lat="50.36824998445809" lon="5.515829985961318">
        <ele>156.98</ele>
        <time>2025-02-13T18:58:59.536Z</time>
      </trkpt>
      <trkpt lat="50.367980087175965" lon="5.515576936304569">
        <ele>156.63</ele>
        <time>2025-02-13T18:59:10.213Z</time>
      </trkpt>
      <trkpt lat="50.36771027371287" lon="5.515323970466852">
        <ele>156.28</ele>
        <time>2025-02-13T18:59:20.895Z</time>
      </trkpt>
      <trkpt lat="50.36744037643075" lon="5.515071004629135">
        <ele>155.92</ele>
        <time>2025-02-13T18:59:31.582Z</time>
      </trkpt>
      <trkpt lat="50.36717056296766" lon="5.514818038791418">
        <ele>155.61</ele>
        <time>2025-02-13T18:59:42.274Z</time>
      </trkpt>
      <trkpt lat="50.36712999455631" lon="5.514779984951019">
        <ele>155.3</ele>
        <time>2025-02-13T18:59:52.967Z</time>
      </trkpt>
      <trkpt lat="50.36686185747385" lon="5.514522409066558">
        <ele>154.97</ele>
        <time>2025-02-13T19:00:03.665Z</time>
      </trkpt>
      <trkpt lat="50.36661995574832" lon="5.514289978891611">
        <ele>154.7</ele>
        <time>2025-02-13T19:00:14.368Z</time>
      </trkpt>
      <trkpt lat="50.36642993800342" lon="5.514129968360066">
        <ele>154.45</ele>
        <time>2025-02-13T19:00:25.074Z</time>
      </trkpt>
      <trkpt lat="50.366269927471876" lon="5.51400993950665">
        <ele>154.17</ele>
        <time>2025-02-13T19:00:35.783Z</time>
      </trkpt>
      <trkpt lat="50.36598050035536" lon="5.513816988095641">
        <ele>153.89</ele>
        <time>2025-02-13T19:00:46.497Z</time>
      </trkpt>
      <trkpt lat="50.36593993194401" lon="5.513789998367429">
        <ele>153.64</ele>
        <time>2025-02-13T19:00:57.212Z</time>
      </trkpt>
      <trkpt lat="50.36571999080479" lon="5.513659995049238">
        <ele>153.42</ele>
        <time>2025-02-13T19:01:07.930Z</time>
      </trkpt>
      <trkpt lat="50.365425031632185" lon="5.51348858512938">
        <ele>153.23</ele>
        <time>2025-02-13T19:01:18.653Z</time>
      </trkpt>
      <trkpt lat="50.36513007245958" lon="5.513317259028554">
        <ele>152.99</ele>
        <time>2025-02-13T19:01:29.382Z</time>
      </trkpt>
      <trkpt lat="50.36483511328697" lon="5.513145849108696">
        <ele>152.76</ele>
        <time>2025-02-13T19:01:40.116Z</time>
      </trkpt>
      <trkpt lat="50.3645402379334" lon="5.51297452300787">
        <ele>152.52</ele>
        <time>2025-02-13T19:01:50.855Z</time>
      </trkpt>
      <trkpt lat="50.36424527876079" lon="5.5128031969070435">
        <ele>152.34</ele>
        <time>2025-02-13T19:02:01.599Z</time>
      </trkpt>
      <trkpt lat="50.363950319588184" lon="5.5126317869871855">
        <ele>152.18</ele>
        <time>2025-02-13T19:02:12.348Z</time>
      </trkpt>
      <trkpt lat="50.36392995156348" lon="5.512619968503714">
        <ele>151.97</ele>
        <time>2025-02-13T19:02:23.097Z</time>
      </trkpt>
      <trkpt lat="50.363626861944795" lon="5.51248786970973">
        <ele>151.72</ele>
        <time>2025-02-13T19:02:33.851Z</time>
      </trkpt>
      <trkpt lat="50.363539941608906" lon="5.512449983507395">
        <ele>151.5</ele>
        <time>2025-02-13T19:02:44.606Z</time>
      </trkpt>
      <trkpt lat="50.36323165521026" lon="5.512351831421256">
        <ele>151.31</ele>
        <time>2025-02-13T19:02:55.367Z</time>
      </trkpt>
      <trkpt lat="50.36309997551143" lon="5.512309921905398">
        <ele>151.13</ele>
        <time>2025-02-13T19:03:06.130Z</time>
      </trkpt>
      <trkpt lat="50.362789342179894" lon="5.512231048196554">
        <ele>150.97</ele>
        <time>2025-02-13T19:03:16.898Z</time>
      </trkpt>
      <trkpt lat="50.36247879266739" lon="5.51215217448771">
        <ele>150.78</ele>
        <time>2025-02-13T19:03:27.671Z</time>
      </trkpt>
      <trkpt lat="50.36246999166906" lon="5.512149995192885">
        <ele>150.54</ele>
        <time>2025-02-13T19:03:38.444Z</time>
      </trkpt>
      <trkpt lat="50.36240997724235" lon="5.512109929695725">
        <ele>150.27</ele>
        <time>2025-02-13T19:03:49.218Z</time>
      </trkpt>
      <trkpt lat="50.36232993006706" lon="5.511989984661341">
        <ele>149.92</ele>
        <time>2025-02-13T19:03:59.994Z</time>
      </trkpt>
      <trkpt lat="50.36213915795088" lon="5.511598801240325">
        <ele>149.31</ele>
        <time>2025-02-13T19:04:10.775Z</time>
      </trkpt>
      <trkpt lat="50.36212993785739" lon="5.511579941958189">
        <ele>149.05</ele>
        <time>2025-02-13T19:04:21.556Z</time>
      </trkpt>
      <trkpt lat="50.361757446080446" lon="5.511384643614292">
        <ele>148.8</ele>
        <time>2025-02-13T19:04:32.343Z</time>
      </trkpt>
      <trkpt lat="50.36167999729514" lon="5.511349942535162">
        <ele>148.56</ele>
        <time>2025-02-13T19:04:43.132Z</time>
      </trkpt>
      <trkpt lat="50.36137221381068" lon="5.511247348040342">
        <ele>148.42</ele>
        <time>2025-02-13T19:04:53.926Z</time>
      </trkpt>
      <trkpt lat="50.36122997291386" lon="5.511199990287423">
        <ele>148.15</ele>
        <time>2025-02-13T19:05:04.722Z</time>
      </trkpt>
      <trkpt lat="50.36092998459935" lon="5.511051630601287">
        <ele>147.87</ele>
        <time>2025-02-13T19:05:15.523Z</time>
      </trkpt>
      <trkpt lat="50.36062999628484" lon="5.510903354734182">
        <ele>147.69</ele>
        <time>2025-02-13T19:05:26.329Z</time>
      </trkpt>
      <trkpt lat="50.36033998243511" lon="5.510759940370917">
        <ele>147.41</ele>
        <time>2025-02-13T19:05:37.140Z</time>
      </trkpt>
      <trkpt lat="50.36003806628287" lon="5.510621219873428">
        <ele>147.18</ele>
        <time>2025-02-13T19:05:47.956Z</time>
      </trkpt>
      <trkpt lat="50.359969921410084" lon="5.5105899553745985">
        <ele>146.94</ele>
        <time>2025-02-13T19:05:58.773Z</time>
      </trkpt>
      <trkpt lat="50.35967177711427" lon="5.510433046147227">
        <ele>146.7</ele>
        <time>2025-02-13T19:06:09.595Z</time>
      </trkpt>
      <trkpt lat="50.35939995199442" lon="5.510289967060089">
        <ele>146.49</ele>
        <time>2025-02-13T19:06:20.422Z</time>
      </trkpt>
      <trkpt lat="50.35910817794502" lon="5.510105984285474">
        <ele>146.18</ele>
        <time>2025-02-13T19:06:31.254Z</time>
      </trkpt>
      <trkpt lat="50.358939953148365" lon="5.509999953210354">
        <ele>145.88</ele>
        <time>2025-02-13T19:06:42.089Z</time>
      </trkpt>
      <trkpt lat="50.358789917081594" lon="5.509879924356937">
        <ele>145.56</ele>
        <time>2025-02-13T19:06:52.926Z</time>
      </trkpt>
      <trkpt lat="50.35852043889463" lon="5.509626287966967">
        <ele>145.22</ele>
        <time>2025-02-13T19:07:03.768Z</time>
      </trkpt>
      <trkpt lat="50.35825087688863" lon="5.509372567757964">
        <ele>144.96</ele>
        <time>2025-02-13T19:07:14.615Z</time>
      </trkpt>
      <trkpt lat="50.357981314882636" lon="5.509118847548962">
        <ele>144.76</ele>
        <time>2025-02-13T19:07:25.467Z</time>
      </trkpt>
      <trkpt lat="50.35776992328465" lon="5.508919944986701">
        <ele>144.5</ele>
        <time>2025-02-13T19:07:36.323Z</time>
      </trkpt>
      <trkpt lat="50.35750203765929" lon="5.508661950007081">
        <ele>144.16</ele>
        <time>2025-02-13T19:07:47.184Z</time>
      </trkpt>
      <trkpt lat="50.357499942183495" lon="5.50865993835032">
        <ele>143.96</ele>
        <time>2025-02-13T19:07:58.046Z</time>
      </trkpt>
      <trkpt lat="50.35728997550905" lon="5.508549967780709">
        <ele>143.76</ele>
        <time>2025-02-13T19:08:08.911Z</time>
      </trkpt>
      <trkpt lat="50.357179921120405" lon="5.508519960567355">
        <ele>143.6</ele>
        <time>2025-02-13T19:08:19.778Z</time>
      </trkpt>
      <trkpt lat="50.3568659350276" lon="5.508489282801747">
        <ele>143.46</ele>
        <time>2025-02-13T19:08:30.650Z</time>
      </trkpt>
      <trkpt lat="50.356769962236285" lon="5.508479978889227">
        <ele>143.32</ele>
        <time>2025-02-13T19:08:41.523Z</time>
      </trkpt>
      <trkpt lat="50.35645555704832" lon="5.508460281416774">
        <ele>143.23</ele>
        <time>2025-02-13T19:08:52.401Z</time>
      </trkpt>
      <trkpt lat="50.35628993064165" lon="5.508449971675873">
        <ele>143.14</ele>
        <time>2025-02-13T19:09:03.282Z</time>
      </trkpt>
      <trkpt lat="50.35597996786237" lon="5.508389957249165">
        <ele>143.07</ele>
        <time>2025-02-13T19:09:14.168Z</time>
      </trkpt>
      <trkpt lat="50.35585993900895" lon="5.5083399172872305">
        <ele>143.04</ele>
        <time>2025-02-13T19:09:25.056Z</time>
      </trkpt>
      <trkpt lat="50.35566992126405" lon="5.508219972252846">
        <ele>143.03</ele>
        <time>2025-02-13T19:09:35.947Z</time>
      </trkpt>
      <trkpt lat="50.35559993237257" lon="5.508169932290912">
        <ele>143.05</ele>
        <time>2025-02-13T19:09:46.840Z</time>
      </trkpt>
      <trkpt lat="50.35542994737625" lon="5.508019980043173">
        <ele>143.08</ele>
        <time>2025-02-13T19:09:57.736Z</time>
      </trkpt>
      <trkpt lat="50.35518997348845" lon="5.507769947871566">
        <ele>143.08</ele>
        <time>2025-02-13T19:10:08.636Z</time>
      </trkpt>
      <trkpt lat="50.35494580864906" lon="5.507459817454219">
        <ele>143.24</ele>
        <time>2025-02-13T19:10:19.541Z</time>
      </trkpt>
      <trkpt lat="50.35481999628246" lon="5.507299974560738">
        <ele>143.39</ele>
        <time>2025-02-13T19:10:30.449Z</time>
      </trkpt>
      <trkpt lat="50.354619920253754" lon="5.507059916853905">
        <ele>143.56</ele>
        <time>2025-02-13T19:10:41.361Z</time>
      </trkpt>
      <trkpt lat="50.35445999354124" lon="5.506889931857586">
        <ele>143.71</ele>
        <time>2025-02-13T19:10:52.276Z</time>
      </trkpt>
      <trkpt lat="50.354176266118884" lon="5.506677199155092">
        <ele>143.84</ele>
        <time>2025-02-13T19:11:03.196Z</time>
      </trkpt>
      <trkpt lat="50.35397996194661" lon="5.506529929116368">
        <ele>144.02</ele>
        <time>2025-02-13T19:11:14.120Z</time>
      </trkpt>
      <trkpt lat="50.35369765944779" lon="5.506312837824225">
        <ele>144.23</ele>
        <time>2025-02-13T19:11:25.049Z</time>
      </trkpt>
      <trkpt lat="50.35341535694897" lon="5.506095662713051">
        <ele>144.47</ele>
        <time>2025-02-13T19:11:35.983Z</time>
      </trkpt>
      <trkpt lat="50.353133054450154" lon="5.505878487601876">
        <ele>144.74</ele>
        <time>2025-02-13T19:11:46.922Z</time>
      </trkpt>
      <trkpt lat="50.35285075195134" lon="5.505661312490702">
        <ele>145.1</ele>
        <time>2025-02-13T19:11:57.866Z</time>
      </trkpt>
      <trkpt lat="50.3526799287647" lon="5.505529968068004">
        <ele>145.42</ele>
        <time>2025-02-13T19:12:08.813Z</time>
      </trkpt>
      <trkpt lat="50.35240709781647" lon="5.505285048857331">
        <ele>145.73</ele>
        <time>2025-02-13T19:12:19.765Z</time>
      </trkpt>
      <trkpt lat="50.35228991881013" lon="5.50517993979156">
        <ele>145.94</ele>
        <time>2025-02-13T19:12:30.719Z</time>
      </trkpt>
      <trkpt lat="50.35211993381381" lon="5.504969973117113">
        <ele>146.08</ele>
        <time>2025-02-13T19:12:41.677Z</time>
      </trkpt>
      <trkpt lat="50.35196998156607" lon="5.504719940945506">
        <ele>146.17</ele>
        <time>2025-02-13T19:12:52.638Z</time>
      </trkpt>
      <trkpt lat="50.351829919964075" lon="5.504429927095771">
        <ele>146.29</ele>
        <time>2025-02-13T19:13:03.603Z</time>
      </trkpt>
      <trkpt lat="50.35166831687093" lon="5.5040079820901155">
        <ele>146.46</ele>
        <time>2025-02-13T19:13:14.573Z</time>
      </trkpt>
      <trkpt lat="50.35164996050298" lon="5.503959953784943">
        <ele>146.62</ele>
        <time>2025-02-13T19:13:25.543Z</time>
      </trkpt>
      <trkpt lat="50.35151635296643" lon="5.5035147070884705">
        <ele>146.78</ele>
        <time>2025-02-13T19:13:36.518Z</time>
      </trkpt>
      <trkpt lat="50.351382829248905" lon="5.503069460391998">
        <ele>146.96</ele>
        <time>2025-02-13T19:13:47.499Z</time>
      </trkpt>
      <trkpt lat="50.35137997940183" lon="5.5030599888414145">
        <ele>147.04</ele>
        <time>2025-02-13T19:13:58.480Z</time>
      </trkpt>
      <trkpt lat="50.351253831759095" lon="5.502609461545944">
        <ele>147.06</ele>
        <time>2025-02-13T19:14:09.466Z</time>
      </trkpt>
      <trkpt lat="50.35123991779983" lon="5.5025599244982">
        <ele>147.07</ele>
        <time>2025-02-13T19:14:20.452Z</time>
      </trkpt>
      <trkpt lat="50.35115626640618" lon="5.50208592787385">
        <ele>147.0</ele>
        <time>2025-02-13T19:14:31.443Z</time>
      </trkpt>
      <trkpt lat="50.3511499799788" lon="5.502049969509244">
        <ele>146.95</ele>
        <time>2025-02-13T19:14:42.435Z</time>
      </trkpt>
      <trkpt lat="50.35109340213239" lon="5.501566166058183">
        <ele>146.93</ele>
        <time>2025-02-13T19:14:53.432Z</time>
      </trkpt>
      <trkpt lat="50.35105995833874" lon="5.501279924064875">
        <ele>146.87</ele>
        <time>2025-02-13T19:15:04.432Z</time>
      </trkpt>
      <trkpt lat="50.35101570188999" lon="5.500793103128672">
        <ele>146.66</ele>
        <time>2025-02-13T19:15:15.437Z</time>
      </trkpt>
      <trkpt lat="50.3510099183768" lon="5.50072998739779">
        <ele>146.47</ele>
        <time>2025-02-13T19:15:26.442Z</time>
      </trkpt>
      <trkpt lat="50.350974379107356" lon="5.500241322442889">
        <ele>146.19</ele>
        <time>2025-02-13T19:15:37.452Z</time>
      </trkpt>
      <trkpt lat="50.35093875601888" lon="5.49975274130702">
        <ele>145.98</ele>
        <time>2025-02-13T19:15:48.467Z</time>
      </trkpt>
      <trkpt lat="50.3509031329304" lon="5.499264160171151">
        <ele>145.84</ele>
        <time>2025-02-13T19:15:59.487Z</time>
      </trkpt>
      <trkpt lat="50.35089994780719" lon="5.499219987541437">
        <ele>145.52</ele>
        <time>2025-02-13T19:16:10.508Z</time>
      </trkpt>
      <trkpt lat="50.35084554925561" lon="5.498735597357154">
        <ele>145.24</ele>
        <time>2025-02-13T19:16:21.534Z</time>
      </trkpt>
      <trkpt lat="50.350799951702356" lon="5.498329997062683">
        <ele>144.85</ele>
        <time>2025-02-13T19:16:32.564Z</time>
      </trkpt>
      <trkpt lat="50.350729962810874" lon="5.497939987108111">
        <ele>144.41</ele>
        <time>2025-02-13T19:16:43.598Z</time>
      </trkpt>
      <trkpt lat="50.350598534569144" lon="5.497493147850037">
        <ele>143.87</ele>
        <time>2025-02-13T19:16:54.637Z</time>
      </trkpt>
      <trkpt lat="50.3505299706012" lon="5.497259963303804">
        <ele>143.34</ele>
        <time>2025-02-13T19:17:05.679Z</time>
      </trkpt>
      <trkpt lat="50.35039166919887" lon="5.496818237006664">
        <ele>142.77</ele>
        <time>2025-02-13T19:17:16.726Z</time>
      </trkpt>
      <trkpt lat="50.35025336779654" lon="5.496376594528556">
        <ele>142.14</ele>
        <time>2025-02-13T19:17:27.778Z</time>
      </trkpt>
      <trkpt lat="50.350219924002886" lon="5.496269976720214">
        <ele>141.59</ele>
        <time>2025-02-13T19:17:38.831Z</time>
      </trkpt>
      <trkpt lat="50.35029309801757" lon="5.495791705325246">
        <ele>140.93</ele>
        <time>2025-02-13T19:17:49.889Z</time>
      </trkpt>
      <trkpt lat="50.350349927321076" lon="5.495419967919588">
        <ele>140.34</ele>
        <time>2025-02-13T19:18:00.951Z</time>
      </trkpt>
      <trkpt lat="50.350429974496365" lon="5.495049990713596">
        <ele>139.79</ele>
        <time>2025-02-13T19:18:12.017Z</time>
      </trkpt>
      <trkpt lat="50.35051027312875" lon="5.494574485346675">
        <ele>139.21</ele>
        <time>2025-02-13T19:18:23.088Z</time>
      </trkpt>
      <trkpt lat="50.35054991953075" lon="5.494339959695935">
        <ele>138.63</ele>
        <time>2025-02-13T19:18:34.162Z</time>
      </trkpt>
      <trkpt lat="50.35059601999819" lon="5.493853474035859">
        <ele>138.06</ele>
        <time>2025-02-13T19:18:45.241Z</time>
      </trkpt>
      <trkpt lat="50.35063994117081" lon="5.493389954790473">
        <ele>137.54</ele>
        <time>2025-02-13T19:18:56.325Z</time>
      </trkpt>
      <trkpt lat="50.35064999945462" lon="5.493389954790473">
        <ele>137.06</ele>
        <time>2025-02-13T19:19:07.409Z</time>
      </trkpt>
      <trkpt lat="50.350669948384166" lon="5.493369922041893">
        <ele>136.61</ele>
        <time>2025-02-13T19:19:18.493Z</time>
      </trkpt>
      <trkpt lat="50.350689981132746" lon="5.493339998647571">
        <ele>136.2</ele>
        <time>2025-02-13T19:19:29.578Z</time>
      </trkpt>
      <trkpt lat="50.35069995559752" lon="5.4932899586856365">
        <ele>135.83</ele>
        <time>2025-02-13T19:19:40.663Z</time>
      </trkpt>
      <trkpt lat="50.350669948384166" lon="5.493199937045574">
        <ele>135.52</ele>
        <time>2025-02-13T19:19:51.749Z</time>
      </trkpt>
      <trkpt lat="50.35060993395746" lon="5.4931899625808">
        <ele>135.28</ele>
        <time>2025-02-13T19:20:02.836Z</time>
      </trkpt>
      <trkpt lat="50.35058998502791" lon="5.49320999532938">
        <ele>135.09</ele>
        <time>2025-02-13T19:20:13.924Z</time>
      </trkpt>
      <trkpt lat="50.35050993785262" lon="5.492899948731065">
        <ele>134.93</ele>
        <time>2025-02-13T19:20:25.015Z</time>
      </trkpt>
      <trkpt lat="50.35048998892307" lon="5.4927599709481">
        <ele>134.85</ele>
        <time>2025-02-13T19:20:36.107Z</time>
      </trkpt>
      <trkpt lat="50.35045998170972" lon="5.492449924349785">
        <ele>134.81</ele>
        <time>2025-02-13T19:20:47.203Z</time>
      </trkpt>
      <trkpt lat="50.35049996338785" lon="5.492059998214245">
        <ele>134.84</ele>
        <time>2025-02-13T19:20:58.303Z</time>
      </trkpt>
      <trkpt lat="50.35054170526564" lon="5.49157259054482">
        <ele>135.02</ele>
        <time>2025-02-13T19:21:09.408Z</time>
      </trkpt>
      <trkpt lat="50.350559977814555" lon="5.491359941661358">
        <ele>135.3</ele>
        <time>2025-02-13T19:21:20.515Z</time>
      </trkpt>
      <trkpt lat="50.3505799267441" lon="5.491179982200265">
        <ele>135.65</ele>
        <time>2025-02-13T19:21:31.624Z</time>
      </trkpt>
      <trkpt lat="50.35058998502791" lon="5.490979989990592">
        <ele>136.1</ele>
        <time>2025-02-13T19:21:42.735Z</time>
      </trkpt>
      <trkpt lat="50.35058998502791" lon="5.490969931706786">
        <ele>136.6</ele>
        <time>2025-02-13T19:21:53.846Z</time>
      </trkpt>
      <trkpt lat="50.35059995949268" lon="5.490959957242012">
        <ele>137.19</ele>
        <time>2025-02-13T19:22:04.957Z</time>
      </trkpt>
      <trkpt lat="50.35059995949268" lon="5.490929950028658">
        <ele>137.87</ele>
        <time>2025-02-13T19:22:16.068Z</time>
      </trkpt>
      <trkpt lat="50.35061999224126" lon="5.490769939497113">
        <ele>138.65</ele>
        <time>2025-02-13T19:22:27.181Z</time>
      </trkpt>
      <trkpt lat="50.350649831816554" lon="5.490280436351895">
        <ele>139.59</ele>
        <time>2025-02-13T19:22:38.299Z</time>
      </trkpt>
      <trkpt lat="50.35067975521088" lon="5.489790849387646">
        <ele>140.53</ele>
        <time>2025-02-13T19:22:49.422Z</time>
      </trkpt>
      <trkpt lat="50.35070959478617" lon="5.489301346242428">
        <ele>141.59</ele>
        <time>2025-02-13T19:23:00.550Z</time>
      </trkpt>
      <trkpt lat="50.35073951818049" lon="5.48881184309721">
        <ele>142.78</ele>
        <time>2025-02-13T19:23:11.683Z</time>
      </trkpt>
      <trkpt lat="50.35076944157481" lon="5.48832225613296">
        <ele>144.05</ele>
        <time>2025-02-13T19:23:22.821Z</time>
      </trkpt>
      <trkpt lat="50.350779918953776" lon="5.4881499242037535">
        <ele>145.29</ele>
        <time>2025-02-13T19:23:33.961Z</time>
      </trkpt>
      <trkpt lat="50.350779918953776" lon="5.487769972532988">
        <ele>146.64</ele>
        <time>2025-02-13T19:23:45.105Z</time>
      </trkpt>
      <trkpt lat="50.35075997002423" lon="5.487449951469898">
        <ele>148.1</ele>
        <time>2025-02-13T19:23:56.252Z</time>
      </trkpt>
      <trkpt lat="50.35067103803158" lon="5.486978217959404">
        <ele>149.64</ele>
        <time>2025-02-13T19:24:07.404Z</time>
      </trkpt>
      <trkpt lat="50.35062996670604" lon="5.486759953200817">
        <ele>151.17</ele>
        <time>2025-02-13T19:24:18.559Z</time>
      </trkpt>
      <trkpt lat="50.35048923455179" lon="5.486320154741406">
        <ele>152.8</ele>
        <time>2025-02-13T19:24:29.719Z</time>
      </trkpt>
      <trkpt lat="50.350389992818236" lon="5.486009940505028">
        <ele>154.37</ele>
        <time>2025-02-13T19:24:40.882Z</time>
      </trkpt>
      <trkpt lat="50.35023266449571" lon="5.485584056004882">
        <ele>155.98</ele>
        <time>2025-02-13T19:24:52.050Z</time>
      </trkpt>
      <trkpt lat="50.3501499351114" lon="5.485359923914075">
        <ele>157.6</ele>
        <time>2025-02-13T19:25:03.221Z</time>
      </trkpt>
      <trkpt lat="50.34983376972377" lon="5.484509663656354">
        <ele>159.37</ele>
        <time>2025-02-13T19:25:14.402Z</time>
      </trkpt>
      <trkpt lat="50.34967568702996" lon="5.484084449708462">
        <ele>161.07</ele>
        <time>2025-02-13T19:25:25.588Z</time>
      </trkpt>
      <trkpt lat="50.34951760433614" lon="5.483659319579601">
        <ele>162.77</ele>
        <time>2025-02-13T19:25:36.779Z</time>
      </trkpt>
      <trkpt lat="50.349359437823296" lon="5.483234105631709">
        <ele>164.47</ele>
        <time>2025-02-13T19:25:47.975Z</time>
      </trkpt>
      <trkpt lat="50.34920135512948" lon="5.482808975502849">
        <ele>166.18</ele>
        <time>2025-02-13T19:25:59.176Z</time>
      </trkpt>
      <trkpt lat="50.349119966849685" lon="5.482589956372976">
        <ele>167.86</ele>
        <time>2025-02-13T19:26:10.380Z</time>
      </trkpt>
      <trkpt lat="50.348958699032664" lon="5.482167759910226">
        <ele>169.59</ele>
        <time>2025-02-13T19:26:21.589Z</time>
      </trkpt>
      <trkpt lat="50.34879734739661" lon="5.481745563447475">
        <ele>171.26</ele>
        <time>2025-02-13T19:26:32.803Z</time>
      </trkpt>
      <trkpt lat="50.34863607957959" lon="5.481323283165693">
        <ele>172.83</ele>
        <time>2025-02-13T19:26:44.022Z</time>
      </trkpt>
      <trkpt lat="50.34847472794354" lon="5.480901086702943">
        <ele>174.39</ele>
        <time>2025-02-13T19:26:55.246Z</time>
      </trkpt>
      <trkpt lat="50.34831346012652" lon="5.480478890240192">
        <ele>175.97</ele>
        <time>2025-02-13T19:27:06.475Z</time>
      </trkpt>
      <trkpt lat="50.3481521923095" lon="5.480056693777442">
        <ele>177.56</ele>
        <time>2025-02-13T19:27:17.709Z</time>
      </trkpt>
      <trkpt lat="50.34809997305274" lon="5.479919984936714">
        <ele>179.06</ele>
        <time>2025-02-13T19:27:28.945Z</time>
      </trkpt>
      <trkpt lat="50.34793417900801" lon="5.4795019794255495">
        <ele>180.56</ele>
        <time>2025-02-13T19:27:40.186Z</time>
      </trkpt>
      <trkpt lat="50.347768468782306" lon="5.479083973914385">
        <ele>181.98</ele>
        <time>2025-02-13T19:27:51.432Z</time>
      </trkpt>
      <trkpt lat="50.347639974206686" lon="5.478759929537773">
        <ele>183.36</ele>
        <time>2025-02-13T19:28:02.682Z</time>
      </trkpt>
      <trkpt lat="50.34744828008115" lon="5.478370003402233">
        <ele>184.7</ele>
        <time>2025-02-13T19:28:13.937Z</time>
      </trkpt>
      <trkpt lat="50.34734996035695" lon="5.4781699273735285">
        <ele>186.03</ele>
        <time>2025-02-13T19:28:25.194Z</time>
      </trkpt>
      <trkpt lat="50.34713882021606" lon="5.4778053145855665">
        <ele>187.4</ele>
        <time>2025-02-13T19:28:36.456Z</time>
      </trkpt>
      <trkpt lat="50.34701996482909" lon="5.477599957957864">
        <ele>188.65</ele>
        <time>2025-02-13T19:28:47.721Z</time>
      </trkpt>
      <trkpt lat="50.346805891022086" lon="5.477239536121488">
        <ele>189.91</ele>
        <time>2025-02-13T19:28:58.991Z</time>
      </trkpt>
      <trkpt lat="50.346591817215085" lon="5.476879114285111">
        <ele>191.01</ele>
        <time>2025-02-13T19:29:10.266Z</time>
      </trkpt>
      <trkpt lat="50.346377827227116" lon="5.476518776267767">
        <ele>192.06</ele>
        <time>2025-02-13T19:29:21.546Z</time>
      </trkpt>
      <trkpt lat="50.346163753420115" lon="5.476158354431391">
        <ele>193.15</ele>
        <time>2025-02-13T19:29:32.831Z</time>
      </trkpt>
      <trkpt lat="50.34594967961311" lon="5.475797932595015">
        <ele>194.25</ele>
        <time>2025-02-13T19:29:44.121Z</time>
      </trkpt>
      <trkpt lat="50.34584993496537" lon="5.475629959255457">
        <ele>195.2</ele>
        <time>2025-02-13T19:29:55.414Z</time>
      </trkpt>
      <trkpt lat="50.3456499427557" lon="5.475299963727593">
        <ele>196.14</ele>
        <time>2025-02-13T19:30:06.711Z</time>
      </trkpt>
      <trkpt lat="50.34542723558843" lon="5.474952533841133">
        <ele>196.93</ele>
        <time>2025-02-13T19:30:18.013Z</time>
      </trkpt>
      <trkpt lat="50.345399994403124" lon="5.474909953773022">
        <ele>197.66</ele>
        <time>2025-02-13T19:30:29.316Z</time>
      </trkpt>
      <trkpt lat="50.345209054648876" lon="5.474519105628133">
        <ele>198.27</ele>
        <time>2025-02-13T19:30:40.624Z</time>
      </trkpt>
      <trkpt lat="50.345189943909645" lon="5.474479962140322">
        <ele>198.9</ele>
        <time>2025-02-13T19:30:51.933Z</time>
      </trkpt>
      <trkpt lat="50.34502565860748" lon="5.47406061552465">
        <ele>199.48</ele>
        <time>2025-02-13T19:31:03.247Z</time>
      </trkpt>
      <trkpt lat="50.34489993005991" lon="5.4737399239093065">
        <ele>200.08</ele>
        <time>2025-02-13T19:31:14.564Z</time>
      </trkpt>
      <trkpt lat="50.34477872774005" lon="5.473286211490631">
        <ele>200.68</ele>
        <time>2025-02-13T19:31:25.887Z</time>
      </trkpt>
      <trkpt lat="50.34465752542019" lon="5.472832499071956">
        <ele>201.12</ele>
        <time>2025-02-13T19:31:37.215Z</time>
      </trkpt>
      <trkpt lat="50.3445499856025" lon="5.472429916262627">
        <ele>201.57</ele>
        <time>2025-02-13T19:31:48.547Z</time>
      </trkpt>
      <trkpt lat="50.34448997117579" lon="5.47223998233676">
        <ele>201.9</ele>
        <time>2025-02-13T19:31:59.881Z</time>
      </trkpt>
      <trkpt lat="50.344499945640564" lon="5.472119953483343">
        <ele>202.1</ele>
        <time>2025-02-13T19:32:11.216Z</time>
      </trkpt>
      <trkpt lat="50.34437513910234" lon="5.471668587997556">
        <ele>202.27</ele>
        <time>2025-02-13T19:32:22.556Z</time>
      </trkpt>
      <trkpt lat="50.344250332564116" lon="5.471217222511768">
        <ele>202.36</ele>
        <time>2025-02-13T19:32:33.902Z</time>
      </trkpt>
      <trkpt lat="50.34412560984492" lon="5.470765857025981">
        <ele>202.33</ele>
        <time>2025-02-13T19:32:45.253Z</time>
      </trkpt>
      <trkpt lat="50.344029972329736" lon="5.4704199358820915">
        <ele>202.19</ele>
        <time>2025-02-13T19:32:56.607Z</time>
      </trkpt>
      <trkpt lat="50.34391547553241" lon="5.469961948692799">
        <ele>201.96</ele>
        <time>2025-02-13T19:33:07.966Z</time>
      </trkpt>
      <trkpt lat="50.34380097873509" lon="5.469503961503506">
        <ele>201.63</ele>
        <time>2025-02-13T19:33:19.330Z</time>
      </trkpt>
      <trkpt lat="50.343686481937766" lon="5.469045974314213">
        <ele>201.35</ele>
        <time>2025-02-13T19:33:30.700Z</time>
      </trkpt>
      <trkpt lat="50.34367994405329" lon="5.469019990414381">
        <ele>200.97</ele>
        <time>2025-02-13T19:33:42.070Z</time>
      </trkpt>
      <trkpt lat="50.343619929626584" lon="5.468919994309545">
        <ele>200.53</ele>
        <time>2025-02-13T19:33:53.441Z</time>
      </trkpt>
      <trkpt lat="50.343599980697036" lon="5.468829972669482">
        <ele>200.04</ele>
        <time>2025-02-13T19:34:04.813Z</time>
      </trkpt>
      <trkpt lat="50.34350048750639" lon="5.468363435938954">
        <ele>199.54</ele>
        <time>2025-02-13T19:34:16.190Z</time>
      </trkpt>
      <trkpt lat="50.343401078134775" lon="5.467896983027458">
        <ele>198.89</ele>
        <time>2025-02-13T19:34:27.572Z</time>
      </trkpt>
      <trkpt lat="50.34330158494413" lon="5.467430530115962">
        <ele>198.13</ele>
        <time>2025-02-13T19:34:38.959Z</time>
      </trkpt>
      <trkpt lat="50.343202175572515" lon="5.466963993385434">
        <ele>197.33</ele>
        <time>2025-02-13T19:34:50.351Z</time>
      </trkpt>
      <trkpt lat="50.3431027662009" lon="5.466497540473938">
        <ele>196.58</ele>
        <time>2025-02-13T19:35:01.748Z</time>
      </trkpt>
      <trkpt lat="50.34304996021092" lon="5.466249939054251">
        <ele>195.8</ele>
        <time>2025-02-13T19:35:13.148Z</time>
      </trkpt>
      <trkpt lat="50.34295096993446" lon="5.465783234685659">
        <ele>194.96</ele>
        <time>2025-02-13T19:35:24.553Z</time>
      </trkpt>
      <trkpt lat="50.34285197965801" lon="5.465316530317068">
        <ele>194.07</ele>
        <time>2025-02-13T19:35:35.963Z</time>
      </trkpt>
      <trkpt lat="50.34275298938155" lon="5.464849825948477">
        <ele>193.12</ele>
        <time>2025-02-13T19:35:47.378Z</time>
      </trkpt>
      <trkpt lat="50.342653999105096" lon="5.4643831215798855">
        <ele>192.17</ele>
        <time>2025-02-13T19:35:58.798Z</time>
      </trkpt>
      <trkpt lat="50.34255500882864" lon="5.463916417211294">
        <ele>191.19</ele>
        <time>2025-02-13T19:36:10.223Z</time>
      </trkpt>
      <trkpt lat="50.342456018552184" lon="5.463449712842703">
        <ele>190.24</ele>
        <time>2025-02-13T19:36:21.653Z</time>
      </trkpt>
      <trkpt lat="50.34235702827573" lon="5.46298292465508">
        <ele>189.31</ele>
        <time>2025-02-13T19:36:33.088Z</time>
      </trkpt>
      <trkpt lat="50.34225803799927" lon="5.4625162202864885">
        <ele>188.41</ele>
        <time>2025-02-13T19:36:44.528Z</time>
      </trkpt>
      <trkpt lat="50.34215913154185" lon="5.462049515917897">
        <ele>187.47</ele>
        <time>2025-02-13T19:36:55.973Z</time>
      </trkpt>
      <trkpt lat="50.34206014126539" lon="5.461582811549306">
        <ele>186.52</ele>
        <time>2025-02-13T19:37:07.423Z</time>
      </trkpt>
      <trkpt lat="50.341961150988936" lon="5.461116107180715">
        <ele>185.63</ele>
        <time>2025-02-13T19:37:18.879Z</time>
      </trkpt>
      <trkpt lat="50.34186216071248" lon="5.460649402812123">
        <ele>184.74</ele>
        <time>2025-02-13T19:37:30.340Z</time>
      </trkpt>
      <trkpt lat="50.341763254255056" lon="5.460182698443532">
        <ele>183.88</ele>
        <time>2025-02-13T19:37:41.806Z</time>
      </trkpt>
      <trkpt lat="50.34167993813753" lon="5.459789922460914">
        <ele>183.07</ele>
        <time>2025-02-13T19:37:53.276Z</time>
      </trkpt>
      <trkpt lat="50.34157876856625" lon="5.459324391558766">
        <ele>182.26</ele>
        <time>2025-02-13T19:38:04.751Z</time>
      </trkpt>
      <trkpt lat="50.34147751517594" lon="5.458858860656619">
        <ele>181.55</ele>
        <time>2025-02-13T19:38:16.231Z</time>
      </trkpt>
      <trkpt lat="50.34137634560466" lon="5.458393329754472">
        <ele>180.86</ele>
        <time>2025-02-13T19:38:27.716Z</time>
      </trkpt>
      <trkpt lat="50.34127517603338" lon="5.4579277988523245">
        <ele>180.18</ele>
        <time>2025-02-13T19:38:39.206Z</time>
      </trkpt>
      <trkpt lat="50.34117995761335" lon="5.457489928230643">
        <ele>179.56</ele>
        <time>2025-02-13T19:38:50.701Z</time>
      </trkpt>
      <trkpt lat="50.341082056984305" lon="5.457022720947862">
        <ele>179.03</ele>
        <time>2025-02-13T19:39:02.201Z</time>
      </trkpt>
      <trkpt lat="50.34098415635526" lon="5.456555429846048">
        <ele>178.54</ele>
        <time>2025-02-13T19:39:13.706Z</time>
      </trkpt>
      <trkpt lat="50.34088625572622" lon="5.456088138744235">
        <ele>178.18</ele>
        <time>2025-02-13T19:39:25.216Z</time>
      </trkpt>
      <trkpt lat="50.340788438916206" lon="5.455620931461453">
        <ele>177.87</ele>
        <time>2025-02-13T19:39:36.731Z</time>
      </trkpt>
      <trkpt lat="50.34069053828716" lon="5.45515364035964">
        <ele>177.63</ele>
        <time>2025-02-13T19:39:48.251Z</time>
      </trkpt>
      <trkpt lat="50.34064996987581" lon="5.454959934577346">
        <ele>177.46</ele>
        <time>2025-02-13T19:39:59.773Z</time>
      </trkpt>
      <trkpt lat="50.34054955467582" lon="5.45449398458004">
        <ele>177.34</ele>
        <time>2025-02-13T19:40:11.300Z</time>
      </trkpt>
      <trkpt lat="50.340449223294854" lon="5.454028034582734">
        <ele>177.27</ele>
        <time>2025-02-13T19:40:22.832Z</time>
      </trkpt>
      <trkpt lat="50.34034889191389" lon="5.4535620007663965">
        <ele>177.23</ele>
        <time>2025-02-13T19:40:34.369Z</time>
      </trkpt>
      <trkpt lat="50.340248476713896" lon="5.453096050769091">
        <ele>177.23</ele>
        <time>2025-02-13T19:40:45.911Z</time>
      </trkpt>
      <trkpt lat="50.34022995270789" lon="5.453009968623519">
        <ele>177.25</ele>
        <time>2025-02-13T19:40:57.454Z</time>
      </trkpt>
      <trkpt lat="50.34013389609754" lon="5.452541755512357">
        <ele>177.37</ele>
        <time>2025-02-13T19:41:09.002Z</time>
      </trkpt>
      <trkpt lat="50.340037839487195" lon="5.452073542401195">
        <ele>177.51</ele>
        <time>2025-02-13T19:41:20.555Z</time>
      </trkpt>
      <trkpt lat="50.33994186669588" lon="5.451605413109064">
        <ele>177.61</ele>
        <time>2025-02-13T19:41:32.113Z</time>
      </trkpt>
      <trkpt lat="50.339845810085535" lon="5.451137199997902">
        <ele>177.68</ele>
        <time>2025-02-13T19:41:43.676Z</time>
      </trkpt>
      <trkpt lat="50.33974992111325" lon="5.45066999271512">
        <ele>177.73</ele>
        <time>2025-02-13T19:41:55.244Z</time>
      </trkpt>
      <trkpt lat="50.339689487591386" lon="5.450187446549535">
        <ele>177.75</ele>
        <time>2025-02-13T19:42:06.817Z</time>
      </trkpt>
      <trkpt lat="50.33962897025049" lon="5.449704984202981">
        <ele>177.82</ele>
        <time>2025-02-13T19:42:18.395Z</time>
      </trkpt>
      <trkpt lat="50.33956845290959" lon="5.449222521856427">
        <ele>177.86</ele>
        <time>2025-02-13T19:42:29.978Z</time>
      </trkpt>
      <trkpt lat="50.33950793556869" lon="5.448740059509873">
        <ele>177.89</ele>
        <time>2025-02-13T19:42:41.566Z</time>
      </trkpt>
      <trkpt lat="50.33944741822779" lon="5.44825759716332">
        <ele>177.93</ele>
        <time>2025-02-13T19:42:53.160Z</time>
      </trkpt>
      <trkpt lat="50.33938690088689" lon="5.447775134816766">
        <ele>177.91</ele>
        <time>2025-02-13T19:43:04.759Z</time>
      </trkpt>
      <trkpt lat="50.33935999497771" lon="5.447559971362352">
        <ele>177.91</ele>
        <time>2025-02-13T19:43:16.360Z</time>
      </trkpt>
      <trkpt lat="50.33929813653231" lon="5.447077928110957">
        <ele>177.91</ele>
        <time>2025-02-13T19:43:27.966Z</time>
      </trkpt>
      <trkpt lat="50.33923636190593" lon="5.44659580104053">
        <ele>177.94</ele>
        <time>2025-02-13T19:43:39.577Z</time>
      </trkpt>
      <trkpt lat="50.33917458727956" lon="5.446113757789135">
        <ele>177.98</ele>
        <time>2025-02-13T19:43:51.193Z</time>
      </trkpt>
      <trkpt lat="50.339112812653184" lon="5.44563171453774">
        <ele>177.99</ele>
        <time>2025-02-13T19:44:02.814Z</time>
      </trkpt>
      <trkpt lat="50.33905103802681" lon="5.445149587467313">
        <ele>177.9</ele>
        <time>2025-02-13T19:44:14.440Z</time>
      </trkpt>
      <trkpt lat="50.338989263400435" lon="5.444667544215918">
        <ele>177.78</ele>
        <time>2025-02-13T19:44:26.071Z</time>
      </trkpt>
      <trkpt lat="50.33892748877406" lon="5.444185500964522">
        <ele>177.68</ele>
        <time>2025-02-13T19:44:37.707Z</time>
      </trkpt>
      <trkpt lat="50.33886571414769" lon="5.443703373894095">
        <ele>177.55</ele>
        <time>2025-02-13T19:44:49.348Z</time>
      </trkpt>
      <trkpt lat="50.33880393952131" lon="5.4432213306427">
        <ele>177.4</ele>
        <time>2025-02-13T19:45:00.994Z</time>
      </trkpt>
      <trkpt lat="50.33874996006489" lon="5.442799972370267">
        <ele>177.24</ele>
        <time>2025-02-13T19:45:12.645Z</time>
      </trkpt>
      <trkpt lat="50.33868617378175" lon="5.442318515852094">
        <ele>176.93</ele>
        <time>2025-02-13T19:45:24.301Z</time>
      </trkpt>
      <trkpt lat="50.33863998949528" lon="5.441969996318221">
        <ele>176.57</ele>
        <time>2025-02-13T19:45:35.960Z</time>
      </trkpt>
      <trkpt lat="50.33857888542116" lon="5.441487701609731">
        <ele>176.16</ele>
        <time>2025-02-13T19:45:47.624Z</time>
      </trkpt>
      <trkpt lat="50.338517781347036" lon="5.44100540690124">
        <ele>175.78</ele>
        <time>2025-02-13T19:45:59.293Z</time>
      </trkpt>
      <trkpt lat="50.338456677272916" lon="5.44052311219275">
        <ele>175.39</ele>
        <time>2025-02-13T19:46:10.967Z</time>
      </trkpt>
      <trkpt lat="50.338395573198795" lon="5.44004081748426">
        <ele>175.03</ele>
        <time>2025-02-13T19:46:22.646Z</time>
      </trkpt>
      <trkpt lat="50.338359950110316" lon="5.439759939908981">
        <ele>174.61</ele>
        <time>2025-02-13T19:46:34.328Z</time>
      </trkpt>
      <trkpt lat="50.33830303698778" lon="5.439276387915015">
        <ele>174.14</ele>
        <time>2025-02-13T19:46:46.015Z</time>
      </trkpt>
      <trkpt lat="50.33824620768428" lon="5.438792919740081">
        <ele>173.66</ele>
        <time>2025-02-13T19:46:57.707Z</time>
      </trkpt>
      <trkpt lat="50.338189294561744" lon="5.438309367746115">
        <ele>173.15</ele>
        <time>2025-02-13T19:47:09.404Z</time>
      </trkpt>
      <trkpt lat="50.33813238143921" lon="5.437825815752149">
        <ele>172.63</ele>
        <time>2025-02-13T19:47:21.107Z</time>
      </trkpt>
      <trkpt lat="50.33807999454439" lon="5.4373799823224545">
        <ele>172.12</ele>
        <time>2025-02-13T19:47:32.814Z</time>
      </trkpt>
      <trkpt lat="50.337989972904325" lon="5.437439996749163">
        <ele>171.61</ele>
        <time>2025-02-13T19:47:44.523Z</time>
      </trkpt>
      <trkpt lat="50.33754548057914" lon="5.437503447756171">
        <ele>171.05</ele>
        <time>2025-02-13T19:47:56.239Z</time>
      </trkpt>
      <trkpt lat="50.337479934096336" lon="5.437499927356839">
        <ele>170.58</ele>
        <time>2025-02-13T19:48:07.956Z</time>
      </trkpt>
      <trkpt lat="50.337166702374816" lon="5.437453156337142">
        <ele>170.11</ele>
        <time>2025-02-13T19:48:19.678Z</time>
      </trkpt>
      <trkpt lat="50.33685355447233" lon="5.437406301498413">
        <ele>169.61</ele>
        <time>2025-02-13T19:48:31.405Z</time>
      </trkpt>
      <trkpt lat="50.33654032275081" lon="5.437359446659684">
        <ele>169.18</ele>
        <time>2025-02-13T19:48:43.137Z</time>
      </trkpt>
      <trkpt lat="50.33640998415649" lon="5.4373399168252945">
        <ele>168.82</ele>
        <time>2025-02-13T19:48:54.871Z</time>
      </trkpt>
      <trkpt lat="50.336096081882715" lon="5.4373060539364815">
        <ele>168.59</ele>
        <time>2025-02-13T19:49:06.610Z</time>
      </trkpt>
      <trkpt lat="50.336039923131466" lon="5.437299935147166">
        <ele>168.34</ele>
        <time>2025-02-13T19:49:18.350Z</time>
      </trkpt>
      <trkpt lat="50.33572627231479" lon="5.4372612945735455">
        <ele>168.16</ele>
        <time>2025-02-13T19:49:30.095Z</time>
      </trkpt>
      <trkpt lat="50.33541262149811" lon="5.437222653999925">
        <ele>167.96</ele>
        <time>2025-02-13T19:49:41.845Z</time>
      </trkpt>
      <trkpt lat="50.33509897068143" lon="5.437183929607272">
        <ele>167.83</ele>
        <time>2025-02-13T19:49:53.600Z</time>
      </trkpt>
      <trkpt lat="50.33478523604572" lon="5.437145289033651">
        <ele>167.77</ele>
        <time>2025-02-13T19:50:05.360Z</time>
      </trkpt>
      <trkpt lat="50.33457996323705" lon="5.437119975686073">
        <ele>167.76</ele>
        <time>2025-02-13T19:50:17.124Z</time>
      </trkpt>
      <trkpt lat="50.33426631242037" lon="5.4370807483792305">
        <ele>167.81</ele>
        <time>2025-02-13T19:50:28.893Z</time>
      </trkpt>
      <trkpt lat="50.3341799788177" lon="5.437069935724139">
        <ele>167.88</ele>
        <time>2025-02-13T19:50:40.663Z</time>
      </trkpt>
      <trkpt lat="50.33386800438166" lon="5.437005730345845">
        <ele>168.0</ele>
        <time>2025-02-13T19:50:52.438Z</time>
      </trkpt>
      <trkpt lat="50.33383992500603" lon="5.436999946832657">
        <ele>168.12</ele>
        <time>2025-02-13T19:51:04.213Z</time>
      </trkpt>
      <trkpt lat="50.33368997275829" lon="5.4369299579411745">
        <ele>168.26</ele>
        <time>2025-02-13T19:51:15.991Z</time>
      </trkpt>
      <trkpt lat="50.33346994780004" lon="5.436759972944856">
        <ele>168.45</ele>
        <time>2025-02-13T19:51:27.773Z</time>
      </trkpt>
      <trkpt lat="50.33335997723043" lon="5.436649918556213">
        <ele>168.69</ele>
        <time>2025-02-13T19:51:39.557Z</time>
      </trkpt>
      <trkpt lat="50.33310826867819" lon="5.436354875564575">
        <ele>169.0</ele>
        <time>2025-02-13T19:51:51.346Z</time>
      </trkpt>
      <trkpt lat="50.333069963380694" lon="5.436309948563576">
        <ele>169.3</ele>
        <time>2025-02-13T19:52:03.136Z</time>
      </trkpt>
      <trkpt lat="50.33296996727586" lon="5.436179945245385">
        <ele>169.63</ele>
        <time>2025-02-13T19:52:14.928Z</time>
      </trkpt>
      <trkpt lat="50.33279998227954" lon="5.435879956930876">
        <ele>169.94</ele>
        <time>2025-02-13T19:52:26.724Z</time>
      </trkpt>
      <trkpt lat="50.332588758319616" lon="5.435515595600009">
        <ele>170.24</ele>
        <time>2025-02-13T19:52:38.525Z</time>
      </trkpt>
      <trkpt lat="50.33237753435969" lon="5.43515115045011">
        <ele>170.67</ele>
        <time>2025-02-13T19:52:50.331Z</time>
      </trkpt>
      <trkpt lat="50.3321663942188" lon="5.434786789119244">
        <ele>171.09</ele>
        <time>2025-02-13T19:53:02.142Z</time>
      </trkpt>
      <trkpt lat="50.33195517025888" lon="5.434422427788377">
        <ele>171.5</ele>
        <time>2025-02-13T19:53:13.958Z</time>
      </trkpt>
      <trkpt lat="50.33174394629896" lon="5.43405806645751">
        <ele>171.88</ele>
        <time>2025-02-13T19:53:25.779Z</time>
      </trkpt>
      <trkpt lat="50.331532806158066" lon="5.4336936213076115">
        <ele>172.3</ele>
        <time>2025-02-13T19:53:37.605Z</time>
      </trkpt>
      <trkpt lat="50.33137992024422" lon="5.433429926633835">
        <ele>172.71</ele>
        <time>2025-02-13T19:53:49.435Z</time>
      </trkpt>
      <trkpt lat="50.33116693608463" lon="5.433068247511983">
        <ele>173.05</ele>
        <time>2025-02-13T19:54:01.270Z</time>
      </trkpt>
      <trkpt lat="50.33095386810601" lon="5.432706484571099">
        <ele>173.41</ele>
        <time>2025-02-13T19:54:13.110Z</time>
      </trkpt>
      <trkpt lat="50.33074080012739" lon="5.432344721630216">
        <ele>173.77</ele>
        <time>2025-02-13T19:54:24.955Z</time>
      </trkpt>
      <trkpt lat="50.33052773214877" lon="5.431983042508364">
        <ele>174.13</ele>
        <time>2025-02-13T19:54:36.805Z</time>
      </trkpt>
      <trkpt lat="50.33041994087398" lon="5.431799981743097">
        <ele>174.53</ele>
        <time>2025-02-13T19:54:48.658Z</time>
      </trkpt>
      <trkpt lat="50.330209136009216" lon="5.4314350336790085">
        <ele>174.96</ele>
        <time>2025-02-13T19:55:00.516Z</time>
      </trkpt>
      <trkpt lat="50.32999833114445" lon="5.431070169433951">
        <ele>175.41</ele>
        <time>2025-02-13T19:55:12.379Z</time>
      </trkpt>
      <trkpt lat="50.32989992760122" lon="5.430899932980537">
        <ele>175.77</ele>
        <time>2025-02-13T19:55:24.244Z</time>
      </trkpt>
      <trkpt lat="50.32968761399388" lon="5.430537248030305">
        <ele>176.13</ele>
        <time>2025-02-13T19:55:36.114Z</time>
      </trkpt>
      <trkpt lat="50.329475216567516" lon="5.430174563080072">
        <ele>176.45</ele>
        <time>2025-02-13T19:55:47.989Z</time>
      </trkpt>
      <trkpt lat="50.32926290296018" lon="5.429811794310808">
        <ele>176.81</ele>
        <time>2025-02-13T19:55:59.869Z</time>
      </trkpt>
      <trkpt lat="50.329050505533814" lon="5.429449109360576">
        <ele>177.18</ele>
        <time>2025-02-13T19:56:11.754Z</time>
      </trkpt>
      <trkpt lat="50.32883819192648" lon="5.429086424410343">
        <ele>177.53</ele>
        <time>2025-02-13T19:56:23.644Z</time>
      </trkpt>
      <trkpt lat="50.32862579450011" lon="5.428723739460111">
        <ele>177.84</ele>
        <time>2025-02-13T19:56:35.539Z</time>
      </trkpt>
      <trkpt lat="50.32841348089278" lon="5.428360970690846">
        <ele>178.19</ele>
        <time>2025-02-13T19:56:47.439Z</time>
      </trkpt>
      <trkpt lat="50.32820108346641" lon="5.427998285740614">
        <ele>178.54</ele>
        <time>2025-02-13T19:56:59.344Z</time>
      </trkpt>
      <trkpt lat="50.327988769859076" lon="5.427635600790381">
        <ele>178.87</ele>
        <time>2025-02-13T19:57:11.254Z</time>
      </trkpt>
      <trkpt lat="50.32777637243271" lon="5.427272832021117">
        <ele>179.14</ele>
        <time>2025-02-13T19:57:23.169Z</time>
      </trkpt>
      <trkpt lat="50.327564058825374" lon="5.426910147070885">
        <ele>179.35</ele>
        <time>2025-02-13T19:57:35.089Z</time>
      </trkpt>
      <trkpt lat="50.32735174521804" lon="5.426547462120652">
        <ele>179.56</ele>
        <time>2025-02-13T19:57:47.014Z</time>
      </trkpt>
      <trkpt lat="50.32713934779167" lon="5.42618477717042">
        <ele>179.79</ele>
        <time>2025-02-13T19:57:58.945Z</time>
      </trkpt>
      <trkpt lat="50.32692703418434" lon="5.4258220084011555">
        <ele>180.0</ele>
        <time>2025-02-13T19:58:10.881Z</time>
      </trkpt>
      <trkpt lat="50.32691999338567" lon="5.4258099384605885">
        <ele>180.15</ele>
        <time>2025-02-13T19:58:22.817Z</time>
      </trkpt>
      <trkpt lat="50.32670684158802" lon="5.4254484269768">
        <ele>180.28</ele>
        <time>2025-02-13T19:58:34.758Z</time>
      </trkpt>
      <trkpt lat="50.326493605971336" lon="5.42508683167398">
        <ele>180.41</ele>
        <time>2025-02-13T19:58:46.704Z</time>
      </trkpt>
      <trkpt lat="50.326280454173684" lon="5.424725320190191">
        <ele>180.5</ele>
        <time>2025-02-13T19:58:58.655Z</time>
      </trkpt>
      <trkpt lat="50.32606730237603" lon="5.424363808706403">
        <ele>180.63</ele>
        <time>2025-02-13T19:59:10.611Z</time>
      </trkpt>
      <trkpt lat="50.32585415057838" lon="5.424002213403583">
        <ele>180.78</ele>
        <time>2025-02-13T19:59:22.572Z</time>
      </trkpt>
      <trkpt lat="50.32564108259976" lon="5.423640701919794">
        <ele>180.89</ele>
        <time>2025-02-13T19:59:34.538Z</time>
      </trkpt>
      <trkpt lat="50.32542793080211" lon="5.423279106616974">
        <ele>180.94</ele>
        <time>2025-02-13T19:59:46.509Z</time>
      </trkpt>
      <trkpt lat="50.325339920818806" lon="5.423129992559552">
        <ele>181.02</ele>
        <time>2025-02-13T19:59:58.482Z</time>
      </trkpt>
      <trkpt lat="50.32512651756406" lon="5.422768816351891">
        <ele>181.1</ele>
        <time>2025-02-13T20:00:10.460Z</time>
      </trkpt>
      <trkpt lat="50.32491311430931" lon="5.422407640144229">
        <ele>181.3</ele>
        <time>2025-02-13T20:00:22.443Z</time>
      </trkpt>
      <trkpt lat="50.324819991365075" lon="5.422249976545572">
        <ele>181.5</ele>
        <time>2025-02-13T20:00:34.428Z</time>
      </trkpt>
      <trkpt lat="50.324689988046885" lon="5.4220399260520935">
        <ele>181.72</ele>
        <time>2025-02-13T20:00:46.416Z</time>
      </trkpt>
      <trkpt lat="50.32459996640682" lon="5.422069933265448">
        <ele>181.99</ele>
        <time>2025-02-13T20:00:58.406Z</time>
      </trkpt>
      <trkpt lat="50.32398557290435" lon="5.422282917425036">
        <ele>182.33</ele>
        <time>2025-02-13T20:01:10.406Z</time>
      </trkpt>
      <trkpt lat="50.32367845997214" lon="5.422389451414347">
        <ele>182.71</ele>
        <time>2025-02-13T20:01:22.411Z</time>
      </trkpt>
      <trkpt lat="50.323371263220906" lon="5.422495901584625">
        <ele>183.17</ele>
        <time>2025-02-13T20:01:34.421Z</time>
      </trkpt>
      <trkpt lat="50.32309994101524" lon="5.42258994653821">
        <ele>183.65</ele>
        <time>2025-02-13T20:01:46.435Z</time>
      </trkpt>
      <trkpt lat="50.32279349863529" lon="5.422701593488455">
        <ele>184.19</ele>
        <time>2025-02-13T20:01:58.455Z</time>
      </trkpt>
      <trkpt lat="50.32248714007437" lon="5.4228132404387">
        <ele>184.69</ele>
        <time>2025-02-13T20:02:10.480Z</time>
      </trkpt>
      <trkpt lat="50.32218069769442" lon="5.422924803569913">
        <ele>185.18</ele>
        <time>2025-02-13T20:02:22.510Z</time>
      </trkpt>
      <trkpt lat="50.32187425531447" lon="5.423036450520158">
        <ele>185.77</ele>
        <time>2025-02-13T20:02:34.545Z</time>
      </trkpt>
      <trkpt lat="50.32169999554753" lon="5.423099985346198">
        <ele>186.43</ele>
        <time>2025-02-13T20:02:46.582Z</time>
      </trkpt>
      <trkpt lat="50.32139338552952" lon="5.423210375010967">
        <ele>187.19</ele>
        <time>2025-02-13T20:02:58.625Z</time>
      </trkpt>
      <trkpt lat="50.3210867755115" lon="5.423320680856705">
        <ele>188.01</ele>
        <time>2025-02-13T20:03:10.673Z</time>
      </trkpt>
      <trkpt lat="50.32078016549349" lon="5.423431070521474">
        <ele>188.9</ele>
        <time>2025-02-13T20:03:22.726Z</time>
      </trkpt>
      <trkpt lat="50.32047355547547" lon="5.423541460186243">
        <ele>189.95</ele>
        <time>2025-02-13T20:03:34.784Z</time>
      </trkpt>
      <trkpt lat="50.32016694545746" lon="5.423651849851012">
        <ele>191.14</ele>
        <time>2025-02-13T20:03:46.847Z</time>
      </trkpt>
      <trkpt lat="50.31994993798435" lon="5.423729969188571">
        <ele>192.38</ele>
        <time>2025-02-13T20:03:58.913Z</time>
      </trkpt>
      <trkpt lat="50.31986997462809" lon="5.423759976401925">
        <ele>193.65</ele>
        <time>2025-02-13T20:04:10.981Z</time>
      </trkpt>
      <trkpt lat="50.31956294551492" lon="5.423847567290068">
        <ele>195.11</ele>
        <time>2025-02-13T20:04:23.054Z</time>
      </trkpt>
      <trkpt lat="50.319255916401744" lon="5.42395519092679">
        <ele>196.62</ele>
        <time>2025-02-13T20:04:35.132Z</time>
      </trkpt>
      <trkpt lat="50.31894888728857" lon="5.424062814563513">
        <ele>198.15</ele>
        <time>2025-02-13T20:04:47.215Z</time>
      </trkpt>
      <trkpt lat="50.31864194199443" lon="5.424170438200235">
        <ele>199.73</ele>
        <time>2025-02-13T20:04:59.303Z</time>
      </trkpt>
      <trkpt lat="50.318334912881255" lon="5.424277978017926">
        <ele>201.26</ele>
        <time>2025-02-13T20:05:11.396Z</time>
      </trkpt>
      <trkpt lat="50.31802788376808" lon="5.424385601654649">
        <ele>202.78</ele>
        <time>2025-02-13T20:05:23.494Z</time>
      </trkpt>
      <trkpt lat="50.31772085465491" lon="5.424493225291371">
        <ele>204.29</ele>
        <time>2025-02-13T20:05:35.597Z</time>
      </trkpt>
      <trkpt lat="50.317413825541735" lon="5.424600848928094">
        <ele>205.65</ele>
        <time>2025-02-13T20:05:47.705Z</time>
      </trkpt>
      <trkpt lat="50.31710688024759" lon="5.4247084725648165">
        <ele>206.99</ele>
        <time>2025-02-13T20:05:59.818Z</time>
      </trkpt>
      <trkpt lat="50.316959945484996" lon="5.42475993745029">
        <ele>208.26</ele>
        <time>2025-02-13T20:06:11.933Z</time>
      </trkpt>
      <trkpt lat="50.31665291637182" lon="5.424867309629917">
        <ele>209.48</ele>
        <time>2025-02-13T20:06:24.053Z</time>
      </trkpt>
      <trkpt lat="50.31634588725865" lon="5.424974681809545">
        <ele>210.64</ele>
        <time>2025-02-13T20:06:36.178Z</time>
      </trkpt>
      <trkpt lat="50.316038774326444" lon="5.42508197017014">
        <ele>211.84</ele>
        <time>2025-02-13T20:06:48.308Z</time>
      </trkpt>
      <trkpt lat="50.31573174521327" lon="5.425189342349768">
        <ele>212.97</ele>
        <time>2025-02-13T20:07:00.443Z</time>
      </trkpt>
      <trkpt lat="50.315729985013604" lon="5.42518992908299">
        <ele>213.96</ele>
        <time>2025-02-13T20:07:12.578Z</time>
      </trkpt>
      <trkpt lat="50.31542396172881" lon="5.425304174423218">
        <ele>214.92</ele>
        <time>2025-02-13T20:07:24.719Z</time>
      </trkpt>
      <trkpt lat="50.31511785462499" lon="5.425418335944414">
        <ele>215.78</ele>
        <time>2025-02-13T20:07:36.865Z</time>
      </trkpt>
      <trkpt lat="50.31505993567407" lon="5.425439961254597">
        <ele>216.52</ele>
        <time>2025-02-13T20:07:49.012Z</time>
      </trkpt>
      <trkpt lat="50.31475299037993" lon="5.42554808780551">
        <ele>217.22</ele>
        <time>2025-02-13T20:08:01.164Z</time>
      </trkpt>
      <trkpt lat="50.31444604508579" lon="5.425656214356422">
        <ele>217.8</ele>
        <time>2025-02-13T20:08:13.321Z</time>
      </trkpt>
      <trkpt lat="50.31417991966009" lon="5.42574992403388">
        <ele>218.21</ele>
        <time>2025-02-13T20:08:25.482Z</time>
      </trkpt>
      <trkpt lat="50.313873225823045" lon="5.425859559327364">
        <ele>218.46</ele>
        <time>2025-02-13T20:08:37.648Z</time>
      </trkpt>
      <trkpt lat="50.313566531986" lon="5.425969194620848">
        <ele>218.7</ele>
        <time>2025-02-13T20:08:49.819Z</time>
      </trkpt>
      <trkpt lat="50.31325983814895" lon="5.426078829914331">
        <ele>218.92</ele>
        <time>2025-02-13T20:09:01.995Z</time>
      </trkpt>
      <trkpt lat="50.31295306049287" lon="5.426188465207815">
        <ele>219.0</ele>
        <time>2025-02-13T20:09:14.176Z</time>
      </trkpt>
      <trkpt lat="50.31264636665583" lon="5.426298100501299">
        <ele>218.83</ele>
        <time>2025-02-13T20:09:26.362Z</time>
      </trkpt>
      <trkpt lat="50.31233967281878" lon="5.426407735794783">
        <ele>218.46</ele>
        <time>2025-02-13T20:09:38.553Z</time>
      </trkpt>
      <trkpt lat="50.3120328951627" lon="5.426517371088266">
        <ele>217.96</ele>
        <time>2025-02-13T20:09:50.749Z</time>
      </trkpt>
      <trkpt lat="50.311726201325655" lon="5.426626922562718">
        <ele>217.53</ele>
        <time>2025-02-13T20:10:02.950Z</time>
      </trkpt>
      <trkpt lat="50.31154992990196" lon="5.426689954474568">
        <ele>217.03</ele>
        <time>2025-02-13T20:10:15.154Z</time>
      </trkpt>
      <trkpt lat="50.31124357134104" lon="5.426802020519972">
        <ele>216.44</ele>
        <time>2025-02-13T20:10:27.363Z</time>
      </trkpt>
      <trkpt lat="50.31093721278012" lon="5.426914002746344">
        <ele>215.66</ele>
        <time>2025-02-13T20:10:39.577Z</time>
      </trkpt>
      <trkpt lat="50.3106308542192" lon="5.427026068791747">
        <ele>214.81</ele>
        <time>2025-02-13T20:10:51.796Z</time>
      </trkpt>
      <trkpt lat="50.31032449565828" lon="5.427138134837151">
        <ele>213.85</ele>
        <time>2025-02-13T20:11:04.020Z</time>
      </trkpt>
      <trkpt lat="50.31001813709736" lon="5.427250117063522">
        <ele>212.81</ele>
        <time>2025-02-13T20:11:16.249Z</time>
      </trkpt>
      <trkpt lat="50.3097999561578" lon="5.427329996600747">
        <ele>211.78</ele>
        <time>2025-02-13T20:11:28.482Z</time>
      </trkpt>
      <trkpt lat="50.309493681415915" lon="5.427442314103246">
        <ele>210.65</ele>
        <time>2025-02-13T20:11:40.720Z</time>
      </trkpt>
      <trkpt lat="50.309187322854996" lon="5.427554631605744">
        <ele>209.49</ele>
        <time>2025-02-13T20:11:52.963Z</time>
      </trkpt>
      <trkpt lat="50.308880964294076" lon="5.427666865289211">
        <ele>208.29</ele>
        <time>2025-02-13T20:12:05.211Z</time>
      </trkpt>
      <trkpt lat="50.30857468955219" lon="5.42777918279171">
        <ele>207.0</ele>
        <time>2025-02-13T20:12:17.464Z</time>
      </trkpt>
      <trkpt lat="50.308299930766225" lon="5.427879933267832">
        <ele>205.76</ele>
        <time>2025-02-13T20:12:29.722Z</time>
      </trkpt>
      <trkpt lat="50.30799516476691" lon="5.428001889958978">
        <ele>204.45</ele>
        <time>2025-02-13T20:12:41.985Z</time>
      </trkpt>
      <trkpt lat="50.30769031494856" lon="5.428123762831092">
        <ele>203.19</ele>
        <time>2025-02-13T20:12:54.253Z</time>
      </trkpt>
      <trkpt lat="50.30738554894924" lon="5.428245719522238">
        <ele>202.07</ele>
        <time>2025-02-13T20:13:06.526Z</time>
      </trkpt>
      <trkpt lat="50.30708069913089" lon="5.428367676213384">
        <ele>200.89</ele>
        <time>2025-02-13T20:13:18.804Z</time>
      </trkpt>
      <trkpt lat="50.30699998140335" lon="5.428399946540594">
        <ele>199.7</ele>
        <time>2025-02-13T20:13:31.083Z</time>
      </trkpt>
      <trkpt lat="50.30669605359435" lon="5.4285273514688015">
        <ele>198.47</ele>
        <time>2025-02-13T20:13:43.367Z</time>
      </trkpt>
      <trkpt lat="50.30639220960438" lon="5.428654840216041">
        <ele>197.26</ele>
        <time>2025-02-13T20:13:55.656Z</time>
      </trkpt>
      <trkpt lat="50.30637997202575" lon="5.428659953176975">
        <ele>196.16</ele>
        <time>2025-02-13T20:14:07.945Z</time>
      </trkpt>
      <trkpt lat="50.30626991763711" lon="5.428649978712201">
        <ele>195.05</ele>
        <time>2025-02-13T20:14:20.236Z</time>
      </trkpt>
      <trkpt lat="50.30613999813795" lon="5.4286999348551035">
        <ele>193.97</ele>
        <time>2025-02-13T20:14:32.529Z</time>
      </trkpt>
      <trkpt lat="50.305833891034126" lon="5.428813677281141">
        <ele>192.9</ele>
        <time>2025-02-13T20:14:44.827Z</time>
      </trkpt>
      <trkpt lat="50.30578996986151" lon="5.428829938173294">
        <ele>191.93</ele>
        <time>2025-02-13T20:14:57.126Z</time>
      </trkpt>
      <trkpt lat="50.30548512004316" lon="5.42895189486444">
        <ele>191.0</ele>
        <time>2025-02-13T20:15:09.430Z</time>
      </trkpt>
      <trkpt lat="50.305439941585064" lon="5.4289699997752905">
        <ele>190.1</ele>
        <time>2025-02-13T20:15:21.735Z</time>
      </trkpt>
      <trkpt lat="50.3051340021193" lon="5.429084664210677">
        <ele>189.13</ele>
        <time>2025-02-13T20:15:34.045Z</time>
      </trkpt>
      <trkpt lat="50.30495999380946" lon="5.429149959236383">
        <ele>188.28</ele>
        <time>2025-02-13T20:15:46.358Z</time>
      </trkpt>
      <trkpt lat="50.3046799544245" lon="5.4293599259108305">
        <ele>187.59</ele>
        <time>2025-02-13T20:15:58.676Z</time>
      </trkpt>
      <trkpt lat="50.30442547984421" lon="5.4296488501131535">
        <ele>186.89</ele>
        <time>2025-02-13T20:16:10.999Z</time>
      </trkpt>
      <trkpt lat="50.30430997721851" lon="5.429779943078756">
        <ele>186.22</ele>
        <time>2025-02-13T20:16:23.324Z</time>
      </trkpt>
      <trkpt lat="50.30406245961785" lon="5.430083200335503">
        <ele>185.58</ele>
        <time>2025-02-13T20:16:35.654Z</time>
      </trkpt>
      <trkpt lat="50.303814858198166" lon="5.430386541411281">
        <ele>185.01</ele>
        <time>2025-02-13T20:16:47.989Z</time>
      </trkpt>
      <trkpt lat="50.30356734059751" lon="5.430689798668027">
        <ele>184.48</ele>
        <time>2025-02-13T20:17:00.329Z</time>
      </trkpt>
      <trkpt lat="50.303319822996855" lon="5.430993055924773">
        <ele>183.84</ele>
        <time>2025-02-13T20:17:12.674Z</time>
      </trkpt>
      <trkpt lat="50.3031999617815" lon="5.43113999068737">
        <ele>183.23</ele>
        <time>2025-02-13T20:17:25.022Z</time>
      </trkpt>
      <trkpt lat="50.30295596458018" lon="5.431450121104717">
        <ele>182.65</ele>
        <time>2025-02-13T20:17:37.375Z</time>
      </trkpt>
      <trkpt lat="50.302711967378855" lon="5.431760335341096">
        <ele>182.17</ele>
        <time>2025-02-13T20:17:49.733Z</time>
      </trkpt>
      <trkpt lat="50.30260995961726" lon="5.431889919564128">
        <ele>181.7</ele>
        <time>2025-02-13T20:18:02.093Z</time>
      </trkpt>
      <trkpt lat="50.30236252583563" lon="5.432193344458938">
        <ele>181.26</ele>
        <time>2025-02-13T20:18:14.458Z</time>
      </trkpt>
      <trkpt lat="50.30211500823498" lon="5.432496769353747">
        <ele>180.78</ele>
        <time>2025-02-13T20:18:26.828Z</time>
      </trkpt>
      <trkpt lat="50.301867574453354" lon="5.432800194248557">
        <ele>180.3</ele>
        <time>2025-02-13T20:18:39.203Z</time>
      </trkpt>
      <trkpt lat="50.30162014067173" lon="5.433103619143367">
        <ele>179.82</ele>
        <time>2025-02-13T20:18:51.583Z</time>
      </trkpt>
      <trkpt lat="50.301372623071074" lon="5.4334070440381765">
        <ele>179.28</ele>
        <time>2025-02-13T20:19:03.968Z</time>
      </trkpt>
      <trkpt lat="50.30112518928945" lon="5.433710468932986">
        <ele>178.77</ele>
        <time>2025-02-13T20:19:16.358Z</time>
      </trkpt>
      <trkpt lat="50.30087775550783" lon="5.434013893827796">
        <ele>178.32</ele>
        <time>2025-02-13T20:19:28.753Z</time>
      </trkpt>
      <trkpt lat="50.3006303217262" lon="5.434317318722606">
        <ele>177.87</ele>
        <time>2025-02-13T20:19:41.153Z</time>
      </trkpt>
      <trkpt lat="50.30038280412555" lon="5.434620743617415">
        <ele>177.34</ele>
        <time>2025-02-13T20:19:53.558Z</time>
      </trkpt>
      <trkpt lat="50.300135370343924" lon="5.434924168512225">
        <ele>176.79</ele>
        <time>2025-02-13T20:20:05.968Z</time>
      </trkpt>
      <trkpt lat="50.2998879365623" lon="5.435227593407035">
        <ele>176.32</ele>
        <time>2025-02-13T20:20:18.383Z</time>
      </trkpt>
      <trkpt lat="50.29977997764945" lon="5.4353599436581135">
        <ele>176.05</ele>
        <time>2025-02-13T20:20:30.801Z</time>
      </trkpt>
      <trkpt lat="50.299531957134604" lon="5.435662278905511">
        <ele>175.87</ele>
        <time>2025-02-13T20:20:43.224Z</time>
      </trkpt>
      <trkpt lat="50.29928393661976" lon="5.435964530333877">
        <ele>175.73</ele>
        <time>2025-02-13T20:20:55.652Z</time>
      </trkpt>
      <trkpt lat="50.29903591610491" lon="5.436266865581274">
        <ele>175.53</ele>
        <time>2025-02-13T20:21:08.085Z</time>
      </trkpt>
      <trkpt lat="50.29878789559007" lon="5.4365692008286715">
        <ele>175.45</ele>
        <time>2025-02-13T20:21:20.523Z</time>
      </trkpt>
      <trkpt lat="50.29853987507522" lon="5.436871452257037">
        <ele>175.39</ele>
        <time>2025-02-13T20:21:32.966Z</time>
      </trkpt>
      <trkpt lat="50.29829193837941" lon="5.437173787504435">
        <ele>175.35</ele>
        <time>2025-02-13T20:21:45.414Z</time>
      </trkpt>
      <trkpt lat="50.29808993451297" lon="5.437419964000583">
        <ele>175.26</ele>
        <time>2025-02-13T20:21:57.866Z</time>
      </trkpt>
      <trkpt lat="50.29784635640681" lon="5.437730932608247">
        <ele>175.24</ele>
        <time>2025-02-13T20:22:10.323Z</time>
      </trkpt>
      <trkpt lat="50.297619961202145" lon="5.4380199406296015">
        <ele>175.22</ele>
        <time>2025-02-13T20:22:22.785Z</time>
      </trkpt>
      <trkpt lat="50.29737311415374" lon="5.438324622809887">
        <ele>175.22</ele>
        <time>2025-02-13T20:22:35.252Z</time>
      </trkpt>
      <trkpt lat="50.29712635092437" lon="5.438629304990172">
        <ele>175.17</ele>
        <time>2025-02-13T20:22:47.724Z</time>
      </trkpt>
      <trkpt lat="50.296879587695" lon="5.4389340709894896">
        <ele>175.07</ele>
        <time>2025-02-13T20:23:00.201Z</time>
      </trkpt>
      <trkpt lat="50.29680993407965" lon="5.439019985496998">
        <ele>175.01</ele>
        <time>2025-02-13T20:23:12.679Z</time>
      </trkpt>
      <trkpt lat="50.29656266793609" lon="5.439323661848903">
        <ele>175.03</ele>
        <time>2025-02-13T20:23:25.162Z</time>
      </trkpt>
      <trkpt lat="50.296315317973495" lon="5.439627338200808">
        <ele>175.1</ele>
        <time>2025-02-13T20:23:37.650Z</time>
      </trkpt>
      <trkpt lat="50.29623996466398" lon="5.439719958230853">
        <ele>175.11</ele>
        <time>2025-02-13T20:23:50.140Z</time>
      </trkpt>
      <trkpt lat="50.29598758555949" lon="5.440013408660889">
        <ele>175.14</ele>
        <time>2025-02-13T20:24:02.635Z</time>
      </trkpt>
      <trkpt lat="50.29580997303128" lon="5.440219938755035">
        <ele>175.1</ele>
        <time>2025-02-13T20:24:15.133Z</time>
      </trkpt>
      <trkpt lat="50.29555147513747" lon="5.4404999781399965">
        <ele>175.05</ele>
        <time>2025-02-13T20:24:27.636Z</time>
      </trkpt>
      <trkpt lat="50.295449970290065" lon="5.440609948709607">
        <ele>175.08</ele>
        <time>2025-02-13T20:24:40.141Z</time>
      </trkpt>
      <trkpt lat="50.295169511809945" lon="5.440832655876875">
        <ele>175.09</ele>
        <time>2025-02-13T20:24:52.651Z</time>
      </trkpt>
      <trkpt lat="50.295109916478395" lon="5.440879929810762">
        <ele>175.12</ele>
        <time>2025-02-13T20:25:05.162Z</time>
      </trkpt>
      <trkpt lat="50.294816214591265" lon="5.44105620123446">
        <ele>175.11</ele>
        <time>2025-02-13T20:25:17.679Z</time>
      </trkpt>
      <trkpt lat="50.294809928163886" lon="5.441059973090887">
        <ele>175.14</ele>
        <time>2025-02-13T20:25:30.196Z</time>
      </trkpt>
      <trkpt lat="50.29463994316757" lon="5.441129961982369">
        <ele>175.17</ele>
        <time>2025-02-13T20:25:42.715Z</time>
      </trkpt>
      <trkpt lat="50.29433123767376" lon="5.441224928945303">
        <ele>175.23</ele>
        <time>2025-02-13T20:25:55.239Z</time>
      </trkpt>
      <trkpt lat="50.294249933212996" lon="5.441249990835786">
        <ele>175.25</ele>
        <time>2025-02-13T20:26:07.765Z</time>
      </trkpt>
      <trkpt lat="50.29394097626209" lon="5.441342694684863">
        <ele>175.25</ele>
        <time>2025-02-13T20:26:20.296Z</time>
      </trkpt>
      <trkpt lat="50.29364995658398" lon="5.441429950296879">
        <ele>175.28</ele>
        <time>2025-02-13T20:26:32.832Z</time>
      </trkpt>
      <trkpt lat="50.29333848506212" lon="5.441499184817076">
        <ele>175.29</ele>
        <time>2025-02-13T20:26:45.373Z</time>
      </trkpt>
      <trkpt lat="50.293109994381666" lon="5.441549979150295">
        <ele>175.34</ele>
        <time>2025-02-13T20:26:57.917Z</time>
      </trkpt>
      <trkpt lat="50.2927974332124" lon="5.441606640815735">
        <ele>175.37</ele>
        <time>2025-02-13T20:27:10.466Z</time>
      </trkpt>
      <trkpt lat="50.29248487204313" lon="5.441663218662143">
        <ele>175.45</ele>
        <time>2025-02-13T20:27:23.020Z</time>
      </trkpt>
      <trkpt lat="50.292172310873866" lon="5.441719880327582">
        <ele>175.4</ele>
        <time>2025-02-13T20:27:35.579Z</time>
      </trkpt>
      <trkpt lat="50.2918597497046" lon="5.441776541993022">
        <ele>175.38</ele>
        <time>2025-02-13T20:27:48.144Z</time>
      </trkpt>
      <trkpt lat="50.29154718853533" lon="5.441833203658462">
        <ele>175.39</ele>
        <time>2025-02-13T20:28:00.714Z</time>
      </trkpt>
      <trkpt lat="50.291234627366066" lon="5.441889865323901">
        <ele>175.29</ele>
        <time>2025-02-13T20:28:13.289Z</time>
      </trkpt>
      <trkpt lat="50.2909220661968" lon="5.441946526989341">
        <ele>175.23</ele>
        <time>2025-02-13T20:28:25.869Z</time>
      </trkpt>
      <trkpt lat="50.290609588846564" lon="5.44200318865478">
        <ele>175.17</ele>
        <time>2025-02-13T20:28:38.454Z</time>
      </trkpt>
      <trkpt lat="50.2902970276773" lon="5.442059766501188">
        <ele>175.18</ele>
        <time>2025-02-13T20:28:51.044Z</time>
      </trkpt>
      <trkpt lat="50.28998446650803" lon="5.442116428166628">
        <ele>175.14</ele>
        <time>2025-02-13T20:29:03.639Z</time>
      </trkpt>
      <trkpt lat="50.289909951388836" lon="5.442129923030734">
        <ele>175.0</ele>
        <time>2025-02-13T20:29:16.235Z</time>
      </trkpt>
      <trkpt lat="50.289598228409886" lon="5.442196307703853">
        <ele>174.85</ele>
        <time>2025-02-13T20:29:28.836Z</time>
      </trkpt>
      <trkpt lat="50.28943997807801" lon="5.4422299191355705">
        <ele>174.66</ele>
        <time>2025-02-13T20:29:41.440Z</time>
      </trkpt>
      <trkpt lat="50.28912540525198" lon="5.442217597737908">
        <ele>174.36</ele>
        <time>2025-02-13T20:29:54.049Z</time>
      </trkpt>
      <trkpt lat="50.28892993927002" lon="5.442209970206022">
        <ele>173.99</ele>
        <time>2025-02-13T20:30:06.661Z</time>
      </trkpt>
      <trkpt lat="50.28883991762996" lon="5.442179962992668">
        <ele>173.64</ele>
        <time>2025-02-13T20:30:19.274Z</time>
      </trkpt>
      <trkpt lat="50.28852693736553" lon="5.442130509763956">
        <ele>173.16</ele>
        <time>2025-02-13T20:30:31.892Z</time>
      </trkpt>
      <trkpt lat="50.28845996595919" lon="5.44211994856596">
        <ele>172.92</ele>
        <time>2025-02-13T20:30:44.511Z</time>
      </trkpt>
      <trkpt lat="50.288149835541844" lon="5.442036800086498">
        <ele>172.68</ele>
        <time>2025-02-13T20:30:57.135Z</time>
      </trkpt>
      <trkpt lat="50.28804992325604" lon="5.442009977996349">
        <ele>172.58</ele>
        <time>2025-02-13T20:31:09.761Z</time>
      </trkpt>
      <trkpt lat="50.28787993825972" lon="5.441959938034415">
        <ele>172.52</ele>
        <time>2025-02-13T20:31:22.390Z</time>
      </trkpt>
      <trkpt lat="50.28756972402334" lon="5.4418777115643024">
        <ele>172.52</ele>
        <time>2025-02-13T20:31:35.024Z</time>
      </trkpt>
      <trkpt lat="50.28725950978696" lon="5.44179548509419">
        <ele>172.56</ele>
        <time>2025-02-13T20:31:47.663Z</time>
      </trkpt>
      <trkpt lat="50.286949295550585" lon="5.441713258624077">
        <ele>172.52</ele>
        <time>2025-02-13T20:32:00.307Z</time>
      </trkpt>
      <trkpt lat="50.286639081314206" lon="5.441631032153964">
        <ele>172.48</ele>
        <time>2025-02-13T20:32:12.956Z</time>
      </trkpt>
      <trkpt lat="50.28632895089686" lon="5.441548805683851">
        <ele>172.44</ele>
        <time>2025-02-13T20:32:25.610Z</time>
      </trkpt>
      <trkpt lat="50.28621998615563" lon="5.441519971936941">
        <ele>172.46</ele>
        <time>2025-02-13T20:32:38.266Z</time>
      </trkpt>
      <trkpt lat="50.285924188792706" lon="5.44135233387351">
        <ele>172.5</ele>
        <time>2025-02-13T20:32:50.927Z</time>
      </trkpt>
      <trkpt lat="50.28591999784112" lon="5.441349986940622">
        <ele>172.5</ele>
        <time>2025-02-13T20:33:03.588Z</time>
      </trkpt>
      <trkpt lat="50.28564406558871" lon="5.441113784909248">
        <ele>172.51</ele>
        <time>2025-02-13T20:33:16.254Z</time>
      </trkpt>
      <trkpt lat="50.28536821715534" lon="5.440877582877874">
        <ele>172.52</ele>
        <time>2025-02-13T20:33:28.925Z</time>
      </trkpt>
      <trkpt lat="50.28509236872196" lon="5.4406413808465">
        <ele>172.56</ele>
        <time>2025-02-13T20:33:41.601Z</time>
      </trkpt>
      <trkpt lat="50.28481652028859" lon="5.440405094996095">
        <ele>172.53</ele>
        <time>2025-02-13T20:33:54.282Z</time>
      </trkpt>
      <trkpt lat="50.28454067185521" lon="5.440168892964721">
        <ele>172.43</ele>
        <time>2025-02-13T20:34:06.968Z</time>
      </trkpt>
      <trkpt lat="50.284319976344705" lon="5.439979964867234">
        <ele>172.32</ele>
        <time>2025-02-13T20:34:19.658Z</time>
      </trkpt>
      <trkpt lat="50.284043373540044" lon="5.439745942130685">
        <ele>172.27</ele>
        <time>2025-02-13T20:34:32.353Z</time>
      </trkpt>
      <trkpt lat="50.28376677073538" lon="5.439511835575104">
        <ele>172.29</ele>
        <time>2025-02-13T20:34:45.053Z</time>
      </trkpt>
      <trkpt lat="50.28353995643556" lon="5.439319973811507">
        <ele>172.3</ele>
        <time>2025-02-13T20:34:57.757Z</time>
      </trkpt>
    </trkseg>
  </trk>
</gpx>
